<?xml version="1.0" encoding="UTF-8" standalone="no" ?>
<gpx xmlns="http://www.topografix.com/GPX/1/1" xmlns:xsi="http://www.w3.org/2001/XMLSchema-instance" xsi:schemaLocation="http://www.topografix.com/GPX/1/1 http://www.topografix.com/GPX/1/1/gpx.xsd" version="1.1" creator="VisuGPX - https://www.visugpx.com">
  <metadata>
    <name>sortie Sorèze 36 Km</name>
    <desc><![CDATA[Sortie autour de Sorèze 36 Km 1055 D+. Très belle rando.]]></desc>
  </metadata>
  <trk>
    <name><![CDATA[Sorèze - Montalric - Arfons - Cammazes]]></name>
    <trkseg>
      <trkpt lat="43.45333" lon="2.07149">
        <ele>287.20001220703</ele>
        <time>2019-03-09T07:20:09.000Z</time>
      </trkpt>
      <trkpt lat="43.45345" lon="2.07134">
        <ele>286.20001220703</ele>
        <time>2019-03-09T07:20:13.000Z</time>
      </trkpt>
      <trkpt lat="43.45352" lon="2.07145">
        <ele>286.39999389648</ele>
        <time>2019-03-09T07:20:16.000Z</time>
      </trkpt>
      <trkpt lat="43.45354" lon="2.07149">
        <ele>286.39999389648</ele>
        <time>2019-03-09T07:20:17.000Z</time>
      </trkpt>
      <trkpt lat="43.45374" lon="2.07179">
        <ele>287.20001220703</ele>
        <time>2019-03-09T07:20:25.000Z</time>
      </trkpt>
      <trkpt lat="43.45388" lon="2.07203">
        <ele>287.60000610352</ele>
        <time>2019-03-09T07:20:32.000Z</time>
      </trkpt>
      <trkpt lat="43.45394" lon="2.07214">
        <ele>287.79998779297</ele>
        <time>2019-03-09T07:20:35.000Z</time>
      </trkpt>
      <trkpt lat="43.45396" lon="2.07221">
        <ele>288</ele>
        <time>2019-03-09T07:20:37.000Z</time>
      </trkpt>
      <trkpt lat="43.4541" lon="2.0724">
        <ele>288.20001220703</ele>
        <time>2019-03-09T07:20:43.000Z</time>
      </trkpt>
      <trkpt lat="43.45422" lon="2.07261">
        <ele>289.20001220703</ele>
        <time>2019-03-09T07:20:49.000Z</time>
      </trkpt>
      <trkpt lat="43.45426" lon="2.07267">
        <ele>289.60000610352</ele>
        <time>2019-03-09T07:20:51.000Z</time>
      </trkpt>
      <trkpt lat="43.45436" lon="2.07285">
        <ele>290.39999389648</ele>
        <time>2019-03-09T07:20:56.000Z</time>
      </trkpt>
      <trkpt lat="43.45445" lon="2.07297">
        <ele>291</ele>
        <time>2019-03-09T07:21:00.000Z</time>
      </trkpt>
      <trkpt lat="43.45452" lon="2.07306">
        <ele>291.60000610352</ele>
        <time>2019-03-09T07:21:03.000Z</time>
      </trkpt>
      <trkpt lat="43.45464" lon="2.07322">
        <ele>292.39999389648</ele>
        <time>2019-03-09T07:21:08.000Z</time>
      </trkpt>
      <trkpt lat="43.45475" lon="2.07336">
        <ele>293</ele>
        <time>2019-03-09T07:21:13.000Z</time>
      </trkpt>
      <trkpt lat="43.45478" lon="2.0734">
        <ele>293.20001220703</ele>
        <time>2019-03-09T07:21:14.000Z</time>
      </trkpt>
      <trkpt lat="43.45498" lon="2.07368">
        <ele>294.20001220703</ele>
        <time>2019-03-09T07:21:22.000Z</time>
      </trkpt>
      <trkpt lat="43.455" lon="2.07371">
        <ele>294.39999389648</ele>
        <time>2019-03-09T07:21:23.000Z</time>
      </trkpt>
      <trkpt lat="43.45516" lon="2.07392">
        <ele>295.20001220703</ele>
        <time>2019-03-09T07:21:29.000Z</time>
      </trkpt>
      <trkpt lat="43.45529" lon="2.07411">
        <ele>295.79998779297</ele>
        <time>2019-03-09T07:21:34.000Z</time>
      </trkpt>
      <trkpt lat="43.45537" lon="2.07421">
        <ele>296</ele>
        <time>2019-03-09T07:21:37.000Z</time>
      </trkpt>
      <trkpt lat="43.45556" lon="2.07447">
        <ele>296.79998779297</ele>
        <time>2019-03-09T07:21:45.000Z</time>
      </trkpt>
      <trkpt lat="43.45571" lon="2.07466">
        <ele>297.39999389648</ele>
        <time>2019-03-09T07:21:51.000Z</time>
      </trkpt>
      <trkpt lat="43.45576" lon="2.07472">
        <ele>297.60000610352</ele>
        <time>2019-03-09T07:21:53.000Z</time>
      </trkpt>
      <trkpt lat="43.4559" lon="2.07491">
        <ele>298</ele>
        <time>2019-03-09T07:21:59.000Z</time>
      </trkpt>
      <trkpt lat="43.45601" lon="2.07504">
        <ele>298.60000610352</ele>
        <time>2019-03-09T07:22:03.000Z</time>
      </trkpt>
      <trkpt lat="43.45609" lon="2.07514">
        <ele>299</ele>
        <time>2019-03-09T07:22:06.000Z</time>
      </trkpt>
      <trkpt lat="43.45621" lon="2.07531">
        <ele>299.39999389648</ele>
        <time>2019-03-09T07:22:11.000Z</time>
      </trkpt>
      <trkpt lat="43.45626" lon="2.07537">
        <ele>299.60000610352</ele>
        <time>2019-03-09T07:22:13.000Z</time>
      </trkpt>
      <trkpt lat="43.4564" lon="2.07556">
        <ele>300.39999389648</ele>
        <time>2019-03-09T07:22:19.000Z</time>
      </trkpt>
      <trkpt lat="43.45645" lon="2.07562">
        <ele>300.39999389648</ele>
        <time>2019-03-09T07:22:21.000Z</time>
      </trkpt>
      <trkpt lat="43.45664" lon="2.07583">
        <ele>301</ele>
        <time>2019-03-09T07:22:28.000Z</time>
      </trkpt>
      <trkpt lat="43.45678" lon="2.07601">
        <ele>301.39999389648</ele>
        <time>2019-03-09T07:22:33.000Z</time>
      </trkpt>
      <trkpt lat="43.45685" lon="2.07611">
        <ele>301.60000610352</ele>
        <time>2019-03-09T07:22:36.000Z</time>
      </trkpt>
      <trkpt lat="43.45708" lon="2.07638">
        <ele>302</ele>
        <time>2019-03-09T07:22:44.000Z</time>
      </trkpt>
      <trkpt lat="43.45714" lon="2.07645">
        <ele>302.20001220703</ele>
        <time>2019-03-09T07:22:46.000Z</time>
      </trkpt>
      <trkpt lat="43.45729" lon="2.07661">
        <ele>302.39999389648</ele>
        <time>2019-03-09T07:22:51.000Z</time>
      </trkpt>
      <trkpt lat="43.45753" lon="2.07691">
        <ele>302.60000610352</ele>
        <time>2019-03-09T07:23:00.000Z</time>
      </trkpt>
      <trkpt lat="43.45773" lon="2.07716">
        <ele>302.60000610352</ele>
        <time>2019-03-09T07:23:07.000Z</time>
      </trkpt>
      <trkpt lat="43.45794" lon="2.0774">
        <ele>301.79998779297</ele>
        <time>2019-03-09T07:23:14.000Z</time>
      </trkpt>
      <trkpt lat="43.45802" lon="2.07747">
        <ele>301.39999389648</ele>
        <time>2019-03-09T07:23:16.000Z</time>
      </trkpt>
      <trkpt lat="43.45816" lon="2.07763">
        <ele>300.60000610352</ele>
        <time>2019-03-09T07:23:20.000Z</time>
      </trkpt>
      <trkpt lat="43.45816" lon="2.07771">
        <ele>300.79998779297</ele>
        <time>2019-03-09T07:23:21.000Z</time>
      </trkpt>
      <trkpt lat="43.45816" lon="2.07784">
        <ele>301</ele>
        <time>2019-03-09T07:23:23.000Z</time>
      </trkpt>
      <trkpt lat="43.45815" lon="2.07791">
        <ele>301</ele>
        <time>2019-03-09T07:23:24.000Z</time>
      </trkpt>
      <trkpt lat="43.45814" lon="2.07797">
        <ele>301.20001220703</ele>
        <time>2019-03-09T07:23:25.000Z</time>
      </trkpt>
      <trkpt lat="43.4581" lon="2.07827">
        <ele>301.79998779297</ele>
        <time>2019-03-09T07:23:30.000Z</time>
      </trkpt>
      <trkpt lat="43.45805" lon="2.07873">
        <ele>302.20001220703</ele>
        <time>2019-03-09T07:23:38.000Z</time>
      </trkpt>
      <trkpt lat="43.45804" lon="2.07878">
        <ele>302.39999389648</ele>
        <time>2019-03-09T07:23:39.000Z</time>
      </trkpt>
      <trkpt lat="43.458" lon="2.07922">
        <ele>303.39999389648</ele>
        <time>2019-03-09T07:23:47.000Z</time>
      </trkpt>
      <trkpt lat="43.45799" lon="2.07927">
        <ele>303.39999389648</ele>
        <time>2019-03-09T07:23:48.000Z</time>
      </trkpt>
      <trkpt lat="43.45797" lon="2.07944">
        <ele>303.79998779297</ele>
        <time>2019-03-09T07:23:51.000Z</time>
      </trkpt>
      <trkpt lat="43.45792" lon="2.07967">
        <ele>303.79998779297</ele>
        <time>2019-03-09T07:23:55.000Z</time>
      </trkpt>
      <trkpt lat="43.4579" lon="2.07978">
        <ele>303.79998779297</ele>
        <time>2019-03-09T07:23:57.000Z</time>
      </trkpt>
      <trkpt lat="43.45786" lon="2.08001">
        <ele>303.79998779297</ele>
        <time>2019-03-09T07:24:01.000Z</time>
      </trkpt>
      <trkpt lat="43.45778" lon="2.08044">
        <ele>304.39999389648</ele>
        <time>2019-03-09T07:24:08.000Z</time>
      </trkpt>
      <trkpt lat="43.45772" lon="2.08076">
        <ele>304.79998779297</ele>
        <time>2019-03-09T07:24:14.000Z</time>
      </trkpt>
      <trkpt lat="43.4577" lon="2.0808">
        <ele>305</ele>
        <time>2019-03-09T07:24:15.000Z</time>
      </trkpt>
      <trkpt lat="43.45769" lon="2.08085">
        <ele>305.20001220703</ele>
        <time>2019-03-09T07:24:16.000Z</time>
      </trkpt>
      <trkpt lat="43.45766" lon="2.08103">
        <ele>306.20001220703</ele>
        <time>2019-03-09T07:24:20.000Z</time>
      </trkpt>
      <trkpt lat="43.45763" lon="2.08121">
        <ele>307.39999389648</ele>
        <time>2019-03-09T07:24:25.000Z</time>
      </trkpt>
      <trkpt lat="43.45759" lon="2.0814">
        <ele>308.39999389648</ele>
        <time>2019-03-09T07:24:30.000Z</time>
      </trkpt>
      <trkpt lat="43.45757" lon="2.0815">
        <ele>309</ele>
        <time>2019-03-09T07:24:33.000Z</time>
      </trkpt>
      <trkpt lat="43.45757" lon="2.08153">
        <ele>309.20001220703</ele>
        <time>2019-03-09T07:24:34.000Z</time>
      </trkpt>
      <trkpt lat="43.45755" lon="2.08162">
        <ele>309.60000610352</ele>
        <time>2019-03-09T07:24:37.000Z</time>
      </trkpt>
      <trkpt lat="43.45752" lon="2.08175">
        <ele>310.79998779297</ele>
        <time>2019-03-09T07:24:41.000Z</time>
      </trkpt>
      <trkpt lat="43.45752" lon="2.08178">
        <ele>311</ele>
        <time>2019-03-09T07:24:42.000Z</time>
      </trkpt>
      <trkpt lat="43.45749" lon="2.08195">
        <ele>312.60000610352</ele>
        <time>2019-03-09T07:24:47.000Z</time>
      </trkpt>
      <trkpt lat="43.45748" lon="2.08201">
        <ele>313.20001220703</ele>
        <time>2019-03-09T07:24:49.000Z</time>
      </trkpt>
      <trkpt lat="43.45746" lon="2.08211">
        <ele>314</ele>
        <time>2019-03-09T07:24:52.000Z</time>
      </trkpt>
      <trkpt lat="43.45744" lon="2.08226">
        <ele>315.20001220703</ele>
        <time>2019-03-09T07:24:57.000Z</time>
      </trkpt>
      <trkpt lat="43.45743" lon="2.08229">
        <ele>315.60000610352</ele>
        <time>2019-03-09T07:24:58.000Z</time>
      </trkpt>
      <trkpt lat="43.45742" lon="2.08238">
        <ele>316.20001220703</ele>
        <time>2019-03-09T07:25:01.000Z</time>
      </trkpt>
      <trkpt lat="43.4574" lon="2.08253">
        <ele>317.39999389648</ele>
        <time>2019-03-09T07:25:06.000Z</time>
      </trkpt>
      <trkpt lat="43.45736" lon="2.08271">
        <ele>318.79998779297</ele>
        <time>2019-03-09T07:25:12.000Z</time>
      </trkpt>
      <trkpt lat="43.45731" lon="2.08292">
        <ele>320.39999389648</ele>
        <time>2019-03-09T07:25:18.000Z</time>
      </trkpt>
      <trkpt lat="43.45727" lon="2.08302">
        <ele>321.20001220703</ele>
        <time>2019-03-09T07:25:21.000Z</time>
      </trkpt>
      <trkpt lat="43.45723" lon="2.08307">
        <ele>321.60000610352</ele>
        <time>2019-03-09T07:25:23.000Z</time>
      </trkpt>
      <trkpt lat="43.45713" lon="2.08323">
        <ele>323</ele>
        <time>2019-03-09T07:25:29.000Z</time>
      </trkpt>
      <trkpt lat="43.45702" lon="2.08336">
        <ele>324.20001220703</ele>
        <time>2019-03-09T07:25:35.000Z</time>
      </trkpt>
      <trkpt lat="43.45696" lon="2.08343">
        <ele>324.60000610352</ele>
        <time>2019-03-09T07:25:38.000Z</time>
      </trkpt>
      <trkpt lat="43.4569" lon="2.0835">
        <ele>325.20001220703</ele>
        <time>2019-03-09T07:25:41.000Z</time>
      </trkpt>
      <trkpt lat="43.45681" lon="2.0836">
        <ele>326</ele>
        <time>2019-03-09T07:25:46.000Z</time>
      </trkpt>
      <trkpt lat="43.45679" lon="2.08362">
        <ele>326.20001220703</ele>
        <time>2019-03-09T07:25:47.000Z</time>
      </trkpt>
      <trkpt lat="43.45668" lon="2.08374">
        <ele>327.20001220703</ele>
        <time>2019-03-09T07:25:53.000Z</time>
      </trkpt>
      <trkpt lat="43.45667" lon="2.08376">
        <ele>327.39999389648</ele>
        <time>2019-03-09T07:25:54.000Z</time>
      </trkpt>
      <trkpt lat="43.45657" lon="2.08387">
        <ele>328.39999389648</ele>
        <time>2019-03-09T07:26:00.000Z</time>
      </trkpt>
      <trkpt lat="43.45647" lon="2.08399">
        <ele>329.60000610352</ele>
        <time>2019-03-09T07:26:06.000Z</time>
      </trkpt>
      <trkpt lat="43.45644" lon="2.08403">
        <ele>330</ele>
        <time>2019-03-09T07:26:08.000Z</time>
      </trkpt>
      <trkpt lat="43.45638" lon="2.08408">
        <ele>330.39999389648</ele>
        <time>2019-03-09T07:26:11.000Z</time>
      </trkpt>
      <trkpt lat="43.45637" lon="2.08413">
        <ele>330.60000610352</ele>
        <time>2019-03-09T07:26:13.000Z</time>
      </trkpt>
      <trkpt lat="43.45638" lon="2.0842">
        <ele>330.79998779297</ele>
        <time>2019-03-09T07:26:16.000Z</time>
      </trkpt>
      <trkpt lat="43.4564" lon="2.08422">
        <ele>330.60000610352</ele>
        <time>2019-03-09T07:26:17.000Z</time>
      </trkpt>
      <trkpt lat="43.45649" lon="2.08434">
        <ele>330.60000610352</ele>
        <time>2019-03-09T07:26:22.000Z</time>
      </trkpt>
      <trkpt lat="43.45668" lon="2.08459">
        <ele>330.20001220703</ele>
        <time>2019-03-09T07:26:29.000Z</time>
      </trkpt>
      <trkpt lat="43.45682" lon="2.08478">
        <ele>329.79998779297</ele>
        <time>2019-03-09T07:26:33.000Z</time>
      </trkpt>
      <trkpt lat="43.45691" lon="2.08487">
        <ele>329.20001220703</ele>
        <time>2019-03-09T07:26:35.000Z</time>
      </trkpt>
      <trkpt lat="43.45701" lon="2.08495">
        <ele>328.20001220703</ele>
        <time>2019-03-09T07:26:37.000Z</time>
      </trkpt>
      <trkpt lat="43.45707" lon="2.085">
        <ele>328</ele>
        <time>2019-03-09T07:26:38.000Z</time>
      </trkpt>
      <trkpt lat="43.45718" lon="2.08508">
        <ele>327.20001220703</ele>
        <time>2019-03-09T07:26:40.000Z</time>
      </trkpt>
      <trkpt lat="43.45729" lon="2.08516">
        <ele>326.39999389648</ele>
        <time>2019-03-09T07:26:42.000Z</time>
      </trkpt>
      <trkpt lat="43.45734" lon="2.0852">
        <ele>326</ele>
        <time>2019-03-09T07:26:43.000Z</time>
      </trkpt>
      <trkpt lat="43.45739" lon="2.08538">
        <ele>326.20001220703</ele>
        <time>2019-03-09T07:26:46.000Z</time>
      </trkpt>
      <trkpt lat="43.45736" lon="2.08561">
        <ele>327.39999389648</ele>
        <time>2019-03-09T07:26:50.000Z</time>
      </trkpt>
      <trkpt lat="43.45735" lon="2.08572">
        <ele>327.79998779297</ele>
        <time>2019-03-09T07:26:52.000Z</time>
      </trkpt>
      <trkpt lat="43.45735" lon="2.08614">
        <ele>328.39999389648</ele>
        <time>2019-03-09T07:26:59.000Z</time>
      </trkpt>
      <trkpt lat="43.45734" lon="2.08637">
        <ele>329.20001220703</ele>
        <time>2019-03-09T07:27:03.000Z</time>
      </trkpt>
      <trkpt lat="43.45732" lon="2.08647">
        <ele>330</ele>
        <time>2019-03-09T07:27:05.000Z</time>
      </trkpt>
      <trkpt lat="43.45728" lon="2.08668">
        <ele>331.60000610352</ele>
        <time>2019-03-09T07:27:09.000Z</time>
      </trkpt>
      <trkpt lat="43.45724" lon="2.08694">
        <ele>332.39999389648</ele>
        <time>2019-03-09T07:27:14.000Z</time>
      </trkpt>
      <trkpt lat="43.45722" lon="2.08719">
        <ele>333.39999389648</ele>
        <time>2019-03-09T07:27:19.000Z</time>
      </trkpt>
      <trkpt lat="43.45722" lon="2.0874">
        <ele>334.39999389648</ele>
        <time>2019-03-09T07:27:23.000Z</time>
      </trkpt>
      <trkpt lat="43.45723" lon="2.08746">
        <ele>334.39999389648</ele>
        <time>2019-03-09T07:27:24.000Z</time>
      </trkpt>
      <trkpt lat="43.45724" lon="2.08751">
        <ele>334.39999389648</ele>
        <time>2019-03-09T07:27:25.000Z</time>
      </trkpt>
      <trkpt lat="43.45726" lon="2.08757">
        <ele>334.39999389648</ele>
        <time>2019-03-09T07:27:26.000Z</time>
      </trkpt>
      <trkpt lat="43.45738" lon="2.08777">
        <ele>333.39999389648</ele>
        <time>2019-03-09T07:27:30.000Z</time>
      </trkpt>
      <trkpt lat="43.45761" lon="2.08805">
        <ele>330.79998779297</ele>
        <time>2019-03-09T07:27:37.000Z</time>
      </trkpt>
      <trkpt lat="43.45775" lon="2.08822">
        <ele>330</ele>
        <time>2019-03-09T07:27:43.000Z</time>
      </trkpt>
      <trkpt lat="43.45777" lon="2.08824">
        <ele>329.79998779297</ele>
        <time>2019-03-09T07:27:44.000Z</time>
      </trkpt>
      <trkpt lat="43.45785" lon="2.08835">
        <ele>329.39999389648</ele>
        <time>2019-03-09T07:27:48.000Z</time>
      </trkpt>
      <trkpt lat="43.45786" lon="2.08842">
        <ele>329.39999389648</ele>
        <time>2019-03-09T07:27:50.000Z</time>
      </trkpt>
      <trkpt lat="43.45786" lon="2.08849">
        <ele>329.60000610352</ele>
        <time>2019-03-09T07:27:52.000Z</time>
      </trkpt>
      <trkpt lat="43.45783" lon="2.08858">
        <ele>330.79998779297</ele>
        <time>2019-03-09T07:27:55.000Z</time>
      </trkpt>
      <trkpt lat="43.4578" lon="2.0887">
        <ele>332.20001220703</ele>
        <time>2019-03-09T07:27:59.000Z</time>
      </trkpt>
      <trkpt lat="43.45777" lon="2.0888">
        <ele>333.20001220703</ele>
        <time>2019-03-09T07:28:02.000Z</time>
      </trkpt>
      <trkpt lat="43.45775" lon="2.08886">
        <ele>334</ele>
        <time>2019-03-09T07:28:04.000Z</time>
      </trkpt>
      <trkpt lat="43.4577" lon="2.08899">
        <ele>335.60000610352</ele>
        <time>2019-03-09T07:28:09.000Z</time>
      </trkpt>
      <trkpt lat="43.45769" lon="2.08902">
        <ele>336</ele>
        <time>2019-03-09T07:28:10.000Z</time>
      </trkpt>
      <trkpt lat="43.45765" lon="2.0891">
        <ele>337</ele>
        <time>2019-03-09T07:28:13.000Z</time>
      </trkpt>
      <trkpt lat="43.45761" lon="2.08918">
        <ele>337.79998779297</ele>
        <time>2019-03-09T07:28:16.000Z</time>
      </trkpt>
      <trkpt lat="43.45756" lon="2.08928">
        <ele>338.79998779297</ele>
        <time>2019-03-09T07:28:20.000Z</time>
      </trkpt>
      <trkpt lat="43.45754" lon="2.08936">
        <ele>339.39999389648</ele>
        <time>2019-03-09T07:28:23.000Z</time>
      </trkpt>
      <trkpt lat="43.4575" lon="2.08947">
        <ele>340.39999389648</ele>
        <time>2019-03-09T07:28:27.000Z</time>
      </trkpt>
      <trkpt lat="43.45747" lon="2.08959">
        <ele>341.39999389648</ele>
        <time>2019-03-09T07:28:32.000Z</time>
      </trkpt>
      <trkpt lat="43.45746" lon="2.08961">
        <ele>341.60000610352</ele>
        <time>2019-03-09T07:28:33.000Z</time>
      </trkpt>
      <trkpt lat="43.45743" lon="2.08973">
        <ele>342.39999389648</ele>
        <time>2019-03-09T07:28:38.000Z</time>
      </trkpt>
      <trkpt lat="43.45742" lon="2.0898">
        <ele>342.60000610352</ele>
        <time>2019-03-09T07:28:41.000Z</time>
      </trkpt>
      <trkpt lat="43.4574" lon="2.08989">
        <ele>342.79998779297</ele>
        <time>2019-03-09T07:28:45.000Z</time>
      </trkpt>
      <trkpt lat="43.45739" lon="2.08996">
        <ele>343</ele>
        <time>2019-03-09T07:28:48.000Z</time>
      </trkpt>
      <trkpt lat="43.45737" lon="2.09002">
        <ele>343.39999389648</ele>
        <time>2019-03-09T07:28:51.000Z</time>
      </trkpt>
      <trkpt lat="43.45734" lon="2.09011">
        <ele>344</ele>
        <time>2019-03-09T07:28:55.000Z</time>
      </trkpt>
      <trkpt lat="43.45732" lon="2.09018">
        <ele>344.39999389648</ele>
        <time>2019-03-09T07:28:58.000Z</time>
      </trkpt>
      <trkpt lat="43.45729" lon="2.0903">
        <ele>345</ele>
        <time>2019-03-09T07:29:03.000Z</time>
      </trkpt>
      <trkpt lat="43.45729" lon="2.09032">
        <ele>345.20001220703</ele>
        <time>2019-03-09T07:29:04.000Z</time>
      </trkpt>
      <trkpt lat="43.45726" lon="2.09043">
        <ele>346.20001220703</ele>
        <time>2019-03-09T07:29:09.000Z</time>
      </trkpt>
      <trkpt lat="43.45724" lon="2.09046">
        <ele>347</ele>
        <time>2019-03-09T07:29:11.000Z</time>
      </trkpt>
      <trkpt lat="43.45722" lon="2.0905">
        <ele>347.60000610352</ele>
        <time>2019-03-09T07:29:13.000Z</time>
      </trkpt>
      <trkpt lat="43.45721" lon="2.09054">
        <ele>348.20001220703</ele>
        <time>2019-03-09T07:29:15.000Z</time>
      </trkpt>
      <trkpt lat="43.45719" lon="2.09058">
        <ele>348.79998779297</ele>
        <time>2019-03-09T07:29:17.000Z</time>
      </trkpt>
      <trkpt lat="43.45718" lon="2.09063">
        <ele>349.60000610352</ele>
        <time>2019-03-09T07:29:21.000Z</time>
      </trkpt>
      <trkpt lat="43.45716" lon="2.0907">
        <ele>350.60000610352</ele>
        <time>2019-03-09T07:29:25.000Z</time>
      </trkpt>
      <trkpt lat="43.45716" lon="2.09071">
        <ele>350.79998779297</ele>
        <time>2019-03-09T07:29:26.000Z</time>
      </trkpt>
      <trkpt lat="43.45715" lon="2.09074">
        <ele>351.20001220703</ele>
        <time>2019-03-09T07:29:28.000Z</time>
      </trkpt>
      <trkpt lat="43.45715" lon="2.09079">
        <ele>351.79998779297</ele>
        <time>2019-03-09T07:29:31.000Z</time>
      </trkpt>
      <trkpt lat="43.45714" lon="2.09082">
        <ele>352</ele>
        <time>2019-03-09T07:29:33.000Z</time>
      </trkpt>
      <trkpt lat="43.45713" lon="2.09086">
        <ele>352.39999389648</ele>
        <time>2019-03-09T07:29:36.000Z</time>
      </trkpt>
      <trkpt lat="43.45712" lon="2.09091">
        <ele>352.79998779297</ele>
        <time>2019-03-09T07:29:39.000Z</time>
      </trkpt>
      <trkpt lat="43.45709" lon="2.09097">
        <ele>353.60000610352</ele>
        <time>2019-03-09T07:29:43.000Z</time>
      </trkpt>
      <trkpt lat="43.45708" lon="2.09099">
        <ele>353.79998779297</ele>
        <time>2019-03-09T07:29:45.000Z</time>
      </trkpt>
      <trkpt lat="43.45708" lon="2.09101">
        <ele>354</ele>
        <time>2019-03-09T07:29:46.000Z</time>
      </trkpt>
      <trkpt lat="43.45707" lon="2.09105">
        <ele>355</ele>
        <time>2019-03-09T07:29:48.000Z</time>
      </trkpt>
      <trkpt lat="43.45706" lon="2.09111">
        <ele>356.39999389648</ele>
        <time>2019-03-09T07:29:51.000Z</time>
      </trkpt>
      <trkpt lat="43.45705" lon="2.09116">
        <ele>357.60000610352</ele>
        <time>2019-03-09T07:29:54.000Z</time>
      </trkpt>
      <trkpt lat="43.45705" lon="2.09119">
        <ele>358.20001220703</ele>
        <time>2019-03-09T07:29:56.000Z</time>
      </trkpt>
      <trkpt lat="43.45705" lon="2.09122">
        <ele>359</ele>
        <time>2019-03-09T07:29:58.000Z</time>
      </trkpt>
      <trkpt lat="43.45705" lon="2.09124">
        <ele>359.39999389648</ele>
        <time>2019-03-09T07:29:59.000Z</time>
      </trkpt>
      <trkpt lat="43.45705" lon="2.09126">
        <ele>359.79998779297</ele>
        <time>2019-03-09T07:30:00.000Z</time>
      </trkpt>
      <trkpt lat="43.45704" lon="2.0913">
        <ele>361</ele>
        <time>2019-03-09T07:30:03.000Z</time>
      </trkpt>
      <trkpt lat="43.45703" lon="2.09136">
        <ele>362.20001220703</ele>
        <time>2019-03-09T07:30:06.000Z</time>
      </trkpt>
      <trkpt lat="43.45702" lon="2.09142">
        <ele>363.60000610352</ele>
        <time>2019-03-09T07:30:09.000Z</time>
      </trkpt>
      <trkpt lat="43.45702" lon="2.09152">
        <ele>365.79998779297</ele>
        <time>2019-03-09T07:30:14.000Z</time>
      </trkpt>
      <trkpt lat="43.45703" lon="2.09164">
        <ele>367.79998779297</ele>
        <time>2019-03-09T07:30:20.000Z</time>
      </trkpt>
      <trkpt lat="43.45707" lon="2.09183">
        <ele>369.39999389648</ele>
        <time>2019-03-09T07:30:27.000Z</time>
      </trkpt>
      <trkpt lat="43.45708" lon="2.09198">
        <ele>372.20001220703</ele>
        <time>2019-03-09T07:30:32.000Z</time>
      </trkpt>
      <trkpt lat="43.45712" lon="2.09222">
        <ele>376.20001220703</ele>
        <time>2019-03-09T07:30:40.000Z</time>
      </trkpt>
      <trkpt lat="43.45717" lon="2.09237">
        <ele>378</ele>
        <time>2019-03-09T07:30:46.000Z</time>
      </trkpt>
      <trkpt lat="43.45722" lon="2.09245">
        <ele>378.20001220703</ele>
        <time>2019-03-09T07:30:50.000Z</time>
      </trkpt>
      <trkpt lat="43.45725" lon="2.09251">
        <ele>377.60000610352</ele>
        <time>2019-03-09T07:30:52.000Z</time>
      </trkpt>
      <trkpt lat="43.45743" lon="2.09276">
        <ele>375</ele>
        <time>2019-03-09T07:30:58.000Z</time>
      </trkpt>
      <trkpt lat="43.45747" lon="2.09284">
        <ele>374.79998779297</ele>
        <time>2019-03-09T07:30:59.000Z</time>
      </trkpt>
      <trkpt lat="43.4575" lon="2.09294">
        <ele>375.20001220703</ele>
        <time>2019-03-09T07:31:00.000Z</time>
      </trkpt>
      <trkpt lat="43.45752" lon="2.09305">
        <ele>376</ele>
        <time>2019-03-09T07:31:01.000Z</time>
      </trkpt>
      <trkpt lat="43.45754" lon="2.09316">
        <ele>377</ele>
        <time>2019-03-09T07:31:02.000Z</time>
      </trkpt>
      <trkpt lat="43.45755" lon="2.09326">
        <ele>378.60000610352</ele>
        <time>2019-03-09T07:31:03.000Z</time>
      </trkpt>
      <trkpt lat="43.45756" lon="2.09336">
        <ele>378.79998779297</ele>
        <time>2019-03-09T07:31:04.000Z</time>
      </trkpt>
      <trkpt lat="43.45758" lon="2.09345">
        <ele>378.79998779297</ele>
        <time>2019-03-09T07:31:05.000Z</time>
      </trkpt>
      <trkpt lat="43.45759" lon="2.09353">
        <ele>379</ele>
        <time>2019-03-09T07:31:06.000Z</time>
      </trkpt>
      <trkpt lat="43.4576" lon="2.09361">
        <ele>379</ele>
        <time>2019-03-09T07:31:07.000Z</time>
      </trkpt>
      <trkpt lat="43.45764" lon="2.09377">
        <ele>378.39999389648</ele>
        <time>2019-03-09T07:31:10.000Z</time>
      </trkpt>
      <trkpt lat="43.45767" lon="2.09381">
        <ele>377.20001220703</ele>
        <time>2019-03-09T07:31:13.000Z</time>
      </trkpt>
      <trkpt lat="43.4577" lon="2.09386">
        <ele>376.39999389648</ele>
        <time>2019-03-09T07:31:19.000Z</time>
      </trkpt>
      <trkpt lat="43.45773" lon="2.09392">
        <ele>375.79998779297</ele>
        <time>2019-03-09T07:31:24.000Z</time>
      </trkpt>
      <trkpt lat="43.45772" lon="2.09393">
        <ele>376</ele>
        <time>2019-03-09T07:31:25.000Z</time>
      </trkpt>
      <trkpt lat="43.45772" lon="2.09398">
        <ele>376.60000610352</ele>
        <time>2019-03-09T07:31:31.000Z</time>
      </trkpt>
      <trkpt lat="43.45773" lon="2.09401">
        <ele>376.39999389648</ele>
        <time>2019-03-09T07:31:33.000Z</time>
      </trkpt>
      <trkpt lat="43.45774" lon="2.09407">
        <ele>376.60000610352</ele>
        <time>2019-03-09T07:31:35.000Z</time>
      </trkpt>
      <trkpt lat="43.45774" lon="2.09411">
        <ele>376.60000610352</ele>
        <time>2019-03-09T07:31:36.000Z</time>
      </trkpt>
      <trkpt lat="43.45774" lon="2.09415">
        <ele>377</ele>
        <time>2019-03-09T07:31:37.000Z</time>
      </trkpt>
      <trkpt lat="43.45775" lon="2.09439">
        <ele>377.60000610352</ele>
        <time>2019-03-09T07:31:44.000Z</time>
      </trkpt>
      <trkpt lat="43.45774" lon="2.09447">
        <ele>378</ele>
        <time>2019-03-09T07:31:47.000Z</time>
      </trkpt>
      <trkpt lat="43.45772" lon="2.09452">
        <ele>378.60000610352</ele>
        <time>2019-03-09T07:31:49.000Z</time>
      </trkpt>
      <trkpt lat="43.45771" lon="2.09457">
        <ele>379.20001220703</ele>
        <time>2019-03-09T07:31:51.000Z</time>
      </trkpt>
      <trkpt lat="43.45767" lon="2.09466">
        <ele>380.20001220703</ele>
        <time>2019-03-09T07:31:56.000Z</time>
      </trkpt>
      <trkpt lat="43.45767" lon="2.09469">
        <ele>380.20001220703</ele>
        <time>2019-03-09T07:31:58.000Z</time>
      </trkpt>
      <trkpt lat="43.45769" lon="2.09474">
        <ele>380</ele>
        <time>2019-03-09T07:32:02.000Z</time>
      </trkpt>
      <trkpt lat="43.45768" lon="2.09478">
        <ele>380.20001220703</ele>
        <time>2019-03-09T07:32:03.000Z</time>
      </trkpt>
      <trkpt lat="43.45765" lon="2.09492">
        <ele>381.39999389648</ele>
        <time>2019-03-09T07:32:08.000Z</time>
      </trkpt>
      <trkpt lat="43.45762" lon="2.0951">
        <ele>383.20001220703</ele>
        <time>2019-03-09T07:32:13.000Z</time>
      </trkpt>
      <trkpt lat="43.45762" lon="2.09513">
        <ele>383.20001220703</ele>
        <time>2019-03-09T07:32:14.000Z</time>
      </trkpt>
      <trkpt lat="43.45755" lon="2.09541">
        <ele>386.79998779297</ele>
        <time>2019-03-09T07:32:19.000Z</time>
      </trkpt>
      <trkpt lat="43.45755" lon="2.09546">
        <ele>386.79998779297</ele>
        <time>2019-03-09T07:32:20.000Z</time>
      </trkpt>
      <trkpt lat="43.45755" lon="2.0956">
        <ele>387.39999389648</ele>
        <time>2019-03-09T07:32:23.000Z</time>
      </trkpt>
      <trkpt lat="43.45759" lon="2.09573">
        <ele>384.20001220703</ele>
        <time>2019-03-09T07:32:27.000Z</time>
      </trkpt>
      <trkpt lat="43.45767" lon="2.09574">
        <ele>380.79998779297</ele>
        <time>2019-03-09T07:32:31.000Z</time>
      </trkpt>
      <trkpt lat="43.4577" lon="2.09574">
        <ele>380.39999389648</ele>
        <time>2019-03-09T07:32:32.000Z</time>
      </trkpt>
      <trkpt lat="43.45772" lon="2.09574">
        <ele>380</ele>
        <time>2019-03-09T07:32:33.000Z</time>
      </trkpt>
      <trkpt lat="43.45779" lon="2.09574">
        <ele>379</ele>
        <time>2019-03-09T07:32:37.000Z</time>
      </trkpt>
      <trkpt lat="43.45781" lon="2.09573">
        <ele>378.60000610352</ele>
        <time>2019-03-09T07:32:38.000Z</time>
      </trkpt>
      <trkpt lat="43.45786" lon="2.09571">
        <ele>377.79998779297</ele>
        <time>2019-03-09T07:32:41.000Z</time>
      </trkpt>
      <trkpt lat="43.45795" lon="2.09571">
        <ele>376.39999389648</ele>
        <time>2019-03-09T07:32:45.000Z</time>
      </trkpt>
      <trkpt lat="43.45797" lon="2.09571">
        <ele>376.20001220703</ele>
        <time>2019-03-09T07:32:46.000Z</time>
      </trkpt>
      <trkpt lat="43.45807" lon="2.09575">
        <ele>374.60000610352</ele>
        <time>2019-03-09T07:32:52.000Z</time>
      </trkpt>
      <trkpt lat="43.45814" lon="2.09581">
        <ele>374.39999389648</ele>
        <time>2019-03-09T07:32:56.000Z</time>
      </trkpt>
      <trkpt lat="43.45816" lon="2.09585">
        <ele>375.20001220703</ele>
        <time>2019-03-09T07:32:58.000Z</time>
      </trkpt>
      <trkpt lat="43.45817" lon="2.0959">
        <ele>376.20001220703</ele>
        <time>2019-03-09T07:33:00.000Z</time>
      </trkpt>
      <trkpt lat="43.45822" lon="2.09599">
        <ele>377.60000610352</ele>
        <time>2019-03-09T07:33:05.000Z</time>
      </trkpt>
      <trkpt lat="43.45823" lon="2.09603">
        <ele>378.39999389648</ele>
        <time>2019-03-09T07:33:07.000Z</time>
      </trkpt>
      <trkpt lat="43.45823" lon="2.09617">
        <ele>381.79998779297</ele>
        <time>2019-03-09T07:33:13.000Z</time>
      </trkpt>
      <trkpt lat="43.45825" lon="2.09622">
        <ele>382.60000610352</ele>
        <time>2019-03-09T07:33:15.000Z</time>
      </trkpt>
      <trkpt lat="43.45825" lon="2.09624">
        <ele>383</ele>
        <time>2019-03-09T07:33:16.000Z</time>
      </trkpt>
      <trkpt lat="43.45829" lon="2.09629">
        <ele>383.79998779297</ele>
        <time>2019-03-09T07:33:19.000Z</time>
      </trkpt>
      <trkpt lat="43.45841" lon="2.09635">
        <ele>383.20001220703</ele>
        <time>2019-03-09T07:33:24.000Z</time>
      </trkpt>
      <trkpt lat="43.45846" lon="2.09634">
        <ele>382.20001220703</ele>
        <time>2019-03-09T07:33:25.000Z</time>
      </trkpt>
      <trkpt lat="43.45862" lon="2.0963">
        <ele>378.20001220703</ele>
        <time>2019-03-09T07:33:29.000Z</time>
      </trkpt>
      <trkpt lat="43.45875" lon="2.09618">
        <ele>372.60000610352</ele>
        <time>2019-03-09T07:33:33.000Z</time>
      </trkpt>
      <trkpt lat="43.45878" lon="2.09614">
        <ele>371</ele>
        <time>2019-03-09T07:33:34.000Z</time>
      </trkpt>
      <trkpt lat="43.4589" lon="2.09594">
        <ele>367.60000610352</ele>
        <time>2019-03-09T07:33:38.000Z</time>
      </trkpt>
      <trkpt lat="43.45893" lon="2.09589">
        <ele>367</ele>
        <time>2019-03-09T07:33:39.000Z</time>
      </trkpt>
      <trkpt lat="43.45897" lon="2.09584">
        <ele>366.39999389648</ele>
        <time>2019-03-09T07:33:40.000Z</time>
      </trkpt>
      <trkpt lat="43.45912" lon="2.09557">
        <ele>362</ele>
        <time>2019-03-09T07:33:45.000Z</time>
      </trkpt>
      <trkpt lat="43.45915" lon="2.09552">
        <ele>362</ele>
        <time>2019-03-09T07:33:46.000Z</time>
      </trkpt>
      <trkpt lat="43.45925" lon="2.09534">
        <ele>362.79998779297</ele>
        <time>2019-03-09T07:33:49.000Z</time>
      </trkpt>
      <trkpt lat="43.45937" lon="2.09515">
        <ele>362.60000610352</ele>
        <time>2019-03-09T07:33:52.000Z</time>
      </trkpt>
      <trkpt lat="43.45946" lon="2.09503">
        <ele>360.79998779297</ele>
        <time>2019-03-09T07:33:54.000Z</time>
      </trkpt>
      <trkpt lat="43.45955" lon="2.09496">
        <ele>359.20001220703</ele>
        <time>2019-03-09T07:33:56.000Z</time>
      </trkpt>
      <trkpt lat="43.45963" lon="2.09502">
        <ele>357.79998779297</ele>
        <time>2019-03-09T07:33:58.000Z</time>
      </trkpt>
      <trkpt lat="43.45975" lon="2.09524">
        <ele>356.39999389648</ele>
        <time>2019-03-09T07:34:00.000Z</time>
      </trkpt>
      <trkpt lat="43.45986" lon="2.09544">
        <ele>355.39999389648</ele>
        <time>2019-03-09T07:34:02.000Z</time>
      </trkpt>
      <trkpt lat="43.4599" lon="2.09554">
        <ele>354.79998779297</ele>
        <time>2019-03-09T07:34:03.000Z</time>
      </trkpt>
      <trkpt lat="43.46001" lon="2.09574">
        <ele>353.39999389648</ele>
        <time>2019-03-09T07:34:05.000Z</time>
      </trkpt>
      <trkpt lat="43.46006" lon="2.09585">
        <ele>352.60000610352</ele>
        <time>2019-03-09T07:34:06.000Z</time>
      </trkpt>
      <trkpt lat="43.46012" lon="2.09596">
        <ele>352</ele>
        <time>2019-03-09T07:34:07.000Z</time>
      </trkpt>
      <trkpt lat="43.46023" lon="2.09618">
        <ele>350.60000610352</ele>
        <time>2019-03-09T07:34:09.000Z</time>
      </trkpt>
      <trkpt lat="43.46035" lon="2.09637">
        <ele>349.20001220703</ele>
        <time>2019-03-09T07:34:11.000Z</time>
      </trkpt>
      <trkpt lat="43.46042" lon="2.09646">
        <ele>348.39999389648</ele>
        <time>2019-03-09T07:34:12.000Z</time>
      </trkpt>
      <trkpt lat="43.46054" lon="2.09659">
        <ele>347</ele>
        <time>2019-03-09T07:34:14.000Z</time>
      </trkpt>
      <trkpt lat="43.46059" lon="2.09665">
        <ele>346.20001220703</ele>
        <time>2019-03-09T07:34:15.000Z</time>
      </trkpt>
      <trkpt lat="43.46063" lon="2.0967">
        <ele>345.39999389648</ele>
        <time>2019-03-09T07:34:16.000Z</time>
      </trkpt>
      <trkpt lat="43.46065" lon="2.09675">
        <ele>345</ele>
        <time>2019-03-09T07:34:17.000Z</time>
      </trkpt>
      <trkpt lat="43.46066" lon="2.09679">
        <ele>344.60000610352</ele>
        <time>2019-03-09T07:34:18.000Z</time>
      </trkpt>
      <trkpt lat="43.46065" lon="2.09686">
        <ele>344.60000610352</ele>
        <time>2019-03-09T07:34:20.000Z</time>
      </trkpt>
      <trkpt lat="43.46062" lon="2.09691">
        <ele>344.79998779297</ele>
        <time>2019-03-09T07:34:22.000Z</time>
      </trkpt>
      <trkpt lat="43.46054" lon="2.09696">
        <ele>345.60000610352</ele>
        <time>2019-03-09T07:34:27.000Z</time>
      </trkpt>
      <trkpt lat="43.46053" lon="2.09697">
        <ele>345.79998779297</ele>
        <time>2019-03-09T07:34:28.000Z</time>
      </trkpt>
      <trkpt lat="43.46048" lon="2.097">
        <ele>347.20001220703</ele>
        <time>2019-03-09T07:34:34.000Z</time>
      </trkpt>
      <trkpt lat="43.46046" lon="2.09702">
        <ele>347.60000610352</ele>
        <time>2019-03-09T07:34:39.000Z</time>
      </trkpt>
      <trkpt lat="43.46041" lon="2.09705">
        <ele>349</ele>
        <time>2019-03-09T07:34:47.000Z</time>
      </trkpt>
      <trkpt lat="43.4603" lon="2.09712">
        <ele>351.79998779297</ele>
        <time>2019-03-09T07:34:54.000Z</time>
      </trkpt>
      <trkpt lat="43.46025" lon="2.09718">
        <ele>353.39999389648</ele>
        <time>2019-03-09T07:34:58.000Z</time>
      </trkpt>
      <trkpt lat="43.4602" lon="2.09725">
        <ele>355</ele>
        <time>2019-03-09T07:35:02.000Z</time>
      </trkpt>
      <trkpt lat="43.46018" lon="2.09726">
        <ele>355.39999389648</ele>
        <time>2019-03-09T07:35:03.000Z</time>
      </trkpt>
      <trkpt lat="43.46013" lon="2.09734">
        <ele>357</ele>
        <time>2019-03-09T07:35:08.000Z</time>
      </trkpt>
      <trkpt lat="43.46012" lon="2.09736">
        <ele>357.39999389648</ele>
        <time>2019-03-09T07:35:09.000Z</time>
      </trkpt>
      <trkpt lat="43.4601" lon="2.09743">
        <ele>358.60000610352</ele>
        <time>2019-03-09T07:35:13.000Z</time>
      </trkpt>
      <trkpt lat="43.4601" lon="2.09748">
        <ele>359</ele>
        <time>2019-03-09T07:35:15.000Z</time>
      </trkpt>
      <trkpt lat="43.46008" lon="2.09757">
        <ele>360</ele>
        <time>2019-03-09T07:35:18.000Z</time>
      </trkpt>
      <trkpt lat="43.46008" lon="2.09763">
        <ele>360.39999389648</ele>
        <time>2019-03-09T07:35:20.000Z</time>
      </trkpt>
      <trkpt lat="43.46008" lon="2.09766">
        <ele>360.79998779297</ele>
        <time>2019-03-09T07:35:21.000Z</time>
      </trkpt>
      <trkpt lat="43.46006" lon="2.09784">
        <ele>362.20001220703</ele>
        <time>2019-03-09T07:35:27.000Z</time>
      </trkpt>
      <trkpt lat="43.46006" lon="2.09787">
        <ele>362.39999389648</ele>
        <time>2019-03-09T07:35:28.000Z</time>
      </trkpt>
      <trkpt lat="43.46006" lon="2.09799">
        <ele>363</ele>
        <time>2019-03-09T07:35:33.000Z</time>
      </trkpt>
      <trkpt lat="43.46007" lon="2.09801">
        <ele>363</ele>
        <time>2019-03-09T07:35:34.000Z</time>
      </trkpt>
      <trkpt lat="43.46007" lon="2.09803">
        <ele>363</ele>
        <time>2019-03-09T07:35:35.000Z</time>
      </trkpt>
      <trkpt lat="43.46008" lon="2.09809">
        <ele>363</ele>
        <time>2019-03-09T07:35:38.000Z</time>
      </trkpt>
      <trkpt lat="43.46009" lon="2.09813">
        <ele>363.20001220703</ele>
        <time>2019-03-09T07:35:40.000Z</time>
      </trkpt>
      <trkpt lat="43.4601" lon="2.09815">
        <ele>363</ele>
        <time>2019-03-09T07:35:41.000Z</time>
      </trkpt>
      <trkpt lat="43.46013" lon="2.09827">
        <ele>363</ele>
        <time>2019-03-09T07:35:46.000Z</time>
      </trkpt>
      <trkpt lat="43.46015" lon="2.09832">
        <ele>362.60000610352</ele>
        <time>2019-03-09T07:35:48.000Z</time>
      </trkpt>
      <trkpt lat="43.46018" lon="2.09841">
        <ele>362</ele>
        <time>2019-03-09T07:35:52.000Z</time>
      </trkpt>
      <trkpt lat="43.4602" lon="2.0985">
        <ele>361.60000610352</ele>
        <time>2019-03-09T07:35:55.000Z</time>
      </trkpt>
      <trkpt lat="43.46023" lon="2.09865">
        <ele>361.39999389648</ele>
        <time>2019-03-09T07:36:00.000Z</time>
      </trkpt>
      <trkpt lat="43.46024" lon="2.09885">
        <ele>362.20001220703</ele>
        <time>2019-03-09T07:36:06.000Z</time>
      </trkpt>
      <trkpt lat="43.46024" lon="2.09907">
        <ele>363.79998779297</ele>
        <time>2019-03-09T07:36:13.000Z</time>
      </trkpt>
      <trkpt lat="43.4602" lon="2.09934">
        <ele>364.20001220703</ele>
        <time>2019-03-09T07:36:21.000Z</time>
      </trkpt>
      <trkpt lat="43.46019" lon="2.09938">
        <ele>364.60000610352</ele>
        <time>2019-03-09T07:36:22.000Z</time>
      </trkpt>
      <trkpt lat="43.46012" lon="2.09961">
        <ele>366.39999389648</ele>
        <time>2019-03-09T07:36:28.000Z</time>
      </trkpt>
      <trkpt lat="43.46005" lon="2.09983">
        <ele>367.79998779297</ele>
        <time>2019-03-09T07:36:34.000Z</time>
      </trkpt>
      <trkpt lat="43.46002" lon="2.09992">
        <ele>368.79998779297</ele>
        <time>2019-03-09T07:36:37.000Z</time>
      </trkpt>
      <trkpt lat="43.45998" lon="2.10002">
        <ele>370.20001220703</ele>
        <time>2019-03-09T07:36:41.000Z</time>
      </trkpt>
      <trkpt lat="43.45992" lon="2.1001">
        <ele>372.39999389648</ele>
        <time>2019-03-09T07:36:44.000Z</time>
      </trkpt>
      <trkpt lat="43.45987" lon="2.10014">
        <ele>374.20001220703</ele>
        <time>2019-03-09T07:36:47.000Z</time>
      </trkpt>
      <trkpt lat="43.45984" lon="2.1002">
        <ele>375.60000610352</ele>
        <time>2019-03-09T07:36:50.000Z</time>
      </trkpt>
      <trkpt lat="43.45979" lon="2.10027">
        <ele>377.39999389648</ele>
        <time>2019-03-09T07:36:53.000Z</time>
      </trkpt>
      <trkpt lat="43.45967" lon="2.10038">
        <ele>380.79998779297</ele>
        <time>2019-03-09T07:36:59.000Z</time>
      </trkpt>
      <trkpt lat="43.45954" lon="2.10053">
        <ele>382.39999389648</ele>
        <time>2019-03-09T07:37:06.000Z</time>
      </trkpt>
      <trkpt lat="43.4595" lon="2.10056">
        <ele>383</ele>
        <time>2019-03-09T07:37:08.000Z</time>
      </trkpt>
      <trkpt lat="43.45939" lon="2.10064">
        <ele>385</ele>
        <time>2019-03-09T07:37:14.000Z</time>
      </trkpt>
      <trkpt lat="43.45938" lon="2.10065">
        <ele>385.20001220703</ele>
        <time>2019-03-09T07:37:15.000Z</time>
      </trkpt>
      <trkpt lat="43.4593" lon="2.1007">
        <ele>387</ele>
        <time>2019-03-09T07:37:20.000Z</time>
      </trkpt>
      <trkpt lat="43.45926" lon="2.10073">
        <ele>387.60000610352</ele>
        <time>2019-03-09T07:37:22.000Z</time>
      </trkpt>
      <trkpt lat="43.45919" lon="2.10078">
        <ele>389</ele>
        <time>2019-03-09T07:37:26.000Z</time>
      </trkpt>
      <trkpt lat="43.45915" lon="2.10081">
        <ele>390.60000610352</ele>
        <time>2019-03-09T07:37:28.000Z</time>
      </trkpt>
      <trkpt lat="43.45909" lon="2.10092">
        <ele>394.39999389648</ele>
        <time>2019-03-09T07:37:32.000Z</time>
      </trkpt>
      <trkpt lat="43.45909" lon="2.10096">
        <ele>395.39999389648</ele>
        <time>2019-03-09T07:37:33.000Z</time>
      </trkpt>
      <trkpt lat="43.45912" lon="2.10112">
        <ele>397.39999389648</ele>
        <time>2019-03-09T07:37:39.000Z</time>
      </trkpt>
      <trkpt lat="43.4592" lon="2.10116">
        <ele>396.20001220703</ele>
        <time>2019-03-09T07:37:42.000Z</time>
      </trkpt>
      <trkpt lat="43.45922" lon="2.10116">
        <ele>395.39999389648</ele>
        <time>2019-03-09T07:37:43.000Z</time>
      </trkpt>
      <trkpt lat="43.45941" lon="2.10122">
        <ele>391.60000610352</ele>
        <time>2019-03-09T07:37:49.000Z</time>
      </trkpt>
      <trkpt lat="43.45963" lon="2.10125">
        <ele>386.20001220703</ele>
        <time>2019-03-09T07:37:55.000Z</time>
      </trkpt>
      <trkpt lat="43.45987" lon="2.10136">
        <ele>382</ele>
        <time>2019-03-09T07:38:00.000Z</time>
      </trkpt>
      <trkpt lat="43.4601" lon="2.10148">
        <ele>378.20001220703</ele>
        <time>2019-03-09T07:38:06.000Z</time>
      </trkpt>
      <trkpt lat="43.46023" lon="2.10165">
        <ele>376.60000610352</ele>
        <time>2019-03-09T07:38:10.000Z</time>
      </trkpt>
      <trkpt lat="43.46032" lon="2.10182">
        <ele>374.39999389648</ele>
        <time>2019-03-09T07:38:13.000Z</time>
      </trkpt>
      <trkpt lat="43.46037" lon="2.10198">
        <ele>373</ele>
        <time>2019-03-09T07:38:16.000Z</time>
      </trkpt>
      <trkpt lat="43.46037" lon="2.1022">
        <ele>373.60000610352</ele>
        <time>2019-03-09T07:38:20.000Z</time>
      </trkpt>
      <trkpt lat="43.4603" lon="2.10241">
        <ele>376.20001220703</ele>
        <time>2019-03-09T07:38:25.000Z</time>
      </trkpt>
      <trkpt lat="43.46027" lon="2.10249">
        <ele>377</ele>
        <time>2019-03-09T07:38:27.000Z</time>
      </trkpt>
      <trkpt lat="43.46022" lon="2.10262">
        <ele>377.39999389648</ele>
        <time>2019-03-09T07:38:30.000Z</time>
      </trkpt>
      <trkpt lat="43.46008" lon="2.10284">
        <ele>380.20001220703</ele>
        <time>2019-03-09T07:38:36.000Z</time>
      </trkpt>
      <trkpt lat="43.45999" lon="2.10295">
        <ele>382.39999389648</ele>
        <time>2019-03-09T07:38:39.000Z</time>
      </trkpt>
      <trkpt lat="43.45991" lon="2.10306">
        <ele>384.20001220703</ele>
        <time>2019-03-09T07:38:42.000Z</time>
      </trkpt>
      <trkpt lat="43.45984" lon="2.1032">
        <ele>386</ele>
        <time>2019-03-09T07:38:45.000Z</time>
      </trkpt>
      <trkpt lat="43.45979" lon="2.10342">
        <ele>386</ele>
        <time>2019-03-09T07:38:49.000Z</time>
      </trkpt>
      <trkpt lat="43.45979" lon="2.10354">
        <ele>385</ele>
        <time>2019-03-09T07:38:51.000Z</time>
      </trkpt>
      <trkpt lat="43.45981" lon="2.1037">
        <ele>382.79998779297</ele>
        <time>2019-03-09T07:38:54.000Z</time>
      </trkpt>
      <trkpt lat="43.45984" lon="2.10401">
        <ele>377.79998779297</ele>
        <time>2019-03-09T07:38:59.000Z</time>
      </trkpt>
      <trkpt lat="43.45984" lon="2.10407">
        <ele>377</ele>
        <time>2019-03-09T07:39:00.000Z</time>
      </trkpt>
      <trkpt lat="43.4598" lon="2.1043">
        <ele>373.39999389648</ele>
        <time>2019-03-09T07:39:05.000Z</time>
      </trkpt>
      <trkpt lat="43.4597" lon="2.10448">
        <ele>372.79998779297</ele>
        <time>2019-03-09T07:39:10.000Z</time>
      </trkpt>
      <trkpt lat="43.45959" lon="2.10463">
        <ele>372.79998779297</ele>
        <time>2019-03-09T07:39:15.000Z</time>
      </trkpt>
      <trkpt lat="43.45956" lon="2.10465">
        <ele>373.20001220703</ele>
        <time>2019-03-09T07:39:16.000Z</time>
      </trkpt>
      <trkpt lat="43.45946" lon="2.10471">
        <ele>375</ele>
        <time>2019-03-09T07:39:20.000Z</time>
      </trkpt>
      <trkpt lat="43.45937" lon="2.10476">
        <ele>376.60000610352</ele>
        <time>2019-03-09T07:39:23.000Z</time>
      </trkpt>
      <trkpt lat="43.45929" lon="2.10477">
        <ele>379</ele>
        <time>2019-03-09T07:39:26.000Z</time>
      </trkpt>
      <trkpt lat="43.45916" lon="2.10479">
        <ele>382.39999389648</ele>
        <time>2019-03-09T07:39:30.000Z</time>
      </trkpt>
      <trkpt lat="43.45901" lon="2.10484">
        <ele>384.60000610352</ele>
        <time>2019-03-09T07:39:35.000Z</time>
      </trkpt>
      <trkpt lat="43.45898" lon="2.10485">
        <ele>385</ele>
        <time>2019-03-09T07:39:36.000Z</time>
      </trkpt>
      <trkpt lat="43.45881" lon="2.10493">
        <ele>387</ele>
        <time>2019-03-09T07:39:42.000Z</time>
      </trkpt>
      <trkpt lat="43.45878" lon="2.10495">
        <ele>387.20001220703</ele>
        <time>2019-03-09T07:39:43.000Z</time>
      </trkpt>
      <trkpt lat="43.45869" lon="2.10501">
        <ele>388</ele>
        <time>2019-03-09T07:39:47.000Z</time>
      </trkpt>
      <trkpt lat="43.45866" lon="2.10506">
        <ele>387.60000610352</ele>
        <time>2019-03-09T07:39:51.000Z</time>
      </trkpt>
      <trkpt lat="43.45866" lon="2.10506">
        <ele>387.60000610352</ele>
        <time>2019-03-09T07:39:52.000Z</time>
      </trkpt>
      <trkpt lat="43.4586" lon="2.10511">
        <ele>387.79998779297</ele>
        <time>2019-03-09T07:39:58.000Z</time>
      </trkpt>
      <trkpt lat="43.45855" lon="2.10512">
        <ele>388.79998779297</ele>
        <time>2019-03-09T07:40:02.000Z</time>
      </trkpt>
      <trkpt lat="43.45854" lon="2.10511">
        <ele>389</ele>
        <time>2019-03-09T07:40:03.000Z</time>
      </trkpt>
      <trkpt lat="43.45854" lon="2.10511">
        <ele>389.20001220703</ele>
        <time>2019-03-09T07:40:04.000Z</time>
      </trkpt>
      <trkpt lat="43.45853" lon="2.10511">
        <ele>389.39999389648</ele>
        <time>2019-03-09T07:40:09.000Z</time>
      </trkpt>
      <trkpt lat="43.45854" lon="2.10511">
        <ele>389.20001220703</ele>
        <time>2019-03-09T07:40:11.000Z</time>
      </trkpt>
      <trkpt lat="43.45855" lon="2.1051">
        <ele>389</ele>
        <time>2019-03-09T07:40:14.000Z</time>
      </trkpt>
      <trkpt lat="43.45855" lon="2.1051">
        <ele>389.20001220703</ele>
        <time>2019-03-09T07:40:20.000Z</time>
      </trkpt>
      <trkpt lat="43.4586" lon="2.10506">
        <ele>389.20001220703</ele>
        <time>2019-03-09T07:40:25.000Z</time>
      </trkpt>
      <trkpt lat="43.45864" lon="2.105">
        <ele>389.39999389648</ele>
        <time>2019-03-09T07:40:29.000Z</time>
      </trkpt>
      <trkpt lat="43.45866" lon="2.10499">
        <ele>389.39999389648</ele>
        <time>2019-03-09T07:40:30.000Z</time>
      </trkpt>
      <trkpt lat="43.45873" lon="2.10489">
        <ele>390.39999389648</ele>
        <time>2019-03-09T07:40:35.000Z</time>
      </trkpt>
      <trkpt lat="43.45875" lon="2.10487">
        <ele>390.39999389648</ele>
        <time>2019-03-09T07:40:36.000Z</time>
      </trkpt>
      <trkpt lat="43.4588" lon="2.10479">
        <ele>391.20001220703</ele>
        <time>2019-03-09T07:40:40.000Z</time>
      </trkpt>
      <trkpt lat="43.45882" lon="2.10475">
        <ele>392</ele>
        <time>2019-03-09T07:40:42.000Z</time>
      </trkpt>
      <trkpt lat="43.45888" lon="2.10469">
        <ele>392.39999389648</ele>
        <time>2019-03-09T07:40:46.000Z</time>
      </trkpt>
      <trkpt lat="43.45891" lon="2.10466">
        <ele>392.60000610352</ele>
        <time>2019-03-09T07:40:48.000Z</time>
      </trkpt>
      <trkpt lat="43.45894" lon="2.10463">
        <ele>392.60000610352</ele>
        <time>2019-03-09T07:40:51.000Z</time>
      </trkpt>
      <trkpt lat="43.45897" lon="2.10459">
        <ele>393</ele>
        <time>2019-03-09T07:40:53.000Z</time>
      </trkpt>
      <trkpt lat="43.45902" lon="2.10454">
        <ele>392.39999389648</ele>
        <time>2019-03-09T07:40:56.000Z</time>
      </trkpt>
      <trkpt lat="43.4591" lon="2.10448">
        <ele>391.39999389648</ele>
        <time>2019-03-09T07:41:00.000Z</time>
      </trkpt>
      <trkpt lat="43.45914" lon="2.1044">
        <ele>391.79998779297</ele>
        <time>2019-03-09T07:41:04.000Z</time>
      </trkpt>
      <trkpt lat="43.45916" lon="2.10437">
        <ele>392</ele>
        <time>2019-03-09T07:41:06.000Z</time>
      </trkpt>
      <trkpt lat="43.45921" lon="2.10432">
        <ele>391.79998779297</ele>
        <time>2019-03-09T07:41:09.000Z</time>
      </trkpt>
      <trkpt lat="43.45927" lon="2.10421">
        <ele>392.20001220703</ele>
        <time>2019-03-09T07:41:14.000Z</time>
      </trkpt>
      <trkpt lat="43.45929" lon="2.10419">
        <ele>392.20001220703</ele>
        <time>2019-03-09T07:41:15.000Z</time>
      </trkpt>
      <trkpt lat="43.45936" lon="2.10409">
        <ele>392.20001220703</ele>
        <time>2019-03-09T07:41:21.000Z</time>
      </trkpt>
      <trkpt lat="43.45936" lon="2.10407">
        <ele>392.20001220703</ele>
        <time>2019-03-09T07:41:22.000Z</time>
      </trkpt>
      <trkpt lat="43.45939" lon="2.10397">
        <ele>393</ele>
        <time>2019-03-09T07:41:26.000Z</time>
      </trkpt>
      <trkpt lat="43.45939" lon="2.10395">
        <ele>393</ele>
        <time>2019-03-09T07:41:27.000Z</time>
      </trkpt>
      <trkpt lat="43.4594" lon="2.10385">
        <ele>394.20001220703</ele>
        <time>2019-03-09T07:41:32.000Z</time>
      </trkpt>
      <trkpt lat="43.4594" lon="2.10372">
        <ele>396</ele>
        <time>2019-03-09T07:41:37.000Z</time>
      </trkpt>
      <trkpt lat="43.4594" lon="2.10369">
        <ele>396.39999389648</ele>
        <time>2019-03-09T07:41:38.000Z</time>
      </trkpt>
      <trkpt lat="43.45939" lon="2.10361">
        <ele>397.79998779297</ele>
        <time>2019-03-09T07:41:42.000Z</time>
      </trkpt>
      <trkpt lat="43.45939" lon="2.10355">
        <ele>398.79998779297</ele>
        <time>2019-03-09T07:41:45.000Z</time>
      </trkpt>
      <trkpt lat="43.45939" lon="2.10347">
        <ele>400</ele>
        <time>2019-03-09T07:41:49.000Z</time>
      </trkpt>
      <trkpt lat="43.45939" lon="2.10343">
        <ele>400.79998779297</ele>
        <time>2019-03-09T07:41:51.000Z</time>
      </trkpt>
      <trkpt lat="43.45938" lon="2.10334">
        <ele>402.20001220703</ele>
        <time>2019-03-09T07:41:55.000Z</time>
      </trkpt>
      <trkpt lat="43.45937" lon="2.10328">
        <ele>403.20001220703</ele>
        <time>2019-03-09T07:41:57.000Z</time>
      </trkpt>
      <trkpt lat="43.45937" lon="2.1032">
        <ele>404</ele>
        <time>2019-03-09T07:42:00.000Z</time>
      </trkpt>
      <trkpt lat="43.45936" lon="2.10309">
        <ele>405.39999389648</ele>
        <time>2019-03-09T07:42:04.000Z</time>
      </trkpt>
      <trkpt lat="43.45936" lon="2.10307">
        <ele>405.60000610352</ele>
        <time>2019-03-09T07:42:05.000Z</time>
      </trkpt>
      <trkpt lat="43.45936" lon="2.10297">
        <ele>406</ele>
        <time>2019-03-09T07:42:09.000Z</time>
      </trkpt>
      <trkpt lat="43.45937" lon="2.10292">
        <ele>406.20001220703</ele>
        <time>2019-03-09T07:42:11.000Z</time>
      </trkpt>
      <trkpt lat="43.45938" lon="2.10289">
        <ele>406.20001220703</ele>
        <time>2019-03-09T07:42:13.000Z</time>
      </trkpt>
      <trkpt lat="43.4594" lon="2.10277">
        <ele>406.60000610352</ele>
        <time>2019-03-09T07:42:18.000Z</time>
      </trkpt>
      <trkpt lat="43.45939" lon="2.10275">
        <ele>406.79998779297</ele>
        <time>2019-03-09T07:42:19.000Z</time>
      </trkpt>
      <trkpt lat="43.45938" lon="2.10264">
        <ele>408</ele>
        <time>2019-03-09T07:42:23.000Z</time>
      </trkpt>
      <trkpt lat="43.45939" lon="2.10259">
        <ele>408.20001220703</ele>
        <time>2019-03-09T07:42:25.000Z</time>
      </trkpt>
      <trkpt lat="43.45942" lon="2.10245">
        <ele>408.39999389648</ele>
        <time>2019-03-09T07:42:30.000Z</time>
      </trkpt>
      <trkpt lat="43.45943" lon="2.10238">
        <ele>407.39999389648</ele>
        <time>2019-03-09T07:42:33.000Z</time>
      </trkpt>
      <trkpt lat="43.45944" lon="2.10233">
        <ele>406.60000610352</ele>
        <time>2019-03-09T07:42:35.000Z</time>
      </trkpt>
      <trkpt lat="43.45943" lon="2.10231">
        <ele>406.39999389648</ele>
        <time>2019-03-09T07:42:36.000Z</time>
      </trkpt>
      <trkpt lat="43.45943" lon="2.10229">
        <ele>406.20001220703</ele>
        <time>2019-03-09T07:42:37.000Z</time>
      </trkpt>
      <trkpt lat="43.4594" lon="2.10223">
        <ele>406.39999389648</ele>
        <time>2019-03-09T07:42:40.000Z</time>
      </trkpt>
      <trkpt lat="43.45939" lon="2.10221">
        <ele>406.60000610352</ele>
        <time>2019-03-09T07:42:41.000Z</time>
      </trkpt>
      <trkpt lat="43.45936" lon="2.10219">
        <ele>407.39999389648</ele>
        <time>2019-03-09T07:42:43.000Z</time>
      </trkpt>
      <trkpt lat="43.45935" lon="2.10218">
        <ele>407.79998779297</ele>
        <time>2019-03-09T07:42:44.000Z</time>
      </trkpt>
      <trkpt lat="43.4593" lon="2.10216">
        <ele>408.79998779297</ele>
        <time>2019-03-09T07:42:47.000Z</time>
      </trkpt>
      <trkpt lat="43.45929" lon="2.10215">
        <ele>409</ele>
        <time>2019-03-09T07:42:48.000Z</time>
      </trkpt>
      <trkpt lat="43.45922" lon="2.10214">
        <ele>410</ele>
        <time>2019-03-09T07:42:51.000Z</time>
      </trkpt>
      <trkpt lat="43.45917" lon="2.10214">
        <ele>410.79998779297</ele>
        <time>2019-03-09T07:42:54.000Z</time>
      </trkpt>
      <trkpt lat="43.45915" lon="2.10213">
        <ele>411.20001220703</ele>
        <time>2019-03-09T07:42:56.000Z</time>
      </trkpt>
      <trkpt lat="43.45907" lon="2.10213">
        <ele>412.60000610352</ele>
        <time>2019-03-09T07:43:01.000Z</time>
      </trkpt>
      <trkpt lat="43.45905" lon="2.10213">
        <ele>413</ele>
        <time>2019-03-09T07:43:02.000Z</time>
      </trkpt>
      <trkpt lat="43.45897" lon="2.10213">
        <ele>414.79998779297</ele>
        <time>2019-03-09T07:43:07.000Z</time>
      </trkpt>
      <trkpt lat="43.45895" lon="2.10214">
        <ele>415.39999389648</ele>
        <time>2019-03-09T07:43:09.000Z</time>
      </trkpt>
      <trkpt lat="43.45889" lon="2.10213">
        <ele>416.60000610352</ele>
        <time>2019-03-09T07:43:13.000Z</time>
      </trkpt>
      <trkpt lat="43.45886" lon="2.10214">
        <ele>417.60000610352</ele>
        <time>2019-03-09T07:43:15.000Z</time>
      </trkpt>
      <trkpt lat="43.45882" lon="2.10214">
        <ele>418.79998779297</ele>
        <time>2019-03-09T07:43:18.000Z</time>
      </trkpt>
      <trkpt lat="43.45876" lon="2.10215">
        <ele>420.20001220703</ele>
        <time>2019-03-09T07:43:21.000Z</time>
      </trkpt>
      <trkpt lat="43.45873" lon="2.10215">
        <ele>420.79998779297</ele>
        <time>2019-03-09T07:43:23.000Z</time>
      </trkpt>
      <trkpt lat="43.45864" lon="2.10215">
        <ele>422.79998779297</ele>
        <time>2019-03-09T07:43:28.000Z</time>
      </trkpt>
      <trkpt lat="43.45862" lon="2.10215">
        <ele>423.39999389648</ele>
        <time>2019-03-09T07:43:29.000Z</time>
      </trkpt>
      <trkpt lat="43.45854" lon="2.10215">
        <ele>425.39999389648</ele>
        <time>2019-03-09T07:43:34.000Z</time>
      </trkpt>
      <trkpt lat="43.45851" lon="2.10215">
        <ele>426</ele>
        <time>2019-03-09T07:43:36.000Z</time>
      </trkpt>
      <trkpt lat="43.45847" lon="2.10214">
        <ele>426.79998779297</ele>
        <time>2019-03-09T07:43:39.000Z</time>
      </trkpt>
      <trkpt lat="43.45843" lon="2.10214">
        <ele>427.60000610352</ele>
        <time>2019-03-09T07:43:42.000Z</time>
      </trkpt>
      <trkpt lat="43.45838" lon="2.10213">
        <ele>428</ele>
        <time>2019-03-09T07:43:45.000Z</time>
      </trkpt>
      <trkpt lat="43.45831" lon="2.1021">
        <ele>428.60000610352</ele>
        <time>2019-03-09T07:43:49.000Z</time>
      </trkpt>
      <trkpt lat="43.4583" lon="2.1021">
        <ele>428.79998779297</ele>
        <time>2019-03-09T07:43:50.000Z</time>
      </trkpt>
      <trkpt lat="43.4582" lon="2.10206">
        <ele>429.79998779297</ele>
        <time>2019-03-09T07:43:57.000Z</time>
      </trkpt>
      <trkpt lat="43.45809" lon="2.10202">
        <ele>430.79998779297</ele>
        <time>2019-03-09T07:44:04.000Z</time>
      </trkpt>
      <trkpt lat="43.45801" lon="2.10199">
        <ele>432</ele>
        <time>2019-03-09T07:44:11.000Z</time>
      </trkpt>
      <trkpt lat="43.45799" lon="2.10199">
        <ele>432.20001220703</ele>
        <time>2019-03-09T07:44:12.000Z</time>
      </trkpt>
      <trkpt lat="43.45785" lon="2.10197">
        <ele>434.79998779297</ele>
        <time>2019-03-09T07:44:20.000Z</time>
      </trkpt>
      <trkpt lat="43.45775" lon="2.10197">
        <ele>437</ele>
        <time>2019-03-09T07:44:25.000Z</time>
      </trkpt>
      <trkpt lat="43.45773" lon="2.10197">
        <ele>437.39999389648</ele>
        <time>2019-03-09T07:44:27.000Z</time>
      </trkpt>
      <trkpt lat="43.45767" lon="2.10197">
        <ele>438.60000610352</ele>
        <time>2019-03-09T07:44:32.000Z</time>
      </trkpt>
      <trkpt lat="43.45765" lon="2.10197">
        <ele>439.20001220703</ele>
        <time>2019-03-09T07:44:34.000Z</time>
      </trkpt>
      <trkpt lat="43.45761" lon="2.10197">
        <ele>440</ele>
        <time>2019-03-09T07:44:37.000Z</time>
      </trkpt>
      <trkpt lat="43.45756" lon="2.10197">
        <ele>441.20001220703</ele>
        <time>2019-03-09T07:44:40.000Z</time>
      </trkpt>
      <trkpt lat="43.45752" lon="2.10197">
        <ele>442.20001220703</ele>
        <time>2019-03-09T07:44:43.000Z</time>
      </trkpt>
      <trkpt lat="43.45751" lon="2.10197">
        <ele>442.60000610352</ele>
        <time>2019-03-09T07:44:45.000Z</time>
      </trkpt>
      <trkpt lat="43.45749" lon="2.10197">
        <ele>442.79998779297</ele>
        <time>2019-03-09T07:44:46.000Z</time>
      </trkpt>
      <trkpt lat="43.45747" lon="2.10197">
        <ele>443.39999389648</ele>
        <time>2019-03-09T07:44:48.000Z</time>
      </trkpt>
      <trkpt lat="43.45741" lon="2.10196">
        <ele>444.79998779297</ele>
        <time>2019-03-09T07:44:51.000Z</time>
      </trkpt>
      <trkpt lat="43.45737" lon="2.10196">
        <ele>445.60000610352</ele>
        <time>2019-03-09T07:44:54.000Z</time>
      </trkpt>
      <trkpt lat="43.45731" lon="2.10195">
        <ele>447</ele>
        <time>2019-03-09T07:44:58.000Z</time>
      </trkpt>
      <trkpt lat="43.45723" lon="2.10196">
        <ele>448.79998779297</ele>
        <time>2019-03-09T07:45:02.000Z</time>
      </trkpt>
      <trkpt lat="43.4572" lon="2.10196">
        <ele>449.39999389648</ele>
        <time>2019-03-09T07:45:04.000Z</time>
      </trkpt>
      <trkpt lat="43.45716" lon="2.10195">
        <ele>450.39999389648</ele>
        <time>2019-03-09T07:45:07.000Z</time>
      </trkpt>
      <trkpt lat="43.45714" lon="2.10195">
        <ele>450.60000610352</ele>
        <time>2019-03-09T07:45:08.000Z</time>
      </trkpt>
      <trkpt lat="43.4571" lon="2.10195">
        <ele>451.39999389648</ele>
        <time>2019-03-09T07:45:10.000Z</time>
      </trkpt>
      <trkpt lat="43.45704" lon="2.10195">
        <ele>452.39999389648</ele>
        <time>2019-03-09T07:45:14.000Z</time>
      </trkpt>
      <trkpt lat="43.45701" lon="2.10194">
        <ele>452.79998779297</ele>
        <time>2019-03-09T07:45:16.000Z</time>
      </trkpt>
      <trkpt lat="43.45695" lon="2.10192">
        <ele>453.39999389648</ele>
        <time>2019-03-09T07:45:20.000Z</time>
      </trkpt>
      <trkpt lat="43.45693" lon="2.1019">
        <ele>453.39999389648</ele>
        <time>2019-03-09T07:45:22.000Z</time>
      </trkpt>
      <trkpt lat="43.45688" lon="2.10186">
        <ele>453.79998779297</ele>
        <time>2019-03-09T07:45:26.000Z</time>
      </trkpt>
      <trkpt lat="43.45686" lon="2.10185">
        <ele>453.79998779297</ele>
        <time>2019-03-09T07:45:28.000Z</time>
      </trkpt>
      <trkpt lat="43.45677" lon="2.10182">
        <ele>455.60000610352</ele>
        <time>2019-03-09T07:45:32.000Z</time>
      </trkpt>
      <trkpt lat="43.45673" lon="2.10179">
        <ele>457</ele>
        <time>2019-03-09T07:45:34.000Z</time>
      </trkpt>
      <trkpt lat="43.45665" lon="2.10175">
        <ele>459</ele>
        <time>2019-03-09T07:45:38.000Z</time>
      </trkpt>
      <trkpt lat="43.45662" lon="2.10172">
        <ele>459.60000610352</ele>
        <time>2019-03-09T07:45:40.000Z</time>
      </trkpt>
      <trkpt lat="43.45655" lon="2.10167">
        <ele>461</ele>
        <time>2019-03-09T07:45:43.000Z</time>
      </trkpt>
      <trkpt lat="43.45651" lon="2.10162">
        <ele>461.20001220703</ele>
        <time>2019-03-09T07:45:46.000Z</time>
      </trkpt>
      <trkpt lat="43.45651" lon="2.10156">
        <ele>461.20001220703</ele>
        <time>2019-03-09T07:45:49.000Z</time>
      </trkpt>
      <trkpt lat="43.45653" lon="2.10149">
        <ele>460.79998779297</ele>
        <time>2019-03-09T07:45:52.000Z</time>
      </trkpt>
      <trkpt lat="43.45655" lon="2.10142">
        <ele>460.39999389648</ele>
        <time>2019-03-09T07:45:55.000Z</time>
      </trkpt>
      <trkpt lat="43.45659" lon="2.10134">
        <ele>459.20001220703</ele>
        <time>2019-03-09T07:45:59.000Z</time>
      </trkpt>
      <trkpt lat="43.45663" lon="2.10129">
        <ele>458.60000610352</ele>
        <time>2019-03-09T07:46:02.000Z</time>
      </trkpt>
      <trkpt lat="43.45666" lon="2.10122">
        <ele>458</ele>
        <time>2019-03-09T07:46:06.000Z</time>
      </trkpt>
      <trkpt lat="43.45667" lon="2.1012">
        <ele>458</ele>
        <time>2019-03-09T07:46:07.000Z</time>
      </trkpt>
      <trkpt lat="43.45673" lon="2.10109">
        <ele>457.20001220703</ele>
        <time>2019-03-09T07:46:12.000Z</time>
      </trkpt>
      <trkpt lat="43.45673" lon="2.10107">
        <ele>457.20001220703</ele>
        <time>2019-03-09T07:46:13.000Z</time>
      </trkpt>
      <trkpt lat="43.45679" lon="2.10098">
        <ele>456.39999389648</ele>
        <time>2019-03-09T07:46:18.000Z</time>
      </trkpt>
      <trkpt lat="43.45686" lon="2.10085">
        <ele>455.39999389648</ele>
        <time>2019-03-09T07:46:25.000Z</time>
      </trkpt>
      <trkpt lat="43.45687" lon="2.10084">
        <ele>455.39999389648</ele>
        <time>2019-03-09T07:46:26.000Z</time>
      </trkpt>
      <trkpt lat="43.45691" lon="2.10071">
        <ele>455.60000610352</ele>
        <time>2019-03-09T07:46:32.000Z</time>
      </trkpt>
      <trkpt lat="43.45693" lon="2.10067">
        <ele>455.79998779297</ele>
        <time>2019-03-09T07:46:34.000Z</time>
      </trkpt>
      <trkpt lat="43.45697" lon="2.10059">
        <ele>456.39999389648</ele>
        <time>2019-03-09T07:46:38.000Z</time>
      </trkpt>
      <trkpt lat="43.45698" lon="2.10055">
        <ele>456.60000610352</ele>
        <time>2019-03-09T07:46:40.000Z</time>
      </trkpt>
      <trkpt lat="43.45702" lon="2.10049">
        <ele>456.79998779297</ele>
        <time>2019-03-09T07:46:44.000Z</time>
      </trkpt>
      <trkpt lat="43.45705" lon="2.10043">
        <ele>457</ele>
        <time>2019-03-09T07:46:47.000Z</time>
      </trkpt>
      <trkpt lat="43.45709" lon="2.10037">
        <ele>457</ele>
        <time>2019-03-09T07:46:51.000Z</time>
      </trkpt>
      <trkpt lat="43.45712" lon="2.10032">
        <ele>457.20001220703</ele>
        <time>2019-03-09T07:46:54.000Z</time>
      </trkpt>
      <trkpt lat="43.45716" lon="2.10027">
        <ele>457</ele>
        <time>2019-03-09T07:46:57.000Z</time>
      </trkpt>
      <trkpt lat="43.4572" lon="2.10021">
        <ele>457.39999389648</ele>
        <time>2019-03-09T07:47:01.000Z</time>
      </trkpt>
      <trkpt lat="43.45721" lon="2.10019">
        <ele>457.60000610352</ele>
        <time>2019-03-09T07:47:02.000Z</time>
      </trkpt>
      <trkpt lat="43.45728" lon="2.1001">
        <ele>458.20001220703</ele>
        <time>2019-03-09T07:47:08.000Z</time>
      </trkpt>
      <trkpt lat="43.45733" lon="2.10002">
        <ele>458.79998779297</ele>
        <time>2019-03-09T07:47:12.000Z</time>
      </trkpt>
      <trkpt lat="43.45736" lon="2.09999">
        <ele>458.79998779297</ele>
        <time>2019-03-09T07:47:14.000Z</time>
      </trkpt>
      <trkpt lat="43.45744" lon="2.09988">
        <ele>458</ele>
        <time>2019-03-09T07:47:21.000Z</time>
      </trkpt>
      <trkpt lat="43.45745" lon="2.09986">
        <ele>457.60000610352</ele>
        <time>2019-03-09T07:47:22.000Z</time>
      </trkpt>
      <trkpt lat="43.45749" lon="2.09979">
        <ele>456.20001220703</ele>
        <time>2019-03-09T07:47:26.000Z</time>
      </trkpt>
      <trkpt lat="43.45752" lon="2.09972">
        <ele>456.20001220703</ele>
        <time>2019-03-09T07:47:30.000Z</time>
      </trkpt>
      <trkpt lat="43.45754" lon="2.09968">
        <ele>456.60000610352</ele>
        <time>2019-03-09T07:47:32.000Z</time>
      </trkpt>
      <trkpt lat="43.45754" lon="2.09963">
        <ele>457.20001220703</ele>
        <time>2019-03-09T07:47:34.000Z</time>
      </trkpt>
      <trkpt lat="43.45755" lon="2.0996">
        <ele>457.60000610352</ele>
        <time>2019-03-09T07:47:36.000Z</time>
      </trkpt>
      <trkpt lat="43.45755" lon="2.09957">
        <ele>458</ele>
        <time>2019-03-09T07:47:38.000Z</time>
      </trkpt>
      <trkpt lat="43.45755" lon="2.09956">
        <ele>458.20001220703</ele>
        <time>2019-03-09T07:47:39.000Z</time>
      </trkpt>
      <trkpt lat="43.45753" lon="2.09952">
        <ele>458.79998779297</ele>
        <time>2019-03-09T07:47:41.000Z</time>
      </trkpt>
      <trkpt lat="43.45752" lon="2.09948">
        <ele>459.39999389648</ele>
        <time>2019-03-09T07:47:43.000Z</time>
      </trkpt>
      <trkpt lat="43.45751" lon="2.09947">
        <ele>459.79998779297</ele>
        <time>2019-03-09T07:47:44.000Z</time>
      </trkpt>
      <trkpt lat="43.45748" lon="2.09939">
        <ele>461</ele>
        <time>2019-03-09T07:47:48.000Z</time>
      </trkpt>
      <trkpt lat="43.45748" lon="2.09937">
        <ele>461.39999389648</ele>
        <time>2019-03-09T07:47:49.000Z</time>
      </trkpt>
      <trkpt lat="43.45745" lon="2.09929">
        <ele>462.79998779297</ele>
        <time>2019-03-09T07:47:53.000Z</time>
      </trkpt>
      <trkpt lat="43.45743" lon="2.09923">
        <ele>463.79998779297</ele>
        <time>2019-03-09T07:47:56.000Z</time>
      </trkpt>
      <trkpt lat="43.45739" lon="2.0992">
        <ele>464.60000610352</ele>
        <time>2019-03-09T07:47:59.000Z</time>
      </trkpt>
      <trkpt lat="43.45738" lon="2.09921">
        <ele>464.60000610352</ele>
        <time>2019-03-09T07:48:00.000Z</time>
      </trkpt>
      <trkpt lat="43.45736" lon="2.09924">
        <ele>464.39999389648</ele>
        <time>2019-03-09T07:48:02.000Z</time>
      </trkpt>
      <trkpt lat="43.45736" lon="2.09928">
        <ele>463.79998779297</ele>
        <time>2019-03-09T07:48:04.000Z</time>
      </trkpt>
      <trkpt lat="43.45737" lon="2.09938">
        <ele>462.39999389648</ele>
        <time>2019-03-09T07:48:08.000Z</time>
      </trkpt>
      <trkpt lat="43.45735" lon="2.09951">
        <ele>461</ele>
        <time>2019-03-09T07:48:14.000Z</time>
      </trkpt>
      <trkpt lat="43.45733" lon="2.09956">
        <ele>460.60000610352</ele>
        <time>2019-03-09T07:48:17.000Z</time>
      </trkpt>
      <trkpt lat="43.45729" lon="2.0996">
        <ele>461</ele>
        <time>2019-03-09T07:48:20.000Z</time>
      </trkpt>
      <trkpt lat="43.45723" lon="2.09964">
        <ele>462.79998779297</ele>
        <time>2019-03-09T07:48:24.000Z</time>
      </trkpt>
      <trkpt lat="43.45722" lon="2.09965">
        <ele>463.20001220703</ele>
        <time>2019-03-09T07:48:25.000Z</time>
      </trkpt>
      <trkpt lat="43.45714" lon="2.09969">
        <ele>465.39999389648</ele>
        <time>2019-03-09T07:48:30.000Z</time>
      </trkpt>
      <trkpt lat="43.45713" lon="2.0997">
        <ele>465.79998779297</ele>
        <time>2019-03-09T07:48:31.000Z</time>
      </trkpt>
      <trkpt lat="43.45703" lon="2.09975">
        <ele>468.60000610352</ele>
        <time>2019-03-09T07:48:37.000Z</time>
      </trkpt>
      <trkpt lat="43.45701" lon="2.09976">
        <ele>469.39999389648</ele>
        <time>2019-03-09T07:48:39.000Z</time>
      </trkpt>
      <trkpt lat="43.45697" lon="2.09979">
        <ele>470.60000610352</ele>
        <time>2019-03-09T07:48:42.000Z</time>
      </trkpt>
      <trkpt lat="43.45692" lon="2.09982">
        <ele>471.79998779297</ele>
        <time>2019-03-09T07:48:45.000Z</time>
      </trkpt>
      <trkpt lat="43.45689" lon="2.09983">
        <ele>472.79998779297</ele>
        <time>2019-03-09T07:48:47.000Z</time>
      </trkpt>
      <trkpt lat="43.45684" lon="2.09987">
        <ele>474.39999389648</ele>
        <time>2019-03-09T07:48:51.000Z</time>
      </trkpt>
      <trkpt lat="43.45681" lon="2.09988">
        <ele>474.60000610352</ele>
        <time>2019-03-09T07:48:53.000Z</time>
      </trkpt>
      <trkpt lat="43.45676" lon="2.09991">
        <ele>474.60000610352</ele>
        <time>2019-03-09T07:48:56.000Z</time>
      </trkpt>
      <trkpt lat="43.4567" lon="2.09996">
        <ele>474.20001220703</ele>
        <time>2019-03-09T07:49:01.000Z</time>
      </trkpt>
      <trkpt lat="43.45669" lon="2.09998">
        <ele>473.79998779297</ele>
        <time>2019-03-09T07:49:02.000Z</time>
      </trkpt>
      <trkpt lat="43.45662" lon="2.10001">
        <ele>473</ele>
        <time>2019-03-09T07:49:06.000Z</time>
      </trkpt>
      <trkpt lat="43.45659" lon="2.10004">
        <ele>472.39999389648</ele>
        <time>2019-03-09T07:49:09.000Z</time>
      </trkpt>
      <trkpt lat="43.45654" lon="2.10009">
        <ele>471.39999389648</ele>
        <time>2019-03-09T07:49:13.000Z</time>
      </trkpt>
      <trkpt lat="43.45649" lon="2.10013">
        <ele>470.20001220703</ele>
        <time>2019-03-09T07:49:17.000Z</time>
      </trkpt>
      <trkpt lat="43.45644" lon="2.10018">
        <ele>469.20001220703</ele>
        <time>2019-03-09T07:49:20.000Z</time>
      </trkpt>
      <trkpt lat="43.45637" lon="2.10025">
        <ele>467.60000610352</ele>
        <time>2019-03-09T07:49:25.000Z</time>
      </trkpt>
      <trkpt lat="43.45633" lon="2.10027">
        <ele>467.20001220703</ele>
        <time>2019-03-09T07:49:27.000Z</time>
      </trkpt>
      <trkpt lat="43.45627" lon="2.10031">
        <ele>469.20001220703</ele>
        <time>2019-03-09T07:49:31.000Z</time>
      </trkpt>
      <trkpt lat="43.45626" lon="2.10032">
        <ele>469.79998779297</ele>
        <time>2019-03-09T07:49:32.000Z</time>
      </trkpt>
      <trkpt lat="43.45622" lon="2.10034">
        <ele>471.20001220703</ele>
        <time>2019-03-09T07:49:34.000Z</time>
      </trkpt>
      <trkpt lat="43.45614" lon="2.10039">
        <ele>474</ele>
        <time>2019-03-09T07:49:38.000Z</time>
      </trkpt>
      <trkpt lat="43.45606" lon="2.10045">
        <ele>476.79998779297</ele>
        <time>2019-03-09T07:49:42.000Z</time>
      </trkpt>
      <trkpt lat="43.45601" lon="2.1005">
        <ele>479</ele>
        <time>2019-03-09T07:49:45.000Z</time>
      </trkpt>
      <trkpt lat="43.45597" lon="2.10053">
        <ele>479.79998779297</ele>
        <time>2019-03-09T07:49:47.000Z</time>
      </trkpt>
      <trkpt lat="43.45589" lon="2.10061">
        <ele>481</ele>
        <time>2019-03-09T07:49:51.000Z</time>
      </trkpt>
      <trkpt lat="43.45581" lon="2.1007">
        <ele>483.60000610352</ele>
        <time>2019-03-09T07:49:55.000Z</time>
      </trkpt>
      <trkpt lat="43.45563" lon="2.10091">
        <ele>487.20001220703</ele>
        <time>2019-03-09T07:50:04.000Z</time>
      </trkpt>
      <trkpt lat="43.4556" lon="2.10094">
        <ele>487.39999389648</ele>
        <time>2019-03-09T07:50:05.000Z</time>
      </trkpt>
      <trkpt lat="43.45554" lon="2.10107">
        <ele>488</ele>
        <time>2019-03-09T07:50:10.000Z</time>
      </trkpt>
      <trkpt lat="43.4555" lon="2.10116">
        <ele>489.20001220703</ele>
        <time>2019-03-09T07:50:13.000Z</time>
      </trkpt>
      <trkpt lat="43.45547" lon="2.10126">
        <ele>491.79998779297</ele>
        <time>2019-03-09T07:50:16.000Z</time>
      </trkpt>
      <trkpt lat="43.45544" lon="2.1014">
        <ele>494.60000610352</ele>
        <time>2019-03-09T07:50:20.000Z</time>
      </trkpt>
      <trkpt lat="43.45543" lon="2.10152">
        <ele>496.79998779297</ele>
        <time>2019-03-09T07:50:24.000Z</time>
      </trkpt>
      <trkpt lat="43.45542" lon="2.10162">
        <ele>498.39999389648</ele>
        <time>2019-03-09T07:50:27.000Z</time>
      </trkpt>
      <trkpt lat="43.45541" lon="2.10171">
        <ele>499.39999389648</ele>
        <time>2019-03-09T07:50:30.000Z</time>
      </trkpt>
      <trkpt lat="43.4554" lon="2.10185">
        <ele>500.60000610352</ele>
        <time>2019-03-09T07:50:35.000Z</time>
      </trkpt>
      <trkpt lat="43.45539" lon="2.10191">
        <ele>501.20001220703</ele>
        <time>2019-03-09T07:50:37.000Z</time>
      </trkpt>
      <trkpt lat="43.45538" lon="2.10205">
        <ele>502.39999389648</ele>
        <time>2019-03-09T07:50:43.000Z</time>
      </trkpt>
      <trkpt lat="43.45534" lon="2.10219">
        <ele>504</ele>
        <time>2019-03-09T07:50:49.000Z</time>
      </trkpt>
      <trkpt lat="43.45534" lon="2.10231">
        <ele>504.79998779297</ele>
        <time>2019-03-09T07:50:55.000Z</time>
      </trkpt>
      <trkpt lat="43.45535" lon="2.10244">
        <ele>505.20001220703</ele>
        <time>2019-03-09T07:51:02.000Z</time>
      </trkpt>
      <trkpt lat="43.45535" lon="2.1025">
        <ele>505.60000610352</ele>
        <time>2019-03-09T07:51:05.000Z</time>
      </trkpt>
      <trkpt lat="43.45536" lon="2.10262">
        <ele>506.20001220703</ele>
        <time>2019-03-09T07:51:11.000Z</time>
      </trkpt>
      <trkpt lat="43.45536" lon="2.10268">
        <ele>505.79998779297</ele>
        <time>2019-03-09T07:51:14.000Z</time>
      </trkpt>
      <trkpt lat="43.45536" lon="2.10276">
        <ele>505.20001220703</ele>
        <time>2019-03-09T07:51:18.000Z</time>
      </trkpt>
      <trkpt lat="43.45536" lon="2.1028">
        <ele>505</ele>
        <time>2019-03-09T07:51:20.000Z</time>
      </trkpt>
      <trkpt lat="43.45536" lon="2.10289">
        <ele>504.39999389648</ele>
        <time>2019-03-09T07:51:24.000Z</time>
      </trkpt>
      <trkpt lat="43.45537" lon="2.1029">
        <ele>504.20001220703</ele>
        <time>2019-03-09T07:51:25.000Z</time>
      </trkpt>
      <trkpt lat="43.45537" lon="2.10293">
        <ele>504</ele>
        <time>2019-03-09T07:51:26.000Z</time>
      </trkpt>
      <trkpt lat="43.45534" lon="2.10302">
        <ele>503.79998779297</ele>
        <time>2019-03-09T07:51:31.000Z</time>
      </trkpt>
      <trkpt lat="43.45531" lon="2.10304">
        <ele>504</ele>
        <time>2019-03-09T07:51:33.000Z</time>
      </trkpt>
      <trkpt lat="43.45529" lon="2.10306">
        <ele>504.20001220703</ele>
        <time>2019-03-09T07:51:35.000Z</time>
      </trkpt>
      <trkpt lat="43.45528" lon="2.10307">
        <ele>504.39999389648</ele>
        <time>2019-03-09T07:51:36.000Z</time>
      </trkpt>
      <trkpt lat="43.45526" lon="2.10311">
        <ele>504.39999389648</ele>
        <time>2019-03-09T07:51:39.000Z</time>
      </trkpt>
      <trkpt lat="43.45524" lon="2.10315">
        <ele>504.60000610352</ele>
        <time>2019-03-09T07:51:43.000Z</time>
      </trkpt>
      <trkpt lat="43.45523" lon="2.10315">
        <ele>504.60000610352</ele>
        <time>2019-03-09T07:51:44.000Z</time>
      </trkpt>
      <trkpt lat="43.45523" lon="2.10315">
        <ele>504.60000610352</ele>
        <time>2019-03-09T07:51:49.000Z</time>
      </trkpt>
      <trkpt lat="43.45523" lon="2.10315">
        <ele>504.60000610352</ele>
        <time>2019-03-09T07:52:04.000Z</time>
      </trkpt>
      <trkpt lat="43.45523" lon="2.10315">
        <ele>504.60000610352</ele>
        <time>2019-03-09T07:52:22.000Z</time>
      </trkpt>
      <trkpt lat="43.45523" lon="2.10316">
        <ele>504.60000610352</ele>
        <time>2019-03-09T07:52:39.000Z</time>
      </trkpt>
      <trkpt lat="43.45523" lon="2.10316">
        <ele>504.60000610352</ele>
        <time>2019-03-09T07:52:57.000Z</time>
      </trkpt>
      <trkpt lat="43.45523" lon="2.10316">
        <ele>504.60000610352</ele>
        <time>2019-03-09T07:53:16.000Z</time>
      </trkpt>
      <trkpt lat="43.45523" lon="2.10316">
        <ele>504.60000610352</ele>
        <time>2019-03-09T07:53:29.000Z</time>
      </trkpt>
      <trkpt lat="43.45523" lon="2.10316">
        <ele>504.60000610352</ele>
        <time>2019-03-09T07:53:47.000Z</time>
      </trkpt>
      <trkpt lat="43.45523" lon="2.10316">
        <ele>504.60000610352</ele>
        <time>2019-03-09T07:54:08.000Z</time>
      </trkpt>
      <trkpt lat="43.45523" lon="2.10316">
        <ele>504.60000610352</ele>
        <time>2019-03-09T07:54:24.000Z</time>
      </trkpt>
      <trkpt lat="43.45523" lon="2.10316">
        <ele>504.60000610352</ele>
        <time>2019-03-09T07:54:51.000Z</time>
      </trkpt>
      <trkpt lat="43.45523" lon="2.10317">
        <ele>504.39999389648</ele>
        <time>2019-03-09T07:55:11.000Z</time>
      </trkpt>
      <trkpt lat="43.45523" lon="2.10317">
        <ele>504.39999389648</ele>
        <time>2019-03-09T07:55:24.000Z</time>
      </trkpt>
      <trkpt lat="43.45523" lon="2.10317">
        <ele>504.39999389648</ele>
        <time>2019-03-09T07:55:29.000Z</time>
      </trkpt>
      <trkpt lat="43.45523" lon="2.10317">
        <ele>504.39999389648</ele>
        <time>2019-03-09T07:55:32.000Z</time>
      </trkpt>
      <trkpt lat="43.45523" lon="2.10317">
        <ele>504.60000610352</ele>
        <time>2019-03-09T07:55:37.000Z</time>
      </trkpt>
      <trkpt lat="43.4552" lon="2.10319">
        <ele>504.79998779297</ele>
        <time>2019-03-09T07:55:39.000Z</time>
      </trkpt>
      <trkpt lat="43.45517" lon="2.1032">
        <ele>505.20001220703</ele>
        <time>2019-03-09T07:55:42.000Z</time>
      </trkpt>
      <trkpt lat="43.45514" lon="2.10321">
        <ele>505.60000610352</ele>
        <time>2019-03-09T07:55:46.000Z</time>
      </trkpt>
      <trkpt lat="43.45512" lon="2.10322">
        <ele>505.79998779297</ele>
        <time>2019-03-09T07:55:47.000Z</time>
      </trkpt>
      <trkpt lat="43.45504" lon="2.10322">
        <ele>505.79998779297</ele>
        <time>2019-03-09T07:55:52.000Z</time>
      </trkpt>
      <trkpt lat="43.45498" lon="2.10322">
        <ele>506</ele>
        <time>2019-03-09T07:55:57.000Z</time>
      </trkpt>
      <trkpt lat="43.45496" lon="2.10322">
        <ele>506</ele>
        <time>2019-03-09T07:55:58.000Z</time>
      </trkpt>
      <trkpt lat="43.45493" lon="2.10322">
        <ele>506</ele>
        <time>2019-03-09T07:56:01.000Z</time>
      </trkpt>
      <trkpt lat="43.45492" lon="2.10322">
        <ele>506</ele>
        <time>2019-03-09T07:56:04.000Z</time>
      </trkpt>
      <trkpt lat="43.45488" lon="2.10321">
        <ele>506.20001220703</ele>
        <time>2019-03-09T07:56:07.000Z</time>
      </trkpt>
      <trkpt lat="43.45487" lon="2.1032">
        <ele>506.39999389648</ele>
        <time>2019-03-09T07:56:09.000Z</time>
      </trkpt>
      <trkpt lat="43.45483" lon="2.10318">
        <ele>506.79998779297</ele>
        <time>2019-03-09T07:56:13.000Z</time>
      </trkpt>
      <trkpt lat="43.45482" lon="2.10317">
        <ele>507</ele>
        <time>2019-03-09T07:56:14.000Z</time>
      </trkpt>
      <trkpt lat="43.45479" lon="2.10315">
        <ele>507.39999389648</ele>
        <time>2019-03-09T07:56:17.000Z</time>
      </trkpt>
      <trkpt lat="43.45471" lon="2.1031">
        <ele>508.39999389648</ele>
        <time>2019-03-09T07:56:21.000Z</time>
      </trkpt>
      <trkpt lat="43.45463" lon="2.10305">
        <ele>509.39999389648</ele>
        <time>2019-03-09T07:56:26.000Z</time>
      </trkpt>
      <trkpt lat="43.45462" lon="2.10304">
        <ele>509.60000610352</ele>
        <time>2019-03-09T07:56:27.000Z</time>
      </trkpt>
      <trkpt lat="43.4546" lon="2.10303">
        <ele>509.79998779297</ele>
        <time>2019-03-09T07:56:28.000Z</time>
      </trkpt>
      <trkpt lat="43.45455" lon="2.10297">
        <ele>511</ele>
        <time>2019-03-09T07:56:32.000Z</time>
      </trkpt>
      <trkpt lat="43.45451" lon="2.10294">
        <ele>511.79998779297</ele>
        <time>2019-03-09T07:56:35.000Z</time>
      </trkpt>
      <trkpt lat="43.45448" lon="2.10291">
        <ele>512.20001220703</ele>
        <time>2019-03-09T07:56:37.000Z</time>
      </trkpt>
      <trkpt lat="43.45442" lon="2.10283">
        <ele>514</ele>
        <time>2019-03-09T07:56:42.000Z</time>
      </trkpt>
      <trkpt lat="43.45441" lon="2.10281">
        <ele>514.40002441406</ele>
        <time>2019-03-09T07:56:43.000Z</time>
      </trkpt>
      <trkpt lat="43.45439" lon="2.10274">
        <ele>515.79998779297</ele>
        <time>2019-03-09T07:56:48.000Z</time>
      </trkpt>
      <trkpt lat="43.45436" lon="2.10264">
        <ele>517.79998779297</ele>
        <time>2019-03-09T07:56:54.000Z</time>
      </trkpt>
      <trkpt lat="43.45435" lon="2.10263">
        <ele>518</ele>
        <time>2019-03-09T07:56:55.000Z</time>
      </trkpt>
      <trkpt lat="43.45434" lon="2.10261">
        <ele>518.40002441406</ele>
        <time>2019-03-09T07:56:56.000Z</time>
      </trkpt>
      <trkpt lat="43.45431" lon="2.10258">
        <ele>518.79998779297</ele>
        <time>2019-03-09T07:56:59.000Z</time>
      </trkpt>
      <trkpt lat="43.45429" lon="2.10256">
        <ele>519</ele>
        <time>2019-03-09T07:57:01.000Z</time>
      </trkpt>
      <trkpt lat="43.45422" lon="2.10253">
        <ele>519</ele>
        <time>2019-03-09T07:57:06.000Z</time>
      </trkpt>
      <trkpt lat="43.45421" lon="2.10252">
        <ele>518.79998779297</ele>
        <time>2019-03-09T07:57:07.000Z</time>
      </trkpt>
      <trkpt lat="43.45405" lon="2.10243">
        <ele>519.20001220703</ele>
        <time>2019-03-09T07:57:13.000Z</time>
      </trkpt>
      <trkpt lat="43.45397" lon="2.10236">
        <ele>519.79998779297</ele>
        <time>2019-03-09T07:57:17.000Z</time>
      </trkpt>
      <trkpt lat="43.45391" lon="2.10231">
        <ele>520.20001220703</ele>
        <time>2019-03-09T07:57:20.000Z</time>
      </trkpt>
      <trkpt lat="43.45386" lon="2.10224">
        <ele>521.20001220703</ele>
        <time>2019-03-09T07:57:23.000Z</time>
      </trkpt>
      <trkpt lat="43.45385" lon="2.10216">
        <ele>522.79998779297</ele>
        <time>2019-03-09T07:57:27.000Z</time>
      </trkpt>
      <trkpt lat="43.45385" lon="2.10215">
        <ele>523</ele>
        <time>2019-03-09T07:57:28.000Z</time>
      </trkpt>
      <trkpt lat="43.45389" lon="2.10211">
        <ele>524.40002441406</ele>
        <time>2019-03-09T07:57:33.000Z</time>
      </trkpt>
      <trkpt lat="43.45399" lon="2.10216">
        <ele>524.20001220703</ele>
        <time>2019-03-09T07:57:39.000Z</time>
      </trkpt>
      <trkpt lat="43.45411" lon="2.10223">
        <ele>524.20001220703</ele>
        <time>2019-03-09T07:57:44.000Z</time>
      </trkpt>
      <trkpt lat="43.45425" lon="2.10226">
        <ele>523.20001220703</ele>
        <time>2019-03-09T07:57:48.000Z</time>
      </trkpt>
      <trkpt lat="43.45429" lon="2.10225">
        <ele>522.79998779297</ele>
        <time>2019-03-09T07:57:49.000Z</time>
      </trkpt>
      <trkpt lat="43.45439" lon="2.10218">
        <ele>521.79998779297</ele>
        <time>2019-03-09T07:57:51.000Z</time>
      </trkpt>
      <trkpt lat="43.45442" lon="2.10212">
        <ele>521.40002441406</ele>
        <time>2019-03-09T07:57:52.000Z</time>
      </trkpt>
      <trkpt lat="43.45445" lon="2.10206">
        <ele>521.40002441406</ele>
        <time>2019-03-09T07:57:53.000Z</time>
      </trkpt>
      <trkpt lat="43.45442" lon="2.10193">
        <ele>522</ele>
        <time>2019-03-09T07:57:55.000Z</time>
      </trkpt>
      <trkpt lat="43.4544" lon="2.10188">
        <ele>522.40002441406</ele>
        <time>2019-03-09T07:57:56.000Z</time>
      </trkpt>
      <trkpt lat="43.45431" lon="2.10175">
        <ele>523.79998779297</ele>
        <time>2019-03-09T07:57:59.000Z</time>
      </trkpt>
      <trkpt lat="43.45424" lon="2.1017">
        <ele>524.40002441406</ele>
        <time>2019-03-09T07:58:01.000Z</time>
      </trkpt>
      <trkpt lat="43.45422" lon="2.10168">
        <ele>524.79998779297</ele>
        <time>2019-03-09T07:58:02.000Z</time>
      </trkpt>
      <trkpt lat="43.45418" lon="2.10165">
        <ele>525.20001220703</ele>
        <time>2019-03-09T07:58:04.000Z</time>
      </trkpt>
      <trkpt lat="43.45405" lon="2.10146">
        <ele>528</ele>
        <time>2019-03-09T07:58:11.000Z</time>
      </trkpt>
      <trkpt lat="43.45397" lon="2.10126">
        <ele>531</ele>
        <time>2019-03-09T07:58:17.000Z</time>
      </trkpt>
      <trkpt lat="43.45397" lon="2.101">
        <ele>530</ele>
        <time>2019-03-09T07:58:23.000Z</time>
      </trkpt>
      <trkpt lat="43.45399" lon="2.10069">
        <ele>528.40002441406</ele>
        <time>2019-03-09T07:58:30.000Z</time>
      </trkpt>
      <trkpt lat="43.45397" lon="2.10039">
        <ele>528.20001220703</ele>
        <time>2019-03-09T07:58:37.000Z</time>
      </trkpt>
      <trkpt lat="43.4539" lon="2.10014">
        <ele>528.40002441406</ele>
        <time>2019-03-09T07:58:43.000Z</time>
      </trkpt>
      <trkpt lat="43.4538" lon="2.09996">
        <ele>530</ele>
        <time>2019-03-09T07:58:49.000Z</time>
      </trkpt>
      <trkpt lat="43.4537" lon="2.0998">
        <ele>531.20001220703</ele>
        <time>2019-03-09T07:58:54.000Z</time>
      </trkpt>
      <trkpt lat="43.45368" lon="2.09977">
        <ele>531.40002441406</ele>
        <time>2019-03-09T07:58:55.000Z</time>
      </trkpt>
      <trkpt lat="43.45355" lon="2.09961">
        <ele>533.40002441406</ele>
        <time>2019-03-09T07:59:01.000Z</time>
      </trkpt>
      <trkpt lat="43.45353" lon="2.09959">
        <ele>533.59997558594</ele>
        <time>2019-03-09T07:59:02.000Z</time>
      </trkpt>
      <trkpt lat="43.45341" lon="2.09945">
        <ele>533</ele>
        <time>2019-03-09T07:59:08.000Z</time>
      </trkpt>
      <trkpt lat="43.45339" lon="2.09943">
        <ele>532.59997558594</ele>
        <time>2019-03-09T07:59:09.000Z</time>
      </trkpt>
      <trkpt lat="43.4533" lon="2.09932">
        <ele>531</ele>
        <time>2019-03-09T07:59:14.000Z</time>
      </trkpt>
      <trkpt lat="43.45324" lon="2.09926">
        <ele>530</ele>
        <time>2019-03-09T07:59:17.000Z</time>
      </trkpt>
      <trkpt lat="43.45318" lon="2.0992">
        <ele>529</ele>
        <time>2019-03-09T07:59:20.000Z</time>
      </trkpt>
      <trkpt lat="43.45305" lon="2.09909">
        <ele>527.20001220703</ele>
        <time>2019-03-09T07:59:26.000Z</time>
      </trkpt>
      <trkpt lat="43.45292" lon="2.09906">
        <ele>526.40002441406</ele>
        <time>2019-03-09T07:59:32.000Z</time>
      </trkpt>
      <trkpt lat="43.45279" lon="2.09914">
        <ele>527.79998779297</ele>
        <time>2019-03-09T07:59:38.000Z</time>
      </trkpt>
      <trkpt lat="43.45277" lon="2.09916">
        <ele>528</ele>
        <time>2019-03-09T07:59:39.000Z</time>
      </trkpt>
      <trkpt lat="43.45263" lon="2.09929">
        <ele>529</ele>
        <time>2019-03-09T07:59:46.000Z</time>
      </trkpt>
      <trkpt lat="43.45248" lon="2.0995">
        <ele>529.20001220703</ele>
        <time>2019-03-09T07:59:54.000Z</time>
      </trkpt>
      <trkpt lat="43.45247" lon="2.09953">
        <ele>529.20001220703</ele>
        <time>2019-03-09T07:59:55.000Z</time>
      </trkpt>
      <trkpt lat="43.45238" lon="2.09972">
        <ele>530.59997558594</ele>
        <time>2019-03-09T08:00:01.000Z</time>
      </trkpt>
      <trkpt lat="43.45226" lon="2.09997">
        <ele>534.40002441406</ele>
        <time>2019-03-09T08:00:08.000Z</time>
      </trkpt>
      <trkpt lat="43.45214" lon="2.10022">
        <ele>533</ele>
        <time>2019-03-09T08:00:15.000Z</time>
      </trkpt>
      <trkpt lat="43.45209" lon="2.10034">
        <ele>533.59997558594</ele>
        <time>2019-03-09T08:00:18.000Z</time>
      </trkpt>
      <trkpt lat="43.45201" lon="2.1005">
        <ele>534.20001220703</ele>
        <time>2019-03-09T08:00:22.000Z</time>
      </trkpt>
      <trkpt lat="43.45188" lon="2.10079">
        <ele>534.79998779297</ele>
        <time>2019-03-09T08:00:28.000Z</time>
      </trkpt>
      <trkpt lat="43.45168" lon="2.10097">
        <ele>534</ele>
        <time>2019-03-09T08:00:33.000Z</time>
      </trkpt>
      <trkpt lat="43.45157" lon="2.10097">
        <ele>535.20001220703</ele>
        <time>2019-03-09T08:00:36.000Z</time>
      </trkpt>
      <trkpt lat="43.45153" lon="2.10096">
        <ele>535.59997558594</ele>
        <time>2019-03-09T08:00:37.000Z</time>
      </trkpt>
      <trkpt lat="43.45136" lon="2.10092">
        <ele>538</ele>
        <time>2019-03-09T08:00:43.000Z</time>
      </trkpt>
      <trkpt lat="43.45125" lon="2.10087">
        <ele>539.79998779297</ele>
        <time>2019-03-09T08:00:49.000Z</time>
      </trkpt>
      <trkpt lat="43.45124" lon="2.10086">
        <ele>540</ele>
        <time>2019-03-09T08:00:50.000Z</time>
      </trkpt>
      <trkpt lat="43.45112" lon="2.1008">
        <ele>542.20001220703</ele>
        <time>2019-03-09T08:00:55.000Z</time>
      </trkpt>
      <trkpt lat="43.45111" lon="2.10079">
        <ele>542.59997558594</ele>
        <time>2019-03-09T08:00:56.000Z</time>
      </trkpt>
      <trkpt lat="43.45105" lon="2.10075">
        <ele>543.20001220703</ele>
        <time>2019-03-09T08:01:00.000Z</time>
      </trkpt>
      <trkpt lat="43.451" lon="2.10072">
        <ele>543.20001220703</ele>
        <time>2019-03-09T08:01:03.000Z</time>
      </trkpt>
      <trkpt lat="43.45099" lon="2.10071">
        <ele>543.20001220703</ele>
        <time>2019-03-09T08:01:04.000Z</time>
      </trkpt>
      <trkpt lat="43.45096" lon="2.10068">
        <ele>543</ele>
        <time>2019-03-09T08:01:08.000Z</time>
      </trkpt>
      <trkpt lat="43.45096" lon="2.10066">
        <ele>542.79998779297</ele>
        <time>2019-03-09T08:01:09.000Z</time>
      </trkpt>
      <trkpt lat="43.45093" lon="2.10063">
        <ele>542.79998779297</ele>
        <time>2019-03-09T08:01:12.000Z</time>
      </trkpt>
      <trkpt lat="43.45089" lon="2.10061">
        <ele>543.20001220703</ele>
        <time>2019-03-09T08:01:15.000Z</time>
      </trkpt>
      <trkpt lat="43.45088" lon="2.10061">
        <ele>543.20001220703</ele>
        <time>2019-03-09T08:01:16.000Z</time>
      </trkpt>
      <trkpt lat="43.45078" lon="2.10057">
        <ele>544.20001220703</ele>
        <time>2019-03-09T08:01:20.000Z</time>
      </trkpt>
      <trkpt lat="43.45076" lon="2.10055">
        <ele>544.20001220703</ele>
        <time>2019-03-09T08:01:21.000Z</time>
      </trkpt>
      <trkpt lat="43.45068" lon="2.10053">
        <ele>544.79998779297</ele>
        <time>2019-03-09T08:01:24.000Z</time>
      </trkpt>
      <trkpt lat="43.45063" lon="2.1005">
        <ele>545.20001220703</ele>
        <time>2019-03-09T08:01:26.000Z</time>
      </trkpt>
      <trkpt lat="43.45058" lon="2.10049">
        <ele>545.59997558594</ele>
        <time>2019-03-09T08:01:28.000Z</time>
      </trkpt>
      <trkpt lat="43.45053" lon="2.10046">
        <ele>546</ele>
        <time>2019-03-09T08:01:31.000Z</time>
      </trkpt>
      <trkpt lat="43.45049" lon="2.10045">
        <ele>546.20001220703</ele>
        <time>2019-03-09T08:01:33.000Z</time>
      </trkpt>
      <trkpt lat="43.45037" lon="2.10044">
        <ele>547.59997558594</ele>
        <time>2019-03-09T08:01:37.000Z</time>
      </trkpt>
      <trkpt lat="43.45022" lon="2.10048">
        <ele>550</ele>
        <time>2019-03-09T08:01:43.000Z</time>
      </trkpt>
      <trkpt lat="43.45012" lon="2.10063">
        <ele>552.20001220703</ele>
        <time>2019-03-09T08:01:51.000Z</time>
      </trkpt>
      <trkpt lat="43.45008" lon="2.10074">
        <ele>553.20001220703</ele>
        <time>2019-03-09T08:01:55.000Z</time>
      </trkpt>
      <trkpt lat="43.45006" lon="2.10079">
        <ele>553.40002441406</ele>
        <time>2019-03-09T08:01:57.000Z</time>
      </trkpt>
      <trkpt lat="43.45005" lon="2.10082">
        <ele>553.40002441406</ele>
        <time>2019-03-09T08:01:58.000Z</time>
      </trkpt>
      <trkpt lat="43.45004" lon="2.10096">
        <ele>554.20001220703</ele>
        <time>2019-03-09T08:02:03.000Z</time>
      </trkpt>
      <trkpt lat="43.45004" lon="2.10099">
        <ele>554.40002441406</ele>
        <time>2019-03-09T08:02:04.000Z</time>
      </trkpt>
      <trkpt lat="43.45005" lon="2.10102">
        <ele>554.59997558594</ele>
        <time>2019-03-09T08:02:05.000Z</time>
      </trkpt>
      <trkpt lat="43.45007" lon="2.1011">
        <ele>555.20001220703</ele>
        <time>2019-03-09T08:02:08.000Z</time>
      </trkpt>
      <trkpt lat="43.45007" lon="2.10112">
        <ele>555.40002441406</ele>
        <time>2019-03-09T08:02:09.000Z</time>
      </trkpt>
      <trkpt lat="43.45009" lon="2.10119">
        <ele>556</ele>
        <time>2019-03-09T08:02:13.000Z</time>
      </trkpt>
      <trkpt lat="43.45011" lon="2.10119">
        <ele>556</ele>
        <time>2019-03-09T08:02:14.000Z</time>
      </trkpt>
      <trkpt lat="43.45012" lon="2.10119">
        <ele>556.20001220703</ele>
        <time>2019-03-09T08:02:15.000Z</time>
      </trkpt>
      <trkpt lat="43.45021" lon="2.10113">
        <ele>555.40002441406</ele>
        <time>2019-03-09T08:02:19.000Z</time>
      </trkpt>
      <trkpt lat="43.45038" lon="2.10107">
        <ele>551.79998779297</ele>
        <time>2019-03-09T08:02:24.000Z</time>
      </trkpt>
      <trkpt lat="43.45052" lon="2.10115">
        <ele>549.79998779297</ele>
        <time>2019-03-09T08:02:28.000Z</time>
      </trkpt>
      <trkpt lat="43.45053" lon="2.1012">
        <ele>549.79998779297</ele>
        <time>2019-03-09T08:02:29.000Z</time>
      </trkpt>
      <trkpt lat="43.45055" lon="2.10131">
        <ele>550.20001220703</ele>
        <time>2019-03-09T08:02:31.000Z</time>
      </trkpt>
      <trkpt lat="43.45054" lon="2.10141">
        <ele>551</ele>
        <time>2019-03-09T08:02:33.000Z</time>
      </trkpt>
      <trkpt lat="43.45051" lon="2.10157">
        <ele>552.40002441406</ele>
        <time>2019-03-09T08:02:36.000Z</time>
      </trkpt>
      <trkpt lat="43.45047" lon="2.10181">
        <ele>551.40002441406</ele>
        <time>2019-03-09T08:02:40.000Z</time>
      </trkpt>
      <trkpt lat="43.45043" lon="2.10199">
        <ele>551</ele>
        <time>2019-03-09T08:02:43.000Z</time>
      </trkpt>
      <trkpt lat="43.45041" lon="2.10209">
        <ele>551.20001220703</ele>
        <time>2019-03-09T08:02:45.000Z</time>
      </trkpt>
      <trkpt lat="43.45035" lon="2.10223">
        <ele>552.20001220703</ele>
        <time>2019-03-09T08:02:48.000Z</time>
      </trkpt>
      <trkpt lat="43.4503" lon="2.10233">
        <ele>552.79998779297</ele>
        <time>2019-03-09T08:02:50.000Z</time>
      </trkpt>
      <trkpt lat="43.45022" lon="2.10249">
        <ele>554.79998779297</ele>
        <time>2019-03-09T08:02:53.000Z</time>
      </trkpt>
      <trkpt lat="43.45019" lon="2.10254">
        <ele>555.20001220703</ele>
        <time>2019-03-09T08:02:54.000Z</time>
      </trkpt>
      <trkpt lat="43.45005" lon="2.10284">
        <ele>555.79998779297</ele>
        <time>2019-03-09T08:02:59.000Z</time>
      </trkpt>
      <trkpt lat="43.44999" lon="2.10301">
        <ele>555.79998779297</ele>
        <time>2019-03-09T08:03:01.000Z</time>
      </trkpt>
      <trkpt lat="43.44995" lon="2.10309">
        <ele>556</ele>
        <time>2019-03-09T08:03:02.000Z</time>
      </trkpt>
      <trkpt lat="43.44987" lon="2.10335">
        <ele>557.59997558594</ele>
        <time>2019-03-09T08:03:05.000Z</time>
      </trkpt>
      <trkpt lat="43.4498" lon="2.10353">
        <ele>558.59997558594</ele>
        <time>2019-03-09T08:03:07.000Z</time>
      </trkpt>
      <trkpt lat="43.44985" lon="2.10363">
        <ele>558.20001220703</ele>
        <time>2019-03-09T08:03:08.000Z</time>
      </trkpt>
      <trkpt lat="43.44985" lon="2.10383">
        <ele>558.40002441406</ele>
        <time>2019-03-09T08:03:10.000Z</time>
      </trkpt>
      <trkpt lat="43.44985" lon="2.10393">
        <ele>558.59997558594</ele>
        <time>2019-03-09T08:03:11.000Z</time>
      </trkpt>
      <trkpt lat="43.45056" lon="2.10439">
        <ele>551.20001220703</ele>
        <time>2019-03-09T08:03:13.000Z</time>
      </trkpt>
      <trkpt lat="43.4506" lon="2.10454">
        <ele>551.20001220703</ele>
        <time>2019-03-09T08:03:14.000Z</time>
      </trkpt>
      <trkpt lat="43.45068" lon="2.10473">
        <ele>551</ele>
        <time>2019-03-09T08:03:16.000Z</time>
      </trkpt>
      <trkpt lat="43.45072" lon="2.1049">
        <ele>550.79998779297</ele>
        <time>2019-03-09T08:03:18.000Z</time>
      </trkpt>
      <trkpt lat="43.45081" lon="2.10529">
        <ele>550</ele>
        <time>2019-03-09T08:03:23.000Z</time>
      </trkpt>
      <trkpt lat="43.45083" lon="2.10544">
        <ele>549.79998779297</ele>
        <time>2019-03-09T08:03:25.000Z</time>
      </trkpt>
      <trkpt lat="43.45083" lon="2.10563">
        <ele>549.79998779297</ele>
        <time>2019-03-09T08:03:27.000Z</time>
      </trkpt>
      <trkpt lat="43.45085" lon="2.10607">
        <ele>546.40002441406</ele>
        <time>2019-03-09T08:03:32.000Z</time>
      </trkpt>
      <trkpt lat="43.45085" lon="2.10617">
        <ele>545.40002441406</ele>
        <time>2019-03-09T08:03:33.000Z</time>
      </trkpt>
      <trkpt lat="43.45083" lon="2.10636">
        <ele>543.40002441406</ele>
        <time>2019-03-09T08:03:35.000Z</time>
      </trkpt>
      <trkpt lat="43.45077" lon="2.10664">
        <ele>542.20001220703</ele>
        <time>2019-03-09T08:03:38.000Z</time>
      </trkpt>
      <trkpt lat="43.45073" lon="2.10683">
        <ele>542</ele>
        <time>2019-03-09T08:03:40.000Z</time>
      </trkpt>
      <trkpt lat="43.45067" lon="2.1071">
        <ele>541.59997558594</ele>
        <time>2019-03-09T08:03:43.000Z</time>
      </trkpt>
      <trkpt lat="43.45061" lon="2.10736">
        <ele>541.79998779297</ele>
        <time>2019-03-09T08:03:46.000Z</time>
      </trkpt>
      <trkpt lat="43.4507" lon="2.10747">
        <ele>540</ele>
        <time>2019-03-09T08:03:47.000Z</time>
      </trkpt>
      <trkpt lat="43.4508" lon="2.10758">
        <ele>538.79998779297</ele>
        <time>2019-03-09T08:03:48.000Z</time>
      </trkpt>
      <trkpt lat="43.45094" lon="2.10788">
        <ele>537.40002441406</ele>
        <time>2019-03-09T08:03:51.000Z</time>
      </trkpt>
      <trkpt lat="43.45096" lon="2.10796">
        <ele>537.40002441406</ele>
        <time>2019-03-09T08:03:52.000Z</time>
      </trkpt>
      <trkpt lat="43.45102" lon="2.10825">
        <ele>537.40002441406</ele>
        <time>2019-03-09T08:03:56.000Z</time>
      </trkpt>
      <trkpt lat="43.45103" lon="2.10832">
        <ele>536.40002441406</ele>
        <time>2019-03-09T08:03:57.000Z</time>
      </trkpt>
      <trkpt lat="43.45104" lon="2.10839">
        <ele>536.20001220703</ele>
        <time>2019-03-09T08:03:58.000Z</time>
      </trkpt>
      <trkpt lat="43.45104" lon="2.10859">
        <ele>536.59997558594</ele>
        <time>2019-03-09T08:04:01.000Z</time>
      </trkpt>
      <trkpt lat="43.45105" lon="2.10872">
        <ele>536.20001220703</ele>
        <time>2019-03-09T08:04:03.000Z</time>
      </trkpt>
      <trkpt lat="43.45106" lon="2.10879">
        <ele>536.20001220703</ele>
        <time>2019-03-09T08:04:04.000Z</time>
      </trkpt>
      <trkpt lat="43.45106" lon="2.10885">
        <ele>536.20001220703</ele>
        <time>2019-03-09T08:04:05.000Z</time>
      </trkpt>
      <trkpt lat="43.45105" lon="2.10897">
        <ele>536.79998779297</ele>
        <time>2019-03-09T08:04:07.000Z</time>
      </trkpt>
      <trkpt lat="43.45104" lon="2.10902">
        <ele>537.59997558594</ele>
        <time>2019-03-09T08:04:08.000Z</time>
      </trkpt>
      <trkpt lat="43.45103" lon="2.10907">
        <ele>538.20001220703</ele>
        <time>2019-03-09T08:04:09.000Z</time>
      </trkpt>
      <trkpt lat="43.45094" lon="2.10925">
        <ele>539.59997558594</ele>
        <time>2019-03-09T08:04:13.000Z</time>
      </trkpt>
      <trkpt lat="43.45092" lon="2.10928">
        <ele>539.59997558594</ele>
        <time>2019-03-09T08:04:14.000Z</time>
      </trkpt>
      <trkpt lat="43.45085" lon="2.10939">
        <ele>539.79998779297</ele>
        <time>2019-03-09T08:04:17.000Z</time>
      </trkpt>
      <trkpt lat="43.45078" lon="2.10947">
        <ele>540</ele>
        <time>2019-03-09T08:04:19.000Z</time>
      </trkpt>
      <trkpt lat="43.4507" lon="2.10965">
        <ele>540</ele>
        <time>2019-03-09T08:04:23.000Z</time>
      </trkpt>
      <trkpt lat="43.45066" lon="2.10973">
        <ele>541.20001220703</ele>
        <time>2019-03-09T08:04:25.000Z</time>
      </trkpt>
      <trkpt lat="43.45062" lon="2.10981">
        <ele>542.59997558594</ele>
        <time>2019-03-09T08:04:27.000Z</time>
      </trkpt>
      <trkpt lat="43.4506" lon="2.10986">
        <ele>543.20001220703</ele>
        <time>2019-03-09T08:04:28.000Z</time>
      </trkpt>
      <trkpt lat="43.45051" lon="2.11">
        <ele>545</ele>
        <time>2019-03-09T08:04:32.000Z</time>
      </trkpt>
      <trkpt lat="43.45048" lon="2.11003">
        <ele>545.20001220703</ele>
        <time>2019-03-09T08:04:33.000Z</time>
      </trkpt>
      <trkpt lat="43.45034" lon="2.1102">
        <ele>547.20001220703</ele>
        <time>2019-03-09T08:04:38.000Z</time>
      </trkpt>
      <trkpt lat="43.45031" lon="2.11022">
        <ele>548</ele>
        <time>2019-03-09T08:04:39.000Z</time>
      </trkpt>
      <trkpt lat="43.45021" lon="2.11037">
        <ele>549.79998779297</ele>
        <time>2019-03-09T08:04:43.000Z</time>
      </trkpt>
      <trkpt lat="43.45013" lon="2.11057">
        <ele>550.79998779297</ele>
        <time>2019-03-09T08:04:47.000Z</time>
      </trkpt>
      <trkpt lat="43.4501" lon="2.11075">
        <ele>550.40002441406</ele>
        <time>2019-03-09T08:04:50.000Z</time>
      </trkpt>
      <trkpt lat="43.45007" lon="2.11091">
        <ele>550.59997558594</ele>
        <time>2019-03-09T08:04:52.000Z</time>
      </trkpt>
      <trkpt lat="43.45003" lon="2.11108">
        <ele>550.59997558594</ele>
        <time>2019-03-09T08:04:54.000Z</time>
      </trkpt>
      <trkpt lat="43.44996" lon="2.11125">
        <ele>551.40002441406</ele>
        <time>2019-03-09T08:04:56.000Z</time>
      </trkpt>
      <trkpt lat="43.44992" lon="2.11133">
        <ele>552</ele>
        <time>2019-03-09T08:04:57.000Z</time>
      </trkpt>
      <trkpt lat="43.44987" lon="2.11141">
        <ele>552.59997558594</ele>
        <time>2019-03-09T08:04:58.000Z</time>
      </trkpt>
      <trkpt lat="43.4498" lon="2.11158">
        <ele>553.20001220703</ele>
        <time>2019-03-09T08:05:00.000Z</time>
      </trkpt>
      <trkpt lat="43.44978" lon="2.11167">
        <ele>553.79998779297</ele>
        <time>2019-03-09T08:05:01.000Z</time>
      </trkpt>
      <trkpt lat="43.44985" lon="2.11193">
        <ele>552.59997558594</ele>
        <time>2019-03-09T08:05:04.000Z</time>
      </trkpt>
      <trkpt lat="43.44996" lon="2.11205">
        <ele>550.20001220703</ele>
        <time>2019-03-09T08:05:07.000Z</time>
      </trkpt>
      <trkpt lat="43.44999" lon="2.11209">
        <ele>549.59997558594</ele>
        <time>2019-03-09T08:05:08.000Z</time>
      </trkpt>
      <trkpt lat="43.45002" lon="2.11213">
        <ele>548.79998779297</ele>
        <time>2019-03-09T08:05:09.000Z</time>
      </trkpt>
      <trkpt lat="43.45004" lon="2.11218">
        <ele>548.40002441406</ele>
        <time>2019-03-09T08:05:10.000Z</time>
      </trkpt>
      <trkpt lat="43.45014" lon="2.11235">
        <ele>546.40002441406</ele>
        <time>2019-03-09T08:05:14.000Z</time>
      </trkpt>
      <trkpt lat="43.45016" lon="2.11238">
        <ele>546</ele>
        <time>2019-03-09T08:05:15.000Z</time>
      </trkpt>
      <trkpt lat="43.45023" lon="2.11248">
        <ele>543.79998779297</ele>
        <time>2019-03-09T08:05:18.000Z</time>
      </trkpt>
      <trkpt lat="43.45024" lon="2.11251">
        <ele>543.40002441406</ele>
        <time>2019-03-09T08:05:19.000Z</time>
      </trkpt>
      <trkpt lat="43.45025" lon="2.11258">
        <ele>542.79998779297</ele>
        <time>2019-03-09T08:05:21.000Z</time>
      </trkpt>
      <trkpt lat="43.45023" lon="2.11268">
        <ele>542.59997558594</ele>
        <time>2019-03-09T08:05:24.000Z</time>
      </trkpt>
      <trkpt lat="43.45019" lon="2.11277">
        <ele>543.20001220703</ele>
        <time>2019-03-09T08:05:27.000Z</time>
      </trkpt>
      <trkpt lat="43.45015" lon="2.11282">
        <ele>543.79998779297</ele>
        <time>2019-03-09T08:05:29.000Z</time>
      </trkpt>
      <trkpt lat="43.45011" lon="2.11287">
        <ele>544.59997558594</ele>
        <time>2019-03-09T08:05:31.000Z</time>
      </trkpt>
      <trkpt lat="43.45002" lon="2.11297">
        <ele>545.79998779297</ele>
        <time>2019-03-09T08:05:35.000Z</time>
      </trkpt>
      <trkpt lat="43.44993" lon="2.11304">
        <ele>547.20001220703</ele>
        <time>2019-03-09T08:05:38.000Z</time>
      </trkpt>
      <trkpt lat="43.44987" lon="2.11311">
        <ele>548.59997558594</ele>
        <time>2019-03-09T08:05:41.000Z</time>
      </trkpt>
      <trkpt lat="43.44984" lon="2.11314">
        <ele>549.40002441406</ele>
        <time>2019-03-09T08:05:43.000Z</time>
      </trkpt>
      <trkpt lat="43.44976" lon="2.11325">
        <ele>551</ele>
        <time>2019-03-09T08:05:47.000Z</time>
      </trkpt>
      <trkpt lat="43.44975" lon="2.11328">
        <ele>551.40002441406</ele>
        <time>2019-03-09T08:05:48.000Z</time>
      </trkpt>
      <trkpt lat="43.44973" lon="2.11333">
        <ele>551.40002441406</ele>
        <time>2019-03-09T08:05:50.000Z</time>
      </trkpt>
      <trkpt lat="43.44972" lon="2.11336">
        <ele>551.40002441406</ele>
        <time>2019-03-09T08:05:51.000Z</time>
      </trkpt>
      <trkpt lat="43.44971" lon="2.1134">
        <ele>551.40002441406</ele>
        <time>2019-03-09T08:05:52.000Z</time>
      </trkpt>
      <trkpt lat="43.44967" lon="2.1135">
        <ele>551.59997558594</ele>
        <time>2019-03-09T08:05:55.000Z</time>
      </trkpt>
      <trkpt lat="43.44966" lon="2.11354">
        <ele>551.59997558594</ele>
        <time>2019-03-09T08:05:56.000Z</time>
      </trkpt>
      <trkpt lat="43.44965" lon="2.1136">
        <ele>551.40002441406</ele>
        <time>2019-03-09T08:05:58.000Z</time>
      </trkpt>
      <trkpt lat="43.44959" lon="2.11379">
        <ele>552.59997558594</ele>
        <time>2019-03-09T08:06:04.000Z</time>
      </trkpt>
      <trkpt lat="43.44954" lon="2.11393">
        <ele>553.40002441406</ele>
        <time>2019-03-09T08:06:07.000Z</time>
      </trkpt>
      <trkpt lat="43.44951" lon="2.114">
        <ele>554</ele>
        <time>2019-03-09T08:06:09.000Z</time>
      </trkpt>
      <trkpt lat="43.44947" lon="2.11417">
        <ele>554</ele>
        <time>2019-03-09T08:06:15.000Z</time>
      </trkpt>
      <trkpt lat="43.44941" lon="2.11432">
        <ele>554.59997558594</ele>
        <time>2019-03-09T08:06:20.000Z</time>
      </trkpt>
      <trkpt lat="43.44939" lon="2.11438">
        <ele>555</ele>
        <time>2019-03-09T08:06:22.000Z</time>
      </trkpt>
      <trkpt lat="43.4493" lon="2.11452">
        <ele>556.59997558594</ele>
        <time>2019-03-09T08:06:28.000Z</time>
      </trkpt>
      <trkpt lat="43.44927" lon="2.11454">
        <ele>557.40002441406</ele>
        <time>2019-03-09T08:06:29.000Z</time>
      </trkpt>
      <trkpt lat="43.44925" lon="2.11458">
        <ele>557.59997558594</ele>
        <time>2019-03-09T08:06:31.000Z</time>
      </trkpt>
      <trkpt lat="43.44923" lon="2.11462">
        <ele>557.79998779297</ele>
        <time>2019-03-09T08:06:33.000Z</time>
      </trkpt>
      <trkpt lat="43.44917" lon="2.11471">
        <ele>558.59997558594</ele>
        <time>2019-03-09T08:06:38.000Z</time>
      </trkpt>
      <trkpt lat="43.44909" lon="2.11483">
        <ele>559.79998779297</ele>
        <time>2019-03-09T08:06:43.000Z</time>
      </trkpt>
      <trkpt lat="43.44905" lon="2.11485">
        <ele>560.59997558594</ele>
        <time>2019-03-09T08:06:44.000Z</time>
      </trkpt>
      <trkpt lat="43.44894" lon="2.11493">
        <ele>562.79998779297</ele>
        <time>2019-03-09T08:06:48.000Z</time>
      </trkpt>
      <trkpt lat="43.44893" lon="2.11495">
        <ele>562.59997558594</ele>
        <time>2019-03-09T08:06:49.000Z</time>
      </trkpt>
      <trkpt lat="43.4488" lon="2.11505">
        <ele>563</ele>
        <time>2019-03-09T08:06:54.000Z</time>
      </trkpt>
      <trkpt lat="43.44869" lon="2.11515">
        <ele>563.40002441406</ele>
        <time>2019-03-09T08:07:00.000Z</time>
      </trkpt>
      <trkpt lat="43.44859" lon="2.11522">
        <ele>566.59997558594</ele>
        <time>2019-03-09T08:07:06.000Z</time>
      </trkpt>
      <trkpt lat="43.44857" lon="2.11523">
        <ele>567.40002441406</ele>
        <time>2019-03-09T08:07:07.000Z</time>
      </trkpt>
      <trkpt lat="43.44852" lon="2.11528">
        <ele>568.59997558594</ele>
        <time>2019-03-09T08:07:11.000Z</time>
      </trkpt>
      <trkpt lat="43.44851" lon="2.11529">
        <ele>569.20001220703</ele>
        <time>2019-03-09T08:07:12.000Z</time>
      </trkpt>
      <trkpt lat="43.44842" lon="2.11535">
        <ele>569</ele>
        <time>2019-03-09T08:07:17.000Z</time>
      </trkpt>
      <trkpt lat="43.44829" lon="2.11544">
        <ele>568.20001220703</ele>
        <time>2019-03-09T08:07:23.000Z</time>
      </trkpt>
      <trkpt lat="43.44819" lon="2.11548">
        <ele>567.79998779297</ele>
        <time>2019-03-09T08:07:28.000Z</time>
      </trkpt>
      <trkpt lat="43.44818" lon="2.11549">
        <ele>567.79998779297</ele>
        <time>2019-03-09T08:07:29.000Z</time>
      </trkpt>
      <trkpt lat="43.44809" lon="2.11548">
        <ele>568</ele>
        <time>2019-03-09T08:07:35.000Z</time>
      </trkpt>
      <trkpt lat="43.44809" lon="2.11546">
        <ele>568.20001220703</ele>
        <time>2019-03-09T08:07:36.000Z</time>
      </trkpt>
      <trkpt lat="43.44808" lon="2.11544">
        <ele>568.40002441406</ele>
        <time>2019-03-09T08:07:37.000Z</time>
      </trkpt>
      <trkpt lat="43.44807" lon="2.11532">
        <ele>569.79998779297</ele>
        <time>2019-03-09T08:07:41.000Z</time>
      </trkpt>
      <trkpt lat="43.44807" lon="2.11529">
        <ele>570.20001220703</ele>
        <time>2019-03-09T08:07:42.000Z</time>
      </trkpt>
      <trkpt lat="43.44806" lon="2.11522">
        <ele>571</ele>
        <time>2019-03-09T08:07:44.000Z</time>
      </trkpt>
      <trkpt lat="43.44807" lon="2.11511">
        <ele>572.40002441406</ele>
        <time>2019-03-09T08:07:47.000Z</time>
      </trkpt>
      <trkpt lat="43.44812" lon="2.11494">
        <ele>574.40002441406</ele>
        <time>2019-03-09T08:07:52.000Z</time>
      </trkpt>
      <trkpt lat="43.44815" lon="2.11487">
        <ele>575</ele>
        <time>2019-03-09T08:07:54.000Z</time>
      </trkpt>
      <trkpt lat="43.44818" lon="2.11473">
        <ele>576.40002441406</ele>
        <time>2019-03-09T08:07:58.000Z</time>
      </trkpt>
      <trkpt lat="43.44819" lon="2.11467">
        <ele>577</ele>
        <time>2019-03-09T08:08:00.000Z</time>
      </trkpt>
      <trkpt lat="43.44809" lon="2.11453">
        <ele>578.40002441406</ele>
        <time>2019-03-09T08:08:05.000Z</time>
      </trkpt>
      <trkpt lat="43.44789" lon="2.11439">
        <ele>580</ele>
        <time>2019-03-09T08:08:11.000Z</time>
      </trkpt>
      <trkpt lat="43.44787" lon="2.11437">
        <ele>580.20001220703</ele>
        <time>2019-03-09T08:08:12.000Z</time>
      </trkpt>
      <trkpt lat="43.44776" lon="2.11429">
        <ele>581.20001220703</ele>
        <time>2019-03-09T08:08:18.000Z</time>
      </trkpt>
      <trkpt lat="43.44774" lon="2.11424">
        <ele>581.59997558594</ele>
        <time>2019-03-09T08:08:21.000Z</time>
      </trkpt>
      <trkpt lat="43.4477" lon="2.11422">
        <ele>581.79998779297</ele>
        <time>2019-03-09T08:08:22.000Z</time>
      </trkpt>
      <trkpt lat="43.44754" lon="2.11422">
        <ele>583.40002441406</ele>
        <time>2019-03-09T08:08:27.000Z</time>
      </trkpt>
      <trkpt lat="43.44749" lon="2.11421">
        <ele>584.20001220703</ele>
        <time>2019-03-09T08:08:29.000Z</time>
      </trkpt>
      <trkpt lat="43.44736" lon="2.11419">
        <ele>586</ele>
        <time>2019-03-09T08:08:34.000Z</time>
      </trkpt>
      <trkpt lat="43.44726" lon="2.11416">
        <ele>587.79998779297</ele>
        <time>2019-03-09T08:08:39.000Z</time>
      </trkpt>
      <trkpt lat="43.44723" lon="2.11413">
        <ele>588.40002441406</ele>
        <time>2019-03-09T08:08:41.000Z</time>
      </trkpt>
      <trkpt lat="43.44717" lon="2.1141">
        <ele>589.40002441406</ele>
        <time>2019-03-09T08:08:45.000Z</time>
      </trkpt>
      <trkpt lat="43.44712" lon="2.11404">
        <ele>590.20001220703</ele>
        <time>2019-03-09T08:08:49.000Z</time>
      </trkpt>
      <trkpt lat="43.44708" lon="2.11402">
        <ele>590.79998779297</ele>
        <time>2019-03-09T08:08:51.000Z</time>
      </trkpt>
      <trkpt lat="43.44703" lon="2.11398">
        <ele>591.59997558594</ele>
        <time>2019-03-09T08:08:54.000Z</time>
      </trkpt>
      <trkpt lat="43.44696" lon="2.11391">
        <ele>592.79998779297</ele>
        <time>2019-03-09T08:08:58.000Z</time>
      </trkpt>
      <trkpt lat="43.44693" lon="2.11387">
        <ele>593.20001220703</ele>
        <time>2019-03-09T08:09:00.000Z</time>
      </trkpt>
      <trkpt lat="43.44692" lon="2.11385">
        <ele>593.40002441406</ele>
        <time>2019-03-09T08:09:01.000Z</time>
      </trkpt>
      <trkpt lat="43.44678" lon="2.11376">
        <ele>595.40002441406</ele>
        <time>2019-03-09T08:09:07.000Z</time>
      </trkpt>
      <trkpt lat="43.44661" lon="2.1136">
        <ele>597.79998779297</ele>
        <time>2019-03-09T08:09:12.000Z</time>
      </trkpt>
      <trkpt lat="43.44643" lon="2.1134">
        <ele>600.40002441406</ele>
        <time>2019-03-09T08:09:16.000Z</time>
      </trkpt>
      <trkpt lat="43.44638" lon="2.11333">
        <ele>601.20001220703</ele>
        <time>2019-03-09T08:09:17.000Z</time>
      </trkpt>
      <trkpt lat="43.44629" lon="2.11322">
        <ele>602.20001220703</ele>
        <time>2019-03-09T08:09:19.000Z</time>
      </trkpt>
      <trkpt lat="43.4462" lon="2.11309">
        <ele>602.59997558594</ele>
        <time>2019-03-09T08:09:21.000Z</time>
      </trkpt>
      <trkpt lat="43.44611" lon="2.11298">
        <ele>603.20001220703</ele>
        <time>2019-03-09T08:09:23.000Z</time>
      </trkpt>
      <trkpt lat="43.4459" lon="2.1127">
        <ele>604.40002441406</ele>
        <time>2019-03-09T08:09:29.000Z</time>
      </trkpt>
      <trkpt lat="43.44581" lon="2.11249">
        <ele>604.59997558594</ele>
        <time>2019-03-09T08:09:34.000Z</time>
      </trkpt>
      <trkpt lat="43.44574" lon="2.11235">
        <ele>604.79998779297</ele>
        <time>2019-03-09T08:09:38.000Z</time>
      </trkpt>
      <trkpt lat="43.4457" lon="2.11238">
        <ele>605.59997558594</ele>
        <time>2019-03-09T08:09:40.000Z</time>
      </trkpt>
      <trkpt lat="43.44569" lon="2.11242">
        <ele>606</ele>
        <time>2019-03-09T08:09:43.000Z</time>
      </trkpt>
      <trkpt lat="43.44568" lon="2.11244">
        <ele>606.20001220703</ele>
        <time>2019-03-09T08:09:44.000Z</time>
      </trkpt>
      <trkpt lat="43.44564" lon="2.11252">
        <ele>607</ele>
        <time>2019-03-09T08:09:50.000Z</time>
      </trkpt>
      <trkpt lat="43.44562" lon="2.11254">
        <ele>607.40002441406</ele>
        <time>2019-03-09T08:09:51.000Z</time>
      </trkpt>
      <trkpt lat="43.4456" lon="2.1126">
        <ele>608</ele>
        <time>2019-03-09T08:09:54.000Z</time>
      </trkpt>
      <trkpt lat="43.44554" lon="2.11267">
        <ele>609</ele>
        <time>2019-03-09T08:09:58.000Z</time>
      </trkpt>
      <trkpt lat="43.44553" lon="2.1127">
        <ele>609.40002441406</ele>
        <time>2019-03-09T08:09:59.000Z</time>
      </trkpt>
      <trkpt lat="43.44553" lon="2.11271">
        <ele>609.40002441406</ele>
        <time>2019-03-09T08:10:00.000Z</time>
      </trkpt>
      <trkpt lat="43.44551" lon="2.11277">
        <ele>610</ele>
        <time>2019-03-09T08:10:03.000Z</time>
      </trkpt>
      <trkpt lat="43.4455" lon="2.11279">
        <ele>610.20001220703</ele>
        <time>2019-03-09T08:10:04.000Z</time>
      </trkpt>
      <trkpt lat="43.44545" lon="2.11288">
        <ele>610.79998779297</ele>
        <time>2019-03-09T08:10:08.000Z</time>
      </trkpt>
      <trkpt lat="43.44542" lon="2.11294">
        <ele>611.40002441406</ele>
        <time>2019-03-09T08:10:11.000Z</time>
      </trkpt>
      <trkpt lat="43.44541" lon="2.11297">
        <ele>611.59997558594</ele>
        <time>2019-03-09T08:10:13.000Z</time>
      </trkpt>
      <trkpt lat="43.44537" lon="2.11307">
        <ele>612.20001220703</ele>
        <time>2019-03-09T08:10:17.000Z</time>
      </trkpt>
      <trkpt lat="43.44535" lon="2.11312">
        <ele>612.59997558594</ele>
        <time>2019-03-09T08:10:22.000Z</time>
      </trkpt>
      <trkpt lat="43.44532" lon="2.11322">
        <ele>613.20001220703</ele>
        <time>2019-03-09T08:10:28.000Z</time>
      </trkpt>
      <trkpt lat="43.4453" lon="2.11336">
        <ele>613.20001220703</ele>
        <time>2019-03-09T08:10:32.000Z</time>
      </trkpt>
      <trkpt lat="43.44529" lon="2.11341">
        <ele>613</ele>
        <time>2019-03-09T08:10:34.000Z</time>
      </trkpt>
      <trkpt lat="43.44528" lon="2.11344">
        <ele>612.79998779297</ele>
        <time>2019-03-09T08:10:35.000Z</time>
      </trkpt>
      <trkpt lat="43.44528" lon="2.11348">
        <ele>612.59997558594</ele>
        <time>2019-03-09T08:10:37.000Z</time>
      </trkpt>
      <trkpt lat="43.44521" lon="2.11357">
        <ele>612.40002441406</ele>
        <time>2019-03-09T08:10:41.000Z</time>
      </trkpt>
      <trkpt lat="43.44517" lon="2.11364">
        <ele>612.20001220703</ele>
        <time>2019-03-09T08:10:43.000Z</time>
      </trkpt>
      <trkpt lat="43.44501" lon="2.11388">
        <ele>613</ele>
        <time>2019-03-09T08:10:48.000Z</time>
      </trkpt>
      <trkpt lat="43.44498" lon="2.11396">
        <ele>613.40002441406</ele>
        <time>2019-03-09T08:10:49.000Z</time>
      </trkpt>
      <trkpt lat="43.44495" lon="2.1141">
        <ele>614.79998779297</ele>
        <time>2019-03-09T08:10:51.000Z</time>
      </trkpt>
      <trkpt lat="43.44494" lon="2.11417">
        <ele>614.79998779297</ele>
        <time>2019-03-09T08:10:52.000Z</time>
      </trkpt>
      <trkpt lat="43.44491" lon="2.11437">
        <ele>614.59997558594</ele>
        <time>2019-03-09T08:10:55.000Z</time>
      </trkpt>
      <trkpt lat="43.44489" lon="2.11471">
        <ele>613.59997558594</ele>
        <time>2019-03-09T08:11:00.000Z</time>
      </trkpt>
      <trkpt lat="43.44489" lon="2.11499">
        <ele>613.40002441406</ele>
        <time>2019-03-09T08:11:04.000Z</time>
      </trkpt>
      <trkpt lat="43.44487" lon="2.1152">
        <ele>612.79998779297</ele>
        <time>2019-03-09T08:11:07.000Z</time>
      </trkpt>
      <trkpt lat="43.44482" lon="2.1154">
        <ele>613</ele>
        <time>2019-03-09T08:11:10.000Z</time>
      </trkpt>
      <trkpt lat="43.44477" lon="2.11559">
        <ele>614</ele>
        <time>2019-03-09T08:11:13.000Z</time>
      </trkpt>
      <trkpt lat="43.44474" lon="2.11565">
        <ele>614.59997558594</ele>
        <time>2019-03-09T08:11:14.000Z</time>
      </trkpt>
      <trkpt lat="43.44465" lon="2.11589">
        <ele>615.79998779297</ele>
        <time>2019-03-09T08:11:18.000Z</time>
      </trkpt>
      <trkpt lat="43.44464" lon="2.11595">
        <ele>616</ele>
        <time>2019-03-09T08:11:19.000Z</time>
      </trkpt>
      <trkpt lat="43.4446" lon="2.11606">
        <ele>616.20001220703</ele>
        <time>2019-03-09T08:11:22.000Z</time>
      </trkpt>
      <trkpt lat="43.4446" lon="2.11618">
        <ele>615.59997558594</ele>
        <time>2019-03-09T08:11:24.000Z</time>
      </trkpt>
      <trkpt lat="43.44458" lon="2.11625">
        <ele>615.59997558594</ele>
        <time>2019-03-09T08:11:25.000Z</time>
      </trkpt>
      <trkpt lat="43.44457" lon="2.11633">
        <ele>615.20001220703</ele>
        <time>2019-03-09T08:11:26.000Z</time>
      </trkpt>
      <trkpt lat="43.44454" lon="2.11647">
        <ele>615.40002441406</ele>
        <time>2019-03-09T08:11:28.000Z</time>
      </trkpt>
      <trkpt lat="43.44454" lon="2.11662">
        <ele>614.40002441406</ele>
        <time>2019-03-09T08:11:30.000Z</time>
      </trkpt>
      <trkpt lat="43.44453" lon="2.11684">
        <ele>614.40002441406</ele>
        <time>2019-03-09T08:11:33.000Z</time>
      </trkpt>
      <trkpt lat="43.44452" lon="2.11691">
        <ele>614.79998779297</ele>
        <time>2019-03-09T08:11:34.000Z</time>
      </trkpt>
      <trkpt lat="43.44448" lon="2.11711">
        <ele>616.40002441406</ele>
        <time>2019-03-09T08:11:37.000Z</time>
      </trkpt>
      <trkpt lat="43.44445" lon="2.11737">
        <ele>617.79998779297</ele>
        <time>2019-03-09T08:11:41.000Z</time>
      </trkpt>
      <trkpt lat="43.44445" lon="2.11746">
        <ele>618.20001220703</ele>
        <time>2019-03-09T08:11:43.000Z</time>
      </trkpt>
      <trkpt lat="43.44445" lon="2.11764">
        <ele>619.20001220703</ele>
        <time>2019-03-09T08:11:47.000Z</time>
      </trkpt>
      <trkpt lat="43.44444" lon="2.11773">
        <ele>619.20001220703</ele>
        <time>2019-03-09T08:11:49.000Z</time>
      </trkpt>
      <trkpt lat="43.4444" lon="2.11782">
        <ele>620</ele>
        <time>2019-03-09T08:11:51.000Z</time>
      </trkpt>
      <trkpt lat="43.44439" lon="2.11794">
        <ele>620</ele>
        <time>2019-03-09T08:11:54.000Z</time>
      </trkpt>
      <trkpt lat="43.44435" lon="2.11817">
        <ele>620.59997558594</ele>
        <time>2019-03-09T08:11:59.000Z</time>
      </trkpt>
      <trkpt lat="43.44434" lon="2.11821">
        <ele>620.59997558594</ele>
        <time>2019-03-09T08:12:00.000Z</time>
      </trkpt>
      <trkpt lat="43.4443" lon="2.11836">
        <ele>622.40002441406</ele>
        <time>2019-03-09T08:12:04.000Z</time>
      </trkpt>
      <trkpt lat="43.44429" lon="2.11841">
        <ele>622.79998779297</ele>
        <time>2019-03-09T08:12:05.000Z</time>
      </trkpt>
      <trkpt lat="43.44428" lon="2.11848">
        <ele>623.40002441406</ele>
        <time>2019-03-09T08:12:07.000Z</time>
      </trkpt>
      <trkpt lat="43.44427" lon="2.11852">
        <ele>624</ele>
        <time>2019-03-09T08:12:08.000Z</time>
      </trkpt>
      <trkpt lat="43.44425" lon="2.11858">
        <ele>625.20001220703</ele>
        <time>2019-03-09T08:12:10.000Z</time>
      </trkpt>
      <trkpt lat="43.44422" lon="2.1186">
        <ele>626.20001220703</ele>
        <time>2019-03-09T08:12:11.000Z</time>
      </trkpt>
      <trkpt lat="43.44421" lon="2.11863">
        <ele>626.59997558594</ele>
        <time>2019-03-09T08:12:12.000Z</time>
      </trkpt>
      <trkpt lat="43.44421" lon="2.11873">
        <ele>627.20001220703</ele>
        <time>2019-03-09T08:12:14.000Z</time>
      </trkpt>
      <trkpt lat="43.44426" lon="2.11891">
        <ele>626.40002441406</ele>
        <time>2019-03-09T08:12:18.000Z</time>
      </trkpt>
      <trkpt lat="43.4444" lon="2.11906">
        <ele>623.40002441406</ele>
        <time>2019-03-09T08:12:23.000Z</time>
      </trkpt>
      <trkpt lat="43.44453" lon="2.11935">
        <ele>621.59997558594</ele>
        <time>2019-03-09T08:12:28.000Z</time>
      </trkpt>
      <trkpt lat="43.44454" lon="2.11941">
        <ele>622.20001220703</ele>
        <time>2019-03-09T08:12:29.000Z</time>
      </trkpt>
      <trkpt lat="43.44458" lon="2.11959">
        <ele>624</ele>
        <time>2019-03-09T08:12:33.000Z</time>
      </trkpt>
      <trkpt lat="43.44455" lon="2.11982">
        <ele>628.79998779297</ele>
        <time>2019-03-09T08:12:38.000Z</time>
      </trkpt>
      <trkpt lat="43.44454" lon="2.11987">
        <ele>630.20001220703</ele>
        <time>2019-03-09T08:12:39.000Z</time>
      </trkpt>
      <trkpt lat="43.44455" lon="2.12005">
        <ele>631.79998779297</ele>
        <time>2019-03-09T08:12:43.000Z</time>
      </trkpt>
      <trkpt lat="43.44452" lon="2.12017">
        <ele>634.20001220703</ele>
        <time>2019-03-09T08:12:46.000Z</time>
      </trkpt>
      <trkpt lat="43.44452" lon="2.12025">
        <ele>635</ele>
        <time>2019-03-09T08:12:48.000Z</time>
      </trkpt>
      <trkpt lat="43.44454" lon="2.12042">
        <ele>636.59997558594</ele>
        <time>2019-03-09T08:12:52.000Z</time>
      </trkpt>
      <trkpt lat="43.44454" lon="2.12045">
        <ele>637</ele>
        <time>2019-03-09T08:12:53.000Z</time>
      </trkpt>
      <trkpt lat="43.44464" lon="2.12062">
        <ele>635.20001220703</ele>
        <time>2019-03-09T08:12:58.000Z</time>
      </trkpt>
      <trkpt lat="43.44475" lon="2.1208">
        <ele>633.20001220703</ele>
        <time>2019-03-09T08:13:03.000Z</time>
      </trkpt>
      <trkpt lat="43.44482" lon="2.12095">
        <ele>632</ele>
        <time>2019-03-09T08:13:07.000Z</time>
      </trkpt>
      <trkpt lat="43.44486" lon="2.12105">
        <ele>631.59997558594</ele>
        <time>2019-03-09T08:13:10.000Z</time>
      </trkpt>
      <trkpt lat="43.44489" lon="2.12123">
        <ele>632.40002441406</ele>
        <time>2019-03-09T08:13:16.000Z</time>
      </trkpt>
      <trkpt lat="43.44488" lon="2.12126">
        <ele>633.20001220703</ele>
        <time>2019-03-09T08:13:17.000Z</time>
      </trkpt>
      <trkpt lat="43.44486" lon="2.12131">
        <ele>634.59997558594</ele>
        <time>2019-03-09T08:13:20.000Z</time>
      </trkpt>
      <trkpt lat="43.44485" lon="2.12141">
        <ele>635.40002441406</ele>
        <time>2019-03-09T08:13:23.000Z</time>
      </trkpt>
      <trkpt lat="43.44484" lon="2.12146">
        <ele>636</ele>
        <time>2019-03-09T08:13:25.000Z</time>
      </trkpt>
      <trkpt lat="43.44485" lon="2.12149">
        <ele>636</ele>
        <time>2019-03-09T08:13:27.000Z</time>
      </trkpt>
      <trkpt lat="43.44485" lon="2.12154">
        <ele>636.40002441406</ele>
        <time>2019-03-09T08:13:29.000Z</time>
      </trkpt>
      <trkpt lat="43.44488" lon="2.12157">
        <ele>635.59997558594</ele>
        <time>2019-03-09T08:13:30.000Z</time>
      </trkpt>
      <trkpt lat="43.4449" lon="2.12162">
        <ele>635</ele>
        <time>2019-03-09T08:13:32.000Z</time>
      </trkpt>
      <trkpt lat="43.4449" lon="2.12167">
        <ele>635.40002441406</ele>
        <time>2019-03-09T08:13:34.000Z</time>
      </trkpt>
      <trkpt lat="43.44489" lon="2.12179">
        <ele>636.40002441406</ele>
        <time>2019-03-09T08:13:38.000Z</time>
      </trkpt>
      <trkpt lat="43.4449" lon="2.12183">
        <ele>636.20001220703</ele>
        <time>2019-03-09T08:13:39.000Z</time>
      </trkpt>
      <trkpt lat="43.44493" lon="2.12192">
        <ele>635.79998779297</ele>
        <time>2019-03-09T08:13:42.000Z</time>
      </trkpt>
      <trkpt lat="43.44494" lon="2.12198">
        <ele>635.79998779297</ele>
        <time>2019-03-09T08:13:44.000Z</time>
      </trkpt>
      <trkpt lat="43.44494" lon="2.12199">
        <ele>636</ele>
        <time>2019-03-09T08:13:45.000Z</time>
      </trkpt>
      <trkpt lat="43.44492" lon="2.12207">
        <ele>637.20001220703</ele>
        <time>2019-03-09T08:13:47.000Z</time>
      </trkpt>
      <trkpt lat="43.44491" lon="2.12213">
        <ele>637.79998779297</ele>
        <time>2019-03-09T08:13:49.000Z</time>
      </trkpt>
      <trkpt lat="43.44493" lon="2.12221">
        <ele>637.59997558594</ele>
        <time>2019-03-09T08:13:52.000Z</time>
      </trkpt>
      <trkpt lat="43.44494" lon="2.12227">
        <ele>637.79998779297</ele>
        <time>2019-03-09T08:13:54.000Z</time>
      </trkpt>
      <trkpt lat="43.44493" lon="2.1223">
        <ele>638.40002441406</ele>
        <time>2019-03-09T08:13:55.000Z</time>
      </trkpt>
      <trkpt lat="43.44493" lon="2.12233">
        <ele>638.79998779297</ele>
        <time>2019-03-09T08:13:56.000Z</time>
      </trkpt>
      <trkpt lat="43.44493" lon="2.12243">
        <ele>639.79998779297</ele>
        <time>2019-03-09T08:13:59.000Z</time>
      </trkpt>
      <trkpt lat="43.44494" lon="2.12253">
        <ele>639.79998779297</ele>
        <time>2019-03-09T08:14:02.000Z</time>
      </trkpt>
      <trkpt lat="43.44495" lon="2.12263">
        <ele>639.59997558594</ele>
        <time>2019-03-09T08:14:05.000Z</time>
      </trkpt>
      <trkpt lat="43.44497" lon="2.12269">
        <ele>639.20001220703</ele>
        <time>2019-03-09T08:14:07.000Z</time>
      </trkpt>
      <trkpt lat="43.44495" lon="2.12273">
        <ele>639.79998779297</ele>
        <time>2019-03-09T08:14:08.000Z</time>
      </trkpt>
      <trkpt lat="43.44495" lon="2.12279">
        <ele>640.20001220703</ele>
        <time>2019-03-09T08:14:10.000Z</time>
      </trkpt>
      <trkpt lat="43.44493" lon="2.1229">
        <ele>641.20001220703</ele>
        <time>2019-03-09T08:14:13.000Z</time>
      </trkpt>
      <trkpt lat="43.44493" lon="2.123">
        <ele>641.40002441406</ele>
        <time>2019-03-09T08:14:17.000Z</time>
      </trkpt>
      <trkpt lat="43.44494" lon="2.12303">
        <ele>641.20001220703</ele>
        <time>2019-03-09T08:14:18.000Z</time>
      </trkpt>
      <trkpt lat="43.44493" lon="2.12306">
        <ele>641.59997558594</ele>
        <time>2019-03-09T08:14:19.000Z</time>
      </trkpt>
      <trkpt lat="43.44492" lon="2.12316">
        <ele>643</ele>
        <time>2019-03-09T08:14:22.000Z</time>
      </trkpt>
      <trkpt lat="43.44491" lon="2.12319">
        <ele>643.59997558594</ele>
        <time>2019-03-09T08:14:23.000Z</time>
      </trkpt>
      <trkpt lat="43.44487" lon="2.12336">
        <ele>645.20001220703</ele>
        <time>2019-03-09T08:14:28.000Z</time>
      </trkpt>
      <trkpt lat="43.44485" lon="2.12339">
        <ele>645.79998779297</ele>
        <time>2019-03-09T08:14:29.000Z</time>
      </trkpt>
      <trkpt lat="43.44476" lon="2.12353">
        <ele>648.20001220703</ele>
        <time>2019-03-09T08:14:34.000Z</time>
      </trkpt>
      <trkpt lat="43.44475" lon="2.12355">
        <ele>648.40002441406</ele>
        <time>2019-03-09T08:14:35.000Z</time>
      </trkpt>
      <trkpt lat="43.44472" lon="2.12362">
        <ele>649</ele>
        <time>2019-03-09T08:14:39.000Z</time>
      </trkpt>
      <trkpt lat="43.44472" lon="2.12368">
        <ele>648.79998779297</ele>
        <time>2019-03-09T08:14:41.000Z</time>
      </trkpt>
      <trkpt lat="43.4447" lon="2.12376">
        <ele>649.40002441406</ele>
        <time>2019-03-09T08:14:44.000Z</time>
      </trkpt>
      <trkpt lat="43.44471" lon="2.12381">
        <ele>648.79998779297</ele>
        <time>2019-03-09T08:14:46.000Z</time>
      </trkpt>
      <trkpt lat="43.44472" lon="2.12386">
        <ele>648</ele>
        <time>2019-03-09T08:14:48.000Z</time>
      </trkpt>
      <trkpt lat="43.44473" lon="2.12393">
        <ele>647.20001220703</ele>
        <time>2019-03-09T08:14:51.000Z</time>
      </trkpt>
      <trkpt lat="43.44475" lon="2.12394">
        <ele>646.40002441406</ele>
        <time>2019-03-09T08:14:52.000Z</time>
      </trkpt>
      <trkpt lat="43.44476" lon="2.12402">
        <ele>645.20001220703</ele>
        <time>2019-03-09T08:14:56.000Z</time>
      </trkpt>
      <trkpt lat="43.44476" lon="2.12403">
        <ele>645</ele>
        <time>2019-03-09T08:14:57.000Z</time>
      </trkpt>
      <trkpt lat="43.44476" lon="2.12405">
        <ele>645.20001220703</ele>
        <time>2019-03-09T08:14:58.000Z</time>
      </trkpt>
      <trkpt lat="43.44473" lon="2.1241">
        <ele>646.59997558594</ele>
        <time>2019-03-09T08:15:01.000Z</time>
      </trkpt>
      <trkpt lat="43.44472" lon="2.12412">
        <ele>647.20001220703</ele>
        <time>2019-03-09T08:15:02.000Z</time>
      </trkpt>
      <trkpt lat="43.44469" lon="2.12415">
        <ele>648.79998779297</ele>
        <time>2019-03-09T08:15:05.000Z</time>
      </trkpt>
      <trkpt lat="43.44466" lon="2.12419">
        <ele>650.59997558594</ele>
        <time>2019-03-09T08:15:09.000Z</time>
      </trkpt>
      <trkpt lat="43.44466" lon="2.12419">
        <ele>650.40002441406</ele>
        <time>2019-03-09T08:15:10.000Z</time>
      </trkpt>
      <trkpt lat="43.44461" lon="2.12427">
        <ele>653.20001220703</ele>
        <time>2019-03-09T08:15:15.000Z</time>
      </trkpt>
      <trkpt lat="43.44461" lon="2.1243">
        <ele>653.59997558594</ele>
        <time>2019-03-09T08:15:17.000Z</time>
      </trkpt>
      <trkpt lat="43.44456" lon="2.12436">
        <ele>655.79998779297</ele>
        <time>2019-03-09T08:15:22.000Z</time>
      </trkpt>
      <trkpt lat="43.4445" lon="2.12444">
        <ele>656.40002441406</ele>
        <time>2019-03-09T08:15:27.000Z</time>
      </trkpt>
      <trkpt lat="43.44448" lon="2.12445">
        <ele>656.79998779297</ele>
        <time>2019-03-09T08:15:28.000Z</time>
      </trkpt>
      <trkpt lat="43.44442" lon="2.12451">
        <ele>657.59997558594</ele>
        <time>2019-03-09T08:15:32.000Z</time>
      </trkpt>
      <trkpt lat="43.44442" lon="2.12452">
        <ele>657.59997558594</ele>
        <time>2019-03-09T08:15:33.000Z</time>
      </trkpt>
      <trkpt lat="43.44441" lon="2.12459">
        <ele>657</ele>
        <time>2019-03-09T08:15:37.000Z</time>
      </trkpt>
      <trkpt lat="43.4444" lon="2.1246">
        <ele>657</ele>
        <time>2019-03-09T08:15:38.000Z</time>
      </trkpt>
      <trkpt lat="43.44435" lon="2.12464">
        <ele>657.79998779297</ele>
        <time>2019-03-09T08:15:49.000Z</time>
      </trkpt>
      <trkpt lat="43.44434" lon="2.12466">
        <ele>658</ele>
        <time>2019-03-09T08:16:03.000Z</time>
      </trkpt>
      <trkpt lat="43.44434" lon="2.12466">
        <ele>658</ele>
        <time>2019-03-09T08:16:08.000Z</time>
      </trkpt>
      <trkpt lat="43.44433" lon="2.12466">
        <ele>658</ele>
        <time>2019-03-09T08:16:14.000Z</time>
      </trkpt>
      <trkpt lat="43.44433" lon="2.12466">
        <ele>658.20001220703</ele>
        <time>2019-03-09T08:16:22.000Z</time>
      </trkpt>
      <trkpt lat="43.44439" lon="2.12456">
        <ele>658</ele>
        <time>2019-03-09T08:16:34.000Z</time>
      </trkpt>
      <trkpt lat="43.44441" lon="2.12453">
        <ele>657.59997558594</ele>
        <time>2019-03-09T08:16:35.000Z</time>
      </trkpt>
      <trkpt lat="43.44448" lon="2.12444">
        <ele>657</ele>
        <time>2019-03-09T08:16:37.000Z</time>
      </trkpt>
      <trkpt lat="43.44451" lon="2.12439">
        <ele>656.59997558594</ele>
        <time>2019-03-09T08:16:38.000Z</time>
      </trkpt>
      <trkpt lat="43.44458" lon="2.12432">
        <ele>655</ele>
        <time>2019-03-09T08:16:40.000Z</time>
      </trkpt>
      <trkpt lat="43.44464" lon="2.12426">
        <ele>651.79998779297</ele>
        <time>2019-03-09T08:16:41.000Z</time>
      </trkpt>
      <trkpt lat="43.44469" lon="2.12419">
        <ele>649</ele>
        <time>2019-03-09T08:16:42.000Z</time>
      </trkpt>
      <trkpt lat="43.44472" lon="2.12413">
        <ele>647</ele>
        <time>2019-03-09T08:16:43.000Z</time>
      </trkpt>
      <trkpt lat="43.44477" lon="2.12398">
        <ele>645</ele>
        <time>2019-03-09T08:16:45.000Z</time>
      </trkpt>
      <trkpt lat="43.44479" lon="2.1239">
        <ele>644.20001220703</ele>
        <time>2019-03-09T08:16:46.000Z</time>
      </trkpt>
      <trkpt lat="43.4448" lon="2.12381">
        <ele>644</ele>
        <time>2019-03-09T08:16:47.000Z</time>
      </trkpt>
      <trkpt lat="43.44483" lon="2.1236">
        <ele>644.40002441406</ele>
        <time>2019-03-09T08:16:49.000Z</time>
      </trkpt>
      <trkpt lat="43.44485" lon="2.12348">
        <ele>644.40002441406</ele>
        <time>2019-03-09T08:16:50.000Z</time>
      </trkpt>
      <trkpt lat="43.44488" lon="2.12336">
        <ele>644.59997558594</ele>
        <time>2019-03-09T08:16:51.000Z</time>
      </trkpt>
      <trkpt lat="43.4449" lon="2.12324">
        <ele>644.40002441406</ele>
        <time>2019-03-09T08:16:52.000Z</time>
      </trkpt>
      <trkpt lat="43.44491" lon="2.12312">
        <ele>642.79998779297</ele>
        <time>2019-03-09T08:16:53.000Z</time>
      </trkpt>
      <trkpt lat="43.44493" lon="2.12299">
        <ele>641.40002441406</ele>
        <time>2019-03-09T08:16:54.000Z</time>
      </trkpt>
      <trkpt lat="43.44495" lon="2.12287">
        <ele>640.40002441406</ele>
        <time>2019-03-09T08:16:55.000Z</time>
      </trkpt>
      <trkpt lat="43.44496" lon="2.12276">
        <ele>639.59997558594</ele>
        <time>2019-03-09T08:16:56.000Z</time>
      </trkpt>
      <trkpt lat="43.44497" lon="2.12264">
        <ele>639</ele>
        <time>2019-03-09T08:16:57.000Z</time>
      </trkpt>
      <trkpt lat="43.44498" lon="2.1224">
        <ele>637.59997558594</ele>
        <time>2019-03-09T08:16:59.000Z</time>
      </trkpt>
      <trkpt lat="43.44498" lon="2.12227">
        <ele>636.40002441406</ele>
        <time>2019-03-09T08:17:00.000Z</time>
      </trkpt>
      <trkpt lat="43.44497" lon="2.12214">
        <ele>636</ele>
        <time>2019-03-09T08:17:01.000Z</time>
      </trkpt>
      <trkpt lat="43.44493" lon="2.12189">
        <ele>635.59997558594</ele>
        <time>2019-03-09T08:17:03.000Z</time>
      </trkpt>
      <trkpt lat="43.4449" lon="2.12165">
        <ele>635</ele>
        <time>2019-03-09T08:17:05.000Z</time>
      </trkpt>
      <trkpt lat="43.4449" lon="2.12156">
        <ele>634.79998779297</ele>
        <time>2019-03-09T08:17:06.000Z</time>
      </trkpt>
      <trkpt lat="43.44488" lon="2.12149">
        <ele>635</ele>
        <time>2019-03-09T08:17:07.000Z</time>
      </trkpt>
      <trkpt lat="43.44484" lon="2.12142">
        <ele>636</ele>
        <time>2019-03-09T08:17:10.000Z</time>
      </trkpt>
      <trkpt lat="43.4448" lon="2.12141">
        <ele>637.20001220703</ele>
        <time>2019-03-09T08:17:12.000Z</time>
      </trkpt>
      <trkpt lat="43.4447" lon="2.12141">
        <ele>640.79998779297</ele>
        <time>2019-03-09T08:17:18.000Z</time>
      </trkpt>
      <trkpt lat="43.44469" lon="2.12141">
        <ele>641</ele>
        <time>2019-03-09T08:17:19.000Z</time>
      </trkpt>
      <trkpt lat="43.44538" lon="2.12204">
        <ele>622</ele>
        <time>2019-03-09T08:17:22.000Z</time>
      </trkpt>
      <trkpt lat="43.44541" lon="2.12212">
        <ele>621.40002441406</ele>
        <time>2019-03-09T08:17:24.000Z</time>
      </trkpt>
      <trkpt lat="43.4455" lon="2.12228">
        <ele>619.79998779297</ele>
        <time>2019-03-09T08:17:27.000Z</time>
      </trkpt>
      <trkpt lat="43.44556" lon="2.12241">
        <ele>618.59997558594</ele>
        <time>2019-03-09T08:17:29.000Z</time>
      </trkpt>
      <trkpt lat="43.44569" lon="2.12262">
        <ele>612.79998779297</ele>
        <time>2019-03-09T08:17:32.000Z</time>
      </trkpt>
      <trkpt lat="43.44572" lon="2.12269">
        <ele>611.20001220703</ele>
        <time>2019-03-09T08:17:33.000Z</time>
      </trkpt>
      <trkpt lat="43.44571" lon="2.12276">
        <ele>610.40002441406</ele>
        <time>2019-03-09T08:17:34.000Z</time>
      </trkpt>
      <trkpt lat="43.4457" lon="2.12282">
        <ele>610</ele>
        <time>2019-03-09T08:17:35.000Z</time>
      </trkpt>
      <trkpt lat="43.44566" lon="2.12295">
        <ele>609.79998779297</ele>
        <time>2019-03-09T08:17:37.000Z</time>
      </trkpt>
      <trkpt lat="43.44561" lon="2.12311">
        <ele>612.40002441406</ele>
        <time>2019-03-09T08:17:39.000Z</time>
      </trkpt>
      <trkpt lat="43.44559" lon="2.1232">
        <ele>613.79998779297</ele>
        <time>2019-03-09T08:17:40.000Z</time>
      </trkpt>
      <trkpt lat="43.44556" lon="2.1233">
        <ele>614.79998779297</ele>
        <time>2019-03-09T08:17:41.000Z</time>
      </trkpt>
      <trkpt lat="43.44555" lon="2.1234">
        <ele>614.40002441406</ele>
        <time>2019-03-09T08:17:42.000Z</time>
      </trkpt>
      <trkpt lat="43.44554" lon="2.12349">
        <ele>614.40002441406</ele>
        <time>2019-03-09T08:17:43.000Z</time>
      </trkpt>
      <trkpt lat="43.44553" lon="2.12355">
        <ele>614.20001220703</ele>
        <time>2019-03-09T08:17:44.000Z</time>
      </trkpt>
      <trkpt lat="43.44552" lon="2.12359">
        <ele>614</ele>
        <time>2019-03-09T08:17:45.000Z</time>
      </trkpt>
      <trkpt lat="43.44552" lon="2.12362">
        <ele>613.79998779297</ele>
        <time>2019-03-09T08:17:46.000Z</time>
      </trkpt>
      <trkpt lat="43.44552" lon="2.12365">
        <ele>613.59997558594</ele>
        <time>2019-03-09T08:17:47.000Z</time>
      </trkpt>
      <trkpt lat="43.44553" lon="2.1237">
        <ele>613</ele>
        <time>2019-03-09T08:17:49.000Z</time>
      </trkpt>
      <trkpt lat="43.44558" lon="2.1238">
        <ele>609.59997558594</ele>
        <time>2019-03-09T08:17:52.000Z</time>
      </trkpt>
      <trkpt lat="43.44561" lon="2.12384">
        <ele>608.20001220703</ele>
        <time>2019-03-09T08:17:53.000Z</time>
      </trkpt>
      <trkpt lat="43.44562" lon="2.1239">
        <ele>606.79998779297</ele>
        <time>2019-03-09T08:17:54.000Z</time>
      </trkpt>
      <trkpt lat="43.44567" lon="2.12409">
        <ele>603</ele>
        <time>2019-03-09T08:17:56.000Z</time>
      </trkpt>
      <trkpt lat="43.44574" lon="2.12432">
        <ele>601.79998779297</ele>
        <time>2019-03-09T08:17:58.000Z</time>
      </trkpt>
      <trkpt lat="43.44578" lon="2.12442">
        <ele>601</ele>
        <time>2019-03-09T08:17:59.000Z</time>
      </trkpt>
      <trkpt lat="43.44582" lon="2.1245">
        <ele>600.20001220703</ele>
        <time>2019-03-09T08:18:00.000Z</time>
      </trkpt>
      <trkpt lat="43.44588" lon="2.12466">
        <ele>599</ele>
        <time>2019-03-09T08:18:02.000Z</time>
      </trkpt>
      <trkpt lat="43.44592" lon="2.12481">
        <ele>598.79998779297</ele>
        <time>2019-03-09T08:18:04.000Z</time>
      </trkpt>
      <trkpt lat="43.44599" lon="2.12502">
        <ele>598.79998779297</ele>
        <time>2019-03-09T08:18:08.000Z</time>
      </trkpt>
      <trkpt lat="43.44604" lon="2.12516">
        <ele>600.20001220703</ele>
        <time>2019-03-09T08:18:11.000Z</time>
      </trkpt>
      <trkpt lat="43.44605" lon="2.12521">
        <ele>600.79998779297</ele>
        <time>2019-03-09T08:18:12.000Z</time>
      </trkpt>
      <trkpt lat="43.4461" lon="2.12539">
        <ele>603.20001220703</ele>
        <time>2019-03-09T08:18:16.000Z</time>
      </trkpt>
      <trkpt lat="43.44614" lon="2.1255">
        <ele>604.40002441406</ele>
        <time>2019-03-09T08:18:19.000Z</time>
      </trkpt>
      <trkpt lat="43.44614" lon="2.12559">
        <ele>606.20001220703</ele>
        <time>2019-03-09T08:18:22.000Z</time>
      </trkpt>
      <trkpt lat="43.44613" lon="2.12561">
        <ele>607</ele>
        <time>2019-03-09T08:18:23.000Z</time>
      </trkpt>
      <trkpt lat="43.44613" lon="2.12563">
        <ele>607.79998779297</ele>
        <time>2019-03-09T08:18:24.000Z</time>
      </trkpt>
      <trkpt lat="43.44611" lon="2.1257">
        <ele>609.79998779297</ele>
        <time>2019-03-09T08:18:27.000Z</time>
      </trkpt>
      <trkpt lat="43.44611" lon="2.12572">
        <ele>610.40002441406</ele>
        <time>2019-03-09T08:18:28.000Z</time>
      </trkpt>
      <trkpt lat="43.44613" lon="2.12582">
        <ele>612</ele>
        <time>2019-03-09T08:18:32.000Z</time>
      </trkpt>
      <trkpt lat="43.44614" lon="2.12591">
        <ele>613.79998779297</ele>
        <time>2019-03-09T08:18:36.000Z</time>
      </trkpt>
      <trkpt lat="43.44614" lon="2.12594">
        <ele>614.40002441406</ele>
        <time>2019-03-09T08:18:37.000Z</time>
      </trkpt>
      <trkpt lat="43.44613" lon="2.12596">
        <ele>615.20001220703</ele>
        <time>2019-03-09T08:18:38.000Z</time>
      </trkpt>
      <trkpt lat="43.44614" lon="2.12601">
        <ele>616</ele>
        <time>2019-03-09T08:18:40.000Z</time>
      </trkpt>
      <trkpt lat="43.44617" lon="2.12607">
        <ele>616.59997558594</ele>
        <time>2019-03-09T08:18:43.000Z</time>
      </trkpt>
      <trkpt lat="43.44617" lon="2.12609">
        <ele>617</ele>
        <time>2019-03-09T08:18:44.000Z</time>
      </trkpt>
      <trkpt lat="43.44618" lon="2.12618">
        <ele>618.79998779297</ele>
        <time>2019-03-09T08:18:48.000Z</time>
      </trkpt>
      <trkpt lat="43.44618" lon="2.1262">
        <ele>619.40002441406</ele>
        <time>2019-03-09T08:18:49.000Z</time>
      </trkpt>
      <trkpt lat="43.44618" lon="2.12622">
        <ele>619.79998779297</ele>
        <time>2019-03-09T08:18:50.000Z</time>
      </trkpt>
      <trkpt lat="43.4462" lon="2.12627">
        <ele>620.20001220703</ele>
        <time>2019-03-09T08:18:53.000Z</time>
      </trkpt>
      <trkpt lat="43.44621" lon="2.12629">
        <ele>620.20001220703</ele>
        <time>2019-03-09T08:18:54.000Z</time>
      </trkpt>
      <trkpt lat="43.44623" lon="2.12631">
        <ele>620.20001220703</ele>
        <time>2019-03-09T08:18:55.000Z</time>
      </trkpt>
      <trkpt lat="43.44625" lon="2.12636">
        <ele>620.59997558594</ele>
        <time>2019-03-09T08:18:58.000Z</time>
      </trkpt>
      <trkpt lat="43.44626" lon="2.12639">
        <ele>620.79998779297</ele>
        <time>2019-03-09T08:18:59.000Z</time>
      </trkpt>
      <trkpt lat="43.44627" lon="2.12645">
        <ele>622</ele>
        <time>2019-03-09T08:19:02.000Z</time>
      </trkpt>
      <trkpt lat="43.44627" lon="2.12647">
        <ele>622.59997558594</ele>
        <time>2019-03-09T08:19:03.000Z</time>
      </trkpt>
      <trkpt lat="43.44632" lon="2.12655">
        <ele>622.59997558594</ele>
        <time>2019-03-09T08:19:08.000Z</time>
      </trkpt>
      <trkpt lat="43.44636" lon="2.12661">
        <ele>622.59997558594</ele>
        <time>2019-03-09T08:19:11.000Z</time>
      </trkpt>
      <trkpt lat="43.44637" lon="2.12667">
        <ele>623.20001220703</ele>
        <time>2019-03-09T08:19:14.000Z</time>
      </trkpt>
      <trkpt lat="43.44637" lon="2.12669">
        <ele>623</ele>
        <time>2019-03-09T08:19:15.000Z</time>
      </trkpt>
      <trkpt lat="43.44639" lon="2.12678">
        <ele>623.59997558594</ele>
        <time>2019-03-09T08:19:20.000Z</time>
      </trkpt>
      <trkpt lat="43.44639" lon="2.12682">
        <ele>624.20001220703</ele>
        <time>2019-03-09T08:19:22.000Z</time>
      </trkpt>
      <trkpt lat="43.44638" lon="2.12689">
        <ele>625.79998779297</ele>
        <time>2019-03-09T08:19:26.000Z</time>
      </trkpt>
      <trkpt lat="43.44639" lon="2.12692">
        <ele>625.79998779297</ele>
        <time>2019-03-09T08:19:28.000Z</time>
      </trkpt>
      <trkpt lat="43.44641" lon="2.12699">
        <ele>625.79998779297</ele>
        <time>2019-03-09T08:19:32.000Z</time>
      </trkpt>
      <trkpt lat="43.44642" lon="2.127">
        <ele>625.59997558594</ele>
        <time>2019-03-09T08:19:33.000Z</time>
      </trkpt>
      <trkpt lat="43.44645" lon="2.12707">
        <ele>625.59997558594</ele>
        <time>2019-03-09T08:19:37.000Z</time>
      </trkpt>
      <trkpt lat="43.44644" lon="2.12708">
        <ele>626</ele>
        <time>2019-03-09T08:19:38.000Z</time>
      </trkpt>
      <trkpt lat="43.44644" lon="2.1271">
        <ele>626.40002441406</ele>
        <time>2019-03-09T08:19:39.000Z</time>
      </trkpt>
      <trkpt lat="43.44643" lon="2.12713">
        <ele>627.40002441406</ele>
        <time>2019-03-09T08:19:41.000Z</time>
      </trkpt>
      <trkpt lat="43.44641" lon="2.12718">
        <ele>628.79998779297</ele>
        <time>2019-03-09T08:19:44.000Z</time>
      </trkpt>
      <trkpt lat="43.44641" lon="2.12726">
        <ele>630</ele>
        <time>2019-03-09T08:19:48.000Z</time>
      </trkpt>
      <trkpt lat="43.44641" lon="2.1273">
        <ele>630.59997558594</ele>
        <time>2019-03-09T08:19:50.000Z</time>
      </trkpt>
      <trkpt lat="43.44642" lon="2.12732">
        <ele>630.79998779297</ele>
        <time>2019-03-09T08:19:51.000Z</time>
      </trkpt>
      <trkpt lat="43.44643" lon="2.12735">
        <ele>630.79998779297</ele>
        <time>2019-03-09T08:19:53.000Z</time>
      </trkpt>
      <trkpt lat="43.44645" lon="2.1274">
        <ele>630.79998779297</ele>
        <time>2019-03-09T08:19:56.000Z</time>
      </trkpt>
      <trkpt lat="43.44647" lon="2.12744">
        <ele>630.59997558594</ele>
        <time>2019-03-09T08:19:59.000Z</time>
      </trkpt>
      <trkpt lat="43.44648" lon="2.12745">
        <ele>630.40002441406</ele>
        <time>2019-03-09T08:20:00.000Z</time>
      </trkpt>
      <trkpt lat="43.44649" lon="2.12748">
        <ele>630</ele>
        <time>2019-03-09T08:20:02.000Z</time>
      </trkpt>
      <trkpt lat="43.44652" lon="2.12753">
        <ele>629.40002441406</ele>
        <time>2019-03-09T08:20:06.000Z</time>
      </trkpt>
      <trkpt lat="43.44652" lon="2.12754">
        <ele>629.59997558594</ele>
        <time>2019-03-09T08:20:07.000Z</time>
      </trkpt>
      <trkpt lat="43.4465" lon="2.12759">
        <ele>630.79998779297</ele>
        <time>2019-03-09T08:20:10.000Z</time>
      </trkpt>
      <trkpt lat="43.44647" lon="2.12764">
        <ele>632.40002441406</ele>
        <time>2019-03-09T08:20:14.000Z</time>
      </trkpt>
      <trkpt lat="43.44647" lon="2.12768">
        <ele>633.20001220703</ele>
        <time>2019-03-09T08:20:17.000Z</time>
      </trkpt>
      <trkpt lat="43.44648" lon="2.12771">
        <ele>633</ele>
        <time>2019-03-09T08:20:21.000Z</time>
      </trkpt>
      <trkpt lat="43.44648" lon="2.12776">
        <ele>633.40002441406</ele>
        <time>2019-03-09T08:20:25.000Z</time>
      </trkpt>
      <trkpt lat="43.4465" lon="2.12779">
        <ele>633</ele>
        <time>2019-03-09T08:20:27.000Z</time>
      </trkpt>
      <trkpt lat="43.4465" lon="2.12782">
        <ele>633.40002441406</ele>
        <time>2019-03-09T08:20:29.000Z</time>
      </trkpt>
      <trkpt lat="43.44648" lon="2.12786">
        <ele>634.79998779297</ele>
        <time>2019-03-09T08:20:32.000Z</time>
      </trkpt>
      <trkpt lat="43.44647" lon="2.12787">
        <ele>635.20001220703</ele>
        <time>2019-03-09T08:20:33.000Z</time>
      </trkpt>
      <trkpt lat="43.44644" lon="2.12794">
        <ele>637.20001220703</ele>
        <time>2019-03-09T08:20:37.000Z</time>
      </trkpt>
      <trkpt lat="43.44643" lon="2.12798">
        <ele>637.79998779297</ele>
        <time>2019-03-09T08:20:39.000Z</time>
      </trkpt>
      <trkpt lat="43.44643" lon="2.12799">
        <ele>638</ele>
        <time>2019-03-09T08:20:40.000Z</time>
      </trkpt>
      <trkpt lat="43.44642" lon="2.128">
        <ele>638.59997558594</ele>
        <time>2019-03-09T08:20:43.000Z</time>
      </trkpt>
      <trkpt lat="43.44641" lon="2.12804">
        <ele>639.40002441406</ele>
        <time>2019-03-09T08:20:45.000Z</time>
      </trkpt>
      <trkpt lat="43.44641" lon="2.12808">
        <ele>640</ele>
        <time>2019-03-09T08:20:47.000Z</time>
      </trkpt>
      <trkpt lat="43.4464" lon="2.12817">
        <ele>641.59997558594</ele>
        <time>2019-03-09T08:20:51.000Z</time>
      </trkpt>
      <trkpt lat="43.4464" lon="2.12818">
        <ele>642</ele>
        <time>2019-03-09T08:20:52.000Z</time>
      </trkpt>
      <trkpt lat="43.44639" lon="2.12826">
        <ele>643.40002441406</ele>
        <time>2019-03-09T08:20:57.000Z</time>
      </trkpt>
      <trkpt lat="43.44638" lon="2.12832">
        <ele>644.40002441406</ele>
        <time>2019-03-09T08:21:00.000Z</time>
      </trkpt>
      <trkpt lat="43.44638" lon="2.12835">
        <ele>645</ele>
        <time>2019-03-09T08:21:02.000Z</time>
      </trkpt>
      <trkpt lat="43.44637" lon="2.1284">
        <ele>646.20001220703</ele>
        <time>2019-03-09T08:21:06.000Z</time>
      </trkpt>
      <trkpt lat="43.44633" lon="2.12848">
        <ele>649.40002441406</ele>
        <time>2019-03-09T08:21:11.000Z</time>
      </trkpt>
      <trkpt lat="43.44629" lon="2.12859">
        <ele>652.40002441406</ele>
        <time>2019-03-09T08:21:17.000Z</time>
      </trkpt>
      <trkpt lat="43.4463" lon="2.1287">
        <ele>652</ele>
        <time>2019-03-09T08:21:23.000Z</time>
      </trkpt>
      <trkpt lat="43.4463" lon="2.12874">
        <ele>652</ele>
        <time>2019-03-09T08:21:25.000Z</time>
      </trkpt>
      <trkpt lat="43.44628" lon="2.12881">
        <ele>652.40002441406</ele>
        <time>2019-03-09T08:21:30.000Z</time>
      </trkpt>
      <trkpt lat="43.44626" lon="2.12885">
        <ele>652.79998779297</ele>
        <time>2019-03-09T08:21:32.000Z</time>
      </trkpt>
      <trkpt lat="43.44621" lon="2.12897">
        <ele>654</ele>
        <time>2019-03-09T08:21:38.000Z</time>
      </trkpt>
      <trkpt lat="43.44619" lon="2.12901">
        <ele>654.40002441406</ele>
        <time>2019-03-09T08:21:40.000Z</time>
      </trkpt>
      <trkpt lat="43.44614" lon="2.12913">
        <ele>656.20001220703</ele>
        <time>2019-03-09T08:21:46.000Z</time>
      </trkpt>
      <trkpt lat="43.44613" lon="2.12915">
        <ele>657.20001220703</ele>
        <time>2019-03-09T08:21:47.000Z</time>
      </trkpt>
      <trkpt lat="43.4461" lon="2.12927">
        <ele>660.20001220703</ele>
        <time>2019-03-09T08:21:53.000Z</time>
      </trkpt>
      <trkpt lat="43.44609" lon="2.12932">
        <ele>660.59997558594</ele>
        <time>2019-03-09T08:21:55.000Z</time>
      </trkpt>
      <trkpt lat="43.44607" lon="2.12942">
        <ele>661</ele>
        <time>2019-03-09T08:21:59.000Z</time>
      </trkpt>
      <trkpt lat="43.44604" lon="2.12955">
        <ele>661.79998779297</ele>
        <time>2019-03-09T08:22:05.000Z</time>
      </trkpt>
      <trkpt lat="43.44604" lon="2.12957">
        <ele>662</ele>
        <time>2019-03-09T08:22:06.000Z</time>
      </trkpt>
      <trkpt lat="43.44601" lon="2.12968">
        <ele>662.59997558594</ele>
        <time>2019-03-09T08:22:11.000Z</time>
      </trkpt>
      <trkpt lat="43.44601" lon="2.1297">
        <ele>662.59997558594</ele>
        <time>2019-03-09T08:22:12.000Z</time>
      </trkpt>
      <trkpt lat="43.44599" lon="2.1298">
        <ele>663.20001220703</ele>
        <time>2019-03-09T08:22:18.000Z</time>
      </trkpt>
      <trkpt lat="43.44598" lon="2.12984">
        <ele>663.79998779297</ele>
        <time>2019-03-09T08:22:20.000Z</time>
      </trkpt>
      <trkpt lat="43.44593" lon="2.12991">
        <ele>665.79998779297</ele>
        <time>2019-03-09T08:22:24.000Z</time>
      </trkpt>
      <trkpt lat="43.44589" lon="2.12993">
        <ele>667</ele>
        <time>2019-03-09T08:22:27.000Z</time>
      </trkpt>
      <trkpt lat="43.44587" lon="2.12993">
        <ele>667.59997558594</ele>
        <time>2019-03-09T08:22:28.000Z</time>
      </trkpt>
      <trkpt lat="43.44586" lon="2.12992">
        <ele>668.20001220703</ele>
        <time>2019-03-09T08:22:29.000Z</time>
      </trkpt>
      <trkpt lat="43.44584" lon="2.1299">
        <ele>668.79998779297</ele>
        <time>2019-03-09T08:22:30.000Z</time>
      </trkpt>
      <trkpt lat="43.4458" lon="2.12986">
        <ele>670.20001220703</ele>
        <time>2019-03-09T08:22:33.000Z</time>
      </trkpt>
      <trkpt lat="43.44579" lon="2.12985">
        <ele>670.59997558594</ele>
        <time>2019-03-09T08:22:34.000Z</time>
      </trkpt>
      <trkpt lat="43.44579" lon="2.12981">
        <ele>671.20001220703</ele>
        <time>2019-03-09T08:22:37.000Z</time>
      </trkpt>
      <trkpt lat="43.44579" lon="2.12976">
        <ele>671.59997558594</ele>
        <time>2019-03-09T08:22:40.000Z</time>
      </trkpt>
      <trkpt lat="43.44578" lon="2.12966">
        <ele>671.79998779297</ele>
        <time>2019-03-09T08:22:46.000Z</time>
      </trkpt>
      <trkpt lat="43.44577" lon="2.12957">
        <ele>671.40002441406</ele>
        <time>2019-03-09T08:22:52.000Z</time>
      </trkpt>
      <trkpt lat="43.44577" lon="2.12955">
        <ele>671.40002441406</ele>
        <time>2019-03-09T08:22:53.000Z</time>
      </trkpt>
      <trkpt lat="43.44575" lon="2.12946">
        <ele>672</ele>
        <time>2019-03-09T08:22:58.000Z</time>
      </trkpt>
      <trkpt lat="43.44572" lon="2.12938">
        <ele>673</ele>
        <time>2019-03-09T08:23:03.000Z</time>
      </trkpt>
      <trkpt lat="43.44571" lon="2.12934">
        <ele>672.79998779297</ele>
        <time>2019-03-09T08:23:05.000Z</time>
      </trkpt>
      <trkpt lat="43.4457" lon="2.1293">
        <ele>673</ele>
        <time>2019-03-09T08:23:07.000Z</time>
      </trkpt>
      <trkpt lat="43.44571" lon="2.12922">
        <ele>672.20001220703</ele>
        <time>2019-03-09T08:23:11.000Z</time>
      </trkpt>
      <trkpt lat="43.44571" lon="2.12913">
        <ele>671.59997558594</ele>
        <time>2019-03-09T08:23:17.000Z</time>
      </trkpt>
      <trkpt lat="43.44572" lon="2.12911">
        <ele>671.20001220703</ele>
        <time>2019-03-09T08:23:18.000Z</time>
      </trkpt>
      <trkpt lat="43.4457" lon="2.12902">
        <ele>671.79998779297</ele>
        <time>2019-03-09T08:23:24.000Z</time>
      </trkpt>
      <trkpt lat="43.44569" lon="2.12894">
        <ele>672</ele>
        <time>2019-03-09T08:23:29.000Z</time>
      </trkpt>
      <trkpt lat="43.44569" lon="2.12892">
        <ele>671.79998779297</ele>
        <time>2019-03-09T08:23:30.000Z</time>
      </trkpt>
      <trkpt lat="43.44569" lon="2.12888">
        <ele>672</ele>
        <time>2019-03-09T08:23:32.000Z</time>
      </trkpt>
      <trkpt lat="43.44568" lon="2.12883">
        <ele>672.40002441406</ele>
        <time>2019-03-09T08:23:36.000Z</time>
      </trkpt>
      <trkpt lat="43.44567" lon="2.12881">
        <ele>672.40002441406</ele>
        <time>2019-03-09T08:23:37.000Z</time>
      </trkpt>
      <trkpt lat="43.44567" lon="2.12876">
        <ele>672.40002441406</ele>
        <time>2019-03-09T08:23:40.000Z</time>
      </trkpt>
      <trkpt lat="43.44566" lon="2.12871">
        <ele>672.79998779297</ele>
        <time>2019-03-09T08:23:43.000Z</time>
      </trkpt>
      <trkpt lat="43.44562" lon="2.12864">
        <ele>674.59997558594</ele>
        <time>2019-03-09T08:23:47.000Z</time>
      </trkpt>
      <trkpt lat="43.44561" lon="2.12861">
        <ele>675</ele>
        <time>2019-03-09T08:23:49.000Z</time>
      </trkpt>
      <trkpt lat="43.44561" lon="2.12855">
        <ele>675.20001220703</ele>
        <time>2019-03-09T08:23:52.000Z</time>
      </trkpt>
      <trkpt lat="43.44558" lon="2.12851">
        <ele>676.40002441406</ele>
        <time>2019-03-09T08:23:54.000Z</time>
      </trkpt>
      <trkpt lat="43.44554" lon="2.12839">
        <ele>678.20001220703</ele>
        <time>2019-03-09T08:24:00.000Z</time>
      </trkpt>
      <trkpt lat="43.44548" lon="2.12828">
        <ele>680.59997558594</ele>
        <time>2019-03-09T08:24:05.000Z</time>
      </trkpt>
      <trkpt lat="43.44547" lon="2.12823">
        <ele>681</ele>
        <time>2019-03-09T08:24:07.000Z</time>
      </trkpt>
      <trkpt lat="43.44542" lon="2.128">
        <ele>679.59997558594</ele>
        <time>2019-03-09T08:24:14.000Z</time>
      </trkpt>
      <trkpt lat="43.44544" lon="2.12784">
        <ele>676.79998779297</ele>
        <time>2019-03-09T08:24:17.000Z</time>
      </trkpt>
      <trkpt lat="43.44544" lon="2.12779">
        <ele>676.20001220703</ele>
        <time>2019-03-09T08:24:18.000Z</time>
      </trkpt>
      <trkpt lat="43.44538" lon="2.12765">
        <ele>676.79998779297</ele>
        <time>2019-03-09T08:24:20.000Z</time>
      </trkpt>
      <trkpt lat="43.44531" lon="2.12754">
        <ele>678.20001220703</ele>
        <time>2019-03-09T08:24:22.000Z</time>
      </trkpt>
      <trkpt lat="43.44516" lon="2.12729">
        <ele>680.59997558594</ele>
        <time>2019-03-09T08:24:28.000Z</time>
      </trkpt>
      <trkpt lat="43.44511" lon="2.12716">
        <ele>679.79998779297</ele>
        <time>2019-03-09T08:24:32.000Z</time>
      </trkpt>
      <trkpt lat="43.44507" lon="2.12703">
        <ele>678.79998779297</ele>
        <time>2019-03-09T08:24:35.000Z</time>
      </trkpt>
      <trkpt lat="43.44501" lon="2.1268">
        <ele>676.40002441406</ele>
        <time>2019-03-09T08:24:40.000Z</time>
      </trkpt>
      <trkpt lat="43.44499" lon="2.12657">
        <ele>673</ele>
        <time>2019-03-09T08:24:44.000Z</time>
      </trkpt>
      <trkpt lat="43.44496" lon="2.12654">
        <ele>672.79998779297</ele>
        <time>2019-03-09T08:24:45.000Z</time>
      </trkpt>
      <trkpt lat="43.44492" lon="2.12655">
        <ele>673.59997558594</ele>
        <time>2019-03-09T08:24:47.000Z</time>
      </trkpt>
      <trkpt lat="43.44491" lon="2.12655">
        <ele>673.79998779297</ele>
        <time>2019-03-09T08:24:53.000Z</time>
      </trkpt>
      <trkpt lat="43.44489" lon="2.12657">
        <ele>674.59997558594</ele>
        <time>2019-03-09T08:25:00.000Z</time>
      </trkpt>
      <trkpt lat="43.44488" lon="2.12658">
        <ele>675.40002441406</ele>
        <time>2019-03-09T08:25:03.000Z</time>
      </trkpt>
      <trkpt lat="43.44486" lon="2.12659">
        <ele>675.79998779297</ele>
        <time>2019-03-09T08:25:07.000Z</time>
      </trkpt>
      <trkpt lat="43.44486" lon="2.12659">
        <ele>676</ele>
        <time>2019-03-09T08:25:08.000Z</time>
      </trkpt>
      <trkpt lat="43.44483" lon="2.1266">
        <ele>676.79998779297</ele>
        <time>2019-03-09T08:25:12.000Z</time>
      </trkpt>
      <trkpt lat="43.4448" lon="2.12661">
        <ele>677.40002441406</ele>
        <time>2019-03-09T08:25:17.000Z</time>
      </trkpt>
      <trkpt lat="43.44478" lon="2.12662">
        <ele>678</ele>
        <time>2019-03-09T08:25:22.000Z</time>
      </trkpt>
      <trkpt lat="43.44474" lon="2.12661">
        <ele>678.59997558594</ele>
        <time>2019-03-09T08:25:27.000Z</time>
      </trkpt>
      <trkpt lat="43.4447" lon="2.12661">
        <ele>679.40002441406</ele>
        <time>2019-03-09T08:25:30.000Z</time>
      </trkpt>
      <trkpt lat="43.4447" lon="2.12661">
        <ele>679.40002441406</ele>
        <time>2019-03-09T08:25:31.000Z</time>
      </trkpt>
      <trkpt lat="43.44465" lon="2.12664">
        <ele>680.59997558594</ele>
        <time>2019-03-09T08:25:38.000Z</time>
      </trkpt>
      <trkpt lat="43.44462" lon="2.12669">
        <ele>682</ele>
        <time>2019-03-09T08:25:44.000Z</time>
      </trkpt>
      <trkpt lat="43.44461" lon="2.1267">
        <ele>682.20001220703</ele>
        <time>2019-03-09T08:25:45.000Z</time>
      </trkpt>
      <trkpt lat="43.44459" lon="2.12675">
        <ele>683.20001220703</ele>
        <time>2019-03-09T08:25:49.000Z</time>
      </trkpt>
      <trkpt lat="43.44459" lon="2.12678">
        <ele>683.79998779297</ele>
        <time>2019-03-09T08:25:52.000Z</time>
      </trkpt>
      <trkpt lat="43.44459" lon="2.12681">
        <ele>684.20001220703</ele>
        <time>2019-03-09T08:25:54.000Z</time>
      </trkpt>
      <trkpt lat="43.44459" lon="2.12685">
        <ele>684.79998779297</ele>
        <time>2019-03-09T08:25:57.000Z</time>
      </trkpt>
      <trkpt lat="43.44459" lon="2.12686">
        <ele>684.79998779297</ele>
        <time>2019-03-09T08:25:58.000Z</time>
      </trkpt>
      <trkpt lat="43.44459" lon="2.12686">
        <ele>685</ele>
        <time>2019-03-09T08:25:59.000Z</time>
      </trkpt>
      <trkpt lat="43.4446" lon="2.1269">
        <ele>685.40002441406</ele>
        <time>2019-03-09T08:26:03.000Z</time>
      </trkpt>
      <trkpt lat="43.4446" lon="2.12692">
        <ele>686</ele>
        <time>2019-03-09T08:26:05.000Z</time>
      </trkpt>
      <trkpt lat="43.4446" lon="2.12696">
        <ele>686.79998779297</ele>
        <time>2019-03-09T08:26:10.000Z</time>
      </trkpt>
      <trkpt lat="43.4446" lon="2.12696">
        <ele>686.79998779297</ele>
        <time>2019-03-09T08:26:12.000Z</time>
      </trkpt>
      <trkpt lat="43.44462" lon="2.12704">
        <ele>688</ele>
        <time>2019-03-09T08:26:19.000Z</time>
      </trkpt>
      <trkpt lat="43.44466" lon="2.12713">
        <ele>689</ele>
        <time>2019-03-09T08:26:25.000Z</time>
      </trkpt>
      <trkpt lat="43.4447" lon="2.12724">
        <ele>690.20001220703</ele>
        <time>2019-03-09T08:26:31.000Z</time>
      </trkpt>
      <trkpt lat="43.44471" lon="2.12726">
        <ele>690.40002441406</ele>
        <time>2019-03-09T08:26:32.000Z</time>
      </trkpt>
      <trkpt lat="43.44473" lon="2.12738">
        <ele>692.59997558594</ele>
        <time>2019-03-09T08:26:39.000Z</time>
      </trkpt>
      <trkpt lat="43.44476" lon="2.12747">
        <ele>693.59997558594</ele>
        <time>2019-03-09T08:26:44.000Z</time>
      </trkpt>
      <trkpt lat="43.44476" lon="2.1275">
        <ele>693.79998779297</ele>
        <time>2019-03-09T08:26:46.000Z</time>
      </trkpt>
      <trkpt lat="43.44474" lon="2.12755">
        <ele>695</ele>
        <time>2019-03-09T08:26:49.000Z</time>
      </trkpt>
      <trkpt lat="43.44475" lon="2.1276">
        <ele>695.40002441406</ele>
        <time>2019-03-09T08:26:52.000Z</time>
      </trkpt>
      <trkpt lat="43.44474" lon="2.12762">
        <ele>695.79998779297</ele>
        <time>2019-03-09T08:26:53.000Z</time>
      </trkpt>
      <trkpt lat="43.44474" lon="2.12768">
        <ele>696.59997558594</ele>
        <time>2019-03-09T08:26:57.000Z</time>
      </trkpt>
      <trkpt lat="43.44474" lon="2.12771">
        <ele>697</ele>
        <time>2019-03-09T08:26:59.000Z</time>
      </trkpt>
      <trkpt lat="43.44474" lon="2.12774">
        <ele>697.59997558594</ele>
        <time>2019-03-09T08:27:01.000Z</time>
      </trkpt>
      <trkpt lat="43.44474" lon="2.12779">
        <ele>698.20001220703</ele>
        <time>2019-03-09T08:27:04.000Z</time>
      </trkpt>
      <trkpt lat="43.44474" lon="2.12782">
        <ele>698.40002441406</ele>
        <time>2019-03-09T08:27:06.000Z</time>
      </trkpt>
      <trkpt lat="43.44474" lon="2.12786">
        <ele>699</ele>
        <time>2019-03-09T08:27:09.000Z</time>
      </trkpt>
      <trkpt lat="43.44474" lon="2.12792">
        <ele>700.20001220703</ele>
        <time>2019-03-09T08:27:13.000Z</time>
      </trkpt>
      <trkpt lat="43.44474" lon="2.12794">
        <ele>700.59997558594</ele>
        <time>2019-03-09T08:27:14.000Z</time>
      </trkpt>
      <trkpt lat="43.44473" lon="2.12801">
        <ele>702</ele>
        <time>2019-03-09T08:27:18.000Z</time>
      </trkpt>
      <trkpt lat="43.44474" lon="2.12808">
        <ele>702.59997558594</ele>
        <time>2019-03-09T08:27:22.000Z</time>
      </trkpt>
      <trkpt lat="43.44474" lon="2.12814">
        <ele>703.79998779297</ele>
        <time>2019-03-09T08:27:26.000Z</time>
      </trkpt>
      <trkpt lat="43.44474" lon="2.12818">
        <ele>704.59997558594</ele>
        <time>2019-03-09T08:27:28.000Z</time>
      </trkpt>
      <trkpt lat="43.44471" lon="2.12821">
        <ele>705.59997558594</ele>
        <time>2019-03-09T08:27:30.000Z</time>
      </trkpt>
      <trkpt lat="43.44471" lon="2.12827">
        <ele>707</ele>
        <time>2019-03-09T08:27:33.000Z</time>
      </trkpt>
      <trkpt lat="43.44471" lon="2.12831">
        <ele>707</ele>
        <time>2019-03-09T08:27:35.000Z</time>
      </trkpt>
      <trkpt lat="43.44469" lon="2.12839">
        <ele>707.79998779297</ele>
        <time>2019-03-09T08:27:39.000Z</time>
      </trkpt>
      <trkpt lat="43.44469" lon="2.12841">
        <ele>707.79998779297</ele>
        <time>2019-03-09T08:27:40.000Z</time>
      </trkpt>
      <trkpt lat="43.44469" lon="2.12852">
        <ele>708</ele>
        <time>2019-03-09T08:27:46.000Z</time>
      </trkpt>
      <trkpt lat="43.4447" lon="2.12854">
        <ele>707.79998779297</ele>
        <time>2019-03-09T08:27:47.000Z</time>
      </trkpt>
      <trkpt lat="43.44471" lon="2.12864">
        <ele>707.59997558594</ele>
        <time>2019-03-09T08:27:52.000Z</time>
      </trkpt>
      <trkpt lat="43.44471" lon="2.12868">
        <ele>708</ele>
        <time>2019-03-09T08:27:54.000Z</time>
      </trkpt>
      <trkpt lat="43.44473" lon="2.12876">
        <ele>708.20001220703</ele>
        <time>2019-03-09T08:27:58.000Z</time>
      </trkpt>
      <trkpt lat="43.44471" lon="2.1288">
        <ele>709.20001220703</ele>
        <time>2019-03-09T08:28:01.000Z</time>
      </trkpt>
      <trkpt lat="43.4447" lon="2.12886">
        <ele>710.20001220703</ele>
        <time>2019-03-09T08:28:04.000Z</time>
      </trkpt>
      <trkpt lat="43.4447" lon="2.12892">
        <ele>710.59997558594</ele>
        <time>2019-03-09T08:28:08.000Z</time>
      </trkpt>
      <trkpt lat="43.44469" lon="2.129">
        <ele>711.79998779297</ele>
        <time>2019-03-09T08:28:13.000Z</time>
      </trkpt>
      <trkpt lat="43.44469" lon="2.12902">
        <ele>712</ele>
        <time>2019-03-09T08:28:14.000Z</time>
      </trkpt>
      <trkpt lat="43.44469" lon="2.12909">
        <ele>712.59997558594</ele>
        <time>2019-03-09T08:28:18.000Z</time>
      </trkpt>
      <trkpt lat="43.44467" lon="2.12915">
        <ele>713</ele>
        <time>2019-03-09T08:28:21.000Z</time>
      </trkpt>
      <trkpt lat="43.44464" lon="2.12921">
        <ele>713.59997558594</ele>
        <time>2019-03-09T08:28:24.000Z</time>
      </trkpt>
      <trkpt lat="43.44462" lon="2.12932">
        <ele>713.20001220703</ele>
        <time>2019-03-09T08:28:29.000Z</time>
      </trkpt>
      <trkpt lat="43.44462" lon="2.12934">
        <ele>713.20001220703</ele>
        <time>2019-03-09T08:28:30.000Z</time>
      </trkpt>
      <trkpt lat="43.4446" lon="2.1295">
        <ele>713.20001220703</ele>
        <time>2019-03-09T08:28:36.000Z</time>
      </trkpt>
      <trkpt lat="43.44459" lon="2.12958">
        <ele>713.40002441406</ele>
        <time>2019-03-09T08:28:39.000Z</time>
      </trkpt>
      <trkpt lat="43.44456" lon="2.12964">
        <ele>714.20001220703</ele>
        <time>2019-03-09T08:28:41.000Z</time>
      </trkpt>
      <trkpt lat="43.44453" lon="2.12969">
        <ele>715.20001220703</ele>
        <time>2019-03-09T08:28:43.000Z</time>
      </trkpt>
      <trkpt lat="43.4445" lon="2.12979">
        <ele>716</ele>
        <time>2019-03-09T08:28:47.000Z</time>
      </trkpt>
      <trkpt lat="43.44448" lon="2.12986">
        <ele>716.79998779297</ele>
        <time>2019-03-09T08:28:50.000Z</time>
      </trkpt>
      <trkpt lat="43.44442" lon="2.12994">
        <ele>719</ele>
        <time>2019-03-09T08:28:54.000Z</time>
      </trkpt>
      <trkpt lat="43.44439" lon="2.12995">
        <ele>720</ele>
        <time>2019-03-09T08:28:55.000Z</time>
      </trkpt>
      <trkpt lat="43.44435" lon="2.13">
        <ele>721.20001220703</ele>
        <time>2019-03-09T08:28:57.000Z</time>
      </trkpt>
      <trkpt lat="43.44428" lon="2.13012">
        <ele>721.20001220703</ele>
        <time>2019-03-09T08:29:03.000Z</time>
      </trkpt>
      <trkpt lat="43.44427" lon="2.13014">
        <ele>721.40002441406</ele>
        <time>2019-03-09T08:29:04.000Z</time>
      </trkpt>
      <trkpt lat="43.44418" lon="2.13028">
        <ele>721.59997558594</ele>
        <time>2019-03-09T08:29:10.000Z</time>
      </trkpt>
      <trkpt lat="43.44407" lon="2.13041">
        <ele>722.40002441406</ele>
        <time>2019-03-09T08:29:16.000Z</time>
      </trkpt>
      <trkpt lat="43.444" lon="2.13049">
        <ele>723.20001220703</ele>
        <time>2019-03-09T08:29:20.000Z</time>
      </trkpt>
      <trkpt lat="43.44398" lon="2.13054">
        <ele>724</ele>
        <time>2019-03-09T08:29:22.000Z</time>
      </trkpt>
      <trkpt lat="43.44396" lon="2.13055">
        <ele>724.59997558594</ele>
        <time>2019-03-09T08:29:23.000Z</time>
      </trkpt>
      <trkpt lat="43.44385" lon="2.13068">
        <ele>727.59997558594</ele>
        <time>2019-03-09T08:29:29.000Z</time>
      </trkpt>
      <trkpt lat="43.44382" lon="2.13077">
        <ele>728.20001220703</ele>
        <time>2019-03-09T08:29:33.000Z</time>
      </trkpt>
      <trkpt lat="43.4438" lon="2.13079">
        <ele>728.79998779297</ele>
        <time>2019-03-09T08:29:34.000Z</time>
      </trkpt>
      <trkpt lat="43.44376" lon="2.13089">
        <ele>730</ele>
        <time>2019-03-09T08:29:39.000Z</time>
      </trkpt>
      <trkpt lat="43.44372" lon="2.13095">
        <ele>731.20001220703</ele>
        <time>2019-03-09T08:29:42.000Z</time>
      </trkpt>
      <trkpt lat="43.44372" lon="2.13097">
        <ele>731.20001220703</ele>
        <time>2019-03-09T08:29:43.000Z</time>
      </trkpt>
      <trkpt lat="43.44371" lon="2.13101">
        <ele>731.59997558594</ele>
        <time>2019-03-09T08:29:45.000Z</time>
      </trkpt>
      <trkpt lat="43.44365" lon="2.13113">
        <ele>731.79998779297</ele>
        <time>2019-03-09T08:29:51.000Z</time>
      </trkpt>
      <trkpt lat="43.44356" lon="2.13129">
        <ele>732.40002441406</ele>
        <time>2019-03-09T08:29:57.000Z</time>
      </trkpt>
      <trkpt lat="43.44354" lon="2.13138">
        <ele>732.20001220703</ele>
        <time>2019-03-09T08:30:00.000Z</time>
      </trkpt>
      <trkpt lat="43.44352" lon="2.13149">
        <ele>731.40002441406</ele>
        <time>2019-03-09T08:30:03.000Z</time>
      </trkpt>
      <trkpt lat="43.44352" lon="2.13171">
        <ele>730.59997558594</ele>
        <time>2019-03-09T08:30:09.000Z</time>
      </trkpt>
      <trkpt lat="43.44348" lon="2.13191">
        <ele>731</ele>
        <time>2019-03-09T08:30:14.000Z</time>
      </trkpt>
      <trkpt lat="43.44346" lon="2.13211">
        <ele>731.40002441406</ele>
        <time>2019-03-09T08:30:19.000Z</time>
      </trkpt>
      <trkpt lat="43.44346" lon="2.13215">
        <ele>731.20001220703</ele>
        <time>2019-03-09T08:30:20.000Z</time>
      </trkpt>
      <trkpt lat="43.44346" lon="2.13236">
        <ele>730.79998779297</ele>
        <time>2019-03-09T08:30:25.000Z</time>
      </trkpt>
      <trkpt lat="43.44347" lon="2.13239">
        <ele>730.59997558594</ele>
        <time>2019-03-09T08:30:26.000Z</time>
      </trkpt>
      <trkpt lat="43.4435" lon="2.13244">
        <ele>730</ele>
        <time>2019-03-09T08:30:29.000Z</time>
      </trkpt>
      <trkpt lat="43.44353" lon="2.13245">
        <ele>729.79998779297</ele>
        <time>2019-03-09T08:30:30.000Z</time>
      </trkpt>
      <trkpt lat="43.44363" lon="2.13254">
        <ele>730.20001220703</ele>
        <time>2019-03-09T08:30:34.000Z</time>
      </trkpt>
      <trkpt lat="43.44364" lon="2.13255">
        <ele>730.20001220703</ele>
        <time>2019-03-09T08:30:35.000Z</time>
      </trkpt>
      <trkpt lat="43.44367" lon="2.13258">
        <ele>730.40002441406</ele>
        <time>2019-03-09T08:30:38.000Z</time>
      </trkpt>
      <trkpt lat="43.4437" lon="2.13259">
        <ele>730.40002441406</ele>
        <time>2019-03-09T08:30:43.000Z</time>
      </trkpt>
      <trkpt lat="43.44368" lon="2.13262">
        <ele>731</ele>
        <time>2019-03-09T08:30:49.000Z</time>
      </trkpt>
      <trkpt lat="43.44368" lon="2.13262">
        <ele>731</ele>
        <time>2019-03-09T08:30:54.000Z</time>
      </trkpt>
      <trkpt lat="43.44368" lon="2.13262">
        <ele>731</ele>
        <time>2019-03-09T08:30:58.000Z</time>
      </trkpt>
      <trkpt lat="43.44365" lon="2.13269">
        <ele>731.40002441406</ele>
        <time>2019-03-09T08:31:04.000Z</time>
      </trkpt>
      <trkpt lat="43.44363" lon="2.1327">
        <ele>731.40002441406</ele>
        <time>2019-03-09T08:31:05.000Z</time>
      </trkpt>
      <trkpt lat="43.44358" lon="2.13274">
        <ele>731.59997558594</ele>
        <time>2019-03-09T08:31:08.000Z</time>
      </trkpt>
      <trkpt lat="43.44356" lon="2.13277">
        <ele>731.59997558594</ele>
        <time>2019-03-09T08:31:10.000Z</time>
      </trkpt>
      <trkpt lat="43.44354" lon="2.13279">
        <ele>731.79998779297</ele>
        <time>2019-03-09T08:31:12.000Z</time>
      </trkpt>
      <trkpt lat="43.44351" lon="2.13283">
        <ele>732</ele>
        <time>2019-03-09T08:31:15.000Z</time>
      </trkpt>
      <trkpt lat="43.44349" lon="2.13286">
        <ele>732</ele>
        <time>2019-03-09T08:31:17.000Z</time>
      </trkpt>
      <trkpt lat="43.44347" lon="2.13289">
        <ele>732.59997558594</ele>
        <time>2019-03-09T08:31:19.000Z</time>
      </trkpt>
      <trkpt lat="43.44346" lon="2.1329">
        <ele>733</ele>
        <time>2019-03-09T08:31:20.000Z</time>
      </trkpt>
      <trkpt lat="43.44344" lon="2.13295">
        <ele>733.59997558594</ele>
        <time>2019-03-09T08:31:23.000Z</time>
      </trkpt>
      <trkpt lat="43.44342" lon="2.13297">
        <ele>734</ele>
        <time>2019-03-09T08:31:24.000Z</time>
      </trkpt>
      <trkpt lat="43.44338" lon="2.13306">
        <ele>735.40002441406</ele>
        <time>2019-03-09T08:31:30.000Z</time>
      </trkpt>
      <trkpt lat="43.44338" lon="2.13307">
        <ele>735.40002441406</ele>
        <time>2019-03-09T08:31:31.000Z</time>
      </trkpt>
      <trkpt lat="43.44334" lon="2.13318">
        <ele>736.20001220703</ele>
        <time>2019-03-09T08:31:37.000Z</time>
      </trkpt>
      <trkpt lat="43.44332" lon="2.13328">
        <ele>736</ele>
        <time>2019-03-09T08:31:44.000Z</time>
      </trkpt>
      <trkpt lat="43.44331" lon="2.1333">
        <ele>736.20001220703</ele>
        <time>2019-03-09T08:31:45.000Z</time>
      </trkpt>
      <trkpt lat="43.4433" lon="2.13336">
        <ele>736.79998779297</ele>
        <time>2019-03-09T08:31:49.000Z</time>
      </trkpt>
      <trkpt lat="43.44329" lon="2.13339">
        <ele>737.40002441406</ele>
        <time>2019-03-09T08:31:51.000Z</time>
      </trkpt>
      <trkpt lat="43.44326" lon="2.13345">
        <ele>738.20001220703</ele>
        <time>2019-03-09T08:31:55.000Z</time>
      </trkpt>
      <trkpt lat="43.44325" lon="2.13348">
        <ele>738.59997558594</ele>
        <time>2019-03-09T08:31:56.000Z</time>
      </trkpt>
      <trkpt lat="43.44323" lon="2.13352">
        <ele>739.20001220703</ele>
        <time>2019-03-09T08:31:58.000Z</time>
      </trkpt>
      <trkpt lat="43.44319" lon="2.13359">
        <ele>740.40002441406</ele>
        <time>2019-03-09T08:32:02.000Z</time>
      </trkpt>
      <trkpt lat="43.44318" lon="2.13364">
        <ele>741</ele>
        <time>2019-03-09T08:32:05.000Z</time>
      </trkpt>
      <trkpt lat="43.44316" lon="2.13371">
        <ele>741.79998779297</ele>
        <time>2019-03-09T08:32:09.000Z</time>
      </trkpt>
      <trkpt lat="43.44315" lon="2.13376">
        <ele>742.40002441406</ele>
        <time>2019-03-09T08:32:12.000Z</time>
      </trkpt>
      <trkpt lat="43.44314" lon="2.13383">
        <ele>742.40002441406</ele>
        <time>2019-03-09T08:32:16.000Z</time>
      </trkpt>
      <trkpt lat="43.44313" lon="2.13389">
        <ele>742.40002441406</ele>
        <time>2019-03-09T08:32:19.000Z</time>
      </trkpt>
      <trkpt lat="43.44313" lon="2.13391">
        <ele>742.40002441406</ele>
        <time>2019-03-09T08:32:20.000Z</time>
      </trkpt>
      <trkpt lat="43.44313" lon="2.13393">
        <ele>742.40002441406</ele>
        <time>2019-03-09T08:32:21.000Z</time>
      </trkpt>
      <trkpt lat="43.44312" lon="2.13404">
        <ele>742.40002441406</ele>
        <time>2019-03-09T08:32:27.000Z</time>
      </trkpt>
      <trkpt lat="43.44312" lon="2.13405">
        <ele>742.40002441406</ele>
        <time>2019-03-09T08:32:28.000Z</time>
      </trkpt>
      <trkpt lat="43.44312" lon="2.13416">
        <ele>742.79998779297</ele>
        <time>2019-03-09T08:32:34.000Z</time>
      </trkpt>
      <trkpt lat="43.44312" lon="2.13426">
        <ele>743.79998779297</ele>
        <time>2019-03-09T08:32:39.000Z</time>
      </trkpt>
      <trkpt lat="43.44313" lon="2.13431">
        <ele>744.20001220703</ele>
        <time>2019-03-09T08:32:42.000Z</time>
      </trkpt>
      <trkpt lat="43.44312" lon="2.13437">
        <ele>744.59997558594</ele>
        <time>2019-03-09T08:32:45.000Z</time>
      </trkpt>
      <trkpt lat="43.4431" lon="2.13445">
        <ele>745.40002441406</ele>
        <time>2019-03-09T08:32:49.000Z</time>
      </trkpt>
      <trkpt lat="43.44307" lon="2.13452">
        <ele>746</ele>
        <time>2019-03-09T08:32:52.000Z</time>
      </trkpt>
      <trkpt lat="43.44305" lon="2.13456">
        <ele>746.20001220703</ele>
        <time>2019-03-09T08:32:54.000Z</time>
      </trkpt>
      <trkpt lat="43.44303" lon="2.13458">
        <ele>746.40002441406</ele>
        <time>2019-03-09T08:32:55.000Z</time>
      </trkpt>
      <trkpt lat="43.44301" lon="2.1346">
        <ele>746.59997558594</ele>
        <time>2019-03-09T08:32:56.000Z</time>
      </trkpt>
      <trkpt lat="43.44297" lon="2.13464">
        <ele>746.79998779297</ele>
        <time>2019-03-09T08:32:59.000Z</time>
      </trkpt>
      <trkpt lat="43.44296" lon="2.13467">
        <ele>747</ele>
        <time>2019-03-09T08:33:01.000Z</time>
      </trkpt>
      <trkpt lat="43.4429" lon="2.13472">
        <ele>747.40002441406</ele>
        <time>2019-03-09T08:33:05.000Z</time>
      </trkpt>
      <trkpt lat="43.44286" lon="2.13476">
        <ele>747.59997558594</ele>
        <time>2019-03-09T08:33:07.000Z</time>
      </trkpt>
      <trkpt lat="43.44275" lon="2.13487">
        <ele>748.59997558594</ele>
        <time>2019-03-09T08:33:14.000Z</time>
      </trkpt>
      <trkpt lat="43.44263" lon="2.13494">
        <ele>749.20001220703</ele>
        <time>2019-03-09T08:33:20.000Z</time>
      </trkpt>
      <trkpt lat="43.44261" lon="2.13496">
        <ele>749.40002441406</ele>
        <time>2019-03-09T08:33:21.000Z</time>
      </trkpt>
      <trkpt lat="43.4425" lon="2.135">
        <ele>750.59997558594</ele>
        <time>2019-03-09T08:33:27.000Z</time>
      </trkpt>
      <trkpt lat="43.44241" lon="2.13498">
        <ele>751.20001220703</ele>
        <time>2019-03-09T08:33:32.000Z</time>
      </trkpt>
      <trkpt lat="43.4423" lon="2.13493">
        <ele>751.40002441406</ele>
        <time>2019-03-09T08:33:39.000Z</time>
      </trkpt>
      <trkpt lat="43.44229" lon="2.13493">
        <ele>751.59997558594</ele>
        <time>2019-03-09T08:33:40.000Z</time>
      </trkpt>
      <trkpt lat="43.44221" lon="2.13494">
        <ele>752.20001220703</ele>
        <time>2019-03-09T08:33:45.000Z</time>
      </trkpt>
      <trkpt lat="43.44218" lon="2.13495">
        <ele>752.59997558594</ele>
        <time>2019-03-09T08:33:47.000Z</time>
      </trkpt>
      <trkpt lat="43.44208" lon="2.13497">
        <ele>753.40002441406</ele>
        <time>2019-03-09T08:33:52.000Z</time>
      </trkpt>
      <trkpt lat="43.44206" lon="2.13497">
        <ele>753.59997558594</ele>
        <time>2019-03-09T08:33:53.000Z</time>
      </trkpt>
      <trkpt lat="43.44203" lon="2.13502">
        <ele>754.20001220703</ele>
        <time>2019-03-09T08:33:58.000Z</time>
      </trkpt>
      <trkpt lat="43.44204" lon="2.13504">
        <ele>754.40002441406</ele>
        <time>2019-03-09T08:33:59.000Z</time>
      </trkpt>
      <trkpt lat="43.44207" lon="2.13514">
        <ele>755</ele>
        <time>2019-03-09T08:34:03.000Z</time>
      </trkpt>
      <trkpt lat="43.44208" lon="2.13517">
        <ele>755.20001220703</ele>
        <time>2019-03-09T08:34:04.000Z</time>
      </trkpt>
      <trkpt lat="43.44213" lon="2.13529">
        <ele>755.59997558594</ele>
        <time>2019-03-09T08:34:09.000Z</time>
      </trkpt>
      <trkpt lat="43.44216" lon="2.13534">
        <ele>755.79998779297</ele>
        <time>2019-03-09T08:34:11.000Z</time>
      </trkpt>
      <trkpt lat="43.44225" lon="2.13547">
        <ele>756.20001220703</ele>
        <time>2019-03-09T08:34:17.000Z</time>
      </trkpt>
      <trkpt lat="43.44233" lon="2.13556">
        <ele>756.20001220703</ele>
        <time>2019-03-09T08:34:22.000Z</time>
      </trkpt>
      <trkpt lat="43.44238" lon="2.13557">
        <ele>756.20001220703</ele>
        <time>2019-03-09T08:34:24.000Z</time>
      </trkpt>
      <trkpt lat="43.44246" lon="2.13562">
        <ele>756</ele>
        <time>2019-03-09T08:34:27.000Z</time>
      </trkpt>
      <trkpt lat="43.4426" lon="2.13572">
        <ele>756</ele>
        <time>2019-03-09T08:34:34.000Z</time>
      </trkpt>
      <trkpt lat="43.4427" lon="2.13574">
        <ele>755.59997558594</ele>
        <time>2019-03-09T08:34:38.000Z</time>
      </trkpt>
      <trkpt lat="43.44276" lon="2.13576">
        <ele>755.59997558594</ele>
        <time>2019-03-09T08:34:40.000Z</time>
      </trkpt>
      <trkpt lat="43.4429" lon="2.13576">
        <ele>755.20001220703</ele>
        <time>2019-03-09T08:34:45.000Z</time>
      </trkpt>
      <trkpt lat="43.44308" lon="2.13569">
        <ele>754.20001220703</ele>
        <time>2019-03-09T08:34:51.000Z</time>
      </trkpt>
      <trkpt lat="43.44333" lon="2.13565">
        <ele>753.40002441406</ele>
        <time>2019-03-09T08:34:57.000Z</time>
      </trkpt>
      <trkpt lat="43.44338" lon="2.13565">
        <ele>753.20001220703</ele>
        <time>2019-03-09T08:34:58.000Z</time>
      </trkpt>
      <trkpt lat="43.44355" lon="2.13567">
        <ele>753.20001220703</ele>
        <time>2019-03-09T08:35:01.000Z</time>
      </trkpt>
      <trkpt lat="43.44361" lon="2.13569">
        <ele>753</ele>
        <time>2019-03-09T08:35:02.000Z</time>
      </trkpt>
      <trkpt lat="43.44383" lon="2.13578">
        <ele>752.40002441406</ele>
        <time>2019-03-09T08:35:06.000Z</time>
      </trkpt>
      <trkpt lat="43.44394" lon="2.13582">
        <ele>752.40002441406</ele>
        <time>2019-03-09T08:35:08.000Z</time>
      </trkpt>
      <trkpt lat="43.444" lon="2.13584">
        <ele>752.20001220703</ele>
        <time>2019-03-09T08:35:09.000Z</time>
      </trkpt>
      <trkpt lat="43.44406" lon="2.13585">
        <ele>752</ele>
        <time>2019-03-09T08:35:10.000Z</time>
      </trkpt>
      <trkpt lat="43.44417" lon="2.13587">
        <ele>751.59997558594</ele>
        <time>2019-03-09T08:35:12.000Z</time>
      </trkpt>
      <trkpt lat="43.44441" lon="2.13591">
        <ele>751</ele>
        <time>2019-03-09T08:35:16.000Z</time>
      </trkpt>
      <trkpt lat="43.44447" lon="2.13592">
        <ele>750.79998779297</ele>
        <time>2019-03-09T08:35:17.000Z</time>
      </trkpt>
      <trkpt lat="43.44463" lon="2.13596">
        <ele>750</ele>
        <time>2019-03-09T08:35:20.000Z</time>
      </trkpt>
      <trkpt lat="43.44477" lon="2.136">
        <ele>749.40002441406</ele>
        <time>2019-03-09T08:35:23.000Z</time>
      </trkpt>
      <trkpt lat="43.44487" lon="2.13607">
        <ele>749.59997558594</ele>
        <time>2019-03-09T08:35:27.000Z</time>
      </trkpt>
      <trkpt lat="43.4449" lon="2.13615">
        <ele>750.40002441406</ele>
        <time>2019-03-09T08:35:32.000Z</time>
      </trkpt>
      <trkpt lat="43.44491" lon="2.13623">
        <ele>751.40002441406</ele>
        <time>2019-03-09T08:35:36.000Z</time>
      </trkpt>
      <trkpt lat="43.44491" lon="2.13625">
        <ele>751.59997558594</ele>
        <time>2019-03-09T08:35:37.000Z</time>
      </trkpt>
      <trkpt lat="43.44493" lon="2.13634">
        <ele>752.40002441406</ele>
        <time>2019-03-09T08:35:42.000Z</time>
      </trkpt>
      <trkpt lat="43.44493" lon="2.13635">
        <ele>752.59997558594</ele>
        <time>2019-03-09T08:35:44.000Z</time>
      </trkpt>
      <trkpt lat="43.44492" lon="2.13637">
        <ele>752.79998779297</ele>
        <time>2019-03-09T08:35:46.000Z</time>
      </trkpt>
      <trkpt lat="43.44488" lon="2.13641">
        <ele>753.40002441406</ele>
        <time>2019-03-09T08:35:50.000Z</time>
      </trkpt>
      <trkpt lat="43.44485" lon="2.1365">
        <ele>754.40002441406</ele>
        <time>2019-03-09T08:35:56.000Z</time>
      </trkpt>
      <trkpt lat="43.44485" lon="2.13652">
        <ele>754.59997558594</ele>
        <time>2019-03-09T08:35:57.000Z</time>
      </trkpt>
      <trkpt lat="43.44485" lon="2.13658">
        <ele>755.20001220703</ele>
        <time>2019-03-09T08:36:01.000Z</time>
      </trkpt>
      <trkpt lat="43.44487" lon="2.13665">
        <ele>755.59997558594</ele>
        <time>2019-03-09T08:36:05.000Z</time>
      </trkpt>
      <trkpt lat="43.44486" lon="2.13666">
        <ele>755.79998779297</ele>
        <time>2019-03-09T08:36:06.000Z</time>
      </trkpt>
      <trkpt lat="43.44482" lon="2.13673">
        <ele>756.59997558594</ele>
        <time>2019-03-09T08:36:11.000Z</time>
      </trkpt>
      <trkpt lat="43.44474" lon="2.13682">
        <ele>757.59997558594</ele>
        <time>2019-03-09T08:36:17.000Z</time>
      </trkpt>
      <trkpt lat="43.44471" lon="2.13687">
        <ele>758</ele>
        <time>2019-03-09T08:36:22.000Z</time>
      </trkpt>
      <trkpt lat="43.44469" lon="2.1369">
        <ele>758.40002441406</ele>
        <time>2019-03-09T08:36:24.000Z</time>
      </trkpt>
      <trkpt lat="43.44466" lon="2.13702">
        <ele>759.59997558594</ele>
        <time>2019-03-09T08:36:27.000Z</time>
      </trkpt>
      <trkpt lat="43.44464" lon="2.13707">
        <ele>760.20001220703</ele>
        <time>2019-03-09T08:36:29.000Z</time>
      </trkpt>
      <trkpt lat="43.44463" lon="2.13713">
        <ele>760.79998779297</ele>
        <time>2019-03-09T08:36:32.000Z</time>
      </trkpt>
      <trkpt lat="43.44461" lon="2.1372">
        <ele>761.59997558594</ele>
        <time>2019-03-09T08:36:36.000Z</time>
      </trkpt>
      <trkpt lat="43.44463" lon="2.13728">
        <ele>762.20001220703</ele>
        <time>2019-03-09T08:36:39.000Z</time>
      </trkpt>
      <trkpt lat="43.44464" lon="2.13732">
        <ele>762.59997558594</ele>
        <time>2019-03-09T08:36:41.000Z</time>
      </trkpt>
      <trkpt lat="43.44464" lon="2.13737">
        <ele>763</ele>
        <time>2019-03-09T08:36:43.000Z</time>
      </trkpt>
      <trkpt lat="43.44464" lon="2.13743">
        <ele>763.59997558594</ele>
        <time>2019-03-09T08:36:46.000Z</time>
      </trkpt>
      <trkpt lat="43.44461" lon="2.13751">
        <ele>764.40002441406</ele>
        <time>2019-03-09T08:36:50.000Z</time>
      </trkpt>
      <trkpt lat="43.44459" lon="2.13754">
        <ele>764.79998779297</ele>
        <time>2019-03-09T08:36:52.000Z</time>
      </trkpt>
      <trkpt lat="43.44457" lon="2.13759">
        <ele>765.20001220703</ele>
        <time>2019-03-09T08:36:56.000Z</time>
      </trkpt>
      <trkpt lat="43.44457" lon="2.13762">
        <ele>765.59997558594</ele>
        <time>2019-03-09T08:36:58.000Z</time>
      </trkpt>
      <trkpt lat="43.44456" lon="2.13763">
        <ele>765.59997558594</ele>
        <time>2019-03-09T08:36:59.000Z</time>
      </trkpt>
      <trkpt lat="43.44455" lon="2.1377">
        <ele>766.40002441406</ele>
        <time>2019-03-09T08:37:02.000Z</time>
      </trkpt>
      <trkpt lat="43.44454" lon="2.13771">
        <ele>766.59997558594</ele>
        <time>2019-03-09T08:37:03.000Z</time>
      </trkpt>
      <trkpt lat="43.44452" lon="2.13778">
        <ele>767.40002441406</ele>
        <time>2019-03-09T08:37:08.000Z</time>
      </trkpt>
      <trkpt lat="43.44452" lon="2.13779">
        <ele>767.40002441406</ele>
        <time>2019-03-09T08:37:09.000Z</time>
      </trkpt>
      <trkpt lat="43.4445" lon="2.13786">
        <ele>768.40002441406</ele>
        <time>2019-03-09T08:37:14.000Z</time>
      </trkpt>
      <trkpt lat="43.4445" lon="2.13787">
        <ele>768.40002441406</ele>
        <time>2019-03-09T08:37:15.000Z</time>
      </trkpt>
      <trkpt lat="43.4445" lon="2.13796">
        <ele>769.20001220703</ele>
        <time>2019-03-09T08:37:20.000Z</time>
      </trkpt>
      <trkpt lat="43.44451" lon="2.13798">
        <ele>769.40002441406</ele>
        <time>2019-03-09T08:37:21.000Z</time>
      </trkpt>
      <trkpt lat="43.44451" lon="2.13813">
        <ele>771</ele>
        <time>2019-03-09T08:37:28.000Z</time>
      </trkpt>
      <trkpt lat="43.44451" lon="2.13825">
        <ele>772</ele>
        <time>2019-03-09T08:37:34.000Z</time>
      </trkpt>
      <trkpt lat="43.4445" lon="2.13828">
        <ele>772.40002441406</ele>
        <time>2019-03-09T08:37:36.000Z</time>
      </trkpt>
      <trkpt lat="43.44449" lon="2.13836">
        <ele>772.79998779297</ele>
        <time>2019-03-09T08:37:40.000Z</time>
      </trkpt>
      <trkpt lat="43.4445" lon="2.13838">
        <ele>773</ele>
        <time>2019-03-09T08:37:41.000Z</time>
      </trkpt>
      <trkpt lat="43.44452" lon="2.13848">
        <ele>773.40002441406</ele>
        <time>2019-03-09T08:37:46.000Z</time>
      </trkpt>
      <trkpt lat="43.44451" lon="2.1385">
        <ele>773.79998779297</ele>
        <time>2019-03-09T08:37:47.000Z</time>
      </trkpt>
      <trkpt lat="43.44451" lon="2.13852">
        <ele>774</ele>
        <time>2019-03-09T08:37:48.000Z</time>
      </trkpt>
      <trkpt lat="43.44448" lon="2.13861">
        <ele>775.20001220703</ele>
        <time>2019-03-09T08:37:53.000Z</time>
      </trkpt>
      <trkpt lat="43.44446" lon="2.13868">
        <ele>776.20001220703</ele>
        <time>2019-03-09T08:37:57.000Z</time>
      </trkpt>
      <trkpt lat="43.44443" lon="2.13873">
        <ele>777</ele>
        <time>2019-03-09T08:38:00.000Z</time>
      </trkpt>
      <trkpt lat="43.4444" lon="2.13878">
        <ele>777.79998779297</ele>
        <time>2019-03-09T08:38:04.000Z</time>
      </trkpt>
      <trkpt lat="43.4444" lon="2.13884">
        <ele>778.40002441406</ele>
        <time>2019-03-09T08:38:08.000Z</time>
      </trkpt>
      <trkpt lat="43.4444" lon="2.13885">
        <ele>778.59997558594</ele>
        <time>2019-03-09T08:38:09.000Z</time>
      </trkpt>
      <trkpt lat="43.44437" lon="2.13892">
        <ele>779.59997558594</ele>
        <time>2019-03-09T08:38:14.000Z</time>
      </trkpt>
      <trkpt lat="43.44435" lon="2.13894">
        <ele>780</ele>
        <time>2019-03-09T08:38:15.000Z</time>
      </trkpt>
      <trkpt lat="43.44429" lon="2.13898">
        <ele>780.79998779297</ele>
        <time>2019-03-09T08:38:20.000Z</time>
      </trkpt>
      <trkpt lat="43.44427" lon="2.139">
        <ele>781</ele>
        <time>2019-03-09T08:38:21.000Z</time>
      </trkpt>
      <trkpt lat="43.44426" lon="2.13909">
        <ele>782</ele>
        <time>2019-03-09T08:38:26.000Z</time>
      </trkpt>
      <trkpt lat="43.44426" lon="2.13911">
        <ele>782</ele>
        <time>2019-03-09T08:38:27.000Z</time>
      </trkpt>
      <trkpt lat="43.4443" lon="2.13922">
        <ele>782.40002441406</ele>
        <time>2019-03-09T08:38:32.000Z</time>
      </trkpt>
      <trkpt lat="43.4443" lon="2.13925">
        <ele>782.59997558594</ele>
        <time>2019-03-09T08:38:34.000Z</time>
      </trkpt>
      <trkpt lat="43.44428" lon="2.13932">
        <ele>782.79998779297</ele>
        <time>2019-03-09T08:38:38.000Z</time>
      </trkpt>
      <trkpt lat="43.44426" lon="2.13934">
        <ele>783</ele>
        <time>2019-03-09T08:38:39.000Z</time>
      </trkpt>
      <trkpt lat="43.44425" lon="2.13936">
        <ele>783</ele>
        <time>2019-03-09T08:38:40.000Z</time>
      </trkpt>
      <trkpt lat="43.44423" lon="2.1394">
        <ele>783.20001220703</ele>
        <time>2019-03-09T08:38:42.000Z</time>
      </trkpt>
      <trkpt lat="43.44423" lon="2.13942">
        <ele>783.20001220703</ele>
        <time>2019-03-09T08:38:43.000Z</time>
      </trkpt>
      <trkpt lat="43.44422" lon="2.13944">
        <ele>783.40002441406</ele>
        <time>2019-03-09T08:38:44.000Z</time>
      </trkpt>
      <trkpt lat="43.4442" lon="2.13948">
        <ele>783.40002441406</ele>
        <time>2019-03-09T08:38:46.000Z</time>
      </trkpt>
      <trkpt lat="43.44418" lon="2.13955">
        <ele>783.79998779297</ele>
        <time>2019-03-09T08:38:50.000Z</time>
      </trkpt>
      <trkpt lat="43.44419" lon="2.1396">
        <ele>784</ele>
        <time>2019-03-09T08:38:52.000Z</time>
      </trkpt>
      <trkpt lat="43.4442" lon="2.13962">
        <ele>784</ele>
        <time>2019-03-09T08:38:53.000Z</time>
      </trkpt>
      <trkpt lat="43.4442" lon="2.13967">
        <ele>784.20001220703</ele>
        <time>2019-03-09T08:38:55.000Z</time>
      </trkpt>
      <trkpt lat="43.4442" lon="2.13972">
        <ele>784.40002441406</ele>
        <time>2019-03-09T08:38:58.000Z</time>
      </trkpt>
      <trkpt lat="43.44422" lon="2.13977">
        <ele>784.59997558594</ele>
        <time>2019-03-09T08:39:00.000Z</time>
      </trkpt>
      <trkpt lat="43.44423" lon="2.1398">
        <ele>784.59997558594</ele>
        <time>2019-03-09T08:39:01.000Z</time>
      </trkpt>
      <trkpt lat="43.44424" lon="2.13987">
        <ele>784.79998779297</ele>
        <time>2019-03-09T08:39:04.000Z</time>
      </trkpt>
      <trkpt lat="43.44423" lon="2.13992">
        <ele>785</ele>
        <time>2019-03-09T08:39:07.000Z</time>
      </trkpt>
      <trkpt lat="43.44424" lon="2.13997">
        <ele>785</ele>
        <time>2019-03-09T08:39:09.000Z</time>
      </trkpt>
      <trkpt lat="43.4443" lon="2.14007">
        <ele>785</ele>
        <time>2019-03-09T08:39:14.000Z</time>
      </trkpt>
      <trkpt lat="43.44431" lon="2.14009">
        <ele>785</ele>
        <time>2019-03-09T08:39:15.000Z</time>
      </trkpt>
      <trkpt lat="43.44432" lon="2.14022">
        <ele>785</ele>
        <time>2019-03-09T08:39:20.000Z</time>
      </trkpt>
      <trkpt lat="43.44432" lon="2.14025">
        <ele>785</ele>
        <time>2019-03-09T08:39:21.000Z</time>
      </trkpt>
      <trkpt lat="43.44436" lon="2.14037">
        <ele>784.79998779297</ele>
        <time>2019-03-09T08:39:26.000Z</time>
      </trkpt>
      <trkpt lat="43.44443" lon="2.14051">
        <ele>784.59997558594</ele>
        <time>2019-03-09T08:39:32.000Z</time>
      </trkpt>
      <trkpt lat="43.4445" lon="2.1406">
        <ele>784.20001220703</ele>
        <time>2019-03-09T08:39:35.000Z</time>
      </trkpt>
      <trkpt lat="43.44454" lon="2.14061">
        <ele>784</ele>
        <time>2019-03-09T08:39:36.000Z</time>
      </trkpt>
      <trkpt lat="43.44472" lon="2.1407">
        <ele>783.20001220703</ele>
        <time>2019-03-09T08:39:42.000Z</time>
      </trkpt>
      <trkpt lat="43.44477" lon="2.14069">
        <ele>782.79998779297</ele>
        <time>2019-03-09T08:39:44.000Z</time>
      </trkpt>
      <trkpt lat="43.44484" lon="2.14073">
        <ele>782.59997558594</ele>
        <time>2019-03-09T08:39:46.000Z</time>
      </trkpt>
      <trkpt lat="43.44492" lon="2.14081">
        <ele>782.40002441406</ele>
        <time>2019-03-09T08:39:49.000Z</time>
      </trkpt>
      <trkpt lat="43.445" lon="2.14082">
        <ele>782</ele>
        <time>2019-03-09T08:39:51.000Z</time>
      </trkpt>
      <trkpt lat="43.44507" lon="2.14086">
        <ele>781.79998779297</ele>
        <time>2019-03-09T08:39:53.000Z</time>
      </trkpt>
      <trkpt lat="43.44513" lon="2.14084">
        <ele>781.40002441406</ele>
        <time>2019-03-09T08:39:55.000Z</time>
      </trkpt>
      <trkpt lat="43.44515" lon="2.14079">
        <ele>781.20001220703</ele>
        <time>2019-03-09T08:39:56.000Z</time>
      </trkpt>
      <trkpt lat="43.44518" lon="2.14076">
        <ele>780.79998779297</ele>
        <time>2019-03-09T08:39:57.000Z</time>
      </trkpt>
      <trkpt lat="43.44526" lon="2.14078">
        <ele>780.20001220703</ele>
        <time>2019-03-09T08:39:59.000Z</time>
      </trkpt>
      <trkpt lat="43.4453" lon="2.1408">
        <ele>780</ele>
        <time>2019-03-09T08:40:00.000Z</time>
      </trkpt>
      <trkpt lat="43.44534" lon="2.14083">
        <ele>780</ele>
        <time>2019-03-09T08:40:01.000Z</time>
      </trkpt>
      <trkpt lat="43.4454" lon="2.14087">
        <ele>779.79998779297</ele>
        <time>2019-03-09T08:40:03.000Z</time>
      </trkpt>
      <trkpt lat="43.44544" lon="2.14087">
        <ele>779.59997558594</ele>
        <time>2019-03-09T08:40:04.000Z</time>
      </trkpt>
      <trkpt lat="43.44553" lon="2.14094">
        <ele>779.59997558594</ele>
        <time>2019-03-09T08:40:07.000Z</time>
      </trkpt>
      <trkpt lat="43.44556" lon="2.14109">
        <ele>780.59997558594</ele>
        <time>2019-03-09T08:40:12.000Z</time>
      </trkpt>
      <trkpt lat="43.44557" lon="2.14121">
        <ele>781.59997558594</ele>
        <time>2019-03-09T08:40:17.000Z</time>
      </trkpt>
      <trkpt lat="43.44557" lon="2.14126">
        <ele>781.79998779297</ele>
        <time>2019-03-09T08:40:19.000Z</time>
      </trkpt>
      <trkpt lat="43.44557" lon="2.14127">
        <ele>782</ele>
        <time>2019-03-09T08:40:20.000Z</time>
      </trkpt>
      <trkpt lat="43.44558" lon="2.14131">
        <ele>782</ele>
        <time>2019-03-09T08:40:22.000Z</time>
      </trkpt>
      <trkpt lat="43.44559" lon="2.14134">
        <ele>782.20001220703</ele>
        <time>2019-03-09T08:40:23.000Z</time>
      </trkpt>
      <trkpt lat="43.44561" lon="2.14146">
        <ele>782.59997558594</ele>
        <time>2019-03-09T08:40:28.000Z</time>
      </trkpt>
      <trkpt lat="43.44559" lon="2.14153">
        <ele>783</ele>
        <time>2019-03-09T08:40:32.000Z</time>
      </trkpt>
      <trkpt lat="43.44557" lon="2.14156">
        <ele>783.20001220703</ele>
        <time>2019-03-09T08:40:34.000Z</time>
      </trkpt>
      <trkpt lat="43.44554" lon="2.14157">
        <ele>783.40002441406</ele>
        <time>2019-03-09T08:40:36.000Z</time>
      </trkpt>
      <trkpt lat="43.44554" lon="2.14158">
        <ele>783.40002441406</ele>
        <time>2019-03-09T08:40:39.000Z</time>
      </trkpt>
      <trkpt lat="43.44553" lon="2.14158">
        <ele>783.59997558594</ele>
        <time>2019-03-09T08:40:41.000Z</time>
      </trkpt>
      <trkpt lat="43.44551" lon="2.14159">
        <ele>783.59997558594</ele>
        <time>2019-03-09T08:40:44.000Z</time>
      </trkpt>
      <trkpt lat="43.44548" lon="2.1416">
        <ele>783.79998779297</ele>
        <time>2019-03-09T08:40:47.000Z</time>
      </trkpt>
      <trkpt lat="43.44546" lon="2.14163">
        <ele>784</ele>
        <time>2019-03-09T08:40:50.000Z</time>
      </trkpt>
      <trkpt lat="43.44545" lon="2.14164">
        <ele>784.20001220703</ele>
        <time>2019-03-09T08:40:51.000Z</time>
      </trkpt>
      <trkpt lat="43.44542" lon="2.14168">
        <ele>784.59997558594</ele>
        <time>2019-03-09T08:40:56.000Z</time>
      </trkpt>
      <trkpt lat="43.44542" lon="2.1417">
        <ele>784.79998779297</ele>
        <time>2019-03-09T08:40:58.000Z</time>
      </trkpt>
      <trkpt lat="43.44541" lon="2.14172">
        <ele>785</ele>
        <time>2019-03-09T08:41:00.000Z</time>
      </trkpt>
      <trkpt lat="43.44539" lon="2.14175">
        <ele>785.20001220703</ele>
        <time>2019-03-09T08:41:03.000Z</time>
      </trkpt>
      <trkpt lat="43.44538" lon="2.14175">
        <ele>785.20001220703</ele>
        <time>2019-03-09T08:41:04.000Z</time>
      </trkpt>
      <trkpt lat="43.44537" lon="2.14175">
        <ele>785.20001220703</ele>
        <time>2019-03-09T08:41:05.000Z</time>
      </trkpt>
      <trkpt lat="43.44535" lon="2.14171">
        <ele>785</ele>
        <time>2019-03-09T08:41:08.000Z</time>
      </trkpt>
      <trkpt lat="43.44535" lon="2.1417">
        <ele>785</ele>
        <time>2019-03-09T08:41:09.000Z</time>
      </trkpt>
      <trkpt lat="43.44532" lon="2.14166">
        <ele>784.79998779297</ele>
        <time>2019-03-09T08:41:16.000Z</time>
      </trkpt>
      <trkpt lat="43.44531" lon="2.14166">
        <ele>784.79998779297</ele>
        <time>2019-03-09T08:41:23.000Z</time>
      </trkpt>
      <trkpt lat="43.44531" lon="2.14166">
        <ele>784.79998779297</ele>
        <time>2019-03-09T08:41:38.000Z</time>
      </trkpt>
      <trkpt lat="43.44531" lon="2.14166">
        <ele>784.79998779297</ele>
        <time>2019-03-09T08:41:41.000Z</time>
      </trkpt>
      <trkpt lat="43.44531" lon="2.14166">
        <ele>784.79998779297</ele>
        <time>2019-03-09T08:41:58.000Z</time>
      </trkpt>
      <trkpt lat="43.44531" lon="2.14166">
        <ele>784.79998779297</ele>
        <time>2019-03-09T08:42:16.000Z</time>
      </trkpt>
      <trkpt lat="43.44531" lon="2.14166">
        <ele>784.79998779297</ele>
        <time>2019-03-09T08:42:20.000Z</time>
      </trkpt>
      <trkpt lat="43.44531" lon="2.14166">
        <ele>784.79998779297</ele>
        <time>2019-03-09T08:42:41.000Z</time>
      </trkpt>
      <trkpt lat="43.44531" lon="2.14166">
        <ele>784.79998779297</ele>
        <time>2019-03-09T08:43:09.000Z</time>
      </trkpt>
      <trkpt lat="43.44531" lon="2.14166">
        <ele>784.79998779297</ele>
        <time>2019-03-09T08:43:25.000Z</time>
      </trkpt>
      <trkpt lat="43.44531" lon="2.14166">
        <ele>784.79998779297</ele>
        <time>2019-03-09T08:43:45.000Z</time>
      </trkpt>
      <trkpt lat="43.44531" lon="2.14166">
        <ele>784.79998779297</ele>
        <time>2019-03-09T08:44:07.000Z</time>
      </trkpt>
      <trkpt lat="43.44531" lon="2.14166">
        <ele>784.79998779297</ele>
        <time>2019-03-09T08:44:32.000Z</time>
      </trkpt>
      <trkpt lat="43.44531" lon="2.14166">
        <ele>784.79998779297</ele>
        <time>2019-03-09T08:45:03.000Z</time>
      </trkpt>
      <trkpt lat="43.44531" lon="2.14166">
        <ele>784.79998779297</ele>
        <time>2019-03-09T08:45:30.000Z</time>
      </trkpt>
      <trkpt lat="43.44531" lon="2.14166">
        <ele>784.79998779297</ele>
        <time>2019-03-09T08:45:46.000Z</time>
      </trkpt>
      <trkpt lat="43.44531" lon="2.14166">
        <ele>784.79998779297</ele>
        <time>2019-03-09T08:46:06.000Z</time>
      </trkpt>
      <trkpt lat="43.44531" lon="2.14166">
        <ele>784.79998779297</ele>
        <time>2019-03-09T08:46:09.000Z</time>
      </trkpt>
      <trkpt lat="43.44531" lon="2.14166">
        <ele>784.79998779297</ele>
        <time>2019-03-09T08:46:23.000Z</time>
      </trkpt>
      <trkpt lat="43.44531" lon="2.14166">
        <ele>784.79998779297</ele>
        <time>2019-03-09T08:46:50.000Z</time>
      </trkpt>
      <trkpt lat="43.44531" lon="2.14166">
        <ele>784.79998779297</ele>
        <time>2019-03-09T08:47:07.000Z</time>
      </trkpt>
      <trkpt lat="43.44531" lon="2.14166">
        <ele>784.79998779297</ele>
        <time>2019-03-09T08:47:24.000Z</time>
      </trkpt>
      <trkpt lat="43.44531" lon="2.14166">
        <ele>784.79998779297</ele>
        <time>2019-03-09T08:47:41.000Z</time>
      </trkpt>
      <trkpt lat="43.44531" lon="2.14166">
        <ele>784.79998779297</ele>
        <time>2019-03-09T08:47:54.000Z</time>
      </trkpt>
      <trkpt lat="43.44531" lon="2.14166">
        <ele>784.79998779297</ele>
        <time>2019-03-09T08:48:09.000Z</time>
      </trkpt>
      <trkpt lat="43.44531" lon="2.14166">
        <ele>784.79998779297</ele>
        <time>2019-03-09T08:48:27.000Z</time>
      </trkpt>
      <trkpt lat="43.44532" lon="2.14166">
        <ele>784.79998779297</ele>
        <time>2019-03-09T08:48:39.000Z</time>
      </trkpt>
      <trkpt lat="43.44532" lon="2.14166">
        <ele>784.79998779297</ele>
        <time>2019-03-09T08:48:48.000Z</time>
      </trkpt>
      <trkpt lat="43.44533" lon="2.14165">
        <ele>784.79998779297</ele>
        <time>2019-03-09T08:48:50.000Z</time>
      </trkpt>
      <trkpt lat="43.44532" lon="2.14166">
        <ele>784.79998779297</ele>
        <time>2019-03-09T08:48:52.000Z</time>
      </trkpt>
      <trkpt lat="43.44533" lon="2.14163">
        <ele>784.59997558594</ele>
        <time>2019-03-09T08:48:57.000Z</time>
      </trkpt>
      <trkpt lat="43.44532" lon="2.1416">
        <ele>784.40002441406</ele>
        <time>2019-03-09T08:48:59.000Z</time>
      </trkpt>
      <trkpt lat="43.44529" lon="2.14154">
        <ele>784.20001220703</ele>
        <time>2019-03-09T08:49:02.000Z</time>
      </trkpt>
      <trkpt lat="43.44526" lon="2.14143">
        <ele>783.79998779297</ele>
        <time>2019-03-09T08:49:06.000Z</time>
      </trkpt>
      <trkpt lat="43.44525" lon="2.14141">
        <ele>783.79998779297</ele>
        <time>2019-03-09T08:49:07.000Z</time>
      </trkpt>
      <trkpt lat="43.44524" lon="2.14139">
        <ele>783.59997558594</ele>
        <time>2019-03-09T08:49:08.000Z</time>
      </trkpt>
      <trkpt lat="43.44525" lon="2.14137">
        <ele>783.59997558594</ele>
        <time>2019-03-09T08:49:09.000Z</time>
      </trkpt>
      <trkpt lat="43.44525" lon="2.14135">
        <ele>783.40002441406</ele>
        <time>2019-03-09T08:49:11.000Z</time>
      </trkpt>
      <trkpt lat="43.44524" lon="2.14126">
        <ele>783</ele>
        <time>2019-03-09T08:49:14.000Z</time>
      </trkpt>
      <trkpt lat="43.44524" lon="2.14126">
        <ele>783</ele>
        <time>2019-03-09T08:49:15.000Z</time>
      </trkpt>
      <trkpt lat="43.44524" lon="2.14126">
        <ele>783</ele>
        <time>2019-03-09T08:49:22.000Z</time>
      </trkpt>
      <trkpt lat="43.44524" lon="2.14126">
        <ele>783</ele>
        <time>2019-03-09T08:49:23.000Z</time>
      </trkpt>
      <trkpt lat="43.44523" lon="2.14129">
        <ele>783.20001220703</ele>
        <time>2019-03-09T08:49:31.000Z</time>
      </trkpt>
      <trkpt lat="43.44524" lon="2.14138">
        <ele>783.59997558594</ele>
        <time>2019-03-09T08:49:40.000Z</time>
      </trkpt>
      <trkpt lat="43.44524" lon="2.14138">
        <ele>783.59997558594</ele>
        <time>2019-03-09T08:49:41.000Z</time>
      </trkpt>
      <trkpt lat="43.44524" lon="2.14138">
        <ele>783.59997558594</ele>
        <time>2019-03-09T08:49:47.000Z</time>
      </trkpt>
      <trkpt lat="43.44524" lon="2.14138">
        <ele>783.59997558594</ele>
        <time>2019-03-09T08:49:52.000Z</time>
      </trkpt>
      <trkpt lat="43.44524" lon="2.14138">
        <ele>783.59997558594</ele>
        <time>2019-03-09T08:49:59.000Z</time>
      </trkpt>
      <trkpt lat="43.44523" lon="2.14137">
        <ele>783.59997558594</ele>
        <time>2019-03-09T08:50:06.000Z</time>
      </trkpt>
      <trkpt lat="43.44524" lon="2.14139">
        <ele>783.59997558594</ele>
        <time>2019-03-09T08:50:12.000Z</time>
      </trkpt>
      <trkpt lat="43.44526" lon="2.14144">
        <ele>783.79998779297</ele>
        <time>2019-03-09T08:50:18.000Z</time>
      </trkpt>
      <trkpt lat="43.44526" lon="2.14144">
        <ele>783.79998779297</ele>
        <time>2019-03-09T08:50:22.000Z</time>
      </trkpt>
      <trkpt lat="43.44525" lon="2.14144">
        <ele>783.79998779297</ele>
        <time>2019-03-09T08:50:35.000Z</time>
      </trkpt>
      <trkpt lat="43.44525" lon="2.14145">
        <ele>784</ele>
        <time>2019-03-09T08:50:42.000Z</time>
      </trkpt>
      <trkpt lat="43.44526" lon="2.14147">
        <ele>784</ele>
        <time>2019-03-09T08:50:48.000Z</time>
      </trkpt>
      <trkpt lat="43.44525" lon="2.14146">
        <ele>784</ele>
        <time>2019-03-09T08:50:54.000Z</time>
      </trkpt>
      <trkpt lat="43.44525" lon="2.14143">
        <ele>783.79998779297</ele>
        <time>2019-03-09T08:50:56.000Z</time>
      </trkpt>
      <trkpt lat="43.44524" lon="2.14135">
        <ele>783.40002441406</ele>
        <time>2019-03-09T08:51:01.000Z</time>
      </trkpt>
      <trkpt lat="43.44523" lon="2.1413">
        <ele>783.20001220703</ele>
        <time>2019-03-09T08:51:03.000Z</time>
      </trkpt>
      <trkpt lat="43.44521" lon="2.14128">
        <ele>783.20001220703</ele>
        <time>2019-03-09T08:51:05.000Z</time>
      </trkpt>
      <trkpt lat="43.44521" lon="2.14128">
        <ele>783.20001220703</ele>
        <time>2019-03-09T08:51:06.000Z</time>
      </trkpt>
      <trkpt lat="43.44521" lon="2.14127">
        <ele>783.20001220703</ele>
        <time>2019-03-09T08:51:09.000Z</time>
      </trkpt>
      <trkpt lat="43.4452" lon="2.14127">
        <ele>783.20001220703</ele>
        <time>2019-03-09T08:51:10.000Z</time>
      </trkpt>
      <trkpt lat="43.44518" lon="2.14124">
        <ele>783.20001220703</ele>
        <time>2019-03-09T08:51:14.000Z</time>
      </trkpt>
      <trkpt lat="43.44518" lon="2.14122">
        <ele>783</ele>
        <time>2019-03-09T08:51:15.000Z</time>
      </trkpt>
      <trkpt lat="43.44517" lon="2.14105">
        <ele>782.20001220703</ele>
        <time>2019-03-09T08:51:20.000Z</time>
      </trkpt>
      <trkpt lat="43.44515" lon="2.14099">
        <ele>782</ele>
        <time>2019-03-09T08:51:21.000Z</time>
      </trkpt>
      <trkpt lat="43.44512" lon="2.14094">
        <ele>782</ele>
        <time>2019-03-09T08:51:22.000Z</time>
      </trkpt>
      <trkpt lat="43.44509" lon="2.1409">
        <ele>782</ele>
        <time>2019-03-09T08:51:23.000Z</time>
      </trkpt>
      <trkpt lat="43.44507" lon="2.14087">
        <ele>781.79998779297</ele>
        <time>2019-03-09T08:51:24.000Z</time>
      </trkpt>
      <trkpt lat="43.44508" lon="2.14084">
        <ele>781.79998779297</ele>
        <time>2019-03-09T08:51:25.000Z</time>
      </trkpt>
      <trkpt lat="43.44512" lon="2.14083">
        <ele>781.40002441406</ele>
        <time>2019-03-09T08:51:27.000Z</time>
      </trkpt>
      <trkpt lat="43.4452" lon="2.14075">
        <ele>780.40002441406</ele>
        <time>2019-03-09T08:51:30.000Z</time>
      </trkpt>
      <trkpt lat="43.44528" lon="2.14078">
        <ele>780</ele>
        <time>2019-03-09T08:51:32.000Z</time>
      </trkpt>
      <trkpt lat="43.44532" lon="2.1408">
        <ele>780</ele>
        <time>2019-03-09T08:51:33.000Z</time>
      </trkpt>
      <trkpt lat="43.44535" lon="2.14084">
        <ele>780</ele>
        <time>2019-03-09T08:51:34.000Z</time>
      </trkpt>
      <trkpt lat="43.44545" lon="2.14087">
        <ele>779.59997558594</ele>
        <time>2019-03-09T08:51:37.000Z</time>
      </trkpt>
      <trkpt lat="43.44553" lon="2.14095">
        <ele>779.59997558594</ele>
        <time>2019-03-09T08:51:40.000Z</time>
      </trkpt>
      <trkpt lat="43.44556" lon="2.14106">
        <ele>780.40002441406</ele>
        <time>2019-03-09T08:51:44.000Z</time>
      </trkpt>
      <trkpt lat="43.44556" lon="2.14113">
        <ele>781.20001220703</ele>
        <time>2019-03-09T08:51:47.000Z</time>
      </trkpt>
      <trkpt lat="43.44556" lon="2.1412">
        <ele>781.59997558594</ele>
        <time>2019-03-09T08:51:50.000Z</time>
      </trkpt>
      <trkpt lat="43.44556" lon="2.14122">
        <ele>781.59997558594</ele>
        <time>2019-03-09T08:51:51.000Z</time>
      </trkpt>
      <trkpt lat="43.44558" lon="2.14129">
        <ele>782</ele>
        <time>2019-03-09T08:51:55.000Z</time>
      </trkpt>
      <trkpt lat="43.44558" lon="2.14131">
        <ele>782</ele>
        <time>2019-03-09T08:51:56.000Z</time>
      </trkpt>
      <trkpt lat="43.44559" lon="2.1414">
        <ele>782.40002441406</ele>
        <time>2019-03-09T08:52:00.000Z</time>
      </trkpt>
      <trkpt lat="43.4456" lon="2.14144">
        <ele>782.59997558594</ele>
        <time>2019-03-09T08:52:02.000Z</time>
      </trkpt>
      <trkpt lat="43.4456" lon="2.1415">
        <ele>782.79998779297</ele>
        <time>2019-03-09T08:52:05.000Z</time>
      </trkpt>
      <trkpt lat="43.44556" lon="2.14156">
        <ele>783.40002441406</ele>
        <time>2019-03-09T08:52:09.000Z</time>
      </trkpt>
      <trkpt lat="43.44553" lon="2.14158">
        <ele>783.59997558594</ele>
        <time>2019-03-09T08:52:13.000Z</time>
      </trkpt>
      <trkpt lat="43.44552" lon="2.14158">
        <ele>783.59997558594</ele>
        <time>2019-03-09T08:52:14.000Z</time>
      </trkpt>
      <trkpt lat="43.4455" lon="2.14159">
        <ele>783.79998779297</ele>
        <time>2019-03-09T08:52:17.000Z</time>
      </trkpt>
      <trkpt lat="43.44547" lon="2.14161">
        <ele>784</ele>
        <time>2019-03-09T08:52:21.000Z</time>
      </trkpt>
      <trkpt lat="43.44546" lon="2.14162">
        <ele>784</ele>
        <time>2019-03-09T08:52:22.000Z</time>
      </trkpt>
      <trkpt lat="43.44543" lon="2.14166">
        <ele>784.40002441406</ele>
        <time>2019-03-09T08:52:26.000Z</time>
      </trkpt>
      <trkpt lat="43.44543" lon="2.14166">
        <ele>784.40002441406</ele>
        <time>2019-03-09T08:52:27.000Z</time>
      </trkpt>
      <trkpt lat="43.44541" lon="2.1417">
        <ele>784.79998779297</ele>
        <time>2019-03-09T08:52:31.000Z</time>
      </trkpt>
      <trkpt lat="43.44539" lon="2.14175">
        <ele>785.20001220703</ele>
        <time>2019-03-09T08:52:35.000Z</time>
      </trkpt>
      <trkpt lat="43.44538" lon="2.14177">
        <ele>785.40002441406</ele>
        <time>2019-03-09T08:52:39.000Z</time>
      </trkpt>
      <trkpt lat="43.44533" lon="2.14193">
        <ele>785.59997558594</ele>
        <time>2019-03-09T08:52:45.000Z</time>
      </trkpt>
      <trkpt lat="43.44531" lon="2.14209">
        <ele>785.59997558594</ele>
        <time>2019-03-09T08:52:48.000Z</time>
      </trkpt>
      <trkpt lat="43.44533" lon="2.14216">
        <ele>785.59997558594</ele>
        <time>2019-03-09T08:52:49.000Z</time>
      </trkpt>
      <trkpt lat="43.44532" lon="2.1424">
        <ele>785.59997558594</ele>
        <time>2019-03-09T08:52:53.000Z</time>
      </trkpt>
      <trkpt lat="43.44516" lon="2.14254">
        <ele>784.79998779297</ele>
        <time>2019-03-09T08:52:56.000Z</time>
      </trkpt>
      <trkpt lat="43.44511" lon="2.14271">
        <ele>784.40002441406</ele>
        <time>2019-03-09T08:52:58.000Z</time>
      </trkpt>
      <trkpt lat="43.44509" lon="2.1428">
        <ele>784.20001220703</ele>
        <time>2019-03-09T08:52:59.000Z</time>
      </trkpt>
      <trkpt lat="43.44506" lon="2.14287">
        <ele>783.79998779297</ele>
        <time>2019-03-09T08:53:00.000Z</time>
      </trkpt>
      <trkpt lat="43.44494" lon="2.14294">
        <ele>783.20001220703</ele>
        <time>2019-03-09T08:53:02.000Z</time>
      </trkpt>
      <trkpt lat="43.44482" lon="2.14299">
        <ele>782.40002441406</ele>
        <time>2019-03-09T08:53:04.000Z</time>
      </trkpt>
      <trkpt lat="43.44477" lon="2.14305">
        <ele>782.59997558594</ele>
        <time>2019-03-09T08:53:05.000Z</time>
      </trkpt>
      <trkpt lat="43.44474" lon="2.14319">
        <ele>782.79998779297</ele>
        <time>2019-03-09T08:53:07.000Z</time>
      </trkpt>
      <trkpt lat="43.4448" lon="2.14334">
        <ele>783.20001220703</ele>
        <time>2019-03-09T08:53:09.000Z</time>
      </trkpt>
      <trkpt lat="43.44484" lon="2.1434">
        <ele>783.20001220703</ele>
        <time>2019-03-09T08:53:10.000Z</time>
      </trkpt>
      <trkpt lat="43.44488" lon="2.14346">
        <ele>783.40002441406</ele>
        <time>2019-03-09T08:53:11.000Z</time>
      </trkpt>
      <trkpt lat="43.44501" lon="2.14367">
        <ele>783.59997558594</ele>
        <time>2019-03-09T08:53:14.000Z</time>
      </trkpt>
      <trkpt lat="43.44514" lon="2.1439">
        <ele>784</ele>
        <time>2019-03-09T08:53:17.000Z</time>
      </trkpt>
      <trkpt lat="43.44523" lon="2.14405">
        <ele>783.59997558594</ele>
        <time>2019-03-09T08:53:19.000Z</time>
      </trkpt>
      <trkpt lat="43.44532" lon="2.1442">
        <ele>782.79998779297</ele>
        <time>2019-03-09T08:53:21.000Z</time>
      </trkpt>
      <trkpt lat="43.44537" lon="2.14428">
        <ele>782.59997558594</ele>
        <time>2019-03-09T08:53:22.000Z</time>
      </trkpt>
      <trkpt lat="43.44547" lon="2.14443">
        <ele>781.79998779297</ele>
        <time>2019-03-09T08:53:24.000Z</time>
      </trkpt>
      <trkpt lat="43.44562" lon="2.14466">
        <ele>780.40002441406</ele>
        <time>2019-03-09T08:53:27.000Z</time>
      </trkpt>
      <trkpt lat="43.44571" lon="2.14481">
        <ele>779.59997558594</ele>
        <time>2019-03-09T08:53:29.000Z</time>
      </trkpt>
      <trkpt lat="43.44575" lon="2.14488">
        <ele>779</ele>
        <time>2019-03-09T08:53:30.000Z</time>
      </trkpt>
      <trkpt lat="43.44589" lon="2.14515">
        <ele>778.20001220703</ele>
        <time>2019-03-09T08:53:34.000Z</time>
      </trkpt>
      <trkpt lat="43.4459" lon="2.14522">
        <ele>778</ele>
        <time>2019-03-09T08:53:35.000Z</time>
      </trkpt>
      <trkpt lat="43.44585" lon="2.14539">
        <ele>778</ele>
        <time>2019-03-09T08:53:38.000Z</time>
      </trkpt>
      <trkpt lat="43.44582" lon="2.14544">
        <ele>778</ele>
        <time>2019-03-09T08:53:39.000Z</time>
      </trkpt>
      <trkpt lat="43.44573" lon="2.1456">
        <ele>777.79998779297</ele>
        <time>2019-03-09T08:53:42.000Z</time>
      </trkpt>
      <trkpt lat="43.44569" lon="2.14572">
        <ele>777.20001220703</ele>
        <time>2019-03-09T08:53:44.000Z</time>
      </trkpt>
      <trkpt lat="43.44572" lon="2.14592">
        <ele>777.40002441406</ele>
        <time>2019-03-09T08:53:47.000Z</time>
      </trkpt>
      <trkpt lat="43.44577" lon="2.14603">
        <ele>777.59997558594</ele>
        <time>2019-03-09T08:53:49.000Z</time>
      </trkpt>
      <trkpt lat="43.44583" lon="2.1462">
        <ele>778</ele>
        <time>2019-03-09T08:53:52.000Z</time>
      </trkpt>
      <trkpt lat="43.44594" lon="2.14636">
        <ele>778.40002441406</ele>
        <time>2019-03-09T08:53:57.000Z</time>
      </trkpt>
      <trkpt lat="43.44601" lon="2.14643">
        <ele>778.59997558594</ele>
        <time>2019-03-09T08:54:00.000Z</time>
      </trkpt>
      <trkpt lat="43.44602" lon="2.14646">
        <ele>778.59997558594</ele>
        <time>2019-03-09T08:54:01.000Z</time>
      </trkpt>
      <trkpt lat="43.4461" lon="2.14661">
        <ele>778.79998779297</ele>
        <time>2019-03-09T08:54:05.000Z</time>
      </trkpt>
      <trkpt lat="43.44613" lon="2.14668">
        <ele>779.40002441406</ele>
        <time>2019-03-09T08:54:07.000Z</time>
      </trkpt>
      <trkpt lat="43.44621" lon="2.14686">
        <ele>780.79998779297</ele>
        <time>2019-03-09T08:54:12.000Z</time>
      </trkpt>
      <trkpt lat="43.44625" lon="2.14692">
        <ele>781.20001220703</ele>
        <time>2019-03-09T08:54:14.000Z</time>
      </trkpt>
      <trkpt lat="43.44633" lon="2.14707">
        <ele>782.40002441406</ele>
        <time>2019-03-09T08:54:19.000Z</time>
      </trkpt>
      <trkpt lat="43.44635" lon="2.1471">
        <ele>782.59997558594</ele>
        <time>2019-03-09T08:54:20.000Z</time>
      </trkpt>
      <trkpt lat="43.4464" lon="2.14719">
        <ele>783.20001220703</ele>
        <time>2019-03-09T08:54:23.000Z</time>
      </trkpt>
      <trkpt lat="43.44646" lon="2.14732">
        <ele>784.20001220703</ele>
        <time>2019-03-09T08:54:27.000Z</time>
      </trkpt>
      <trkpt lat="43.44648" lon="2.14735">
        <ele>784.40002441406</ele>
        <time>2019-03-09T08:54:28.000Z</time>
      </trkpt>
      <trkpt lat="43.44656" lon="2.1475">
        <ele>785.59997558594</ele>
        <time>2019-03-09T08:54:33.000Z</time>
      </trkpt>
      <trkpt lat="43.44657" lon="2.14753">
        <ele>786</ele>
        <time>2019-03-09T08:54:34.000Z</time>
      </trkpt>
      <trkpt lat="43.44661" lon="2.14762">
        <ele>786.79998779297</ele>
        <time>2019-03-09T08:54:37.000Z</time>
      </trkpt>
      <trkpt lat="43.44669" lon="2.14771">
        <ele>787.79998779297</ele>
        <time>2019-03-09T08:54:41.000Z</time>
      </trkpt>
      <trkpt lat="43.44673" lon="2.14776">
        <ele>788.40002441406</ele>
        <time>2019-03-09T08:54:43.000Z</time>
      </trkpt>
      <trkpt lat="43.44676" lon="2.14784">
        <ele>789.20001220703</ele>
        <time>2019-03-09T08:54:46.000Z</time>
      </trkpt>
      <trkpt lat="43.44677" lon="2.14787">
        <ele>789.59997558594</ele>
        <time>2019-03-09T08:54:47.000Z</time>
      </trkpt>
      <trkpt lat="43.44682" lon="2.14798">
        <ele>790.79998779297</ele>
        <time>2019-03-09T08:54:51.000Z</time>
      </trkpt>
      <trkpt lat="43.44683" lon="2.14801">
        <ele>791.20001220703</ele>
        <time>2019-03-09T08:54:52.000Z</time>
      </trkpt>
      <trkpt lat="43.44688" lon="2.14813">
        <ele>792.20001220703</ele>
        <time>2019-03-09T08:54:56.000Z</time>
      </trkpt>
      <trkpt lat="43.44696" lon="2.14825">
        <ele>793.20001220703</ele>
        <time>2019-03-09T08:55:01.000Z</time>
      </trkpt>
      <trkpt lat="43.44698" lon="2.14827">
        <ele>793.20001220703</ele>
        <time>2019-03-09T08:55:02.000Z</time>
      </trkpt>
      <trkpt lat="43.44706" lon="2.14843">
        <ele>795</ele>
        <time>2019-03-09T08:55:08.000Z</time>
      </trkpt>
      <trkpt lat="43.44707" lon="2.14846">
        <ele>795.20001220703</ele>
        <time>2019-03-09T08:55:09.000Z</time>
      </trkpt>
      <trkpt lat="43.44711" lon="2.14856">
        <ele>796.40002441406</ele>
        <time>2019-03-09T08:55:13.000Z</time>
      </trkpt>
      <trkpt lat="43.44712" lon="2.14858">
        <ele>796.59997558594</ele>
        <time>2019-03-09T08:55:14.000Z</time>
      </trkpt>
      <trkpt lat="43.44717" lon="2.14868">
        <ele>797.40002441406</ele>
        <time>2019-03-09T08:55:18.000Z</time>
      </trkpt>
      <trkpt lat="43.4472" lon="2.14873">
        <ele>797.79998779297</ele>
        <time>2019-03-09T08:55:20.000Z</time>
      </trkpt>
      <trkpt lat="43.44724" lon="2.14879">
        <ele>798.40002441406</ele>
        <time>2019-03-09T08:55:23.000Z</time>
      </trkpt>
      <trkpt lat="43.4473" lon="2.14889">
        <ele>799.20001220703</ele>
        <time>2019-03-09T08:55:27.000Z</time>
      </trkpt>
      <trkpt lat="43.44731" lon="2.14891">
        <ele>799.40002441406</ele>
        <time>2019-03-09T08:55:28.000Z</time>
      </trkpt>
      <trkpt lat="43.44737" lon="2.149">
        <ele>800</ele>
        <time>2019-03-09T08:55:32.000Z</time>
      </trkpt>
      <trkpt lat="43.4474" lon="2.14907">
        <ele>800.59997558594</ele>
        <time>2019-03-09T08:55:35.000Z</time>
      </trkpt>
      <trkpt lat="43.44747" lon="2.14922">
        <ele>802</ele>
        <time>2019-03-09T08:55:41.000Z</time>
      </trkpt>
      <trkpt lat="43.44754" lon="2.14935">
        <ele>803</ele>
        <time>2019-03-09T08:55:46.000Z</time>
      </trkpt>
      <trkpt lat="43.44758" lon="2.14942">
        <ele>803.59997558594</ele>
        <time>2019-03-09T08:55:49.000Z</time>
      </trkpt>
      <trkpt lat="43.4476" lon="2.14947">
        <ele>804</ele>
        <time>2019-03-09T08:55:51.000Z</time>
      </trkpt>
      <trkpt lat="43.44767" lon="2.1496">
        <ele>805.20001220703</ele>
        <time>2019-03-09T08:55:56.000Z</time>
      </trkpt>
      <trkpt lat="43.44776" lon="2.14972">
        <ele>805.59997558594</ele>
        <time>2019-03-09T08:56:02.000Z</time>
      </trkpt>
      <trkpt lat="43.44785" lon="2.14982">
        <ele>806.20001220703</ele>
        <time>2019-03-09T08:56:07.000Z</time>
      </trkpt>
      <trkpt lat="43.44789" lon="2.14986">
        <ele>806.20001220703</ele>
        <time>2019-03-09T08:56:09.000Z</time>
      </trkpt>
      <trkpt lat="43.44797" lon="2.14997">
        <ele>806.59997558594</ele>
        <time>2019-03-09T08:56:14.000Z</time>
      </trkpt>
      <trkpt lat="43.44799" lon="2.15">
        <ele>806.59997558594</ele>
        <time>2019-03-09T08:56:15.000Z</time>
      </trkpt>
      <trkpt lat="43.44812" lon="2.15017">
        <ele>806.79998779297</ele>
        <time>2019-03-09T08:56:22.000Z</time>
      </trkpt>
      <trkpt lat="43.44814" lon="2.1502">
        <ele>807</ele>
        <time>2019-03-09T08:56:23.000Z</time>
      </trkpt>
      <trkpt lat="43.44827" lon="2.15036">
        <ele>807</ele>
        <time>2019-03-09T08:56:30.000Z</time>
      </trkpt>
      <trkpt lat="43.44829" lon="2.15038">
        <ele>807</ele>
        <time>2019-03-09T08:56:31.000Z</time>
      </trkpt>
      <trkpt lat="43.44842" lon="2.15053">
        <ele>807.20001220703</ele>
        <time>2019-03-09T08:56:37.000Z</time>
      </trkpt>
      <trkpt lat="43.44844" lon="2.15056">
        <ele>807.20001220703</ele>
        <time>2019-03-09T08:56:38.000Z</time>
      </trkpt>
      <trkpt lat="43.44857" lon="2.15073">
        <ele>807.79998779297</ele>
        <time>2019-03-09T08:56:44.000Z</time>
      </trkpt>
      <trkpt lat="43.44862" lon="2.1508">
        <ele>808</ele>
        <time>2019-03-09T08:56:46.000Z</time>
      </trkpt>
      <trkpt lat="43.44868" lon="2.15087">
        <ele>808</ele>
        <time>2019-03-09T08:56:48.000Z</time>
      </trkpt>
      <trkpt lat="43.4489" lon="2.15112">
        <ele>808.40002441406</ele>
        <time>2019-03-09T08:56:55.000Z</time>
      </trkpt>
      <trkpt lat="43.44896" lon="2.1512">
        <ele>808.40002441406</ele>
        <time>2019-03-09T08:56:57.000Z</time>
      </trkpt>
      <trkpt lat="43.44907" lon="2.15131">
        <ele>808.59997558594</ele>
        <time>2019-03-09T08:57:00.000Z</time>
      </trkpt>
      <trkpt lat="43.4491" lon="2.15135">
        <ele>808.59997558594</ele>
        <time>2019-03-09T08:57:01.000Z</time>
      </trkpt>
      <trkpt lat="43.44937" lon="2.15164">
        <ele>809.40002441406</ele>
        <time>2019-03-09T08:57:08.000Z</time>
      </trkpt>
      <trkpt lat="43.44944" lon="2.15174">
        <ele>810.40002441406</ele>
        <time>2019-03-09T08:57:10.000Z</time>
      </trkpt>
      <trkpt lat="43.44953" lon="2.15191">
        <ele>811.59997558594</ele>
        <time>2019-03-09T08:57:13.000Z</time>
      </trkpt>
      <trkpt lat="43.44962" lon="2.15208">
        <ele>812.79998779297</ele>
        <time>2019-03-09T08:57:16.000Z</time>
      </trkpt>
      <trkpt lat="43.44972" lon="2.15228">
        <ele>814</ele>
        <time>2019-03-09T08:57:20.000Z</time>
      </trkpt>
      <trkpt lat="43.44974" lon="2.1525">
        <ele>814.59997558594</ele>
        <time>2019-03-09T08:57:25.000Z</time>
      </trkpt>
      <trkpt lat="43.44974" lon="2.15255">
        <ele>814.59997558594</ele>
        <time>2019-03-09T08:57:26.000Z</time>
      </trkpt>
      <trkpt lat="43.44973" lon="2.15287">
        <ele>814.79998779297</ele>
        <time>2019-03-09T08:57:32.000Z</time>
      </trkpt>
      <trkpt lat="43.44971" lon="2.15305">
        <ele>814.79998779297</ele>
        <time>2019-03-09T08:57:35.000Z</time>
      </trkpt>
      <trkpt lat="43.4497" lon="2.15323">
        <ele>815</ele>
        <time>2019-03-09T08:57:38.000Z</time>
      </trkpt>
      <trkpt lat="43.44969" lon="2.15336">
        <ele>815</ele>
        <time>2019-03-09T08:57:40.000Z</time>
      </trkpt>
      <trkpt lat="43.44967" lon="2.15363">
        <ele>814.79998779297</ele>
        <time>2019-03-09T08:57:44.000Z</time>
      </trkpt>
      <trkpt lat="43.44968" lon="2.15402">
        <ele>814.79998779297</ele>
        <time>2019-03-09T08:57:49.000Z</time>
      </trkpt>
      <trkpt lat="43.44972" lon="2.1545">
        <ele>814.40002441406</ele>
        <time>2019-03-09T08:57:55.000Z</time>
      </trkpt>
      <trkpt lat="43.44976" lon="2.15483">
        <ele>813</ele>
        <time>2019-03-09T08:57:59.000Z</time>
      </trkpt>
      <trkpt lat="43.44977" lon="2.15491">
        <ele>812.59997558594</ele>
        <time>2019-03-09T08:58:00.000Z</time>
      </trkpt>
      <trkpt lat="43.44985" lon="2.15534">
        <ele>812.20001220703</ele>
        <time>2019-03-09T08:58:05.000Z</time>
      </trkpt>
      <trkpt lat="43.44988" lon="2.15543">
        <ele>812.20001220703</ele>
        <time>2019-03-09T08:58:06.000Z</time>
      </trkpt>
      <trkpt lat="43.44992" lon="2.15551">
        <ele>812.59997558594</ele>
        <time>2019-03-09T08:58:07.000Z</time>
      </trkpt>
      <trkpt lat="43.44997" lon="2.15569">
        <ele>812</ele>
        <time>2019-03-09T08:58:09.000Z</time>
      </trkpt>
      <trkpt lat="43.45" lon="2.15577">
        <ele>811.59997558594</ele>
        <time>2019-03-09T08:58:10.000Z</time>
      </trkpt>
      <trkpt lat="43.45011" lon="2.15602">
        <ele>810.40002441406</ele>
        <time>2019-03-09T08:58:13.000Z</time>
      </trkpt>
      <trkpt lat="43.4502" lon="2.15626">
        <ele>808.79998779297</ele>
        <time>2019-03-09T08:58:16.000Z</time>
      </trkpt>
      <trkpt lat="43.45024" lon="2.15633">
        <ele>808.20001220703</ele>
        <time>2019-03-09T08:58:17.000Z</time>
      </trkpt>
      <trkpt lat="43.45048" lon="2.15674">
        <ele>805.40002441406</ele>
        <time>2019-03-09T08:58:23.000Z</time>
      </trkpt>
      <trkpt lat="43.45066" lon="2.15701">
        <ele>803.40002441406</ele>
        <time>2019-03-09T08:58:27.000Z</time>
      </trkpt>
      <trkpt lat="43.45082" lon="2.15723">
        <ele>802</ele>
        <time>2019-03-09T08:58:30.000Z</time>
      </trkpt>
      <trkpt lat="43.45093" lon="2.15738">
        <ele>801.20001220703</ele>
        <time>2019-03-09T08:58:32.000Z</time>
      </trkpt>
      <trkpt lat="43.45106" lon="2.15752">
        <ele>800.79998779297</ele>
        <time>2019-03-09T08:58:34.000Z</time>
      </trkpt>
      <trkpt lat="43.45113" lon="2.15758">
        <ele>800.79998779297</ele>
        <time>2019-03-09T08:58:35.000Z</time>
      </trkpt>
      <trkpt lat="43.45121" lon="2.15765">
        <ele>800.79998779297</ele>
        <time>2019-03-09T08:58:36.000Z</time>
      </trkpt>
      <trkpt lat="43.45128" lon="2.15773">
        <ele>800.59997558594</ele>
        <time>2019-03-09T08:58:37.000Z</time>
      </trkpt>
      <trkpt lat="43.45135" lon="2.15782">
        <ele>800.20001220703</ele>
        <time>2019-03-09T08:58:38.000Z</time>
      </trkpt>
      <trkpt lat="43.45141" lon="2.15791">
        <ele>799.79998779297</ele>
        <time>2019-03-09T08:58:39.000Z</time>
      </trkpt>
      <trkpt lat="43.45148" lon="2.15801">
        <ele>799.20001220703</ele>
        <time>2019-03-09T08:58:40.000Z</time>
      </trkpt>
      <trkpt lat="43.45161" lon="2.1582">
        <ele>798.20001220703</ele>
        <time>2019-03-09T08:58:42.000Z</time>
      </trkpt>
      <trkpt lat="43.45174" lon="2.1584">
        <ele>797.20001220703</ele>
        <time>2019-03-09T08:58:44.000Z</time>
      </trkpt>
      <trkpt lat="43.45187" lon="2.15861">
        <ele>796</ele>
        <time>2019-03-09T08:58:46.000Z</time>
      </trkpt>
      <trkpt lat="43.45194" lon="2.15872">
        <ele>795</ele>
        <time>2019-03-09T08:58:47.000Z</time>
      </trkpt>
      <trkpt lat="43.45207" lon="2.15892">
        <ele>793.40002441406</ele>
        <time>2019-03-09T08:58:49.000Z</time>
      </trkpt>
      <trkpt lat="43.45221" lon="2.1591">
        <ele>792</ele>
        <time>2019-03-09T08:58:51.000Z</time>
      </trkpt>
      <trkpt lat="43.45234" lon="2.15928">
        <ele>790.79998779297</ele>
        <time>2019-03-09T08:58:53.000Z</time>
      </trkpt>
      <trkpt lat="43.45245" lon="2.15943">
        <ele>789.59997558594</ele>
        <time>2019-03-09T08:58:55.000Z</time>
      </trkpt>
      <trkpt lat="43.45261" lon="2.15966">
        <ele>788</ele>
        <time>2019-03-09T08:58:58.000Z</time>
      </trkpt>
      <trkpt lat="43.4527" lon="2.15982">
        <ele>786.79998779297</ele>
        <time>2019-03-09T08:59:00.000Z</time>
      </trkpt>
      <trkpt lat="43.45273" lon="2.15992">
        <ele>785.79998779297</ele>
        <time>2019-03-09T08:59:01.000Z</time>
      </trkpt>
      <trkpt lat="43.45279" lon="2.1601">
        <ele>784.79998779297</ele>
        <time>2019-03-09T08:59:03.000Z</time>
      </trkpt>
      <trkpt lat="43.45283" lon="2.16018">
        <ele>784.40002441406</ele>
        <time>2019-03-09T08:59:04.000Z</time>
      </trkpt>
      <trkpt lat="43.45287" lon="2.16024">
        <ele>784.20001220703</ele>
        <time>2019-03-09T08:59:05.000Z</time>
      </trkpt>
      <trkpt lat="43.45297" lon="2.16037">
        <ele>784</ele>
        <time>2019-03-09T08:59:07.000Z</time>
      </trkpt>
      <trkpt lat="43.4532" lon="2.16061">
        <ele>784</ele>
        <time>2019-03-09T08:59:11.000Z</time>
      </trkpt>
      <trkpt lat="43.45332" lon="2.16072">
        <ele>784</ele>
        <time>2019-03-09T08:59:13.000Z</time>
      </trkpt>
      <trkpt lat="43.45346" lon="2.16081">
        <ele>784.40002441406</ele>
        <time>2019-03-09T08:59:15.000Z</time>
      </trkpt>
      <trkpt lat="43.45359" lon="2.16094">
        <ele>784.40002441406</ele>
        <time>2019-03-09T08:59:17.000Z</time>
      </trkpt>
      <trkpt lat="43.45365" lon="2.16101">
        <ele>784.20001220703</ele>
        <time>2019-03-09T08:59:18.000Z</time>
      </trkpt>
      <trkpt lat="43.4537" lon="2.1611">
        <ele>784</ele>
        <time>2019-03-09T08:59:19.000Z</time>
      </trkpt>
      <trkpt lat="43.45373" lon="2.16122">
        <ele>783.20001220703</ele>
        <time>2019-03-09T08:59:20.000Z</time>
      </trkpt>
      <trkpt lat="43.45375" lon="2.16133">
        <ele>782.59997558594</ele>
        <time>2019-03-09T08:59:21.000Z</time>
      </trkpt>
      <trkpt lat="43.45378" lon="2.16145">
        <ele>781.79998779297</ele>
        <time>2019-03-09T08:59:22.000Z</time>
      </trkpt>
      <trkpt lat="43.45382" lon="2.16164">
        <ele>780.79998779297</ele>
        <time>2019-03-09T08:59:24.000Z</time>
      </trkpt>
      <trkpt lat="43.4539" lon="2.16192">
        <ele>779.20001220703</ele>
        <time>2019-03-09T08:59:27.000Z</time>
      </trkpt>
      <trkpt lat="43.45403" lon="2.16236">
        <ele>777</ele>
        <time>2019-03-09T08:59:32.000Z</time>
      </trkpt>
      <trkpt lat="43.45405" lon="2.16253">
        <ele>776.40002441406</ele>
        <time>2019-03-09T08:59:34.000Z</time>
      </trkpt>
      <trkpt lat="43.45406" lon="2.16269">
        <ele>775.79998779297</ele>
        <time>2019-03-09T08:59:36.000Z</time>
      </trkpt>
      <trkpt lat="43.45408" lon="2.16283">
        <ele>775.40002441406</ele>
        <time>2019-03-09T08:59:38.000Z</time>
      </trkpt>
      <trkpt lat="43.45413" lon="2.16313">
        <ele>774.79998779297</ele>
        <time>2019-03-09T08:59:43.000Z</time>
      </trkpt>
      <trkpt lat="43.45416" lon="2.16319">
        <ele>774.79998779297</ele>
        <time>2019-03-09T08:59:44.000Z</time>
      </trkpt>
      <trkpt lat="43.45415" lon="2.16329">
        <ele>775</ele>
        <time>2019-03-09T08:59:47.000Z</time>
      </trkpt>
      <trkpt lat="43.45412" lon="2.16329">
        <ele>775</ele>
        <time>2019-03-09T08:59:48.000Z</time>
      </trkpt>
      <trkpt lat="43.45399" lon="2.16327">
        <ele>775</ele>
        <time>2019-03-09T08:59:52.000Z</time>
      </trkpt>
      <trkpt lat="43.45393" lon="2.16319">
        <ele>775</ele>
        <time>2019-03-09T08:59:54.000Z</time>
      </trkpt>
      <trkpt lat="43.45386" lon="2.16313">
        <ele>774.79998779297</ele>
        <time>2019-03-09T08:59:56.000Z</time>
      </trkpt>
      <trkpt lat="43.45382" lon="2.16311">
        <ele>774.79998779297</ele>
        <time>2019-03-09T08:59:57.000Z</time>
      </trkpt>
      <trkpt lat="43.45374" lon="2.16304">
        <ele>774.79998779297</ele>
        <time>2019-03-09T08:59:59.000Z</time>
      </trkpt>
      <trkpt lat="43.45367" lon="2.16297">
        <ele>774.59997558594</ele>
        <time>2019-03-09T09:00:01.000Z</time>
      </trkpt>
      <trkpt lat="43.45358" lon="2.16293">
        <ele>774.59997558594</ele>
        <time>2019-03-09T09:00:04.000Z</time>
      </trkpt>
      <trkpt lat="43.45353" lon="2.16289">
        <ele>774.59997558594</ele>
        <time>2019-03-09T09:00:06.000Z</time>
      </trkpt>
      <trkpt lat="43.45352" lon="2.16287">
        <ele>774.59997558594</ele>
        <time>2019-03-09T09:00:07.000Z</time>
      </trkpt>
      <trkpt lat="43.45343" lon="2.1628">
        <ele>773.59997558594</ele>
        <time>2019-03-09T09:00:11.000Z</time>
      </trkpt>
      <trkpt lat="43.45341" lon="2.16279">
        <ele>773.40002441406</ele>
        <time>2019-03-09T09:00:12.000Z</time>
      </trkpt>
      <trkpt lat="43.45332" lon="2.16276">
        <ele>772.40002441406</ele>
        <time>2019-03-09T09:00:14.000Z</time>
      </trkpt>
      <trkpt lat="43.45329" lon="2.16274">
        <ele>771.79998779297</ele>
        <time>2019-03-09T09:00:15.000Z</time>
      </trkpt>
      <trkpt lat="43.45325" lon="2.16272">
        <ele>771.40002441406</ele>
        <time>2019-03-09T09:00:16.000Z</time>
      </trkpt>
      <trkpt lat="43.45316" lon="2.16271">
        <ele>770.40002441406</ele>
        <time>2019-03-09T09:00:18.000Z</time>
      </trkpt>
      <trkpt lat="43.45311" lon="2.1627">
        <ele>769.59997558594</ele>
        <time>2019-03-09T09:00:19.000Z</time>
      </trkpt>
      <trkpt lat="43.45306" lon="2.16268">
        <ele>769</ele>
        <time>2019-03-09T09:00:20.000Z</time>
      </trkpt>
      <trkpt lat="43.45297" lon="2.16267">
        <ele>768</ele>
        <time>2019-03-09T09:00:22.000Z</time>
      </trkpt>
      <trkpt lat="43.45292" lon="2.16266">
        <ele>767.40002441406</ele>
        <time>2019-03-09T09:00:23.000Z</time>
      </trkpt>
      <trkpt lat="43.45288" lon="2.16266">
        <ele>767</ele>
        <time>2019-03-09T09:00:24.000Z</time>
      </trkpt>
      <trkpt lat="43.45284" lon="2.16266">
        <ele>766.59997558594</ele>
        <time>2019-03-09T09:00:25.000Z</time>
      </trkpt>
      <trkpt lat="43.45273" lon="2.16262">
        <ele>765.40002441406</ele>
        <time>2019-03-09T09:00:27.000Z</time>
      </trkpt>
      <trkpt lat="43.45268" lon="2.1626">
        <ele>764.79998779297</ele>
        <time>2019-03-09T09:00:28.000Z</time>
      </trkpt>
      <trkpt lat="43.45262" lon="2.16258">
        <ele>763.79998779297</ele>
        <time>2019-03-09T09:00:29.000Z</time>
      </trkpt>
      <trkpt lat="43.45256" lon="2.16257">
        <ele>763</ele>
        <time>2019-03-09T09:00:30.000Z</time>
      </trkpt>
      <trkpt lat="43.45249" lon="2.16254">
        <ele>762</ele>
        <time>2019-03-09T09:00:31.000Z</time>
      </trkpt>
      <trkpt lat="43.45237" lon="2.16255">
        <ele>760.20001220703</ele>
        <time>2019-03-09T09:00:33.000Z</time>
      </trkpt>
      <trkpt lat="43.45224" lon="2.16254">
        <ele>758.40002441406</ele>
        <time>2019-03-09T09:00:35.000Z</time>
      </trkpt>
      <trkpt lat="43.45212" lon="2.16253">
        <ele>756.59997558594</ele>
        <time>2019-03-09T09:00:37.000Z</time>
      </trkpt>
      <trkpt lat="43.45197" lon="2.16256">
        <ele>754.59997558594</ele>
        <time>2019-03-09T09:00:39.000Z</time>
      </trkpt>
      <trkpt lat="43.45181" lon="2.16255">
        <ele>752.59997558594</ele>
        <time>2019-03-09T09:00:41.000Z</time>
      </trkpt>
      <trkpt lat="43.45167" lon="2.16247">
        <ele>750.79998779297</ele>
        <time>2019-03-09T09:00:43.000Z</time>
      </trkpt>
      <trkpt lat="43.45159" lon="2.16244">
        <ele>750</ele>
        <time>2019-03-09T09:00:44.000Z</time>
      </trkpt>
      <trkpt lat="43.45152" lon="2.16242">
        <ele>749.59997558594</ele>
        <time>2019-03-09T09:00:45.000Z</time>
      </trkpt>
      <trkpt lat="43.45139" lon="2.16239">
        <ele>748.79998779297</ele>
        <time>2019-03-09T09:00:47.000Z</time>
      </trkpt>
      <trkpt lat="43.45133" lon="2.16235">
        <ele>748.59997558594</ele>
        <time>2019-03-09T09:00:48.000Z</time>
      </trkpt>
      <trkpt lat="43.45126" lon="2.16232">
        <ele>748.40002441406</ele>
        <time>2019-03-09T09:00:49.000Z</time>
      </trkpt>
      <trkpt lat="43.45112" lon="2.16226">
        <ele>747.59997558594</ele>
        <time>2019-03-09T09:00:51.000Z</time>
      </trkpt>
      <trkpt lat="43.45097" lon="2.16221">
        <ele>746.59997558594</ele>
        <time>2019-03-09T09:00:53.000Z</time>
      </trkpt>
      <trkpt lat="43.4509" lon="2.16221">
        <ele>745.79998779297</ele>
        <time>2019-03-09T09:00:54.000Z</time>
      </trkpt>
      <trkpt lat="43.45083" lon="2.16221">
        <ele>744.79998779297</ele>
        <time>2019-03-09T09:00:55.000Z</time>
      </trkpt>
      <trkpt lat="43.45075" lon="2.16222">
        <ele>743.79998779297</ele>
        <time>2019-03-09T09:00:56.000Z</time>
      </trkpt>
      <trkpt lat="43.45069" lon="2.16225">
        <ele>743.59997558594</ele>
        <time>2019-03-09T09:00:57.000Z</time>
      </trkpt>
      <trkpt lat="43.45056" lon="2.16232">
        <ele>743</ele>
        <time>2019-03-09T09:00:59.000Z</time>
      </trkpt>
      <trkpt lat="43.45047" lon="2.16234">
        <ele>742.40002441406</ele>
        <time>2019-03-09T09:01:01.000Z</time>
      </trkpt>
      <trkpt lat="43.45044" lon="2.16233">
        <ele>742.40002441406</ele>
        <time>2019-03-09T09:01:02.000Z</time>
      </trkpt>
      <trkpt lat="43.45023" lon="2.16232">
        <ele>741.40002441406</ele>
        <time>2019-03-09T09:01:07.000Z</time>
      </trkpt>
      <trkpt lat="43.45015" lon="2.16232">
        <ele>741</ele>
        <time>2019-03-09T09:01:08.000Z</time>
      </trkpt>
      <trkpt lat="43.45003" lon="2.16233">
        <ele>739.79998779297</ele>
        <time>2019-03-09T09:01:10.000Z</time>
      </trkpt>
      <trkpt lat="43.4499" lon="2.16237">
        <ele>739.40002441406</ele>
        <time>2019-03-09T09:01:12.000Z</time>
      </trkpt>
      <trkpt lat="43.44978" lon="2.1624">
        <ele>739</ele>
        <time>2019-03-09T09:01:14.000Z</time>
      </trkpt>
      <trkpt lat="43.44963" lon="2.16241">
        <ele>738.40002441406</ele>
        <time>2019-03-09T09:01:16.000Z</time>
      </trkpt>
      <trkpt lat="43.44951" lon="2.16245">
        <ele>738</ele>
        <time>2019-03-09T09:01:18.000Z</time>
      </trkpt>
      <trkpt lat="43.44945" lon="2.16248">
        <ele>738</ele>
        <time>2019-03-09T09:01:19.000Z</time>
      </trkpt>
      <trkpt lat="43.44923" lon="2.16256">
        <ele>737.40002441406</ele>
        <time>2019-03-09T09:01:23.000Z</time>
      </trkpt>
      <trkpt lat="43.44919" lon="2.16259">
        <ele>737.20001220703</ele>
        <time>2019-03-09T09:01:24.000Z</time>
      </trkpt>
      <trkpt lat="43.44897" lon="2.16271">
        <ele>736.20001220703</ele>
        <time>2019-03-09T09:01:29.000Z</time>
      </trkpt>
      <trkpt lat="43.44885" lon="2.16286">
        <ele>737</ele>
        <time>2019-03-09T09:01:33.000Z</time>
      </trkpt>
      <trkpt lat="43.44883" lon="2.1629">
        <ele>737.20001220703</ele>
        <time>2019-03-09T09:01:34.000Z</time>
      </trkpt>
      <trkpt lat="43.44877" lon="2.16298">
        <ele>738.20001220703</ele>
        <time>2019-03-09T09:01:37.000Z</time>
      </trkpt>
      <trkpt lat="43.44874" lon="2.16301">
        <ele>738.20001220703</ele>
        <time>2019-03-09T09:01:38.000Z</time>
      </trkpt>
      <trkpt lat="43.44868" lon="2.16307">
        <ele>738.59997558594</ele>
        <time>2019-03-09T09:01:40.000Z</time>
      </trkpt>
      <trkpt lat="43.44863" lon="2.16319">
        <ele>740</ele>
        <time>2019-03-09T09:01:43.000Z</time>
      </trkpt>
      <trkpt lat="43.44859" lon="2.16326">
        <ele>740.59997558594</ele>
        <time>2019-03-09T09:01:45.000Z</time>
      </trkpt>
      <trkpt lat="43.44851" lon="2.16338">
        <ele>741</ele>
        <time>2019-03-09T09:01:49.000Z</time>
      </trkpt>
      <trkpt lat="43.44845" lon="2.16353">
        <ele>741.40002441406</ele>
        <time>2019-03-09T09:01:53.000Z</time>
      </trkpt>
      <trkpt lat="43.44843" lon="2.16356">
        <ele>741.59997558594</ele>
        <time>2019-03-09T09:01:54.000Z</time>
      </trkpt>
      <trkpt lat="43.44843" lon="2.1636">
        <ele>741.79998779297</ele>
        <time>2019-03-09T09:01:55.000Z</time>
      </trkpt>
      <trkpt lat="43.44842" lon="2.1637">
        <ele>742.40002441406</ele>
        <time>2019-03-09T09:01:58.000Z</time>
      </trkpt>
      <trkpt lat="43.4484" lon="2.1638">
        <ele>743.20001220703</ele>
        <time>2019-03-09T09:02:01.000Z</time>
      </trkpt>
      <trkpt lat="43.44839" lon="2.16393">
        <ele>744</ele>
        <time>2019-03-09T09:02:05.000Z</time>
      </trkpt>
      <trkpt lat="43.44838" lon="2.1641">
        <ele>745.40002441406</ele>
        <time>2019-03-09T09:02:10.000Z</time>
      </trkpt>
      <trkpt lat="43.44837" lon="2.16414">
        <ele>745.59997558594</ele>
        <time>2019-03-09T09:02:11.000Z</time>
      </trkpt>
      <trkpt lat="43.44835" lon="2.16438">
        <ele>746.40002441406</ele>
        <time>2019-03-09T09:02:17.000Z</time>
      </trkpt>
      <trkpt lat="43.44835" lon="2.16442">
        <ele>746.59997558594</ele>
        <time>2019-03-09T09:02:18.000Z</time>
      </trkpt>
      <trkpt lat="43.44835" lon="2.16467">
        <ele>747.59997558594</ele>
        <time>2019-03-09T09:02:24.000Z</time>
      </trkpt>
      <trkpt lat="43.44835" lon="2.16492">
        <ele>748.79998779297</ele>
        <time>2019-03-09T09:02:30.000Z</time>
      </trkpt>
      <trkpt lat="43.44832" lon="2.16509">
        <ele>749.20001220703</ele>
        <time>2019-03-09T09:02:35.000Z</time>
      </trkpt>
      <trkpt lat="43.4483" lon="2.16519">
        <ele>749.20001220703</ele>
        <time>2019-03-09T09:02:38.000Z</time>
      </trkpt>
      <trkpt lat="43.4483" lon="2.16529">
        <ele>749.40002441406</ele>
        <time>2019-03-09T09:02:41.000Z</time>
      </trkpt>
      <trkpt lat="43.44831" lon="2.16541">
        <ele>749.59997558594</ele>
        <time>2019-03-09T09:02:44.000Z</time>
      </trkpt>
      <trkpt lat="43.44834" lon="2.16552">
        <ele>749.59997558594</ele>
        <time>2019-03-09T09:02:47.000Z</time>
      </trkpt>
      <trkpt lat="43.44833" lon="2.16559">
        <ele>749.79998779297</ele>
        <time>2019-03-09T09:02:49.000Z</time>
      </trkpt>
      <trkpt lat="43.44832" lon="2.1656">
        <ele>749.79998779297</ele>
        <time>2019-03-09T09:02:50.000Z</time>
      </trkpt>
      <trkpt lat="43.44821" lon="2.1656">
        <ele>749.79998779297</ele>
        <time>2019-03-09T09:02:54.000Z</time>
      </trkpt>
      <trkpt lat="43.44816" lon="2.16559">
        <ele>749.79998779297</ele>
        <time>2019-03-09T09:02:56.000Z</time>
      </trkpt>
      <trkpt lat="43.44804" lon="2.16558">
        <ele>749.79998779297</ele>
        <time>2019-03-09T09:03:00.000Z</time>
      </trkpt>
      <trkpt lat="43.44783" lon="2.16551">
        <ele>749.59997558594</ele>
        <time>2019-03-09T09:03:07.000Z</time>
      </trkpt>
      <trkpt lat="43.44765" lon="2.16542">
        <ele>749.59997558594</ele>
        <time>2019-03-09T09:03:13.000Z</time>
      </trkpt>
      <trkpt lat="43.44751" lon="2.16533">
        <ele>748.79998779297</ele>
        <time>2019-03-09T09:03:19.000Z</time>
      </trkpt>
      <trkpt lat="43.44739" lon="2.16523">
        <ele>748</ele>
        <time>2019-03-09T09:03:23.000Z</time>
      </trkpt>
      <trkpt lat="43.44724" lon="2.16519">
        <ele>747.20001220703</ele>
        <time>2019-03-09T09:03:27.000Z</time>
      </trkpt>
      <trkpt lat="43.44721" lon="2.1652">
        <ele>747.20001220703</ele>
        <time>2019-03-09T09:03:28.000Z</time>
      </trkpt>
      <trkpt lat="43.44716" lon="2.1652">
        <ele>747</ele>
        <time>2019-03-09T09:03:29.000Z</time>
      </trkpt>
      <trkpt lat="43.44702" lon="2.16518">
        <ele>746.20001220703</ele>
        <time>2019-03-09T09:03:31.000Z</time>
      </trkpt>
      <trkpt lat="43.44693" lon="2.16518">
        <ele>746</ele>
        <time>2019-03-09T09:03:32.000Z</time>
      </trkpt>
      <trkpt lat="43.44676" lon="2.16516">
        <ele>745</ele>
        <time>2019-03-09T09:03:34.000Z</time>
      </trkpt>
      <trkpt lat="43.44668" lon="2.16514">
        <ele>744.20001220703</ele>
        <time>2019-03-09T09:03:35.000Z</time>
      </trkpt>
      <trkpt lat="43.44653" lon="2.16512">
        <ele>742.59997558594</ele>
        <time>2019-03-09T09:03:37.000Z</time>
      </trkpt>
      <trkpt lat="43.44631" lon="2.16506">
        <ele>740.40002441406</ele>
        <time>2019-03-09T09:03:40.000Z</time>
      </trkpt>
      <trkpt lat="43.44624" lon="2.16506">
        <ele>739.59997558594</ele>
        <time>2019-03-09T09:03:41.000Z</time>
      </trkpt>
      <trkpt lat="43.44611" lon="2.16504">
        <ele>738.40002441406</ele>
        <time>2019-03-09T09:03:43.000Z</time>
      </trkpt>
      <trkpt lat="43.44607" lon="2.16499">
        <ele>737.79998779297</ele>
        <time>2019-03-09T09:03:44.000Z</time>
      </trkpt>
      <trkpt lat="43.44596" lon="2.16492">
        <ele>736.59997558594</ele>
        <time>2019-03-09T09:03:46.000Z</time>
      </trkpt>
      <trkpt lat="43.44585" lon="2.16492">
        <ele>735.59997558594</ele>
        <time>2019-03-09T09:03:48.000Z</time>
      </trkpt>
      <trkpt lat="43.44579" lon="2.16495">
        <ele>735</ele>
        <time>2019-03-09T09:03:49.000Z</time>
      </trkpt>
      <trkpt lat="43.44568" lon="2.16501">
        <ele>734.20001220703</ele>
        <time>2019-03-09T09:03:51.000Z</time>
      </trkpt>
      <trkpt lat="43.44562" lon="2.16502">
        <ele>733.59997558594</ele>
        <time>2019-03-09T09:03:52.000Z</time>
      </trkpt>
      <trkpt lat="43.44557" lon="2.16502">
        <ele>733.20001220703</ele>
        <time>2019-03-09T09:03:53.000Z</time>
      </trkpt>
      <trkpt lat="43.4455" lon="2.16501">
        <ele>732.40002441406</ele>
        <time>2019-03-09T09:03:54.000Z</time>
      </trkpt>
      <trkpt lat="43.44544" lon="2.16502">
        <ele>732</ele>
        <time>2019-03-09T09:03:55.000Z</time>
      </trkpt>
      <trkpt lat="43.44531" lon="2.1651">
        <ele>730.79998779297</ele>
        <time>2019-03-09T09:03:57.000Z</time>
      </trkpt>
      <trkpt lat="43.44524" lon="2.16516">
        <ele>730</ele>
        <time>2019-03-09T09:03:58.000Z</time>
      </trkpt>
      <trkpt lat="43.44517" lon="2.16521">
        <ele>729</ele>
        <time>2019-03-09T09:03:59.000Z</time>
      </trkpt>
      <trkpt lat="43.4451" lon="2.16529">
        <ele>728.59997558594</ele>
        <time>2019-03-09T09:04:00.000Z</time>
      </trkpt>
      <trkpt lat="43.44504" lon="2.16535">
        <ele>728.20001220703</ele>
        <time>2019-03-09T09:04:01.000Z</time>
      </trkpt>
      <trkpt lat="43.44496" lon="2.16538">
        <ele>727.79998779297</ele>
        <time>2019-03-09T09:04:02.000Z</time>
      </trkpt>
      <trkpt lat="43.44488" lon="2.1654">
        <ele>727.40002441406</ele>
        <time>2019-03-09T09:04:03.000Z</time>
      </trkpt>
      <trkpt lat="43.44471" lon="2.16543">
        <ele>726</ele>
        <time>2019-03-09T09:04:05.000Z</time>
      </trkpt>
      <trkpt lat="43.44464" lon="2.16542">
        <ele>725.40002441406</ele>
        <time>2019-03-09T09:04:06.000Z</time>
      </trkpt>
      <trkpt lat="43.44442" lon="2.16541">
        <ele>723.79998779297</ele>
        <time>2019-03-09T09:04:09.000Z</time>
      </trkpt>
      <trkpt lat="43.44435" lon="2.16541">
        <ele>723</ele>
        <time>2019-03-09T09:04:10.000Z</time>
      </trkpt>
      <trkpt lat="43.44427" lon="2.16539">
        <ele>722.59997558594</ele>
        <time>2019-03-09T09:04:11.000Z</time>
      </trkpt>
      <trkpt lat="43.44404" lon="2.16528">
        <ele>721.20001220703</ele>
        <time>2019-03-09T09:04:14.000Z</time>
      </trkpt>
      <trkpt lat="43.44396" lon="2.16524">
        <ele>720.59997558594</ele>
        <time>2019-03-09T09:04:15.000Z</time>
      </trkpt>
      <trkpt lat="43.44381" lon="2.16517">
        <ele>719.79998779297</ele>
        <time>2019-03-09T09:04:17.000Z</time>
      </trkpt>
      <trkpt lat="43.44365" lon="2.16512">
        <ele>718.79998779297</ele>
        <time>2019-03-09T09:04:19.000Z</time>
      </trkpt>
      <trkpt lat="43.44358" lon="2.16511">
        <ele>718.20001220703</ele>
        <time>2019-03-09T09:04:20.000Z</time>
      </trkpt>
      <trkpt lat="43.44351" lon="2.16511">
        <ele>717.79998779297</ele>
        <time>2019-03-09T09:04:21.000Z</time>
      </trkpt>
      <trkpt lat="43.44336" lon="2.16516">
        <ele>716.79998779297</ele>
        <time>2019-03-09T09:04:23.000Z</time>
      </trkpt>
      <trkpt lat="43.4433" lon="2.1652">
        <ele>716.40002441406</ele>
        <time>2019-03-09T09:04:24.000Z</time>
      </trkpt>
      <trkpt lat="43.44324" lon="2.16525">
        <ele>716</ele>
        <time>2019-03-09T09:04:25.000Z</time>
      </trkpt>
      <trkpt lat="43.44318" lon="2.1653">
        <ele>715.59997558594</ele>
        <time>2019-03-09T09:04:26.000Z</time>
      </trkpt>
      <trkpt lat="43.44312" lon="2.16533">
        <ele>715.40002441406</ele>
        <time>2019-03-09T09:04:27.000Z</time>
      </trkpt>
      <trkpt lat="43.443" lon="2.16537">
        <ele>714.79998779297</ele>
        <time>2019-03-09T09:04:29.000Z</time>
      </trkpt>
      <trkpt lat="43.44281" lon="2.16543">
        <ele>714</ele>
        <time>2019-03-09T09:04:32.000Z</time>
      </trkpt>
      <trkpt lat="43.44252" lon="2.16555">
        <ele>712</ele>
        <time>2019-03-09T09:04:37.000Z</time>
      </trkpt>
      <trkpt lat="43.44223" lon="2.16556">
        <ele>708.79998779297</ele>
        <time>2019-03-09T09:04:42.000Z</time>
      </trkpt>
      <trkpt lat="43.44214" lon="2.16557">
        <ele>708</ele>
        <time>2019-03-09T09:04:43.000Z</time>
      </trkpt>
      <trkpt lat="43.44207" lon="2.16558">
        <ele>707.20001220703</ele>
        <time>2019-03-09T09:04:44.000Z</time>
      </trkpt>
      <trkpt lat="43.44195" lon="2.16561">
        <ele>705.79998779297</ele>
        <time>2019-03-09T09:04:46.000Z</time>
      </trkpt>
      <trkpt lat="43.4419" lon="2.16561">
        <ele>705.20001220703</ele>
        <time>2019-03-09T09:04:47.000Z</time>
      </trkpt>
      <trkpt lat="43.44178" lon="2.16559">
        <ele>703.59997558594</ele>
        <time>2019-03-09T09:04:49.000Z</time>
      </trkpt>
      <trkpt lat="43.44172" lon="2.16555">
        <ele>702.79998779297</ele>
        <time>2019-03-09T09:04:50.000Z</time>
      </trkpt>
      <trkpt lat="43.44167" lon="2.16551">
        <ele>702</ele>
        <time>2019-03-09T09:04:51.000Z</time>
      </trkpt>
      <trkpt lat="43.44154" lon="2.16545">
        <ele>700</ele>
        <time>2019-03-09T09:04:53.000Z</time>
      </trkpt>
      <trkpt lat="43.44135" lon="2.1654">
        <ele>696.59997558594</ele>
        <time>2019-03-09T09:04:56.000Z</time>
      </trkpt>
      <trkpt lat="43.44121" lon="2.16539">
        <ele>694.20001220703</ele>
        <time>2019-03-09T09:04:58.000Z</time>
      </trkpt>
      <trkpt lat="43.44109" lon="2.16534">
        <ele>692</ele>
        <time>2019-03-09T09:05:00.000Z</time>
      </trkpt>
      <trkpt lat="43.44099" lon="2.16528">
        <ele>690.40002441406</ele>
        <time>2019-03-09T09:05:02.000Z</time>
      </trkpt>
      <trkpt lat="43.44093" lon="2.16519">
        <ele>690</ele>
        <time>2019-03-09T09:05:04.000Z</time>
      </trkpt>
      <trkpt lat="43.4409" lon="2.16514">
        <ele>689.59997558594</ele>
        <time>2019-03-09T09:05:05.000Z</time>
      </trkpt>
      <trkpt lat="43.44087" lon="2.1651">
        <ele>689.40002441406</ele>
        <time>2019-03-09T09:05:06.000Z</time>
      </trkpt>
      <trkpt lat="43.4408" lon="2.165">
        <ele>688.79998779297</ele>
        <time>2019-03-09T09:05:08.000Z</time>
      </trkpt>
      <trkpt lat="43.44076" lon="2.16493">
        <ele>688.40002441406</ele>
        <time>2019-03-09T09:05:09.000Z</time>
      </trkpt>
      <trkpt lat="43.44071" lon="2.16489">
        <ele>687.79998779297</ele>
        <time>2019-03-09T09:05:10.000Z</time>
      </trkpt>
      <trkpt lat="43.44067" lon="2.16485">
        <ele>687</ele>
        <time>2019-03-09T09:05:11.000Z</time>
      </trkpt>
      <trkpt lat="43.44054" lon="2.16478">
        <ele>685.20001220703</ele>
        <time>2019-03-09T09:05:13.000Z</time>
      </trkpt>
      <trkpt lat="43.44043" lon="2.16467">
        <ele>683.59997558594</ele>
        <time>2019-03-09T09:05:15.000Z</time>
      </trkpt>
      <trkpt lat="43.44031" lon="2.16459">
        <ele>681.79998779297</ele>
        <time>2019-03-09T09:05:17.000Z</time>
      </trkpt>
      <trkpt lat="43.4402" lon="2.16449">
        <ele>680.20001220703</ele>
        <time>2019-03-09T09:05:19.000Z</time>
      </trkpt>
      <trkpt lat="43.44008" lon="2.16438">
        <ele>679.20001220703</ele>
        <time>2019-03-09T09:05:21.000Z</time>
      </trkpt>
      <trkpt lat="43.44001" lon="2.16437">
        <ele>678.79998779297</ele>
        <time>2019-03-09T09:05:22.000Z</time>
      </trkpt>
      <trkpt lat="43.43994" lon="2.16433">
        <ele>678.40002441406</ele>
        <time>2019-03-09T09:05:23.000Z</time>
      </trkpt>
      <trkpt lat="43.43977" lon="2.16429">
        <ele>677.40002441406</ele>
        <time>2019-03-09T09:05:26.000Z</time>
      </trkpt>
      <trkpt lat="43.43973" lon="2.16429">
        <ele>677.20001220703</ele>
        <time>2019-03-09T09:05:27.000Z</time>
      </trkpt>
      <trkpt lat="43.43967" lon="2.16432">
        <ele>676.79998779297</ele>
        <time>2019-03-09T09:05:29.000Z</time>
      </trkpt>
      <trkpt lat="43.43961" lon="2.16436">
        <ele>676.40002441406</ele>
        <time>2019-03-09T09:05:30.000Z</time>
      </trkpt>
      <trkpt lat="43.4395" lon="2.16441">
        <ele>675.59997558594</ele>
        <time>2019-03-09T09:05:32.000Z</time>
      </trkpt>
      <trkpt lat="43.43939" lon="2.16447">
        <ele>675</ele>
        <time>2019-03-09T09:05:34.000Z</time>
      </trkpt>
      <trkpt lat="43.43933" lon="2.16449">
        <ele>674.59997558594</ele>
        <time>2019-03-09T09:05:35.000Z</time>
      </trkpt>
      <trkpt lat="43.43926" lon="2.16451">
        <ele>674.20001220703</ele>
        <time>2019-03-09T09:05:36.000Z</time>
      </trkpt>
      <trkpt lat="43.43908" lon="2.16454">
        <ele>673.59997558594</ele>
        <time>2019-03-09T09:05:39.000Z</time>
      </trkpt>
      <trkpt lat="43.43862" lon="2.16462">
        <ele>671.40002441406</ele>
        <time>2019-03-09T09:05:46.000Z</time>
      </trkpt>
      <trkpt lat="43.43853" lon="2.16465">
        <ele>670.79998779297</ele>
        <time>2019-03-09T09:05:47.000Z</time>
      </trkpt>
      <trkpt lat="43.4384" lon="2.16471">
        <ele>670.79998779297</ele>
        <time>2019-03-09T09:05:49.000Z</time>
      </trkpt>
      <trkpt lat="43.43834" lon="2.16473">
        <ele>671</ele>
        <time>2019-03-09T09:05:50.000Z</time>
      </trkpt>
      <trkpt lat="43.4381" lon="2.16486">
        <ele>668.59997558594</ele>
        <time>2019-03-09T09:05:53.000Z</time>
      </trkpt>
      <trkpt lat="43.43801" lon="2.1649">
        <ele>667.59997558594</ele>
        <time>2019-03-09T09:05:54.000Z</time>
      </trkpt>
      <trkpt lat="43.43791" lon="2.16495">
        <ele>666.59997558594</ele>
        <time>2019-03-09T09:05:55.000Z</time>
      </trkpt>
      <trkpt lat="43.43775" lon="2.16508">
        <ele>665.59997558594</ele>
        <time>2019-03-09T09:05:57.000Z</time>
      </trkpt>
      <trkpt lat="43.43768" lon="2.16515">
        <ele>665.40002441406</ele>
        <time>2019-03-09T09:05:58.000Z</time>
      </trkpt>
      <trkpt lat="43.43761" lon="2.16521">
        <ele>665.40002441406</ele>
        <time>2019-03-09T09:05:59.000Z</time>
      </trkpt>
      <trkpt lat="43.43754" lon="2.16526">
        <ele>665.40002441406</ele>
        <time>2019-03-09T09:06:00.000Z</time>
      </trkpt>
      <trkpt lat="43.43746" lon="2.1653">
        <ele>665.40002441406</ele>
        <time>2019-03-09T09:06:01.000Z</time>
      </trkpt>
      <trkpt lat="43.43739" lon="2.16534">
        <ele>665.40002441406</ele>
        <time>2019-03-09T09:06:02.000Z</time>
      </trkpt>
      <trkpt lat="43.43725" lon="2.16537">
        <ele>665.59997558594</ele>
        <time>2019-03-09T09:06:04.000Z</time>
      </trkpt>
      <trkpt lat="43.43718" lon="2.16537">
        <ele>665.40002441406</ele>
        <time>2019-03-09T09:06:05.000Z</time>
      </trkpt>
      <trkpt lat="43.43711" lon="2.16538">
        <ele>665.20001220703</ele>
        <time>2019-03-09T09:06:06.000Z</time>
      </trkpt>
      <trkpt lat="43.4369" lon="2.16542">
        <ele>664.59997558594</ele>
        <time>2019-03-09T09:06:09.000Z</time>
      </trkpt>
      <trkpt lat="43.43677" lon="2.16548">
        <ele>664.20001220703</ele>
        <time>2019-03-09T09:06:11.000Z</time>
      </trkpt>
      <trkpt lat="43.43644" lon="2.16566">
        <ele>662.79998779297</ele>
        <time>2019-03-09T09:06:16.000Z</time>
      </trkpt>
      <trkpt lat="43.4363" lon="2.16573">
        <ele>662.20001220703</ele>
        <time>2019-03-09T09:06:18.000Z</time>
      </trkpt>
      <trkpt lat="43.43607" lon="2.1658">
        <ele>661.20001220703</ele>
        <time>2019-03-09T09:06:22.000Z</time>
      </trkpt>
      <trkpt lat="43.43602" lon="2.16581">
        <ele>661</ele>
        <time>2019-03-09T09:06:23.000Z</time>
      </trkpt>
      <trkpt lat="43.43576" lon="2.16585">
        <ele>660.79998779297</ele>
        <time>2019-03-09T09:06:28.000Z</time>
      </trkpt>
      <trkpt lat="43.43552" lon="2.1659">
        <ele>660.59997558594</ele>
        <time>2019-03-09T09:06:33.000Z</time>
      </trkpt>
      <trkpt lat="43.43518" lon="2.16594">
        <ele>661</ele>
        <time>2019-03-09T09:06:39.000Z</time>
      </trkpt>
      <trkpt lat="43.43501" lon="2.16595">
        <ele>662.40002441406</ele>
        <time>2019-03-09T09:06:42.000Z</time>
      </trkpt>
      <trkpt lat="43.43488" lon="2.16592">
        <ele>663</ele>
        <time>2019-03-09T09:06:44.000Z</time>
      </trkpt>
      <trkpt lat="43.43464" lon="2.16585">
        <ele>663.59997558594</ele>
        <time>2019-03-09T09:06:48.000Z</time>
      </trkpt>
      <trkpt lat="43.43452" lon="2.16579">
        <ele>663.79998779297</ele>
        <time>2019-03-09T09:06:50.000Z</time>
      </trkpt>
      <trkpt lat="43.43432" lon="2.16562">
        <ele>663.40002441406</ele>
        <time>2019-03-09T09:06:54.000Z</time>
      </trkpt>
      <trkpt lat="43.43418" lon="2.16546">
        <ele>661.79998779297</ele>
        <time>2019-03-09T09:06:57.000Z</time>
      </trkpt>
      <trkpt lat="43.43407" lon="2.16537">
        <ele>660.79998779297</ele>
        <time>2019-03-09T09:06:59.000Z</time>
      </trkpt>
      <trkpt lat="43.43399" lon="2.16534">
        <ele>660.40002441406</ele>
        <time>2019-03-09T09:07:00.000Z</time>
      </trkpt>
      <trkpt lat="43.43386" lon="2.16533">
        <ele>660.20001220703</ele>
        <time>2019-03-09T09:07:02.000Z</time>
      </trkpt>
      <trkpt lat="43.43379" lon="2.16532">
        <ele>660</ele>
        <time>2019-03-09T09:07:03.000Z</time>
      </trkpt>
      <trkpt lat="43.43366" lon="2.16533">
        <ele>659.79998779297</ele>
        <time>2019-03-09T09:07:05.000Z</time>
      </trkpt>
      <trkpt lat="43.43352" lon="2.16533">
        <ele>659.79998779297</ele>
        <time>2019-03-09T09:07:07.000Z</time>
      </trkpt>
      <trkpt lat="43.43302" lon="2.1654">
        <ele>657.79998779297</ele>
        <time>2019-03-09T09:07:14.000Z</time>
      </trkpt>
      <trkpt lat="43.43262" lon="2.16545">
        <ele>653</ele>
        <time>2019-03-09T09:07:19.000Z</time>
      </trkpt>
      <trkpt lat="43.43228" lon="2.16542">
        <ele>653.40002441406</ele>
        <time>2019-03-09T09:07:23.000Z</time>
      </trkpt>
      <trkpt lat="43.43215" lon="2.16536">
        <ele>653.79998779297</ele>
        <time>2019-03-09T09:07:25.000Z</time>
      </trkpt>
      <trkpt lat="43.43201" lon="2.16534">
        <ele>654.20001220703</ele>
        <time>2019-03-09T09:07:27.000Z</time>
      </trkpt>
      <trkpt lat="43.43188" lon="2.16534">
        <ele>654.79998779297</ele>
        <time>2019-03-09T09:07:29.000Z</time>
      </trkpt>
      <trkpt lat="43.43182" lon="2.16533">
        <ele>655</ele>
        <time>2019-03-09T09:07:30.000Z</time>
      </trkpt>
      <trkpt lat="43.43172" lon="2.16533">
        <ele>655.59997558594</ele>
        <time>2019-03-09T09:07:32.000Z</time>
      </trkpt>
      <trkpt lat="43.43142" lon="2.16532">
        <ele>657.40002441406</ele>
        <time>2019-03-09T09:07:39.000Z</time>
      </trkpt>
      <trkpt lat="43.43124" lon="2.16533">
        <ele>658.79998779297</ele>
        <time>2019-03-09T09:07:45.000Z</time>
      </trkpt>
      <trkpt lat="43.43111" lon="2.16533">
        <ele>659.79998779297</ele>
        <time>2019-03-09T09:07:50.000Z</time>
      </trkpt>
      <trkpt lat="43.43098" lon="2.16537">
        <ele>661</ele>
        <time>2019-03-09T09:07:56.000Z</time>
      </trkpt>
      <trkpt lat="43.43096" lon="2.16537">
        <ele>661.20001220703</ele>
        <time>2019-03-09T09:07:57.000Z</time>
      </trkpt>
      <trkpt lat="43.43085" lon="2.16539">
        <ele>661.40002441406</ele>
        <time>2019-03-09T09:08:01.000Z</time>
      </trkpt>
      <trkpt lat="43.43083" lon="2.16539">
        <ele>661.59997558594</ele>
        <time>2019-03-09T09:08:02.000Z</time>
      </trkpt>
      <trkpt lat="43.43072" lon="2.16544">
        <ele>662</ele>
        <time>2019-03-09T09:08:07.000Z</time>
      </trkpt>
      <trkpt lat="43.43068" lon="2.16545">
        <ele>662.20001220703</ele>
        <time>2019-03-09T09:08:09.000Z</time>
      </trkpt>
      <trkpt lat="43.43061" lon="2.16546">
        <ele>662.40002441406</ele>
        <time>2019-03-09T09:08:13.000Z</time>
      </trkpt>
      <trkpt lat="43.43056" lon="2.16547">
        <ele>662.59997558594</ele>
        <time>2019-03-09T09:08:16.000Z</time>
      </trkpt>
      <trkpt lat="43.43055" lon="2.16546">
        <ele>662.59997558594</ele>
        <time>2019-03-09T09:08:17.000Z</time>
      </trkpt>
      <trkpt lat="43.43052" lon="2.16539">
        <ele>662.20001220703</ele>
        <time>2019-03-09T09:08:20.000Z</time>
      </trkpt>
      <trkpt lat="43.43054" lon="2.16523">
        <ele>661.40002441406</ele>
        <time>2019-03-09T09:08:25.000Z</time>
      </trkpt>
      <trkpt lat="43.43046" lon="2.1651">
        <ele>661</ele>
        <time>2019-03-09T09:08:29.000Z</time>
      </trkpt>
      <trkpt lat="43.43043" lon="2.16506">
        <ele>660.79998779297</ele>
        <time>2019-03-09T09:08:30.000Z</time>
      </trkpt>
      <trkpt lat="43.43032" lon="2.16485">
        <ele>659.59997558594</ele>
        <time>2019-03-09T09:08:34.000Z</time>
      </trkpt>
      <trkpt lat="43.43026" lon="2.16476">
        <ele>658.79998779297</ele>
        <time>2019-03-09T09:08:38.000Z</time>
      </trkpt>
      <trkpt lat="43.43026" lon="2.16477">
        <ele>659</ele>
        <time>2019-03-09T09:08:42.000Z</time>
      </trkpt>
      <trkpt lat="43.43024" lon="2.1648">
        <ele>659.20001220703</ele>
        <time>2019-03-09T09:08:44.000Z</time>
      </trkpt>
      <trkpt lat="43.43029" lon="2.1649">
        <ele>660.20001220703</ele>
        <time>2019-03-09T09:08:49.000Z</time>
      </trkpt>
      <trkpt lat="43.43034" lon="2.16498">
        <ele>660.79998779297</ele>
        <time>2019-03-09T09:08:55.000Z</time>
      </trkpt>
      <trkpt lat="43.43035" lon="2.16499">
        <ele>660.79998779297</ele>
        <time>2019-03-09T09:08:56.000Z</time>
      </trkpt>
      <trkpt lat="43.43036" lon="2.165">
        <ele>660.79998779297</ele>
        <time>2019-03-09T09:09:03.000Z</time>
      </trkpt>
      <trkpt lat="43.43035" lon="2.16501">
        <ele>660.79998779297</ele>
        <time>2019-03-09T09:09:08.000Z</time>
      </trkpt>
      <trkpt lat="43.43035" lon="2.16501">
        <ele>660.79998779297</ele>
        <time>2019-03-09T09:09:10.000Z</time>
      </trkpt>
      <trkpt lat="43.43035" lon="2.16501">
        <ele>660.79998779297</ele>
        <time>2019-03-09T09:09:19.000Z</time>
      </trkpt>
      <trkpt lat="43.43035" lon="2.16501">
        <ele>660.79998779297</ele>
        <time>2019-03-09T09:09:26.000Z</time>
      </trkpt>
      <trkpt lat="43.43035" lon="2.16501">
        <ele>660.79998779297</ele>
        <time>2019-03-09T09:09:41.000Z</time>
      </trkpt>
      <trkpt lat="43.43035" lon="2.16501">
        <ele>660.79998779297</ele>
        <time>2019-03-09T09:09:57.000Z</time>
      </trkpt>
      <trkpt lat="43.43035" lon="2.16501">
        <ele>660.79998779297</ele>
        <time>2019-03-09T09:10:16.000Z</time>
      </trkpt>
      <trkpt lat="43.43035" lon="2.16501">
        <ele>660.79998779297</ele>
        <time>2019-03-09T09:10:31.000Z</time>
      </trkpt>
      <trkpt lat="43.43035" lon="2.16501">
        <ele>660.79998779297</ele>
        <time>2019-03-09T09:10:34.000Z</time>
      </trkpt>
      <trkpt lat="43.43035" lon="2.16501">
        <ele>660.79998779297</ele>
        <time>2019-03-09T09:10:52.000Z</time>
      </trkpt>
      <trkpt lat="43.43036" lon="2.165">
        <ele>660.79998779297</ele>
        <time>2019-03-09T09:11:11.000Z</time>
      </trkpt>
      <trkpt lat="43.43036" lon="2.165">
        <ele>660.79998779297</ele>
        <time>2019-03-09T09:11:30.000Z</time>
      </trkpt>
      <trkpt lat="43.43035" lon="2.165">
        <ele>660.79998779297</ele>
        <time>2019-03-09T09:11:45.000Z</time>
      </trkpt>
      <trkpt lat="43.43035" lon="2.165">
        <ele>660.79998779297</ele>
        <time>2019-03-09T09:12:00.000Z</time>
      </trkpt>
      <trkpt lat="43.43035" lon="2.165">
        <ele>660.79998779297</ele>
        <time>2019-03-09T09:12:18.000Z</time>
      </trkpt>
      <trkpt lat="43.43035" lon="2.16501">
        <ele>660.79998779297</ele>
        <time>2019-03-09T09:12:36.000Z</time>
      </trkpt>
      <trkpt lat="43.43035" lon="2.16501">
        <ele>660.79998779297</ele>
        <time>2019-03-09T09:12:50.000Z</time>
      </trkpt>
      <trkpt lat="43.43036" lon="2.165">
        <ele>660.79998779297</ele>
        <time>2019-03-09T09:13:09.000Z</time>
      </trkpt>
      <trkpt lat="43.43036" lon="2.165">
        <ele>660.79998779297</ele>
        <time>2019-03-09T09:13:30.000Z</time>
      </trkpt>
      <trkpt lat="43.43035" lon="2.165">
        <ele>660.79998779297</ele>
        <time>2019-03-09T09:13:49.000Z</time>
      </trkpt>
      <trkpt lat="43.43035" lon="2.165">
        <ele>660.79998779297</ele>
        <time>2019-03-09T09:14:08.000Z</time>
      </trkpt>
      <trkpt lat="43.43036" lon="2.165">
        <ele>660.79998779297</ele>
        <time>2019-03-09T09:14:27.000Z</time>
      </trkpt>
      <trkpt lat="43.43036" lon="2.165">
        <ele>660.79998779297</ele>
        <time>2019-03-09T09:14:45.000Z</time>
      </trkpt>
      <trkpt lat="43.43036" lon="2.165">
        <ele>660.79998779297</ele>
        <time>2019-03-09T09:15:01.000Z</time>
      </trkpt>
      <trkpt lat="43.43036" lon="2.165">
        <ele>660.79998779297</ele>
        <time>2019-03-09T09:15:21.000Z</time>
      </trkpt>
      <trkpt lat="43.43036" lon="2.165">
        <ele>660.79998779297</ele>
        <time>2019-03-09T09:15:38.000Z</time>
      </trkpt>
      <trkpt lat="43.43036" lon="2.165">
        <ele>660.79998779297</ele>
        <time>2019-03-09T09:15:58.000Z</time>
      </trkpt>
      <trkpt lat="43.43036" lon="2.165">
        <ele>660.79998779297</ele>
        <time>2019-03-09T09:16:12.000Z</time>
      </trkpt>
      <trkpt lat="43.43036" lon="2.165">
        <ele>660.79998779297</ele>
        <time>2019-03-09T09:16:27.000Z</time>
      </trkpt>
      <trkpt lat="43.43036" lon="2.165">
        <ele>660.79998779297</ele>
        <time>2019-03-09T09:16:40.000Z</time>
      </trkpt>
      <trkpt lat="43.43036" lon="2.165">
        <ele>660.79998779297</ele>
        <time>2019-03-09T09:16:56.000Z</time>
      </trkpt>
      <trkpt lat="43.43037" lon="2.165">
        <ele>660.79998779297</ele>
        <time>2019-03-09T09:17:08.000Z</time>
      </trkpt>
      <trkpt lat="43.43037" lon="2.165">
        <ele>660.79998779297</ele>
        <time>2019-03-09T09:17:24.000Z</time>
      </trkpt>
      <trkpt lat="43.43034" lon="2.165">
        <ele>660.79998779297</ele>
        <time>2019-03-09T09:17:31.000Z</time>
      </trkpt>
      <trkpt lat="43.43033" lon="2.165">
        <ele>660.79998779297</ele>
        <time>2019-03-09T09:17:37.000Z</time>
      </trkpt>
      <trkpt lat="43.43033" lon="2.165">
        <ele>660.79998779297</ele>
        <time>2019-03-09T09:17:39.000Z</time>
      </trkpt>
      <trkpt lat="43.43033" lon="2.165">
        <ele>660.79998779297</ele>
        <time>2019-03-09T09:17:43.000Z</time>
      </trkpt>
      <trkpt lat="43.43033" lon="2.16499">
        <ele>660.79998779297</ele>
        <time>2019-03-09T09:17:44.000Z</time>
      </trkpt>
      <trkpt lat="43.43028" lon="2.16489">
        <ele>660.20001220703</ele>
        <time>2019-03-09T09:17:47.000Z</time>
      </trkpt>
      <trkpt lat="43.43026" lon="2.16484">
        <ele>659.59997558594</ele>
        <time>2019-03-09T09:17:48.000Z</time>
      </trkpt>
      <trkpt lat="43.43014" lon="2.16457">
        <ele>657</ele>
        <time>2019-03-09T09:17:51.000Z</time>
      </trkpt>
      <trkpt lat="43.42991" lon="2.16395">
        <ele>650.79998779297</ele>
        <time>2019-03-09T09:17:56.000Z</time>
      </trkpt>
      <trkpt lat="43.42987" lon="2.16383">
        <ele>649.20001220703</ele>
        <time>2019-03-09T09:17:57.000Z</time>
      </trkpt>
      <trkpt lat="43.42969" lon="2.16336">
        <ele>646.40002441406</ele>
        <time>2019-03-09T09:18:01.000Z</time>
      </trkpt>
      <trkpt lat="43.42964" lon="2.16325">
        <ele>645.79998779297</ele>
        <time>2019-03-09T09:18:02.000Z</time>
      </trkpt>
      <trkpt lat="43.42959" lon="2.16316">
        <ele>645</ele>
        <time>2019-03-09T09:18:03.000Z</time>
      </trkpt>
      <trkpt lat="43.42952" lon="2.16309">
        <ele>644.40002441406</ele>
        <time>2019-03-09T09:18:04.000Z</time>
      </trkpt>
      <trkpt lat="43.42945" lon="2.16304">
        <ele>643.59997558594</ele>
        <time>2019-03-09T09:18:05.000Z</time>
      </trkpt>
      <trkpt lat="43.42929" lon="2.16301">
        <ele>642.79998779297</ele>
        <time>2019-03-09T09:18:07.000Z</time>
      </trkpt>
      <trkpt lat="43.42922" lon="2.16299">
        <ele>642.79998779297</ele>
        <time>2019-03-09T09:18:08.000Z</time>
      </trkpt>
      <trkpt lat="43.42912" lon="2.16293">
        <ele>642.79998779297</ele>
        <time>2019-03-09T09:18:10.000Z</time>
      </trkpt>
      <trkpt lat="43.42909" lon="2.16291">
        <ele>642.79998779297</ele>
        <time>2019-03-09T09:18:11.000Z</time>
      </trkpt>
      <trkpt lat="43.42911" lon="2.16282">
        <ele>642.40002441406</ele>
        <time>2019-03-09T09:18:13.000Z</time>
      </trkpt>
      <trkpt lat="43.42913" lon="2.16278">
        <ele>642</ele>
        <time>2019-03-09T09:18:14.000Z</time>
      </trkpt>
      <trkpt lat="43.42916" lon="2.16269">
        <ele>641.59997558594</ele>
        <time>2019-03-09T09:18:16.000Z</time>
      </trkpt>
      <trkpt lat="43.42914" lon="2.16262">
        <ele>641.20001220703</ele>
        <time>2019-03-09T09:18:18.000Z</time>
      </trkpt>
      <trkpt lat="43.42912" lon="2.16258">
        <ele>641.20001220703</ele>
        <time>2019-03-09T09:18:19.000Z</time>
      </trkpt>
      <trkpt lat="43.42909" lon="2.16249">
        <ele>640.79998779297</ele>
        <time>2019-03-09T09:18:21.000Z</time>
      </trkpt>
      <trkpt lat="43.42904" lon="2.1624">
        <ele>641</ele>
        <time>2019-03-09T09:18:23.000Z</time>
      </trkpt>
      <trkpt lat="43.42901" lon="2.16237">
        <ele>641.20001220703</ele>
        <time>2019-03-09T09:18:24.000Z</time>
      </trkpt>
      <trkpt lat="43.42895" lon="2.16231">
        <ele>641.79998779297</ele>
        <time>2019-03-09T09:18:26.000Z</time>
      </trkpt>
      <trkpt lat="43.42886" lon="2.16226">
        <ele>642.40002441406</ele>
        <time>2019-03-09T09:18:29.000Z</time>
      </trkpt>
      <trkpt lat="43.42878" lon="2.16224">
        <ele>642.79998779297</ele>
        <time>2019-03-09T09:18:32.000Z</time>
      </trkpt>
      <trkpt lat="43.42872" lon="2.16221">
        <ele>643.20001220703</ele>
        <time>2019-03-09T09:18:34.000Z</time>
      </trkpt>
      <trkpt lat="43.42856" lon="2.16211">
        <ele>644.20001220703</ele>
        <time>2019-03-09T09:18:40.000Z</time>
      </trkpt>
      <trkpt lat="43.42853" lon="2.16209">
        <ele>644.40002441406</ele>
        <time>2019-03-09T09:18:41.000Z</time>
      </trkpt>
      <trkpt lat="43.42836" lon="2.16195">
        <ele>644.40002441406</ele>
        <time>2019-03-09T09:18:47.000Z</time>
      </trkpt>
      <trkpt lat="43.42812" lon="2.16175">
        <ele>644</ele>
        <time>2019-03-09T09:18:55.000Z</time>
      </trkpt>
      <trkpt lat="43.42797" lon="2.16158">
        <ele>644.20001220703</ele>
        <time>2019-03-09T09:19:02.000Z</time>
      </trkpt>
      <trkpt lat="43.42784" lon="2.16147">
        <ele>645.20001220703</ele>
        <time>2019-03-09T09:19:08.000Z</time>
      </trkpt>
      <trkpt lat="43.42766" lon="2.16133">
        <ele>646.79998779297</ele>
        <time>2019-03-09T09:19:15.000Z</time>
      </trkpt>
      <trkpt lat="43.42753" lon="2.16124">
        <ele>648.59997558594</ele>
        <time>2019-03-09T09:19:20.000Z</time>
      </trkpt>
      <trkpt lat="43.42732" lon="2.16112">
        <ele>651.40002441406</ele>
        <time>2019-03-09T09:19:27.000Z</time>
      </trkpt>
      <trkpt lat="43.42719" lon="2.16107">
        <ele>652.59997558594</ele>
        <time>2019-03-09T09:19:32.000Z</time>
      </trkpt>
      <trkpt lat="43.42711" lon="2.16104">
        <ele>653.20001220703</ele>
        <time>2019-03-09T09:19:35.000Z</time>
      </trkpt>
      <trkpt lat="43.42697" lon="2.16098">
        <ele>654.59997558594</ele>
        <time>2019-03-09T09:19:41.000Z</time>
      </trkpt>
      <trkpt lat="43.42688" lon="2.16089">
        <ele>656.59997558594</ele>
        <time>2019-03-09T09:19:46.000Z</time>
      </trkpt>
      <trkpt lat="43.42672" lon="2.1608">
        <ele>658.40002441406</ele>
        <time>2019-03-09T09:19:53.000Z</time>
      </trkpt>
      <trkpt lat="43.42659" lon="2.16075">
        <ele>659.20001220703</ele>
        <time>2019-03-09T09:20:00.000Z</time>
      </trkpt>
      <trkpt lat="43.42647" lon="2.1607">
        <ele>659.79998779297</ele>
        <time>2019-03-09T09:20:07.000Z</time>
      </trkpt>
      <trkpt lat="43.42643" lon="2.16069">
        <ele>660</ele>
        <time>2019-03-09T09:20:09.000Z</time>
      </trkpt>
      <trkpt lat="43.42635" lon="2.16063">
        <ele>660.59997558594</ele>
        <time>2019-03-09T09:20:14.000Z</time>
      </trkpt>
      <trkpt lat="43.42633" lon="2.16062">
        <ele>660.79998779297</ele>
        <time>2019-03-09T09:20:15.000Z</time>
      </trkpt>
      <trkpt lat="43.42627" lon="2.16058">
        <ele>661.40002441406</ele>
        <time>2019-03-09T09:20:19.000Z</time>
      </trkpt>
      <trkpt lat="43.42623" lon="2.16055">
        <ele>661.79998779297</ele>
        <time>2019-03-09T09:20:21.000Z</time>
      </trkpt>
      <trkpt lat="43.42613" lon="2.16048">
        <ele>662.79998779297</ele>
        <time>2019-03-09T09:20:26.000Z</time>
      </trkpt>
      <trkpt lat="43.42609" lon="2.16045">
        <ele>663.20001220703</ele>
        <time>2019-03-09T09:20:29.000Z</time>
      </trkpt>
      <trkpt lat="43.42604" lon="2.16041">
        <ele>663.79998779297</ele>
        <time>2019-03-09T09:20:32.000Z</time>
      </trkpt>
      <trkpt lat="43.42594" lon="2.16037">
        <ele>663.79998779297</ele>
        <time>2019-03-09T09:20:38.000Z</time>
      </trkpt>
      <trkpt lat="43.42584" lon="2.16033">
        <ele>663.40002441406</ele>
        <time>2019-03-09T09:20:44.000Z</time>
      </trkpt>
      <trkpt lat="43.42583" lon="2.16032">
        <ele>663.40002441406</ele>
        <time>2019-03-09T09:20:45.000Z</time>
      </trkpt>
      <trkpt lat="43.42577" lon="2.16028">
        <ele>663.40002441406</ele>
        <time>2019-03-09T09:20:49.000Z</time>
      </trkpt>
      <trkpt lat="43.42573" lon="2.16027">
        <ele>663.20001220703</ele>
        <time>2019-03-09T09:20:51.000Z</time>
      </trkpt>
      <trkpt lat="43.42569" lon="2.16024">
        <ele>663.20001220703</ele>
        <time>2019-03-09T09:20:54.000Z</time>
      </trkpt>
      <trkpt lat="43.42563" lon="2.16019">
        <ele>663.40002441406</ele>
        <time>2019-03-09T09:20:58.000Z</time>
      </trkpt>
      <trkpt lat="43.42559" lon="2.16015">
        <ele>663.40002441406</ele>
        <time>2019-03-09T09:21:00.000Z</time>
      </trkpt>
      <trkpt lat="43.42553" lon="2.16009">
        <ele>663.79998779297</ele>
        <time>2019-03-09T09:21:03.000Z</time>
      </trkpt>
      <trkpt lat="43.42548" lon="2.15993">
        <ele>665.59997558594</ele>
        <time>2019-03-09T09:21:07.000Z</time>
      </trkpt>
      <trkpt lat="43.42547" lon="2.15989">
        <ele>665.79998779297</ele>
        <time>2019-03-09T09:21:08.000Z</time>
      </trkpt>
      <trkpt lat="43.42545" lon="2.15974">
        <ele>667</ele>
        <time>2019-03-09T09:21:12.000Z</time>
      </trkpt>
      <trkpt lat="43.42546" lon="2.1596">
        <ele>668.20001220703</ele>
        <time>2019-03-09T09:21:15.000Z</time>
      </trkpt>
      <trkpt lat="43.42546" lon="2.15949">
        <ele>669.20001220703</ele>
        <time>2019-03-09T09:21:17.000Z</time>
      </trkpt>
      <trkpt lat="43.42543" lon="2.15919">
        <ele>671</ele>
        <time>2019-03-09T09:21:23.000Z</time>
      </trkpt>
      <trkpt lat="43.42542" lon="2.15914">
        <ele>671.40002441406</ele>
        <time>2019-03-09T09:21:24.000Z</time>
      </trkpt>
      <trkpt lat="43.42535" lon="2.1589">
        <ele>672.40002441406</ele>
        <time>2019-03-09T09:21:29.000Z</time>
      </trkpt>
      <trkpt lat="43.42532" lon="2.15872">
        <ele>673.40002441406</ele>
        <time>2019-03-09T09:21:32.000Z</time>
      </trkpt>
      <trkpt lat="43.42529" lon="2.15861">
        <ele>674</ele>
        <time>2019-03-09T09:21:34.000Z</time>
      </trkpt>
      <trkpt lat="43.42521" lon="2.15838">
        <ele>674.79998779297</ele>
        <time>2019-03-09T09:21:39.000Z</time>
      </trkpt>
      <trkpt lat="43.42519" lon="2.15834">
        <ele>674.79998779297</ele>
        <time>2019-03-09T09:21:40.000Z</time>
      </trkpt>
      <trkpt lat="43.42505" lon="2.15806">
        <ele>677</ele>
        <time>2019-03-09T09:21:47.000Z</time>
      </trkpt>
      <trkpt lat="43.42503" lon="2.15801">
        <ele>677.40002441406</ele>
        <time>2019-03-09T09:21:48.000Z</time>
      </trkpt>
      <trkpt lat="43.42494" lon="2.1577">
        <ele>679.79998779297</ele>
        <time>2019-03-09T09:21:54.000Z</time>
      </trkpt>
      <trkpt lat="43.42495" lon="2.15763">
        <ele>680.20001220703</ele>
        <time>2019-03-09T09:21:56.000Z</time>
      </trkpt>
      <trkpt lat="43.42496" lon="2.15756">
        <ele>680.40002441406</ele>
        <time>2019-03-09T09:21:58.000Z</time>
      </trkpt>
      <trkpt lat="43.425" lon="2.15735">
        <ele>681.40002441406</ele>
        <time>2019-03-09T09:22:05.000Z</time>
      </trkpt>
      <trkpt lat="43.42502" lon="2.15726">
        <ele>681.59997558594</ele>
        <time>2019-03-09T09:22:08.000Z</time>
      </trkpt>
      <trkpt lat="43.42504" lon="2.15715">
        <ele>681.79998779297</ele>
        <time>2019-03-09T09:22:11.000Z</time>
      </trkpt>
      <trkpt lat="43.42507" lon="2.15697">
        <ele>682.40002441406</ele>
        <time>2019-03-09T09:22:16.000Z</time>
      </trkpt>
      <trkpt lat="43.42507" lon="2.15693">
        <ele>682.40002441406</ele>
        <time>2019-03-09T09:22:17.000Z</time>
      </trkpt>
      <trkpt lat="43.42503" lon="2.1567">
        <ele>683.59997558594</ele>
        <time>2019-03-09T09:22:23.000Z</time>
      </trkpt>
      <trkpt lat="43.42495" lon="2.15664">
        <ele>684.40002441406</ele>
        <time>2019-03-09T09:22:27.000Z</time>
      </trkpt>
      <trkpt lat="43.4248" lon="2.1566">
        <ele>685.59997558594</ele>
        <time>2019-03-09T09:22:33.000Z</time>
      </trkpt>
      <trkpt lat="43.42471" lon="2.15651">
        <ele>686</ele>
        <time>2019-03-09T09:22:38.000Z</time>
      </trkpt>
      <trkpt lat="43.4247" lon="2.15649">
        <ele>686</ele>
        <time>2019-03-09T09:22:39.000Z</time>
      </trkpt>
      <trkpt lat="43.42468" lon="2.15643">
        <ele>686</ele>
        <time>2019-03-09T09:22:43.000Z</time>
      </trkpt>
      <trkpt lat="43.42473" lon="2.15634">
        <ele>685.40002441406</ele>
        <time>2019-03-09T09:22:48.000Z</time>
      </trkpt>
      <trkpt lat="43.42475" lon="2.15631">
        <ele>685.20001220703</ele>
        <time>2019-03-09T09:22:49.000Z</time>
      </trkpt>
      <trkpt lat="43.4248" lon="2.15623">
        <ele>684.79998779297</ele>
        <time>2019-03-09T09:22:52.000Z</time>
      </trkpt>
      <trkpt lat="43.42491" lon="2.15603">
        <ele>685.40002441406</ele>
        <time>2019-03-09T09:22:58.000Z</time>
      </trkpt>
      <trkpt lat="43.42495" lon="2.15595">
        <ele>685.59997558594</ele>
        <time>2019-03-09T09:23:01.000Z</time>
      </trkpt>
      <trkpt lat="43.42494" lon="2.15592">
        <ele>685.79998779297</ele>
        <time>2019-03-09T09:23:02.000Z</time>
      </trkpt>
      <trkpt lat="43.42493" lon="2.15589">
        <ele>685.79998779297</ele>
        <time>2019-03-09T09:23:03.000Z</time>
      </trkpt>
      <trkpt lat="43.42478" lon="2.1557">
        <ele>686.20001220703</ele>
        <time>2019-03-09T09:23:08.000Z</time>
      </trkpt>
      <trkpt lat="43.42462" lon="2.1555">
        <ele>685.59997558594</ele>
        <time>2019-03-09T09:23:12.000Z</time>
      </trkpt>
      <trkpt lat="43.42458" lon="2.15545">
        <ele>685.59997558594</ele>
        <time>2019-03-09T09:23:13.000Z</time>
      </trkpt>
      <trkpt lat="43.42428" lon="2.15508">
        <ele>684.40002441406</ele>
        <time>2019-03-09T09:23:19.000Z</time>
      </trkpt>
      <trkpt lat="43.42402" lon="2.15484">
        <ele>682.59997558594</ele>
        <time>2019-03-09T09:23:24.000Z</time>
      </trkpt>
      <trkpt lat="43.42387" lon="2.15473">
        <ele>681.79998779297</ele>
        <time>2019-03-09T09:23:28.000Z</time>
      </trkpt>
      <trkpt lat="43.42384" lon="2.15472">
        <ele>681.59997558594</ele>
        <time>2019-03-09T09:23:30.000Z</time>
      </trkpt>
      <trkpt lat="43.42384" lon="2.15473">
        <ele>681.59997558594</ele>
        <time>2019-03-09T09:23:31.000Z</time>
      </trkpt>
      <trkpt lat="43.42384" lon="2.15474">
        <ele>681.59997558594</ele>
        <time>2019-03-09T09:23:33.000Z</time>
      </trkpt>
      <trkpt lat="43.42386" lon="2.15475">
        <ele>681.79998779297</ele>
        <time>2019-03-09T09:23:35.000Z</time>
      </trkpt>
      <trkpt lat="43.42396" lon="2.15481">
        <ele>682.20001220703</ele>
        <time>2019-03-09T09:23:40.000Z</time>
      </trkpt>
      <trkpt lat="43.42414" lon="2.15495">
        <ele>683.20001220703</ele>
        <time>2019-03-09T09:23:46.000Z</time>
      </trkpt>
      <trkpt lat="43.42429" lon="2.15511">
        <ele>684.40002441406</ele>
        <time>2019-03-09T09:23:51.000Z</time>
      </trkpt>
      <trkpt lat="43.42443" lon="2.15527">
        <ele>685</ele>
        <time>2019-03-09T09:23:56.000Z</time>
      </trkpt>
      <trkpt lat="43.42448" lon="2.15533">
        <ele>685.20001220703</ele>
        <time>2019-03-09T09:23:58.000Z</time>
      </trkpt>
      <trkpt lat="43.42456" lon="2.15543">
        <ele>685.40002441406</ele>
        <time>2019-03-09T09:24:02.000Z</time>
      </trkpt>
      <trkpt lat="43.42469" lon="2.15552">
        <ele>685.59997558594</ele>
        <time>2019-03-09T09:24:07.000Z</time>
      </trkpt>
      <trkpt lat="43.42471" lon="2.15554">
        <ele>685.59997558594</ele>
        <time>2019-03-09T09:24:08.000Z</time>
      </trkpt>
      <trkpt lat="43.42474" lon="2.15557">
        <ele>685.79998779297</ele>
        <time>2019-03-09T09:24:10.000Z</time>
      </trkpt>
      <trkpt lat="43.42486" lon="2.15564">
        <ele>685.79998779297</ele>
        <time>2019-03-09T09:24:13.000Z</time>
      </trkpt>
      <trkpt lat="43.42491" lon="2.15565">
        <ele>685.79998779297</ele>
        <time>2019-03-09T09:24:14.000Z</time>
      </trkpt>
      <trkpt lat="43.42495" lon="2.15564">
        <ele>685.79998779297</ele>
        <time>2019-03-09T09:24:15.000Z</time>
      </trkpt>
      <trkpt lat="43.425" lon="2.15563">
        <ele>685.59997558594</ele>
        <time>2019-03-09T09:24:17.000Z</time>
      </trkpt>
      <trkpt lat="43.42506" lon="2.15555">
        <ele>686</ele>
        <time>2019-03-09T09:24:20.000Z</time>
      </trkpt>
      <trkpt lat="43.4251" lon="2.15546">
        <ele>686.40002441406</ele>
        <time>2019-03-09T09:24:23.000Z</time>
      </trkpt>
      <trkpt lat="43.42515" lon="2.15525">
        <ele>687.20001220703</ele>
        <time>2019-03-09T09:24:30.000Z</time>
      </trkpt>
      <trkpt lat="43.42519" lon="2.15513">
        <ele>687.59997558594</ele>
        <time>2019-03-09T09:24:33.000Z</time>
      </trkpt>
      <trkpt lat="43.42527" lon="2.15504">
        <ele>688.20001220703</ele>
        <time>2019-03-09T09:24:35.000Z</time>
      </trkpt>
      <trkpt lat="43.4254" lon="2.15501">
        <ele>689.59997558594</ele>
        <time>2019-03-09T09:24:36.000Z</time>
      </trkpt>
      <trkpt lat="43.42548" lon="2.15492">
        <ele>690.79998779297</ele>
        <time>2019-03-09T09:24:39.000Z</time>
      </trkpt>
      <trkpt lat="43.42548" lon="2.15488">
        <ele>691.20001220703</ele>
        <time>2019-03-09T09:24:40.000Z</time>
      </trkpt>
      <trkpt lat="43.42554" lon="2.15463">
        <ele>693.79998779297</ele>
        <time>2019-03-09T09:24:45.000Z</time>
      </trkpt>
      <trkpt lat="43.42553" lon="2.1546">
        <ele>694</ele>
        <time>2019-03-09T09:24:46.000Z</time>
      </trkpt>
      <trkpt lat="43.42542" lon="2.15428">
        <ele>695.20001220703</ele>
        <time>2019-03-09T09:24:53.000Z</time>
      </trkpt>
      <trkpt lat="43.42541" lon="2.15425">
        <ele>695.20001220703</ele>
        <time>2019-03-09T09:24:54.000Z</time>
      </trkpt>
      <trkpt lat="43.42539" lon="2.15422">
        <ele>695.40002441406</ele>
        <time>2019-03-09T09:24:57.000Z</time>
      </trkpt>
      <trkpt lat="43.42536" lon="2.15416">
        <ele>695.40002441406</ele>
        <time>2019-03-09T09:25:03.000Z</time>
      </trkpt>
      <trkpt lat="43.42536" lon="2.15416">
        <ele>695.40002441406</ele>
        <time>2019-03-09T09:25:06.000Z</time>
      </trkpt>
      <trkpt lat="43.42535" lon="2.15413">
        <ele>695.40002441406</ele>
        <time>2019-03-09T09:25:15.000Z</time>
      </trkpt>
      <trkpt lat="43.42534" lon="2.15411">
        <ele>695.40002441406</ele>
        <time>2019-03-09T09:25:21.000Z</time>
      </trkpt>
      <trkpt lat="43.42532" lon="2.15406">
        <ele>696</ele>
        <time>2019-03-09T09:25:26.000Z</time>
      </trkpt>
      <trkpt lat="43.4253" lon="2.15404">
        <ele>696</ele>
        <time>2019-03-09T09:25:29.000Z</time>
      </trkpt>
      <trkpt lat="43.42526" lon="2.15404">
        <ele>696</ele>
        <time>2019-03-09T09:25:32.000Z</time>
      </trkpt>
      <trkpt lat="43.42523" lon="2.15403">
        <ele>696</ele>
        <time>2019-03-09T09:25:33.000Z</time>
      </trkpt>
      <trkpt lat="43.42519" lon="2.15396">
        <ele>696.59997558594</ele>
        <time>2019-03-09T09:25:36.000Z</time>
      </trkpt>
      <trkpt lat="43.42512" lon="2.15386">
        <ele>697.40002441406</ele>
        <time>2019-03-09T09:25:41.000Z</time>
      </trkpt>
      <trkpt lat="43.42505" lon="2.15376">
        <ele>697.79998779297</ele>
        <time>2019-03-09T09:25:46.000Z</time>
      </trkpt>
      <trkpt lat="43.42503" lon="2.15374">
        <ele>698</ele>
        <time>2019-03-09T09:25:47.000Z</time>
      </trkpt>
      <trkpt lat="43.42496" lon="2.15367">
        <ele>698</ele>
        <time>2019-03-09T09:25:52.000Z</time>
      </trkpt>
      <trkpt lat="43.42487" lon="2.15357">
        <ele>698.40002441406</ele>
        <time>2019-03-09T09:25:59.000Z</time>
      </trkpt>
      <trkpt lat="43.42483" lon="2.15351">
        <ele>698.79998779297</ele>
        <time>2019-03-09T09:26:04.000Z</time>
      </trkpt>
      <trkpt lat="43.42481" lon="2.15348">
        <ele>699</ele>
        <time>2019-03-09T09:26:06.000Z</time>
      </trkpt>
      <trkpt lat="43.42478" lon="2.15345">
        <ele>699</ele>
        <time>2019-03-09T09:26:09.000Z</time>
      </trkpt>
      <trkpt lat="43.42475" lon="2.15342">
        <ele>699.20001220703</ele>
        <time>2019-03-09T09:26:11.000Z</time>
      </trkpt>
      <trkpt lat="43.42475" lon="2.1534">
        <ele>699.20001220703</ele>
        <time>2019-03-09T09:26:12.000Z</time>
      </trkpt>
      <trkpt lat="43.42474" lon="2.15335">
        <ele>699.79998779297</ele>
        <time>2019-03-09T09:26:15.000Z</time>
      </trkpt>
      <trkpt lat="43.42473" lon="2.15329">
        <ele>700.20001220703</ele>
        <time>2019-03-09T09:26:17.000Z</time>
      </trkpt>
      <trkpt lat="43.4247" lon="2.15316">
        <ele>700.40002441406</ele>
        <time>2019-03-09T09:26:22.000Z</time>
      </trkpt>
      <trkpt lat="43.42464" lon="2.15304">
        <ele>700.20001220703</ele>
        <time>2019-03-09T09:26:28.000Z</time>
      </trkpt>
      <trkpt lat="43.4246" lon="2.15288">
        <ele>700.20001220703</ele>
        <time>2019-03-09T09:26:35.000Z</time>
      </trkpt>
      <trkpt lat="43.42459" lon="2.15267">
        <ele>700.79998779297</ele>
        <time>2019-03-09T09:26:42.000Z</time>
      </trkpt>
      <trkpt lat="43.42464" lon="2.1525">
        <ele>702.20001220703</ele>
        <time>2019-03-09T09:26:49.000Z</time>
      </trkpt>
      <trkpt lat="43.42473" lon="2.15238">
        <ele>703.40002441406</ele>
        <time>2019-03-09T09:26:56.000Z</time>
      </trkpt>
      <trkpt lat="43.42483" lon="2.15221">
        <ele>704.79998779297</ele>
        <time>2019-03-09T09:27:04.000Z</time>
      </trkpt>
      <trkpt lat="43.42491" lon="2.152">
        <ele>705.79998779297</ele>
        <time>2019-03-09T09:27:12.000Z</time>
      </trkpt>
      <trkpt lat="43.42496" lon="2.15189">
        <ele>706.59997558594</ele>
        <time>2019-03-09T09:27:17.000Z</time>
      </trkpt>
      <trkpt lat="43.425" lon="2.15186">
        <ele>707</ele>
        <time>2019-03-09T09:27:19.000Z</time>
      </trkpt>
      <trkpt lat="43.42503" lon="2.15183">
        <ele>707.40002441406</ele>
        <time>2019-03-09T09:27:21.000Z</time>
      </trkpt>
      <trkpt lat="43.42507" lon="2.15179">
        <ele>707.79998779297</ele>
        <time>2019-03-09T09:27:23.000Z</time>
      </trkpt>
      <trkpt lat="43.42513" lon="2.15173">
        <ele>708.59997558594</ele>
        <time>2019-03-09T09:27:26.000Z</time>
      </trkpt>
      <trkpt lat="43.42515" lon="2.1517">
        <ele>708.79998779297</ele>
        <time>2019-03-09T09:27:27.000Z</time>
      </trkpt>
      <trkpt lat="43.42524" lon="2.15158">
        <ele>709.40002441406</ele>
        <time>2019-03-09T09:27:32.000Z</time>
      </trkpt>
      <trkpt lat="43.4254" lon="2.15142">
        <ele>710</ele>
        <time>2019-03-09T09:27:39.000Z</time>
      </trkpt>
      <trkpt lat="43.42549" lon="2.15128">
        <ele>710.20001220703</ele>
        <time>2019-03-09T09:27:44.000Z</time>
      </trkpt>
      <trkpt lat="43.42555" lon="2.15124">
        <ele>710.40002441406</ele>
        <time>2019-03-09T09:27:46.000Z</time>
      </trkpt>
      <trkpt lat="43.42562" lon="2.15117">
        <ele>710.79998779297</ele>
        <time>2019-03-09T09:27:49.000Z</time>
      </trkpt>
      <trkpt lat="43.42569" lon="2.15111">
        <ele>711</ele>
        <time>2019-03-09T09:27:53.000Z</time>
      </trkpt>
      <trkpt lat="43.42571" lon="2.15109">
        <ele>711.20001220703</ele>
        <time>2019-03-09T09:27:54.000Z</time>
      </trkpt>
      <trkpt lat="43.42583" lon="2.15101">
        <ele>711.59997558594</ele>
        <time>2019-03-09T09:27:59.000Z</time>
      </trkpt>
      <trkpt lat="43.42593" lon="2.15098">
        <ele>712.20001220703</ele>
        <time>2019-03-09T09:28:03.000Z</time>
      </trkpt>
      <trkpt lat="43.42595" lon="2.15096">
        <ele>712.20001220703</ele>
        <time>2019-03-09T09:28:04.000Z</time>
      </trkpt>
      <trkpt lat="43.42609" lon="2.15089">
        <ele>712.79998779297</ele>
        <time>2019-03-09T09:28:10.000Z</time>
      </trkpt>
      <trkpt lat="43.42629" lon="2.15077">
        <ele>713.40002441406</ele>
        <time>2019-03-09T09:28:16.000Z</time>
      </trkpt>
      <trkpt lat="43.42643" lon="2.15071">
        <ele>714</ele>
        <time>2019-03-09T09:28:21.000Z</time>
      </trkpt>
      <trkpt lat="43.4266" lon="2.15061">
        <ele>714.40002441406</ele>
        <time>2019-03-09T09:28:26.000Z</time>
      </trkpt>
      <trkpt lat="43.42679" lon="2.15053">
        <ele>714.40002441406</ele>
        <time>2019-03-09T09:28:31.000Z</time>
      </trkpt>
      <trkpt lat="43.42698" lon="2.15042">
        <ele>714.40002441406</ele>
        <time>2019-03-09T09:28:36.000Z</time>
      </trkpt>
      <trkpt lat="43.42714" lon="2.15034">
        <ele>714.59997558594</ele>
        <time>2019-03-09T09:28:41.000Z</time>
      </trkpt>
      <trkpt lat="43.42717" lon="2.15031">
        <ele>714.40002441406</ele>
        <time>2019-03-09T09:28:42.000Z</time>
      </trkpt>
      <trkpt lat="43.4272" lon="2.15028">
        <ele>714.40002441406</ele>
        <time>2019-03-09T09:28:44.000Z</time>
      </trkpt>
      <trkpt lat="43.42727" lon="2.15023">
        <ele>714.20001220703</ele>
        <time>2019-03-09T09:28:47.000Z</time>
      </trkpt>
      <trkpt lat="43.4273" lon="2.1502">
        <ele>714</ele>
        <time>2019-03-09T09:28:48.000Z</time>
      </trkpt>
      <trkpt lat="43.42741" lon="2.15017">
        <ele>714</ele>
        <time>2019-03-09T09:28:52.000Z</time>
      </trkpt>
      <trkpt lat="43.42748" lon="2.15022">
        <ele>714.59997558594</ele>
        <time>2019-03-09T09:28:58.000Z</time>
      </trkpt>
      <trkpt lat="43.4275" lon="2.15016">
        <ele>714.20001220703</ele>
        <time>2019-03-09T09:29:03.000Z</time>
      </trkpt>
      <trkpt lat="43.4275" lon="2.15009">
        <ele>713.79998779297</ele>
        <time>2019-03-09T09:29:05.000Z</time>
      </trkpt>
      <trkpt lat="43.42748" lon="2.15005">
        <ele>713.40002441406</ele>
        <time>2019-03-09T09:29:06.000Z</time>
      </trkpt>
      <trkpt lat="43.42746" lon="2.15001">
        <ele>713</ele>
        <time>2019-03-09T09:29:07.000Z</time>
      </trkpt>
      <trkpt lat="43.4274" lon="2.14984">
        <ele>711.59997558594</ele>
        <time>2019-03-09T09:29:10.000Z</time>
      </trkpt>
      <trkpt lat="43.42738" lon="2.14977">
        <ele>711</ele>
        <time>2019-03-09T09:29:11.000Z</time>
      </trkpt>
      <trkpt lat="43.42729" lon="2.14951">
        <ele>708.79998779297</ele>
        <time>2019-03-09T09:29:15.000Z</time>
      </trkpt>
      <trkpt lat="43.4272" lon="2.14932">
        <ele>707.20001220703</ele>
        <time>2019-03-09T09:29:18.000Z</time>
      </trkpt>
      <trkpt lat="43.42718" lon="2.14927">
        <ele>707</ele>
        <time>2019-03-09T09:29:19.000Z</time>
      </trkpt>
      <trkpt lat="43.42712" lon="2.14918">
        <ele>706.20001220703</ele>
        <time>2019-03-09T09:29:21.000Z</time>
      </trkpt>
      <trkpt lat="43.42701" lon="2.14906">
        <ele>705</ele>
        <time>2019-03-09T09:29:24.000Z</time>
      </trkpt>
      <trkpt lat="43.42693" lon="2.14901">
        <ele>704.59997558594</ele>
        <time>2019-03-09T09:29:26.000Z</time>
      </trkpt>
      <trkpt lat="43.42681" lon="2.1489">
        <ele>703.59997558594</ele>
        <time>2019-03-09T09:29:29.000Z</time>
      </trkpt>
      <trkpt lat="43.42663" lon="2.14877">
        <ele>701.59997558594</ele>
        <time>2019-03-09T09:29:33.000Z</time>
      </trkpt>
      <trkpt lat="43.42655" lon="2.14872">
        <ele>700.59997558594</ele>
        <time>2019-03-09T09:29:35.000Z</time>
      </trkpt>
      <trkpt lat="43.4264" lon="2.14863">
        <ele>698.79998779297</ele>
        <time>2019-03-09T09:29:38.000Z</time>
      </trkpt>
      <trkpt lat="43.4263" lon="2.14855">
        <ele>697.79998779297</ele>
        <time>2019-03-09T09:29:40.000Z</time>
      </trkpt>
      <trkpt lat="43.42613" lon="2.1484">
        <ele>695.59997558594</ele>
        <time>2019-03-09T09:29:43.000Z</time>
      </trkpt>
      <trkpt lat="43.42607" lon="2.14836">
        <ele>695</ele>
        <time>2019-03-09T09:29:44.000Z</time>
      </trkpt>
      <trkpt lat="43.42593" lon="2.14828">
        <ele>693.40002441406</ele>
        <time>2019-03-09T09:29:46.000Z</time>
      </trkpt>
      <trkpt lat="43.42574" lon="2.14815">
        <ele>693.20001220703</ele>
        <time>2019-03-09T09:29:49.000Z</time>
      </trkpt>
      <trkpt lat="43.42563" lon="2.1481">
        <ele>692.79998779297</ele>
        <time>2019-03-09T09:29:51.000Z</time>
      </trkpt>
      <trkpt lat="43.42552" lon="2.14806">
        <ele>692.20001220703</ele>
        <time>2019-03-09T09:29:53.000Z</time>
      </trkpt>
      <trkpt lat="43.42537" lon="2.14812">
        <ele>690</ele>
        <time>2019-03-09T09:29:56.000Z</time>
      </trkpt>
      <trkpt lat="43.42533" lon="2.14814">
        <ele>689.20001220703</ele>
        <time>2019-03-09T09:29:57.000Z</time>
      </trkpt>
      <trkpt lat="43.42504" lon="2.14828">
        <ele>685.40002441406</ele>
        <time>2019-03-09T09:30:02.000Z</time>
      </trkpt>
      <trkpt lat="43.42499" lon="2.14827">
        <ele>685.20001220703</ele>
        <time>2019-03-09T09:30:03.000Z</time>
      </trkpt>
      <trkpt lat="43.42489" lon="2.14828">
        <ele>684.40002441406</ele>
        <time>2019-03-09T09:30:05.000Z</time>
      </trkpt>
      <trkpt lat="43.42466" lon="2.14832">
        <ele>683.40002441406</ele>
        <time>2019-03-09T09:30:10.000Z</time>
      </trkpt>
      <trkpt lat="43.42461" lon="2.14835">
        <ele>683.40002441406</ele>
        <time>2019-03-09T09:30:11.000Z</time>
      </trkpt>
      <trkpt lat="43.42453" lon="2.14841">
        <ele>683.40002441406</ele>
        <time>2019-03-09T09:30:13.000Z</time>
      </trkpt>
      <trkpt lat="43.4244" lon="2.14847">
        <ele>682.79998779297</ele>
        <time>2019-03-09T09:30:16.000Z</time>
      </trkpt>
      <trkpt lat="43.42419" lon="2.14853">
        <ele>681.20001220703</ele>
        <time>2019-03-09T09:30:20.000Z</time>
      </trkpt>
      <trkpt lat="43.42393" lon="2.1485">
        <ele>679.20001220703</ele>
        <time>2019-03-09T09:30:25.000Z</time>
      </trkpt>
      <trkpt lat="43.42376" lon="2.14845">
        <ele>677.79998779297</ele>
        <time>2019-03-09T09:30:28.000Z</time>
      </trkpt>
      <trkpt lat="43.4237" lon="2.14845">
        <ele>677.40002441406</ele>
        <time>2019-03-09T09:30:29.000Z</time>
      </trkpt>
      <trkpt lat="43.42355" lon="2.14854">
        <ele>676.20001220703</ele>
        <time>2019-03-09T09:30:32.000Z</time>
      </trkpt>
      <trkpt lat="43.42345" lon="2.14855">
        <ele>675.20001220703</ele>
        <time>2019-03-09T09:30:34.000Z</time>
      </trkpt>
      <trkpt lat="43.4234" lon="2.14851">
        <ele>674.79998779297</ele>
        <time>2019-03-09T09:30:35.000Z</time>
      </trkpt>
      <trkpt lat="43.42325" lon="2.14845">
        <ele>673.20001220703</ele>
        <time>2019-03-09T09:30:38.000Z</time>
      </trkpt>
      <trkpt lat="43.42321" lon="2.14845">
        <ele>672.79998779297</ele>
        <time>2019-03-09T09:30:39.000Z</time>
      </trkpt>
      <trkpt lat="43.42302" lon="2.14859">
        <ele>671.40002441406</ele>
        <time>2019-03-09T09:30:43.000Z</time>
      </trkpt>
      <trkpt lat="43.42287" lon="2.14877">
        <ele>669.20001220703</ele>
        <time>2019-03-09T09:30:47.000Z</time>
      </trkpt>
      <trkpt lat="43.42283" lon="2.1488">
        <ele>668.59997558594</ele>
        <time>2019-03-09T09:30:48.000Z</time>
      </trkpt>
      <trkpt lat="43.42269" lon="2.14892">
        <ele>666.79998779297</ele>
        <time>2019-03-09T09:30:51.000Z</time>
      </trkpt>
      <trkpt lat="43.42244" lon="2.14907">
        <ele>664.40002441406</ele>
        <time>2019-03-09T09:30:55.000Z</time>
      </trkpt>
      <trkpt lat="43.42228" lon="2.14902">
        <ele>663.40002441406</ele>
        <time>2019-03-09T09:30:58.000Z</time>
      </trkpt>
      <trkpt lat="43.42222" lon="2.14901">
        <ele>663</ele>
        <time>2019-03-09T09:30:59.000Z</time>
      </trkpt>
      <trkpt lat="43.42212" lon="2.14896">
        <ele>662.40002441406</ele>
        <time>2019-03-09T09:31:01.000Z</time>
      </trkpt>
      <trkpt lat="43.42193" lon="2.14888">
        <ele>661.20001220703</ele>
        <time>2019-03-09T09:31:05.000Z</time>
      </trkpt>
      <trkpt lat="43.42179" lon="2.14887">
        <ele>660.40002441406</ele>
        <time>2019-03-09T09:31:09.000Z</time>
      </trkpt>
      <trkpt lat="43.42159" lon="2.14901">
        <ele>659</ele>
        <time>2019-03-09T09:31:15.000Z</time>
      </trkpt>
      <trkpt lat="43.42141" lon="2.1492">
        <ele>658</ele>
        <time>2019-03-09T09:31:21.000Z</time>
      </trkpt>
      <trkpt lat="43.42128" lon="2.1493">
        <ele>657.79998779297</ele>
        <time>2019-03-09T09:31:25.000Z</time>
      </trkpt>
      <trkpt lat="43.42126" lon="2.14935">
        <ele>657.59997558594</ele>
        <time>2019-03-09T09:31:26.000Z</time>
      </trkpt>
      <trkpt lat="43.42112" lon="2.14958">
        <ele>656.20001220703</ele>
        <time>2019-03-09T09:31:31.000Z</time>
      </trkpt>
      <trkpt lat="43.42108" lon="2.14963">
        <ele>655.79998779297</ele>
        <time>2019-03-09T09:31:32.000Z</time>
      </trkpt>
      <trkpt lat="43.42096" lon="2.14975">
        <ele>654.59997558594</ele>
        <time>2019-03-09T09:31:35.000Z</time>
      </trkpt>
      <trkpt lat="43.42091" lon="2.14977">
        <ele>654.20001220703</ele>
        <time>2019-03-09T09:31:36.000Z</time>
      </trkpt>
      <trkpt lat="43.42087" lon="2.14981">
        <ele>653.79998779297</ele>
        <time>2019-03-09T09:31:37.000Z</time>
      </trkpt>
      <trkpt lat="43.42076" lon="2.14992">
        <ele>652.40002441406</ele>
        <time>2019-03-09T09:31:40.000Z</time>
      </trkpt>
      <trkpt lat="43.42071" lon="2.14994">
        <ele>652</ele>
        <time>2019-03-09T09:31:41.000Z</time>
      </trkpt>
      <trkpt lat="43.42049" lon="2.1501">
        <ele>650.20001220703</ele>
        <time>2019-03-09T09:31:46.000Z</time>
      </trkpt>
      <trkpt lat="43.42035" lon="2.15017">
        <ele>649</ele>
        <time>2019-03-09T09:31:49.000Z</time>
      </trkpt>
      <trkpt lat="43.42026" lon="2.1502">
        <ele>648.20001220703</ele>
        <time>2019-03-09T09:31:51.000Z</time>
      </trkpt>
      <trkpt lat="43.42019" lon="2.15021">
        <ele>647.59997558594</ele>
        <time>2019-03-09T09:31:54.000Z</time>
      </trkpt>
      <trkpt lat="43.42009" lon="2.15018">
        <ele>647.20001220703</ele>
        <time>2019-03-09T09:31:59.000Z</time>
      </trkpt>
      <trkpt lat="43.42001" lon="2.15009">
        <ele>647.20001220703</ele>
        <time>2019-03-09T09:32:02.000Z</time>
      </trkpt>
      <trkpt lat="43.41998" lon="2.15006">
        <ele>647.40002441406</ele>
        <time>2019-03-09T09:32:03.000Z</time>
      </trkpt>
      <trkpt lat="43.41973" lon="2.14979">
        <ele>647</ele>
        <time>2019-03-09T09:32:11.000Z</time>
      </trkpt>
      <trkpt lat="43.41962" lon="2.14971">
        <ele>646.79998779297</ele>
        <time>2019-03-09T09:32:14.000Z</time>
      </trkpt>
      <trkpt lat="43.41952" lon="2.14965">
        <ele>646.40002441406</ele>
        <time>2019-03-09T09:32:17.000Z</time>
      </trkpt>
      <trkpt lat="43.41941" lon="2.14959">
        <ele>646.20001220703</ele>
        <time>2019-03-09T09:32:20.000Z</time>
      </trkpt>
      <trkpt lat="43.41932" lon="2.14955">
        <ele>646</ele>
        <time>2019-03-09T09:32:23.000Z</time>
      </trkpt>
      <trkpt lat="43.41928" lon="2.14952">
        <ele>646</ele>
        <time>2019-03-09T09:32:25.000Z</time>
      </trkpt>
      <trkpt lat="43.41921" lon="2.14948">
        <ele>645.79998779297</ele>
        <time>2019-03-09T09:32:28.000Z</time>
      </trkpt>
      <trkpt lat="43.41908" lon="2.14937">
        <ele>645.79998779297</ele>
        <time>2019-03-09T09:32:34.000Z</time>
      </trkpt>
      <trkpt lat="43.41895" lon="2.14922">
        <ele>645.59997558594</ele>
        <time>2019-03-09T09:32:41.000Z</time>
      </trkpt>
      <trkpt lat="43.41878" lon="2.14901">
        <ele>645.59997558594</ele>
        <time>2019-03-09T09:32:49.000Z</time>
      </trkpt>
      <trkpt lat="43.41864" lon="2.14886">
        <ele>646</ele>
        <time>2019-03-09T09:32:55.000Z</time>
      </trkpt>
      <trkpt lat="43.41856" lon="2.14878">
        <ele>646.20001220703</ele>
        <time>2019-03-09T09:32:58.000Z</time>
      </trkpt>
      <trkpt lat="43.41851" lon="2.14872">
        <ele>646.40002441406</ele>
        <time>2019-03-09T09:33:00.000Z</time>
      </trkpt>
      <trkpt lat="43.41836" lon="2.14852">
        <ele>647</ele>
        <time>2019-03-09T09:33:06.000Z</time>
      </trkpt>
      <trkpt lat="43.41821" lon="2.14836">
        <ele>647.40002441406</ele>
        <time>2019-03-09T09:33:11.000Z</time>
      </trkpt>
      <trkpt lat="43.41818" lon="2.14832">
        <ele>647.40002441406</ele>
        <time>2019-03-09T09:33:12.000Z</time>
      </trkpt>
      <trkpt lat="43.41805" lon="2.14816">
        <ele>647.79998779297</ele>
        <time>2019-03-09T09:33:16.000Z</time>
      </trkpt>
      <trkpt lat="43.41799" lon="2.14808">
        <ele>647.79998779297</ele>
        <time>2019-03-09T09:33:18.000Z</time>
      </trkpt>
      <trkpt lat="43.41788" lon="2.14796">
        <ele>648</ele>
        <time>2019-03-09T09:33:21.000Z</time>
      </trkpt>
      <trkpt lat="43.41759" lon="2.1477">
        <ele>648.59997558594</ele>
        <time>2019-03-09T09:33:29.000Z</time>
      </trkpt>
      <trkpt lat="43.41755" lon="2.14768">
        <ele>648.59997558594</ele>
        <time>2019-03-09T09:33:30.000Z</time>
      </trkpt>
      <trkpt lat="43.41752" lon="2.14766">
        <ele>648.79998779297</ele>
        <time>2019-03-09T09:33:31.000Z</time>
      </trkpt>
      <trkpt lat="43.41728" lon="2.1476">
        <ele>649.59997558594</ele>
        <time>2019-03-09T09:33:37.000Z</time>
      </trkpt>
      <trkpt lat="43.41701" lon="2.14755">
        <ele>650.20001220703</ele>
        <time>2019-03-09T09:33:44.000Z</time>
      </trkpt>
      <trkpt lat="43.41683" lon="2.14751">
        <ele>651</ele>
        <time>2019-03-09T09:33:49.000Z</time>
      </trkpt>
      <trkpt lat="43.4168" lon="2.14749">
        <ele>651</ele>
        <time>2019-03-09T09:33:50.000Z</time>
      </trkpt>
      <trkpt lat="43.41657" lon="2.14735">
        <ele>651.59997558594</ele>
        <time>2019-03-09T09:33:57.000Z</time>
      </trkpt>
      <trkpt lat="43.41638" lon="2.1472">
        <ele>651.79998779297</ele>
        <time>2019-03-09T09:34:03.000Z</time>
      </trkpt>
      <trkpt lat="43.41628" lon="2.14712">
        <ele>651.79998779297</ele>
        <time>2019-03-09T09:34:06.000Z</time>
      </trkpt>
      <trkpt lat="43.41617" lon="2.14703">
        <ele>651.79998779297</ele>
        <time>2019-03-09T09:34:09.000Z</time>
      </trkpt>
      <trkpt lat="43.41597" lon="2.14687">
        <ele>652</ele>
        <time>2019-03-09T09:34:14.000Z</time>
      </trkpt>
      <trkpt lat="43.41593" lon="2.14684">
        <ele>652</ele>
        <time>2019-03-09T09:34:15.000Z</time>
      </trkpt>
      <trkpt lat="43.4156" lon="2.14658">
        <ele>652.20001220703</ele>
        <time>2019-03-09T09:34:23.000Z</time>
      </trkpt>
      <trkpt lat="43.41527" lon="2.14633">
        <ele>652.20001220703</ele>
        <time>2019-03-09T09:34:30.000Z</time>
      </trkpt>
      <trkpt lat="43.41511" lon="2.14615">
        <ele>652.20001220703</ele>
        <time>2019-03-09T09:34:34.000Z</time>
      </trkpt>
      <trkpt lat="43.41507" lon="2.1461">
        <ele>652.20001220703</ele>
        <time>2019-03-09T09:34:35.000Z</time>
      </trkpt>
      <trkpt lat="43.41499" lon="2.14593">
        <ele>651.79998779297</ele>
        <time>2019-03-09T09:34:38.000Z</time>
      </trkpt>
      <trkpt lat="43.41497" lon="2.14585">
        <ele>651.59997558594</ele>
        <time>2019-03-09T09:34:39.000Z</time>
      </trkpt>
      <trkpt lat="43.41491" lon="2.14542">
        <ele>649.59997558594</ele>
        <time>2019-03-09T09:34:45.000Z</time>
      </trkpt>
      <trkpt lat="43.41483" lon="2.14512">
        <ele>648.79998779297</ele>
        <time>2019-03-09T09:34:49.000Z</time>
      </trkpt>
      <trkpt lat="43.41481" lon="2.14504">
        <ele>648.59997558594</ele>
        <time>2019-03-09T09:34:50.000Z</time>
      </trkpt>
      <trkpt lat="43.41478" lon="2.14497">
        <ele>648.40002441406</ele>
        <time>2019-03-09T09:34:51.000Z</time>
      </trkpt>
      <trkpt lat="43.4146" lon="2.14468">
        <ele>646.79998779297</ele>
        <time>2019-03-09T09:34:56.000Z</time>
      </trkpt>
      <trkpt lat="43.41441" lon="2.14436">
        <ele>644.79998779297</ele>
        <time>2019-03-09T09:35:02.000Z</time>
      </trkpt>
      <trkpt lat="43.41436" lon="2.14421">
        <ele>643.79998779297</ele>
        <time>2019-03-09T09:35:04.000Z</time>
      </trkpt>
      <trkpt lat="43.4143" lon="2.14397">
        <ele>642.40002441406</ele>
        <time>2019-03-09T09:35:07.000Z</time>
      </trkpt>
      <trkpt lat="43.41426" lon="2.14379">
        <ele>641.59997558594</ele>
        <time>2019-03-09T09:35:09.000Z</time>
      </trkpt>
      <trkpt lat="43.41417" lon="2.14352">
        <ele>640.40002441406</ele>
        <time>2019-03-09T09:35:12.000Z</time>
      </trkpt>
      <trkpt lat="43.41407" lon="2.14313">
        <ele>639</ele>
        <time>2019-03-09T09:35:16.000Z</time>
      </trkpt>
      <trkpt lat="43.41404" lon="2.14296">
        <ele>638.59997558594</ele>
        <time>2019-03-09T09:35:18.000Z</time>
      </trkpt>
      <trkpt lat="43.41393" lon="2.1423">
        <ele>637</ele>
        <time>2019-03-09T09:35:25.000Z</time>
      </trkpt>
      <trkpt lat="43.41384" lon="2.14164">
        <ele>633.40002441406</ele>
        <time>2019-03-09T09:35:31.000Z</time>
      </trkpt>
      <trkpt lat="43.4137" lon="2.14113">
        <ele>629.79998779297</ele>
        <time>2019-03-09T09:35:36.000Z</time>
      </trkpt>
      <trkpt lat="43.41355" lon="2.14072">
        <ele>627.79998779297</ele>
        <time>2019-03-09T09:35:41.000Z</time>
      </trkpt>
      <trkpt lat="43.41351" lon="2.14064">
        <ele>627.59997558594</ele>
        <time>2019-03-09T09:35:42.000Z</time>
      </trkpt>
      <trkpt lat="43.41333" lon="2.14026">
        <ele>627.40002441406</ele>
        <time>2019-03-09T09:35:47.000Z</time>
      </trkpt>
      <trkpt lat="43.41315" lon="2.13976">
        <ele>627.79998779297</ele>
        <time>2019-03-09T09:35:52.000Z</time>
      </trkpt>
      <trkpt lat="43.41284" lon="2.13936">
        <ele>627.20001220703</ele>
        <time>2019-03-09T09:35:57.000Z</time>
      </trkpt>
      <trkpt lat="43.41242" lon="2.13892">
        <ele>627.40002441406</ele>
        <time>2019-03-09T09:36:04.000Z</time>
      </trkpt>
      <trkpt lat="43.41208" lon="2.13856">
        <ele>628.20001220703</ele>
        <time>2019-03-09T09:36:10.000Z</time>
      </trkpt>
      <trkpt lat="43.41177" lon="2.13827">
        <ele>629.40002441406</ele>
        <time>2019-03-09T09:36:16.000Z</time>
      </trkpt>
      <trkpt lat="43.41147" lon="2.13803">
        <ele>632.59997558594</ele>
        <time>2019-03-09T09:36:23.000Z</time>
      </trkpt>
      <trkpt lat="43.41125" lon="2.13788">
        <ele>635</ele>
        <time>2019-03-09T09:36:29.000Z</time>
      </trkpt>
      <trkpt lat="43.41102" lon="2.13768">
        <ele>637.59997558594</ele>
        <time>2019-03-09T09:36:37.000Z</time>
      </trkpt>
      <trkpt lat="43.41085" lon="2.13753">
        <ele>638.59997558594</ele>
        <time>2019-03-09T09:36:43.000Z</time>
      </trkpt>
      <trkpt lat="43.41063" lon="2.13736">
        <ele>639.40002441406</ele>
        <time>2019-03-09T09:36:50.000Z</time>
      </trkpt>
      <trkpt lat="43.41057" lon="2.13732">
        <ele>639.59997558594</ele>
        <time>2019-03-09T09:36:52.000Z</time>
      </trkpt>
      <trkpt lat="43.41047" lon="2.13722">
        <ele>640</ele>
        <time>2019-03-09T09:36:55.000Z</time>
      </trkpt>
      <trkpt lat="43.41027" lon="2.13704">
        <ele>640.79998779297</ele>
        <time>2019-03-09T09:37:01.000Z</time>
      </trkpt>
      <trkpt lat="43.4101" lon="2.13687">
        <ele>641.40002441406</ele>
        <time>2019-03-09T09:37:06.000Z</time>
      </trkpt>
      <trkpt lat="43.41006" lon="2.13683">
        <ele>641.40002441406</ele>
        <time>2019-03-09T09:37:07.000Z</time>
      </trkpt>
      <trkpt lat="43.40997" lon="2.13675">
        <ele>641.20001220703</ele>
        <time>2019-03-09T09:37:09.000Z</time>
      </trkpt>
      <trkpt lat="43.40979" lon="2.13661">
        <ele>640.79998779297</ele>
        <time>2019-03-09T09:37:13.000Z</time>
      </trkpt>
      <trkpt lat="43.40974" lon="2.13659">
        <ele>640.79998779297</ele>
        <time>2019-03-09T09:37:14.000Z</time>
      </trkpt>
      <trkpt lat="43.40958" lon="2.13652">
        <ele>640.59997558594</ele>
        <time>2019-03-09T09:37:17.000Z</time>
      </trkpt>
      <trkpt lat="43.40952" lon="2.1365">
        <ele>640.40002441406</ele>
        <time>2019-03-09T09:37:18.000Z</time>
      </trkpt>
      <trkpt lat="43.40942" lon="2.13649">
        <ele>639.79998779297</ele>
        <time>2019-03-09T09:37:20.000Z</time>
      </trkpt>
      <trkpt lat="43.40936" lon="2.13649">
        <ele>639.59997558594</ele>
        <time>2019-03-09T09:37:21.000Z</time>
      </trkpt>
      <trkpt lat="43.40932" lon="2.13648">
        <ele>639.40002441406</ele>
        <time>2019-03-09T09:37:22.000Z</time>
      </trkpt>
      <trkpt lat="43.40927" lon="2.13647">
        <ele>639.59997558594</ele>
        <time>2019-03-09T09:37:23.000Z</time>
      </trkpt>
      <trkpt lat="43.40912" lon="2.13644">
        <ele>640.20001220703</ele>
        <time>2019-03-09T09:37:26.000Z</time>
      </trkpt>
      <trkpt lat="43.40887" lon="2.1364">
        <ele>641</ele>
        <time>2019-03-09T09:37:31.000Z</time>
      </trkpt>
      <trkpt lat="43.40882" lon="2.1364">
        <ele>641</ele>
        <time>2019-03-09T09:37:32.000Z</time>
      </trkpt>
      <trkpt lat="43.40877" lon="2.1364">
        <ele>641</ele>
        <time>2019-03-09T09:37:33.000Z</time>
      </trkpt>
      <trkpt lat="43.4085" lon="2.13643">
        <ele>641</ele>
        <time>2019-03-09T09:37:38.000Z</time>
      </trkpt>
      <trkpt lat="43.40845" lon="2.13644">
        <ele>641</ele>
        <time>2019-03-09T09:37:39.000Z</time>
      </trkpt>
      <trkpt lat="43.40813" lon="2.13645">
        <ele>641.79998779297</ele>
        <time>2019-03-09T09:37:45.000Z</time>
      </trkpt>
      <trkpt lat="43.40807" lon="2.13645">
        <ele>642.20001220703</ele>
        <time>2019-03-09T09:37:46.000Z</time>
      </trkpt>
      <trkpt lat="43.40774" lon="2.1365">
        <ele>644</ele>
        <time>2019-03-09T09:37:52.000Z</time>
      </trkpt>
      <trkpt lat="43.40747" lon="2.13657">
        <ele>643.40002441406</ele>
        <time>2019-03-09T09:37:57.000Z</time>
      </trkpt>
      <trkpt lat="43.40742" lon="2.13658">
        <ele>643.20001220703</ele>
        <time>2019-03-09T09:37:58.000Z</time>
      </trkpt>
      <trkpt lat="43.40725" lon="2.13663">
        <ele>642.40002441406</ele>
        <time>2019-03-09T09:38:02.000Z</time>
      </trkpt>
      <trkpt lat="43.4072" lon="2.13667">
        <ele>642.20001220703</ele>
        <time>2019-03-09T09:38:03.000Z</time>
      </trkpt>
      <trkpt lat="43.40709" lon="2.13688">
        <ele>641</ele>
        <time>2019-03-09T09:38:06.000Z</time>
      </trkpt>
      <trkpt lat="43.40703" lon="2.13706">
        <ele>640.20001220703</ele>
        <time>2019-03-09T09:38:08.000Z</time>
      </trkpt>
      <trkpt lat="43.40697" lon="2.13723">
        <ele>639.20001220703</ele>
        <time>2019-03-09T09:38:10.000Z</time>
      </trkpt>
      <trkpt lat="43.40681" lon="2.1376">
        <ele>637</ele>
        <time>2019-03-09T09:38:14.000Z</time>
      </trkpt>
      <trkpt lat="43.40675" lon="2.13768">
        <ele>636</ele>
        <time>2019-03-09T09:38:15.000Z</time>
      </trkpt>
      <trkpt lat="43.40644" lon="2.13805">
        <ele>631.59997558594</ele>
        <time>2019-03-09T09:38:20.000Z</time>
      </trkpt>
      <trkpt lat="43.40633" lon="2.13822">
        <ele>630.79998779297</ele>
        <time>2019-03-09T09:38:22.000Z</time>
      </trkpt>
      <trkpt lat="43.40627" lon="2.1383">
        <ele>630</ele>
        <time>2019-03-09T09:38:23.000Z</time>
      </trkpt>
      <trkpt lat="43.40614" lon="2.13845">
        <ele>627.59997558594</ele>
        <time>2019-03-09T09:38:25.000Z</time>
      </trkpt>
      <trkpt lat="43.40599" lon="2.13857">
        <ele>627.59997558594</ele>
        <time>2019-03-09T09:38:27.000Z</time>
      </trkpt>
      <trkpt lat="43.40591" lon="2.1386">
        <ele>627.40002441406</ele>
        <time>2019-03-09T09:38:28.000Z</time>
      </trkpt>
      <trkpt lat="43.40569" lon="2.13863">
        <ele>627</ele>
        <time>2019-03-09T09:38:31.000Z</time>
      </trkpt>
      <trkpt lat="43.40562" lon="2.1386">
        <ele>627</ele>
        <time>2019-03-09T09:38:32.000Z</time>
      </trkpt>
      <trkpt lat="43.40555" lon="2.13844">
        <ele>627.59997558594</ele>
        <time>2019-03-09T09:38:34.000Z</time>
      </trkpt>
      <trkpt lat="43.40548" lon="2.13804">
        <ele>626.40002441406</ele>
        <time>2019-03-09T09:38:38.000Z</time>
      </trkpt>
      <trkpt lat="43.40547" lon="2.13782">
        <ele>624.59997558594</ele>
        <time>2019-03-09T09:38:40.000Z</time>
      </trkpt>
      <trkpt lat="43.40545" lon="2.13752">
        <ele>624.40002441406</ele>
        <time>2019-03-09T09:38:43.000Z</time>
      </trkpt>
      <trkpt lat="43.40544" lon="2.1371">
        <ele>619.40002441406</ele>
        <time>2019-03-09T09:38:48.000Z</time>
      </trkpt>
      <trkpt lat="43.4055" lon="2.13679">
        <ele>617.59997558594</ele>
        <time>2019-03-09T09:38:52.000Z</time>
      </trkpt>
      <trkpt lat="43.40548" lon="2.13648">
        <ele>616.79998779297</ele>
        <time>2019-03-09T09:38:56.000Z</time>
      </trkpt>
      <trkpt lat="43.40541" lon="2.13629">
        <ele>615.59997558594</ele>
        <time>2019-03-09T09:38:59.000Z</time>
      </trkpt>
      <trkpt lat="43.40536" lon="2.13616">
        <ele>615</ele>
        <time>2019-03-09T09:39:01.000Z</time>
      </trkpt>
      <trkpt lat="43.40533" lon="2.13603">
        <ele>614.40002441406</ele>
        <time>2019-03-09T09:39:03.000Z</time>
      </trkpt>
      <trkpt lat="43.40532" lon="2.13589">
        <ele>614.79998779297</ele>
        <time>2019-03-09T09:39:05.000Z</time>
      </trkpt>
      <trkpt lat="43.40522" lon="2.13562">
        <ele>613</ele>
        <time>2019-03-09T09:39:09.000Z</time>
      </trkpt>
      <trkpt lat="43.40508" lon="2.13566">
        <ele>609.59997558594</ele>
        <time>2019-03-09T09:39:11.000Z</time>
      </trkpt>
      <trkpt lat="43.40491" lon="2.13586">
        <ele>607</ele>
        <time>2019-03-09T09:39:14.000Z</time>
      </trkpt>
      <trkpt lat="43.40485" lon="2.13591">
        <ele>606</ele>
        <time>2019-03-09T09:39:15.000Z</time>
      </trkpt>
      <trkpt lat="43.40471" lon="2.13596">
        <ele>603.59997558594</ele>
        <time>2019-03-09T09:39:17.000Z</time>
      </trkpt>
      <trkpt lat="43.40456" lon="2.1359">
        <ele>601.59997558594</ele>
        <time>2019-03-09T09:39:19.000Z</time>
      </trkpt>
      <trkpt lat="43.40439" lon="2.13567">
        <ele>598.59997558594</ele>
        <time>2019-03-09T09:39:22.000Z</time>
      </trkpt>
      <trkpt lat="43.40438" lon="2.13549">
        <ele>597.20001220703</ele>
        <time>2019-03-09T09:39:24.000Z</time>
      </trkpt>
      <trkpt lat="43.40446" lon="2.13525">
        <ele>597.20001220703</ele>
        <time>2019-03-09T09:39:27.000Z</time>
      </trkpt>
      <trkpt lat="43.4045" lon="2.13517">
        <ele>597.40002441406</ele>
        <time>2019-03-09T09:39:28.000Z</time>
      </trkpt>
      <trkpt lat="43.40466" lon="2.13491">
        <ele>601</ele>
        <time>2019-03-09T09:39:31.000Z</time>
      </trkpt>
      <trkpt lat="43.40471" lon="2.13481">
        <ele>601.20001220703</ele>
        <time>2019-03-09T09:39:32.000Z</time>
      </trkpt>
      <trkpt lat="43.40475" lon="2.13456">
        <ele>600.40002441406</ele>
        <time>2019-03-09T09:39:34.000Z</time>
      </trkpt>
      <trkpt lat="43.40475" lon="2.13445">
        <ele>599.59997558594</ele>
        <time>2019-03-09T09:39:35.000Z</time>
      </trkpt>
      <trkpt lat="43.4047" lon="2.13425">
        <ele>597.79998779297</ele>
        <time>2019-03-09T09:39:37.000Z</time>
      </trkpt>
      <trkpt lat="43.40467" lon="2.13415">
        <ele>596.59997558594</ele>
        <time>2019-03-09T09:39:38.000Z</time>
      </trkpt>
      <trkpt lat="43.40454" lon="2.13386">
        <ele>592</ele>
        <time>2019-03-09T09:39:41.000Z</time>
      </trkpt>
      <trkpt lat="43.40452" lon="2.1337">
        <ele>591.20001220703</ele>
        <time>2019-03-09T09:39:43.000Z</time>
      </trkpt>
      <trkpt lat="43.40454" lon="2.13362">
        <ele>591.40002441406</ele>
        <time>2019-03-09T09:39:44.000Z</time>
      </trkpt>
      <trkpt lat="43.40456" lon="2.13349">
        <ele>591.59997558594</ele>
        <time>2019-03-09T09:39:46.000Z</time>
      </trkpt>
      <trkpt lat="43.40459" lon="2.13338">
        <ele>591.59997558594</ele>
        <time>2019-03-09T09:39:48.000Z</time>
      </trkpt>
      <trkpt lat="43.40462" lon="2.13328">
        <ele>591.79998779297</ele>
        <time>2019-03-09T09:39:50.000Z</time>
      </trkpt>
      <trkpt lat="43.40464" lon="2.13324">
        <ele>592.59997558594</ele>
        <time>2019-03-09T09:39:51.000Z</time>
      </trkpt>
      <trkpt lat="43.40466" lon="2.13319">
        <ele>593.59997558594</ele>
        <time>2019-03-09T09:39:52.000Z</time>
      </trkpt>
      <trkpt lat="43.40472" lon="2.1331">
        <ele>596.59997558594</ele>
        <time>2019-03-09T09:39:54.000Z</time>
      </trkpt>
      <trkpt lat="43.40475" lon="2.13305">
        <ele>598</ele>
        <time>2019-03-09T09:39:55.000Z</time>
      </trkpt>
      <trkpt lat="43.40478" lon="2.133">
        <ele>599.59997558594</ele>
        <time>2019-03-09T09:39:56.000Z</time>
      </trkpt>
      <trkpt lat="43.40484" lon="2.13288">
        <ele>600.59997558594</ele>
        <time>2019-03-09T09:39:58.000Z</time>
      </trkpt>
      <trkpt lat="43.40488" lon="2.13283">
        <ele>600</ele>
        <time>2019-03-09T09:39:59.000Z</time>
      </trkpt>
      <trkpt lat="43.40493" lon="2.13272">
        <ele>598.59997558594</ele>
        <time>2019-03-09T09:40:01.000Z</time>
      </trkpt>
      <trkpt lat="43.40499" lon="2.13262">
        <ele>597.40002441406</ele>
        <time>2019-03-09T09:40:03.000Z</time>
      </trkpt>
      <trkpt lat="43.40504" lon="2.13249">
        <ele>595.79998779297</ele>
        <time>2019-03-09T09:40:05.000Z</time>
      </trkpt>
      <trkpt lat="43.40506" lon="2.13243">
        <ele>595.40002441406</ele>
        <time>2019-03-09T09:40:06.000Z</time>
      </trkpt>
      <trkpt lat="43.40508" lon="2.13238">
        <ele>596.59997558594</ele>
        <time>2019-03-09T09:40:07.000Z</time>
      </trkpt>
      <trkpt lat="43.40514" lon="2.13222">
        <ele>596.20001220703</ele>
        <time>2019-03-09T09:40:10.000Z</time>
      </trkpt>
      <trkpt lat="43.40524" lon="2.13193">
        <ele>598.20001220703</ele>
        <time>2019-03-09T09:40:14.000Z</time>
      </trkpt>
      <trkpt lat="43.40528" lon="2.1319">
        <ele>598.79998779297</ele>
        <time>2019-03-09T09:40:15.000Z</time>
      </trkpt>
      <trkpt lat="43.40534" lon="2.13185">
        <ele>600</ele>
        <time>2019-03-09T09:40:17.000Z</time>
      </trkpt>
      <trkpt lat="43.4054" lon="2.13178">
        <ele>599.20001220703</ele>
        <time>2019-03-09T09:40:23.000Z</time>
      </trkpt>
      <trkpt lat="43.40541" lon="2.13174">
        <ele>598.40002441406</ele>
        <time>2019-03-09T09:40:29.000Z</time>
      </trkpt>
      <trkpt lat="43.40543" lon="2.13166">
        <ele>596.79998779297</ele>
        <time>2019-03-09T09:40:31.000Z</time>
      </trkpt>
      <trkpt lat="43.40548" lon="2.13147">
        <ele>598.20001220703</ele>
        <time>2019-03-09T09:40:36.000Z</time>
      </trkpt>
      <trkpt lat="43.40549" lon="2.13145">
        <ele>598.59997558594</ele>
        <time>2019-03-09T09:40:37.000Z</time>
      </trkpt>
      <trkpt lat="43.40556" lon="2.13136">
        <ele>599.79998779297</ele>
        <time>2019-03-09T09:40:40.000Z</time>
      </trkpt>
      <trkpt lat="43.40568" lon="2.13127">
        <ele>600.40002441406</ele>
        <time>2019-03-09T09:40:44.000Z</time>
      </trkpt>
      <trkpt lat="43.40571" lon="2.13126">
        <ele>599.59997558594</ele>
        <time>2019-03-09T09:40:45.000Z</time>
      </trkpt>
      <trkpt lat="43.40586" lon="2.13108">
        <ele>596.20001220703</ele>
        <time>2019-03-09T09:40:51.000Z</time>
      </trkpt>
      <trkpt lat="43.40595" lon="2.13091">
        <ele>594.20001220703</ele>
        <time>2019-03-09T09:40:57.000Z</time>
      </trkpt>
      <trkpt lat="43.40602" lon="2.13078">
        <ele>594.20001220703</ele>
        <time>2019-03-09T09:41:04.000Z</time>
      </trkpt>
      <trkpt lat="43.40603" lon="2.13067">
        <ele>596.20001220703</ele>
        <time>2019-03-09T09:41:09.000Z</time>
      </trkpt>
      <trkpt lat="43.40605" lon="2.13047">
        <ele>600</ele>
        <time>2019-03-09T09:41:17.000Z</time>
      </trkpt>
      <trkpt lat="43.40602" lon="2.13026">
        <ele>603.40002441406</ele>
        <time>2019-03-09T09:41:26.000Z</time>
      </trkpt>
      <trkpt lat="43.40596" lon="2.1301">
        <ele>606.59997558594</ele>
        <time>2019-03-09T09:41:32.000Z</time>
      </trkpt>
      <trkpt lat="43.40598" lon="2.13002">
        <ele>607.59997558594</ele>
        <time>2019-03-09T09:41:35.000Z</time>
      </trkpt>
      <trkpt lat="43.406" lon="2.12995">
        <ele>608.79998779297</ele>
        <time>2019-03-09T09:41:39.000Z</time>
      </trkpt>
      <trkpt lat="43.40605" lon="2.12978">
        <ele>610.20001220703</ele>
        <time>2019-03-09T09:41:46.000Z</time>
      </trkpt>
      <trkpt lat="43.40606" lon="2.12976">
        <ele>610.59997558594</ele>
        <time>2019-03-09T09:41:47.000Z</time>
      </trkpt>
      <trkpt lat="43.40609" lon="2.12967">
        <ele>611.20001220703</ele>
        <time>2019-03-09T09:41:51.000Z</time>
      </trkpt>
      <trkpt lat="43.40612" lon="2.12958">
        <ele>612.20001220703</ele>
        <time>2019-03-09T09:41:55.000Z</time>
      </trkpt>
      <trkpt lat="43.40616" lon="2.12943">
        <ele>613.40002441406</ele>
        <time>2019-03-09T09:42:03.000Z</time>
      </trkpt>
      <trkpt lat="43.40619" lon="2.12929">
        <ele>614.59997558594</ele>
        <time>2019-03-09T09:42:09.000Z</time>
      </trkpt>
      <trkpt lat="43.4062" lon="2.12927">
        <ele>614.40002441406</ele>
        <time>2019-03-09T09:42:10.000Z</time>
      </trkpt>
      <trkpt lat="43.40625" lon="2.12915">
        <ele>613.20001220703</ele>
        <time>2019-03-09T09:42:16.000Z</time>
      </trkpt>
      <trkpt lat="43.40634" lon="2.12898">
        <ele>612.40002441406</ele>
        <time>2019-03-09T09:42:23.000Z</time>
      </trkpt>
      <trkpt lat="43.40636" lon="2.12895">
        <ele>612.20001220703</ele>
        <time>2019-03-09T09:42:25.000Z</time>
      </trkpt>
      <trkpt lat="43.40642" lon="2.1289">
        <ele>611.40002441406</ele>
        <time>2019-03-09T09:42:30.000Z</time>
      </trkpt>
      <trkpt lat="43.40642" lon="2.12888">
        <ele>611.40002441406</ele>
        <time>2019-03-09T09:42:32.000Z</time>
      </trkpt>
      <trkpt lat="43.40644" lon="2.12879">
        <ele>611.59997558594</ele>
        <time>2019-03-09T09:42:38.000Z</time>
      </trkpt>
      <trkpt lat="43.40651" lon="2.12867">
        <ele>610.59997558594</ele>
        <time>2019-03-09T09:42:43.000Z</time>
      </trkpt>
      <trkpt lat="43.40653" lon="2.12865">
        <ele>610.20001220703</ele>
        <time>2019-03-09T09:42:44.000Z</time>
      </trkpt>
      <trkpt lat="43.40659" lon="2.1286">
        <ele>608.79998779297</ele>
        <time>2019-03-09T09:42:47.000Z</time>
      </trkpt>
      <trkpt lat="43.40666" lon="2.12852">
        <ele>607.20001220703</ele>
        <time>2019-03-09T09:42:51.000Z</time>
      </trkpt>
      <trkpt lat="43.40671" lon="2.12845">
        <ele>606.20001220703</ele>
        <time>2019-03-09T09:42:54.000Z</time>
      </trkpt>
      <trkpt lat="43.40681" lon="2.12834">
        <ele>604.20001220703</ele>
        <time>2019-03-09T09:43:00.000Z</time>
      </trkpt>
      <trkpt lat="43.40689" lon="2.12823">
        <ele>604.40002441406</ele>
        <time>2019-03-09T09:43:06.000Z</time>
      </trkpt>
      <trkpt lat="43.40704" lon="2.12814">
        <ele>605</ele>
        <time>2019-03-09T09:43:12.000Z</time>
      </trkpt>
      <trkpt lat="43.40717" lon="2.12808">
        <ele>605.79998779297</ele>
        <time>2019-03-09T09:43:19.000Z</time>
      </trkpt>
      <trkpt lat="43.40726" lon="2.12801">
        <ele>606.20001220703</ele>
        <time>2019-03-09T09:43:25.000Z</time>
      </trkpt>
      <trkpt lat="43.40736" lon="2.1279">
        <ele>606.59997558594</ele>
        <time>2019-03-09T09:43:31.000Z</time>
      </trkpt>
      <trkpt lat="43.40744" lon="2.12782">
        <ele>606.79998779297</ele>
        <time>2019-03-09T09:43:37.000Z</time>
      </trkpt>
      <trkpt lat="43.40747" lon="2.12781">
        <ele>606.79998779297</ele>
        <time>2019-03-09T09:43:39.000Z</time>
      </trkpt>
      <trkpt lat="43.40754" lon="2.12778">
        <ele>606.79998779297</ele>
        <time>2019-03-09T09:43:44.000Z</time>
      </trkpt>
      <trkpt lat="43.40756" lon="2.12779">
        <ele>606.79998779297</ele>
        <time>2019-03-09T09:43:45.000Z</time>
      </trkpt>
      <trkpt lat="43.40762" lon="2.12784">
        <ele>607</ele>
        <time>2019-03-09T09:43:49.000Z</time>
      </trkpt>
      <trkpt lat="43.40764" lon="2.12788">
        <ele>607</ele>
        <time>2019-03-09T09:43:51.000Z</time>
      </trkpt>
      <trkpt lat="43.40769" lon="2.12799">
        <ele>607.79998779297</ele>
        <time>2019-03-09T09:43:56.000Z</time>
      </trkpt>
      <trkpt lat="43.40775" lon="2.12811">
        <ele>609</ele>
        <time>2019-03-09T09:44:03.000Z</time>
      </trkpt>
      <trkpt lat="43.40783" lon="2.12822">
        <ele>610.59997558594</ele>
        <time>2019-03-09T09:44:10.000Z</time>
      </trkpt>
      <trkpt lat="43.4079" lon="2.12836">
        <ele>611.20001220703</ele>
        <time>2019-03-09T09:44:18.000Z</time>
      </trkpt>
      <trkpt lat="43.40797" lon="2.12848">
        <ele>611.59997558594</ele>
        <time>2019-03-09T09:44:24.000Z</time>
      </trkpt>
      <trkpt lat="43.40809" lon="2.12868">
        <ele>612.20001220703</ele>
        <time>2019-03-09T09:44:34.000Z</time>
      </trkpt>
      <trkpt lat="43.40821" lon="2.12881">
        <ele>613.20001220703</ele>
        <time>2019-03-09T09:44:40.000Z</time>
      </trkpt>
      <trkpt lat="43.40837" lon="2.12893">
        <ele>615.20001220703</ele>
        <time>2019-03-09T09:44:46.000Z</time>
      </trkpt>
      <trkpt lat="43.40858" lon="2.12907">
        <ele>618.20001220703</ele>
        <time>2019-03-09T09:44:52.000Z</time>
      </trkpt>
      <trkpt lat="43.40882" lon="2.12927">
        <ele>620</ele>
        <time>2019-03-09T09:44:57.000Z</time>
      </trkpt>
      <trkpt lat="43.40887" lon="2.12933">
        <ele>619.79998779297</ele>
        <time>2019-03-09T09:44:58.000Z</time>
      </trkpt>
      <trkpt lat="43.40898" lon="2.12954">
        <ele>619.20001220703</ele>
        <time>2019-03-09T09:45:01.000Z</time>
      </trkpt>
      <trkpt lat="43.40904" lon="2.12966">
        <ele>618.59997558594</ele>
        <time>2019-03-09T09:45:03.000Z</time>
      </trkpt>
      <trkpt lat="43.4091" lon="2.12982">
        <ele>618.20001220703</ele>
        <time>2019-03-09T09:45:06.000Z</time>
      </trkpt>
      <trkpt lat="43.40924" lon="2.1301">
        <ele>617.59997558594</ele>
        <time>2019-03-09T09:45:12.000Z</time>
      </trkpt>
      <trkpt lat="43.40935" lon="2.1304">
        <ele>616</ele>
        <time>2019-03-09T09:45:19.000Z</time>
      </trkpt>
      <trkpt lat="43.40938" lon="2.13065">
        <ele>614</ele>
        <time>2019-03-09T09:45:26.000Z</time>
      </trkpt>
      <trkpt lat="43.40941" lon="2.13077">
        <ele>613.40002441406</ele>
        <time>2019-03-09T09:45:30.000Z</time>
      </trkpt>
      <trkpt lat="43.40944" lon="2.13081">
        <ele>613.20001220703</ele>
        <time>2019-03-09T09:45:32.000Z</time>
      </trkpt>
      <trkpt lat="43.40954" lon="2.13087">
        <ele>613.40002441406</ele>
        <time>2019-03-09T09:45:36.000Z</time>
      </trkpt>
      <trkpt lat="43.40957" lon="2.13087">
        <ele>613.79998779297</ele>
        <time>2019-03-09T09:45:37.000Z</time>
      </trkpt>
      <trkpt lat="43.40973" lon="2.13084">
        <ele>616.79998779297</ele>
        <time>2019-03-09T09:45:42.000Z</time>
      </trkpt>
      <trkpt lat="43.40998" lon="2.1307">
        <ele>622.20001220703</ele>
        <time>2019-03-09T09:45:49.000Z</time>
      </trkpt>
      <trkpt lat="43.41023" lon="2.13059">
        <ele>627.79998779297</ele>
        <time>2019-03-09T09:45:56.000Z</time>
      </trkpt>
      <trkpt lat="43.41042" lon="2.13053">
        <ele>630</ele>
        <time>2019-03-09T09:46:02.000Z</time>
      </trkpt>
      <trkpt lat="43.41056" lon="2.13054">
        <ele>630.59997558594</ele>
        <time>2019-03-09T09:46:07.000Z</time>
      </trkpt>
      <trkpt lat="43.41067" lon="2.13058">
        <ele>630.59997558594</ele>
        <time>2019-03-09T09:46:10.000Z</time>
      </trkpt>
      <trkpt lat="43.41083" lon="2.13066">
        <ele>630</ele>
        <time>2019-03-09T09:46:15.000Z</time>
      </trkpt>
      <trkpt lat="43.41094" lon="2.13074">
        <ele>629.40002441406</ele>
        <time>2019-03-09T09:46:21.000Z</time>
      </trkpt>
      <trkpt lat="43.41097" lon="2.13076">
        <ele>629.20001220703</ele>
        <time>2019-03-09T09:46:23.000Z</time>
      </trkpt>
      <trkpt lat="43.41103" lon="2.13081">
        <ele>629.40002441406</ele>
        <time>2019-03-09T09:46:27.000Z</time>
      </trkpt>
      <trkpt lat="43.41114" lon="2.13096">
        <ele>629.40002441406</ele>
        <time>2019-03-09T09:46:34.000Z</time>
      </trkpt>
      <trkpt lat="43.41119" lon="2.13105">
        <ele>629.40002441406</ele>
        <time>2019-03-09T09:46:37.000Z</time>
      </trkpt>
      <trkpt lat="43.41124" lon="2.13113">
        <ele>629.40002441406</ele>
        <time>2019-03-09T09:46:40.000Z</time>
      </trkpt>
      <trkpt lat="43.41133" lon="2.13125">
        <ele>629.40002441406</ele>
        <time>2019-03-09T09:46:45.000Z</time>
      </trkpt>
      <trkpt lat="43.41141" lon="2.13139">
        <ele>629.20001220703</ele>
        <time>2019-03-09T09:46:51.000Z</time>
      </trkpt>
      <trkpt lat="43.41154" lon="2.13154">
        <ele>629.59997558594</ele>
        <time>2019-03-09T09:46:59.000Z</time>
      </trkpt>
      <trkpt lat="43.41164" lon="2.13165">
        <ele>629.79998779297</ele>
        <time>2019-03-09T09:47:05.000Z</time>
      </trkpt>
      <trkpt lat="43.41167" lon="2.13168">
        <ele>629.79998779297</ele>
        <time>2019-03-09T09:47:07.000Z</time>
      </trkpt>
      <trkpt lat="43.41182" lon="2.13175">
        <ele>630.79998779297</ele>
        <time>2019-03-09T09:47:13.000Z</time>
      </trkpt>
      <trkpt lat="43.41196" lon="2.13179">
        <ele>630.79998779297</ele>
        <time>2019-03-09T09:47:19.000Z</time>
      </trkpt>
      <trkpt lat="43.4121" lon="2.13182">
        <ele>631.20001220703</ele>
        <time>2019-03-09T09:47:25.000Z</time>
      </trkpt>
      <trkpt lat="43.41231" lon="2.13187">
        <ele>632</ele>
        <time>2019-03-09T09:47:29.000Z</time>
      </trkpt>
      <trkpt lat="43.41236" lon="2.13187">
        <ele>632.40002441406</ele>
        <time>2019-03-09T09:47:30.000Z</time>
      </trkpt>
      <trkpt lat="43.41262" lon="2.13186">
        <ele>634.79998779297</ele>
        <time>2019-03-09T09:47:35.000Z</time>
      </trkpt>
      <trkpt lat="43.41278" lon="2.13186">
        <ele>635.79998779297</ele>
        <time>2019-03-09T09:47:38.000Z</time>
      </trkpt>
      <trkpt lat="43.41302" lon="2.13182">
        <ele>636.79998779297</ele>
        <time>2019-03-09T09:47:42.000Z</time>
      </trkpt>
      <trkpt lat="43.41308" lon="2.13179">
        <ele>637.20001220703</ele>
        <time>2019-03-09T09:47:43.000Z</time>
      </trkpt>
      <trkpt lat="43.41337" lon="2.13163">
        <ele>639.59997558594</ele>
        <time>2019-03-09T09:47:49.000Z</time>
      </trkpt>
      <trkpt lat="43.41353" lon="2.13164">
        <ele>640</ele>
        <time>2019-03-09T09:47:53.000Z</time>
      </trkpt>
      <trkpt lat="43.41367" lon="2.13171">
        <ele>640.59997558594</ele>
        <time>2019-03-09T09:47:58.000Z</time>
      </trkpt>
      <trkpt lat="43.41381" lon="2.13179">
        <ele>641</ele>
        <time>2019-03-09T09:48:04.000Z</time>
      </trkpt>
      <trkpt lat="43.41395" lon="2.13189">
        <ele>641.40002441406</ele>
        <time>2019-03-09T09:48:11.000Z</time>
      </trkpt>
      <trkpt lat="43.41397" lon="2.1319">
        <ele>641.40002441406</ele>
        <time>2019-03-09T09:48:12.000Z</time>
      </trkpt>
      <trkpt lat="43.41411" lon="2.13199">
        <ele>641.79998779297</ele>
        <time>2019-03-09T09:48:18.000Z</time>
      </trkpt>
      <trkpt lat="43.41429" lon="2.13206">
        <ele>642.40002441406</ele>
        <time>2019-03-09T09:48:25.000Z</time>
      </trkpt>
      <trkpt lat="43.4145" lon="2.13211">
        <ele>644.20001220703</ele>
        <time>2019-03-09T09:48:33.000Z</time>
      </trkpt>
      <trkpt lat="43.41469" lon="2.13215">
        <ele>646</ele>
        <time>2019-03-09T09:48:41.000Z</time>
      </trkpt>
      <trkpt lat="43.41485" lon="2.13218">
        <ele>647.59997558594</ele>
        <time>2019-03-09T09:48:48.000Z</time>
      </trkpt>
      <trkpt lat="43.41504" lon="2.1322">
        <ele>649.59997558594</ele>
        <time>2019-03-09T09:48:56.000Z</time>
      </trkpt>
      <trkpt lat="43.41517" lon="2.13219">
        <ele>651</ele>
        <time>2019-03-09T09:49:02.000Z</time>
      </trkpt>
      <trkpt lat="43.41519" lon="2.13219">
        <ele>651.20001220703</ele>
        <time>2019-03-09T09:49:03.000Z</time>
      </trkpt>
      <trkpt lat="43.41539" lon="2.13219">
        <ele>653.40002441406</ele>
        <time>2019-03-09T09:49:12.000Z</time>
      </trkpt>
      <trkpt lat="43.41552" lon="2.13221">
        <ele>654.59997558594</ele>
        <time>2019-03-09T09:49:18.000Z</time>
      </trkpt>
      <trkpt lat="43.41563" lon="2.1323">
        <ele>655.20001220703</ele>
        <time>2019-03-09T09:49:24.000Z</time>
      </trkpt>
      <trkpt lat="43.41573" lon="2.13244">
        <ele>655.20001220703</ele>
        <time>2019-03-09T09:49:30.000Z</time>
      </trkpt>
      <trkpt lat="43.41586" lon="2.13256">
        <ele>655</ele>
        <time>2019-03-09T09:49:37.000Z</time>
      </trkpt>
      <trkpt lat="43.41598" lon="2.13262">
        <ele>655.40002441406</ele>
        <time>2019-03-09T09:49:43.000Z</time>
      </trkpt>
      <trkpt lat="43.41611" lon="2.13266">
        <ele>656.79998779297</ele>
        <time>2019-03-09T09:49:49.000Z</time>
      </trkpt>
      <trkpt lat="43.41629" lon="2.13271">
        <ele>658.59997558594</ele>
        <time>2019-03-09T09:49:57.000Z</time>
      </trkpt>
      <trkpt lat="43.41645" lon="2.13277">
        <ele>660.20001220703</ele>
        <time>2019-03-09T09:50:04.000Z</time>
      </trkpt>
      <trkpt lat="43.4166" lon="2.13279">
        <ele>661.79998779297</ele>
        <time>2019-03-09T09:50:11.000Z</time>
      </trkpt>
      <trkpt lat="43.41665" lon="2.1328">
        <ele>662.40002441406</ele>
        <time>2019-03-09T09:50:13.000Z</time>
      </trkpt>
      <trkpt lat="43.41674" lon="2.13287">
        <ele>662.79998779297</ele>
        <time>2019-03-09T09:50:18.000Z</time>
      </trkpt>
      <trkpt lat="43.41682" lon="2.13295">
        <ele>663</ele>
        <time>2019-03-09T09:50:24.000Z</time>
      </trkpt>
      <trkpt lat="43.41695" lon="2.13301">
        <ele>663.20001220703</ele>
        <time>2019-03-09T09:50:30.000Z</time>
      </trkpt>
      <trkpt lat="43.41704" lon="2.13303">
        <ele>663.59997558594</ele>
        <time>2019-03-09T09:50:34.000Z</time>
      </trkpt>
      <trkpt lat="43.41711" lon="2.13304">
        <ele>664</ele>
        <time>2019-03-09T09:50:37.000Z</time>
      </trkpt>
      <trkpt lat="43.41728" lon="2.13306">
        <ele>664.79998779297</ele>
        <time>2019-03-09T09:50:44.000Z</time>
      </trkpt>
      <trkpt lat="43.41746" lon="2.13303">
        <ele>666.59997558594</ele>
        <time>2019-03-09T09:50:50.000Z</time>
      </trkpt>
      <trkpt lat="43.4175" lon="2.13302">
        <ele>667.20001220703</ele>
        <time>2019-03-09T09:50:52.000Z</time>
      </trkpt>
      <trkpt lat="43.41763" lon="2.13299">
        <ele>668.79998779297</ele>
        <time>2019-03-09T09:50:57.000Z</time>
      </trkpt>
      <trkpt lat="43.41778" lon="2.13294">
        <ele>669.79998779297</ele>
        <time>2019-03-09T09:51:03.000Z</time>
      </trkpt>
      <trkpt lat="43.41787" lon="2.13292">
        <ele>670.40002441406</ele>
        <time>2019-03-09T09:51:07.000Z</time>
      </trkpt>
      <trkpt lat="43.41794" lon="2.13291">
        <ele>670.59997558594</ele>
        <time>2019-03-09T09:51:10.000Z</time>
      </trkpt>
      <trkpt lat="43.41806" lon="2.13288">
        <ele>671.20001220703</ele>
        <time>2019-03-09T09:51:15.000Z</time>
      </trkpt>
      <trkpt lat="43.41814" lon="2.13286">
        <ele>671.40002441406</ele>
        <time>2019-03-09T09:51:18.000Z</time>
      </trkpt>
      <trkpt lat="43.41823" lon="2.13284">
        <ele>672</ele>
        <time>2019-03-09T09:51:21.000Z</time>
      </trkpt>
      <trkpt lat="43.41837" lon="2.13281">
        <ele>672.59997558594</ele>
        <time>2019-03-09T09:51:26.000Z</time>
      </trkpt>
      <trkpt lat="43.41852" lon="2.13276">
        <ele>673.79998779297</ele>
        <time>2019-03-09T09:51:32.000Z</time>
      </trkpt>
      <trkpt lat="43.41855" lon="2.13276">
        <ele>674.20001220703</ele>
        <time>2019-03-09T09:51:33.000Z</time>
      </trkpt>
      <trkpt lat="43.41871" lon="2.13276">
        <ele>676.40002441406</ele>
        <time>2019-03-09T09:51:39.000Z</time>
      </trkpt>
      <trkpt lat="43.41884" lon="2.13285">
        <ele>676.79998779297</ele>
        <time>2019-03-09T09:51:45.000Z</time>
      </trkpt>
      <trkpt lat="43.41898" lon="2.13295">
        <ele>677.20001220703</ele>
        <time>2019-03-09T09:51:52.000Z</time>
      </trkpt>
      <trkpt lat="43.41909" lon="2.13302">
        <ele>677.59997558594</ele>
        <time>2019-03-09T09:51:58.000Z</time>
      </trkpt>
      <trkpt lat="43.41923" lon="2.13308">
        <ele>678.20001220703</ele>
        <time>2019-03-09T09:52:05.000Z</time>
      </trkpt>
      <trkpt lat="43.41937" lon="2.13311">
        <ele>679</ele>
        <time>2019-03-09T09:52:12.000Z</time>
      </trkpt>
      <trkpt lat="43.41952" lon="2.13313">
        <ele>680</ele>
        <time>2019-03-09T09:52:20.000Z</time>
      </trkpt>
      <trkpt lat="43.41959" lon="2.13313">
        <ele>680.59997558594</ele>
        <time>2019-03-09T09:52:24.000Z</time>
      </trkpt>
      <trkpt lat="43.41965" lon="2.13312">
        <ele>681.20001220703</ele>
        <time>2019-03-09T09:52:27.000Z</time>
      </trkpt>
      <trkpt lat="43.4198" lon="2.1331">
        <ele>682.79998779297</ele>
        <time>2019-03-09T09:52:35.000Z</time>
      </trkpt>
      <trkpt lat="43.41995" lon="2.13306">
        <ele>684.20001220703</ele>
        <time>2019-03-09T09:52:42.000Z</time>
      </trkpt>
      <trkpt lat="43.42008" lon="2.13304">
        <ele>685.20001220703</ele>
        <time>2019-03-09T09:52:48.000Z</time>
      </trkpt>
      <trkpt lat="43.42009" lon="2.13304">
        <ele>685.40002441406</ele>
        <time>2019-03-09T09:52:49.000Z</time>
      </trkpt>
      <trkpt lat="43.42026" lon="2.13297">
        <ele>686.20001220703</ele>
        <time>2019-03-09T09:52:56.000Z</time>
      </trkpt>
      <trkpt lat="43.42042" lon="2.13291">
        <ele>686.59997558594</ele>
        <time>2019-03-09T09:53:03.000Z</time>
      </trkpt>
      <trkpt lat="43.42058" lon="2.13283">
        <ele>687.20001220703</ele>
        <time>2019-03-09T09:53:09.000Z</time>
      </trkpt>
      <trkpt lat="43.42063" lon="2.13282">
        <ele>687.40002441406</ele>
        <time>2019-03-09T09:53:11.000Z</time>
      </trkpt>
      <trkpt lat="43.42078" lon="2.13284">
        <ele>687.40002441406</ele>
        <time>2019-03-09T09:53:17.000Z</time>
      </trkpt>
      <trkpt lat="43.42098" lon="2.13287">
        <ele>687.40002441406</ele>
        <time>2019-03-09T09:53:25.000Z</time>
      </trkpt>
      <trkpt lat="43.42113" lon="2.13289">
        <ele>688</ele>
        <time>2019-03-09T09:53:31.000Z</time>
      </trkpt>
      <trkpt lat="43.42119" lon="2.13289">
        <ele>688.20001220703</ele>
        <time>2019-03-09T09:53:33.000Z</time>
      </trkpt>
      <trkpt lat="43.42136" lon="2.13291">
        <ele>688.79998779297</ele>
        <time>2019-03-09T09:53:40.000Z</time>
      </trkpt>
      <trkpt lat="43.42148" lon="2.13291">
        <ele>689.40002441406</ele>
        <time>2019-03-09T09:53:46.000Z</time>
      </trkpt>
      <trkpt lat="43.42164" lon="2.13291">
        <ele>689.79998779297</ele>
        <time>2019-03-09T09:53:52.000Z</time>
      </trkpt>
      <trkpt lat="43.42189" lon="2.13296">
        <ele>690</ele>
        <time>2019-03-09T09:53:59.000Z</time>
      </trkpt>
      <trkpt lat="43.42212" lon="2.13307">
        <ele>689.59997558594</ele>
        <time>2019-03-09T09:54:06.000Z</time>
      </trkpt>
      <trkpt lat="43.42229" lon="2.13314">
        <ele>689.40002441406</ele>
        <time>2019-03-09T09:54:12.000Z</time>
      </trkpt>
      <trkpt lat="43.42243" lon="2.13307">
        <ele>690</ele>
        <time>2019-03-09T09:54:15.000Z</time>
      </trkpt>
      <trkpt lat="43.42246" lon="2.13303">
        <ele>689.79998779297</ele>
        <time>2019-03-09T09:54:16.000Z</time>
      </trkpt>
      <trkpt lat="43.42253" lon="2.13284">
        <ele>689.20001220703</ele>
        <time>2019-03-09T09:54:19.000Z</time>
      </trkpt>
      <trkpt lat="43.42254" lon="2.13276">
        <ele>689</ele>
        <time>2019-03-09T09:54:20.000Z</time>
      </trkpt>
      <trkpt lat="43.42265" lon="2.13225">
        <ele>687.79998779297</ele>
        <time>2019-03-09T09:54:26.000Z</time>
      </trkpt>
      <trkpt lat="43.42268" lon="2.13206">
        <ele>687.20001220703</ele>
        <time>2019-03-09T09:54:28.000Z</time>
      </trkpt>
      <trkpt lat="43.42274" lon="2.13173">
        <ele>686</ele>
        <time>2019-03-09T09:54:31.000Z</time>
      </trkpt>
      <trkpt lat="43.42288" lon="2.13096">
        <ele>679</ele>
        <time>2019-03-09T09:54:37.000Z</time>
      </trkpt>
      <trkpt lat="43.42293" lon="2.13055">
        <ele>676.20001220703</ele>
        <time>2019-03-09T09:54:40.000Z</time>
      </trkpt>
      <trkpt lat="43.42289" lon="2.1304">
        <ele>675.40002441406</ele>
        <time>2019-03-09T09:54:41.000Z</time>
      </trkpt>
      <trkpt lat="43.42274" lon="2.12994">
        <ele>674.20001220703</ele>
        <time>2019-03-09T09:54:44.000Z</time>
      </trkpt>
      <trkpt lat="43.4226" lon="2.12923">
        <ele>668</ele>
        <time>2019-03-09T09:54:49.000Z</time>
      </trkpt>
      <trkpt lat="43.42261" lon="2.1291">
        <ele>666.40002441406</ele>
        <time>2019-03-09T09:54:50.000Z</time>
      </trkpt>
      <trkpt lat="43.42266" lon="2.12884">
        <ele>662.40002441406</ele>
        <time>2019-03-09T09:54:52.000Z</time>
      </trkpt>
      <trkpt lat="43.4228" lon="2.12841">
        <ele>656.40002441406</ele>
        <time>2019-03-09T09:54:55.000Z</time>
      </trkpt>
      <trkpt lat="43.42284" lon="2.12827">
        <ele>655.59997558594</ele>
        <time>2019-03-09T09:54:56.000Z</time>
      </trkpt>
      <trkpt lat="43.42286" lon="2.12812">
        <ele>655.40002441406</ele>
        <time>2019-03-09T09:54:57.000Z</time>
      </trkpt>
      <trkpt lat="43.42283" lon="2.12786">
        <ele>654.59997558594</ele>
        <time>2019-03-09T09:54:59.000Z</time>
      </trkpt>
      <trkpt lat="43.42269" lon="2.12755">
        <ele>653.40002441406</ele>
        <time>2019-03-09T09:55:02.000Z</time>
      </trkpt>
      <trkpt lat="43.42258" lon="2.12739">
        <ele>653.40002441406</ele>
        <time>2019-03-09T09:55:04.000Z</time>
      </trkpt>
      <trkpt lat="43.42255" lon="2.12731">
        <ele>654.20001220703</ele>
        <time>2019-03-09T09:55:05.000Z</time>
      </trkpt>
      <trkpt lat="43.42254" lon="2.12724">
        <ele>655</ele>
        <time>2019-03-09T09:55:06.000Z</time>
      </trkpt>
      <trkpt lat="43.42254" lon="2.12709">
        <ele>656.40002441406</ele>
        <time>2019-03-09T09:55:09.000Z</time>
      </trkpt>
      <trkpt lat="43.42258" lon="2.12691">
        <ele>658.59997558594</ele>
        <time>2019-03-09T09:55:14.000Z</time>
      </trkpt>
      <trkpt lat="43.42254" lon="2.12668">
        <ele>660.79998779297</ele>
        <time>2019-03-09T09:55:20.000Z</time>
      </trkpt>
      <trkpt lat="43.42249" lon="2.12648">
        <ele>662.79998779297</ele>
        <time>2019-03-09T09:55:26.000Z</time>
      </trkpt>
      <trkpt lat="43.4224" lon="2.12616">
        <ele>664.79998779297</ele>
        <time>2019-03-09T09:55:35.000Z</time>
      </trkpt>
      <trkpt lat="43.42231" lon="2.12586">
        <ele>666.40002441406</ele>
        <time>2019-03-09T09:55:43.000Z</time>
      </trkpt>
      <trkpt lat="43.42223" lon="2.12562">
        <ele>667.59997558594</ele>
        <time>2019-03-09T09:55:51.000Z</time>
      </trkpt>
      <trkpt lat="43.42221" lon="2.1254">
        <ele>668.40002441406</ele>
        <time>2019-03-09T09:55:57.000Z</time>
      </trkpt>
      <trkpt lat="43.42227" lon="2.1251">
        <ele>669.40002441406</ele>
        <time>2019-03-09T09:56:04.000Z</time>
      </trkpt>
      <trkpt lat="43.4224" lon="2.12483">
        <ele>668.79998779297</ele>
        <time>2019-03-09T09:56:11.000Z</time>
      </trkpt>
      <trkpt lat="43.42248" lon="2.12456">
        <ele>669</ele>
        <time>2019-03-09T09:56:18.000Z</time>
      </trkpt>
      <trkpt lat="43.42252" lon="2.12424">
        <ele>670.40002441406</ele>
        <time>2019-03-09T09:56:26.000Z</time>
      </trkpt>
      <trkpt lat="43.42253" lon="2.12397">
        <ele>671.40002441406</ele>
        <time>2019-03-09T09:56:33.000Z</time>
      </trkpt>
      <trkpt lat="43.42245" lon="2.12383">
        <ele>671.59997558594</ele>
        <time>2019-03-09T09:56:38.000Z</time>
      </trkpt>
      <trkpt lat="43.42231" lon="2.1237">
        <ele>670.79998779297</ele>
        <time>2019-03-09T09:56:42.000Z</time>
      </trkpt>
      <trkpt lat="43.42198" lon="2.1235">
        <ele>668.59997558594</ele>
        <time>2019-03-09T09:56:49.000Z</time>
      </trkpt>
      <trkpt lat="43.42179" lon="2.12339">
        <ele>667.20001220703</ele>
        <time>2019-03-09T09:56:53.000Z</time>
      </trkpt>
      <trkpt lat="43.42162" lon="2.12324">
        <ele>665.40002441406</ele>
        <time>2019-03-09T09:56:57.000Z</time>
      </trkpt>
      <trkpt lat="43.42154" lon="2.12315">
        <ele>664.20001220703</ele>
        <time>2019-03-09T09:56:59.000Z</time>
      </trkpt>
      <trkpt lat="43.42143" lon="2.12296">
        <ele>662.79998779297</ele>
        <time>2019-03-09T09:57:02.000Z</time>
      </trkpt>
      <trkpt lat="43.4213" lon="2.12269">
        <ele>661.79998779297</ele>
        <time>2019-03-09T09:57:06.000Z</time>
      </trkpt>
      <trkpt lat="43.42122" lon="2.12247">
        <ele>661.59997558594</ele>
        <time>2019-03-09T09:57:09.000Z</time>
      </trkpt>
      <trkpt lat="43.42104" lon="2.12198">
        <ele>660.79998779297</ele>
        <time>2019-03-09T09:57:15.000Z</time>
      </trkpt>
      <trkpt lat="43.42101" lon="2.1219">
        <ele>660.59997558594</ele>
        <time>2019-03-09T09:57:16.000Z</time>
      </trkpt>
      <trkpt lat="43.42094" lon="2.12174">
        <ele>660.40002441406</ele>
        <time>2019-03-09T09:57:18.000Z</time>
      </trkpt>
      <trkpt lat="43.42079" lon="2.12157">
        <ele>659.20001220703</ele>
        <time>2019-03-09T09:57:21.000Z</time>
      </trkpt>
      <trkpt lat="43.42073" lon="2.12152">
        <ele>658.59997558594</ele>
        <time>2019-03-09T09:57:22.000Z</time>
      </trkpt>
      <trkpt lat="43.42042" lon="2.12136">
        <ele>654.79998779297</ele>
        <time>2019-03-09T09:57:27.000Z</time>
      </trkpt>
      <trkpt lat="43.41992" lon="2.12112">
        <ele>649.20001220703</ele>
        <time>2019-03-09T09:57:34.000Z</time>
      </trkpt>
      <trkpt lat="43.41969" lon="2.12091">
        <ele>647.40002441406</ele>
        <time>2019-03-09T09:57:37.000Z</time>
      </trkpt>
      <trkpt lat="43.41962" lon="2.12083">
        <ele>647</ele>
        <time>2019-03-09T09:57:38.000Z</time>
      </trkpt>
      <trkpt lat="43.41951" lon="2.12061">
        <ele>646.20001220703</ele>
        <time>2019-03-09T09:57:40.000Z</time>
      </trkpt>
      <trkpt lat="43.41948" lon="2.12048">
        <ele>646.20001220703</ele>
        <time>2019-03-09T09:57:41.000Z</time>
      </trkpt>
      <trkpt lat="43.41946" lon="2.12021">
        <ele>647</ele>
        <time>2019-03-09T09:57:43.000Z</time>
      </trkpt>
      <trkpt lat="43.41947" lon="2.11995">
        <ele>647.59997558594</ele>
        <time>2019-03-09T09:57:45.000Z</time>
      </trkpt>
      <trkpt lat="43.41946" lon="2.11927">
        <ele>642.59997558594</ele>
        <time>2019-03-09T09:57:50.000Z</time>
      </trkpt>
      <trkpt lat="43.41946" lon="2.1188">
        <ele>638.79998779297</ele>
        <time>2019-03-09T09:57:54.000Z</time>
      </trkpt>
      <trkpt lat="43.41945" lon="2.11844">
        <ele>634.59997558594</ele>
        <time>2019-03-09T09:57:57.000Z</time>
      </trkpt>
      <trkpt lat="43.41939" lon="2.11821">
        <ele>632.20001220703</ele>
        <time>2019-03-09T09:57:59.000Z</time>
      </trkpt>
      <trkpt lat="43.41918" lon="2.11746">
        <ele>628.20001220703</ele>
        <time>2019-03-09T09:58:06.000Z</time>
      </trkpt>
      <trkpt lat="43.4191" lon="2.11687">
        <ele>627.59997558594</ele>
        <time>2019-03-09T09:58:12.000Z</time>
      </trkpt>
      <trkpt lat="43.41909" lon="2.11667">
        <ele>628</ele>
        <time>2019-03-09T09:58:14.000Z</time>
      </trkpt>
      <trkpt lat="43.41905" lon="2.11629">
        <ele>625.59997558594</ele>
        <time>2019-03-09T09:58:18.000Z</time>
      </trkpt>
      <trkpt lat="43.41898" lon="2.11577">
        <ele>626</ele>
        <time>2019-03-09T09:58:24.000Z</time>
      </trkpt>
      <trkpt lat="43.41893" lon="2.11537">
        <ele>625.59997558594</ele>
        <time>2019-03-09T09:58:29.000Z</time>
      </trkpt>
      <trkpt lat="43.41889" lon="2.11516">
        <ele>625</ele>
        <time>2019-03-09T09:58:32.000Z</time>
      </trkpt>
      <trkpt lat="43.41888" lon="2.11496">
        <ele>625</ele>
        <time>2019-03-09T09:58:35.000Z</time>
      </trkpt>
      <trkpt lat="43.4189" lon="2.1148">
        <ele>625.20001220703</ele>
        <time>2019-03-09T09:58:37.000Z</time>
      </trkpt>
      <trkpt lat="43.41894" lon="2.11464">
        <ele>626</ele>
        <time>2019-03-09T09:58:39.000Z</time>
      </trkpt>
      <trkpt lat="43.41898" lon="2.11448">
        <ele>625.79998779297</ele>
        <time>2019-03-09T09:58:41.000Z</time>
      </trkpt>
      <trkpt lat="43.41901" lon="2.11431">
        <ele>625</ele>
        <time>2019-03-09T09:58:43.000Z</time>
      </trkpt>
      <trkpt lat="43.41903" lon="2.11415">
        <ele>624</ele>
        <time>2019-03-09T09:58:45.000Z</time>
      </trkpt>
      <trkpt lat="43.41909" lon="2.1136">
        <ele>620.59997558594</ele>
        <time>2019-03-09T09:58:51.000Z</time>
      </trkpt>
      <trkpt lat="43.41913" lon="2.11315">
        <ele>616.79998779297</ele>
        <time>2019-03-09T09:58:55.000Z</time>
      </trkpt>
      <trkpt lat="43.41915" lon="2.11302">
        <ele>615.79998779297</ele>
        <time>2019-03-09T09:58:56.000Z</time>
      </trkpt>
      <trkpt lat="43.4193" lon="2.11244">
        <ele>610.79998779297</ele>
        <time>2019-03-09T09:59:01.000Z</time>
      </trkpt>
      <trkpt lat="43.41936" lon="2.11225">
        <ele>609</ele>
        <time>2019-03-09T09:59:03.000Z</time>
      </trkpt>
      <trkpt lat="43.41944" lon="2.11209">
        <ele>607.40002441406</ele>
        <time>2019-03-09T09:59:05.000Z</time>
      </trkpt>
      <trkpt lat="43.41955" lon="2.11197">
        <ele>606</ele>
        <time>2019-03-09T09:59:07.000Z</time>
      </trkpt>
      <trkpt lat="43.41967" lon="2.11192">
        <ele>605.59997558594</ele>
        <time>2019-03-09T09:59:08.000Z</time>
      </trkpt>
      <trkpt lat="43.42007" lon="2.11176">
        <ele>607.20001220703</ele>
        <time>2019-03-09T09:59:13.000Z</time>
      </trkpt>
      <trkpt lat="43.42017" lon="2.11174">
        <ele>607.79998779297</ele>
        <time>2019-03-09T09:59:16.000Z</time>
      </trkpt>
      <trkpt lat="43.4202" lon="2.1117">
        <ele>607.79998779297</ele>
        <time>2019-03-09T09:59:21.000Z</time>
      </trkpt>
      <trkpt lat="43.42018" lon="2.11165">
        <ele>607.40002441406</ele>
        <time>2019-03-09T09:59:27.000Z</time>
      </trkpt>
      <trkpt lat="43.42018" lon="2.11151">
        <ele>608.20001220703</ele>
        <time>2019-03-09T09:59:34.000Z</time>
      </trkpt>
      <trkpt lat="43.42022" lon="2.11138">
        <ele>609.40002441406</ele>
        <time>2019-03-09T09:59:40.000Z</time>
      </trkpt>
      <trkpt lat="43.42023" lon="2.11125">
        <ele>610.20001220703</ele>
        <time>2019-03-09T09:59:44.000Z</time>
      </trkpt>
      <trkpt lat="43.42025" lon="2.11109">
        <ele>611.40002441406</ele>
        <time>2019-03-09T09:59:49.000Z</time>
      </trkpt>
      <trkpt lat="43.42028" lon="2.11097">
        <ele>612.79998779297</ele>
        <time>2019-03-09T09:59:52.000Z</time>
      </trkpt>
      <trkpt lat="43.42035" lon="2.11076">
        <ele>615.40002441406</ele>
        <time>2019-03-09T09:59:58.000Z</time>
      </trkpt>
      <trkpt lat="43.42045" lon="2.11053">
        <ele>620</ele>
        <time>2019-03-09T10:00:05.000Z</time>
      </trkpt>
      <trkpt lat="43.42057" lon="2.11032">
        <ele>624.20001220703</ele>
        <time>2019-03-09T10:00:13.000Z</time>
      </trkpt>
      <trkpt lat="43.42064" lon="2.1102">
        <ele>624</ele>
        <time>2019-03-09T10:00:18.000Z</time>
      </trkpt>
      <trkpt lat="43.42068" lon="2.11013">
        <ele>624</ele>
        <time>2019-03-09T10:00:21.000Z</time>
      </trkpt>
      <trkpt lat="43.4208" lon="2.10999">
        <ele>624.20001220703</ele>
        <time>2019-03-09T10:00:29.000Z</time>
      </trkpt>
      <trkpt lat="43.4209" lon="2.1098">
        <ele>626.20001220703</ele>
        <time>2019-03-09T10:00:38.000Z</time>
      </trkpt>
      <trkpt lat="43.42098" lon="2.10967">
        <ele>626.40002441406</ele>
        <time>2019-03-09T10:00:45.000Z</time>
      </trkpt>
      <trkpt lat="43.421" lon="2.10951">
        <ele>626.79998779297</ele>
        <time>2019-03-09T10:00:50.000Z</time>
      </trkpt>
      <trkpt lat="43.4211" lon="2.10938">
        <ele>629.20001220703</ele>
        <time>2019-03-09T10:00:57.000Z</time>
      </trkpt>
      <trkpt lat="43.42114" lon="2.10934">
        <ele>630.40002441406</ele>
        <time>2019-03-09T10:01:03.000Z</time>
      </trkpt>
      <trkpt lat="43.42117" lon="2.10932">
        <ele>631.20001220703</ele>
        <time>2019-03-09T10:01:10.000Z</time>
      </trkpt>
      <trkpt lat="43.42123" lon="2.1093">
        <ele>631.79998779297</ele>
        <time>2019-03-09T10:01:17.000Z</time>
      </trkpt>
      <trkpt lat="43.42125" lon="2.1093">
        <ele>631.59997558594</ele>
        <time>2019-03-09T10:01:18.000Z</time>
      </trkpt>
      <trkpt lat="43.42133" lon="2.10926">
        <ele>631.40002441406</ele>
        <time>2019-03-09T10:01:23.000Z</time>
      </trkpt>
      <trkpt lat="43.42147" lon="2.10923">
        <ele>631.20001220703</ele>
        <time>2019-03-09T10:01:30.000Z</time>
      </trkpt>
      <trkpt lat="43.42155" lon="2.10921">
        <ele>631.20001220703</ele>
        <time>2019-03-09T10:01:36.000Z</time>
      </trkpt>
      <trkpt lat="43.42178" lon="2.10919">
        <ele>631.40002441406</ele>
        <time>2019-03-09T10:01:42.000Z</time>
      </trkpt>
      <trkpt lat="43.42191" lon="2.10914">
        <ele>631.59997558594</ele>
        <time>2019-03-09T10:01:47.000Z</time>
      </trkpt>
      <trkpt lat="43.42199" lon="2.10912">
        <ele>632.20001220703</ele>
        <time>2019-03-09T10:01:53.000Z</time>
      </trkpt>
      <trkpt lat="43.42207" lon="2.10919">
        <ele>634.20001220703</ele>
        <time>2019-03-09T10:02:00.000Z</time>
      </trkpt>
      <trkpt lat="43.4221" lon="2.1092">
        <ele>634.59997558594</ele>
        <time>2019-03-09T10:02:03.000Z</time>
      </trkpt>
      <trkpt lat="43.42216" lon="2.1092">
        <ele>635.40002441406</ele>
        <time>2019-03-09T10:02:06.000Z</time>
      </trkpt>
      <trkpt lat="43.42223" lon="2.1092">
        <ele>636.20001220703</ele>
        <time>2019-03-09T10:02:10.000Z</time>
      </trkpt>
      <trkpt lat="43.4223" lon="2.10923">
        <ele>637.40002441406</ele>
        <time>2019-03-09T10:02:14.000Z</time>
      </trkpt>
      <trkpt lat="43.42239" lon="2.10928">
        <ele>639</ele>
        <time>2019-03-09T10:02:20.000Z</time>
      </trkpt>
      <trkpt lat="43.42248" lon="2.10932">
        <ele>640.79998779297</ele>
        <time>2019-03-09T10:02:27.000Z</time>
      </trkpt>
      <trkpt lat="43.4226" lon="2.10933">
        <ele>642.40002441406</ele>
        <time>2019-03-09T10:02:33.000Z</time>
      </trkpt>
      <trkpt lat="43.42273" lon="2.10933">
        <ele>643.40002441406</ele>
        <time>2019-03-09T10:02:40.000Z</time>
      </trkpt>
      <trkpt lat="43.42282" lon="2.10937">
        <ele>644.20001220703</ele>
        <time>2019-03-09T10:02:46.000Z</time>
      </trkpt>
      <trkpt lat="43.42283" lon="2.10939">
        <ele>644.40002441406</ele>
        <time>2019-03-09T10:02:47.000Z</time>
      </trkpt>
      <trkpt lat="43.4229" lon="2.10944">
        <ele>645.40002441406</ele>
        <time>2019-03-09T10:02:53.000Z</time>
      </trkpt>
      <trkpt lat="43.42298" lon="2.10952">
        <ele>646.79998779297</ele>
        <time>2019-03-09T10:02:59.000Z</time>
      </trkpt>
      <trkpt lat="43.42299" lon="2.10954">
        <ele>647</ele>
        <time>2019-03-09T10:03:00.000Z</time>
      </trkpt>
      <trkpt lat="43.42303" lon="2.10954">
        <ele>647.20001220703</ele>
        <time>2019-03-09T10:03:03.000Z</time>
      </trkpt>
      <trkpt lat="43.42308" lon="2.10953">
        <ele>647.20001220703</ele>
        <time>2019-03-09T10:03:06.000Z</time>
      </trkpt>
      <trkpt lat="43.42314" lon="2.1095">
        <ele>647.59997558594</ele>
        <time>2019-03-09T10:03:12.000Z</time>
      </trkpt>
      <trkpt lat="43.4232" lon="2.10947">
        <ele>647.79998779297</ele>
        <time>2019-03-09T10:03:19.000Z</time>
      </trkpt>
      <trkpt lat="43.42329" lon="2.10936">
        <ele>648</ele>
        <time>2019-03-09T10:03:26.000Z</time>
      </trkpt>
      <trkpt lat="43.42337" lon="2.10932">
        <ele>648.40002441406</ele>
        <time>2019-03-09T10:03:33.000Z</time>
      </trkpt>
      <trkpt lat="43.42348" lon="2.10935">
        <ele>649.59997558594</ele>
        <time>2019-03-09T10:03:40.000Z</time>
      </trkpt>
      <trkpt lat="43.42348" lon="2.10935">
        <ele>649.79998779297</ele>
        <time>2019-03-09T10:03:48.000Z</time>
      </trkpt>
      <trkpt lat="43.42348" lon="2.10935">
        <ele>649.79998779297</ele>
        <time>2019-03-09T10:04:04.000Z</time>
      </trkpt>
      <trkpt lat="43.42348" lon="2.10935">
        <ele>649.79998779297</ele>
        <time>2019-03-09T10:04:19.000Z</time>
      </trkpt>
      <trkpt lat="43.42349" lon="2.10934">
        <ele>649.79998779297</ele>
        <time>2019-03-09T10:04:37.000Z</time>
      </trkpt>
      <trkpt lat="43.42349" lon="2.10934">
        <ele>649.79998779297</ele>
        <time>2019-03-09T10:04:38.000Z</time>
      </trkpt>
      <trkpt lat="43.42349" lon="2.10934">
        <ele>649.79998779297</ele>
        <time>2019-03-09T10:04:55.000Z</time>
      </trkpt>
      <trkpt lat="43.42349" lon="2.10934">
        <ele>649.79998779297</ele>
        <time>2019-03-09T10:04:56.000Z</time>
      </trkpt>
      <trkpt lat="43.42349" lon="2.10934">
        <ele>649.79998779297</ele>
        <time>2019-03-09T10:05:10.000Z</time>
      </trkpt>
      <trkpt lat="43.42349" lon="2.10934">
        <ele>649.79998779297</ele>
        <time>2019-03-09T10:05:14.000Z</time>
      </trkpt>
      <trkpt lat="43.42349" lon="2.10934">
        <ele>649.79998779297</ele>
        <time>2019-03-09T10:05:27.000Z</time>
      </trkpt>
      <trkpt lat="43.42349" lon="2.10934">
        <ele>649.79998779297</ele>
        <time>2019-03-09T10:05:29.000Z</time>
      </trkpt>
      <trkpt lat="43.4235" lon="2.10935">
        <ele>649.79998779297</ele>
        <time>2019-03-09T10:05:43.000Z</time>
      </trkpt>
      <trkpt lat="43.4235" lon="2.10935">
        <ele>649.79998779297</ele>
        <time>2019-03-09T10:05:45.000Z</time>
      </trkpt>
      <trkpt lat="43.4235" lon="2.10935">
        <ele>649.79998779297</ele>
        <time>2019-03-09T10:06:01.000Z</time>
      </trkpt>
      <trkpt lat="43.4235" lon="2.10935">
        <ele>649.79998779297</ele>
        <time>2019-03-09T10:06:05.000Z</time>
      </trkpt>
      <trkpt lat="43.4235" lon="2.10935">
        <ele>649.79998779297</ele>
        <time>2019-03-09T10:06:20.000Z</time>
      </trkpt>
      <trkpt lat="43.4235" lon="2.10935">
        <ele>650</ele>
        <time>2019-03-09T10:06:24.000Z</time>
      </trkpt>
      <trkpt lat="43.4235" lon="2.10935">
        <ele>650</ele>
        <time>2019-03-09T10:06:38.000Z</time>
      </trkpt>
      <trkpt lat="43.4235" lon="2.10935">
        <ele>650</ele>
        <time>2019-03-09T10:06:43.000Z</time>
      </trkpt>
      <trkpt lat="43.4235" lon="2.10935">
        <ele>650</ele>
        <time>2019-03-09T10:06:52.000Z</time>
      </trkpt>
      <trkpt lat="43.4235" lon="2.10935">
        <ele>650</ele>
        <time>2019-03-09T10:07:02.000Z</time>
      </trkpt>
      <trkpt lat="43.4235" lon="2.10935">
        <ele>650</ele>
        <time>2019-03-09T10:07:05.000Z</time>
      </trkpt>
      <trkpt lat="43.42351" lon="2.10935">
        <ele>650.20001220703</ele>
        <time>2019-03-09T10:07:17.000Z</time>
      </trkpt>
      <trkpt lat="43.42351" lon="2.10936">
        <ele>650.20001220703</ele>
        <time>2019-03-09T10:07:20.000Z</time>
      </trkpt>
      <trkpt lat="43.42356" lon="2.1094">
        <ele>651.20001220703</ele>
        <time>2019-03-09T10:07:22.000Z</time>
      </trkpt>
      <trkpt lat="43.42359" lon="2.10942">
        <ele>651.79998779297</ele>
        <time>2019-03-09T10:07:24.000Z</time>
      </trkpt>
      <trkpt lat="43.42366" lon="2.10944">
        <ele>653</ele>
        <time>2019-03-09T10:07:28.000Z</time>
      </trkpt>
      <trkpt lat="43.42379" lon="2.10945">
        <ele>654.79998779297</ele>
        <time>2019-03-09T10:07:35.000Z</time>
      </trkpt>
      <trkpt lat="43.4238" lon="2.10946">
        <ele>655.20001220703</ele>
        <time>2019-03-09T10:07:36.000Z</time>
      </trkpt>
      <trkpt lat="43.42384" lon="2.10946">
        <ele>655.59997558594</ele>
        <time>2019-03-09T10:07:39.000Z</time>
      </trkpt>
      <trkpt lat="43.42396" lon="2.10948">
        <ele>657</ele>
        <time>2019-03-09T10:07:47.000Z</time>
      </trkpt>
      <trkpt lat="43.42402" lon="2.10943">
        <ele>657.20001220703</ele>
        <time>2019-03-09T10:07:54.000Z</time>
      </trkpt>
      <trkpt lat="43.42408" lon="2.10937">
        <ele>656.79998779297</ele>
        <time>2019-03-09T10:07:58.000Z</time>
      </trkpt>
      <trkpt lat="43.42413" lon="2.10931">
        <ele>656.59997558594</ele>
        <time>2019-03-09T10:08:02.000Z</time>
      </trkpt>
      <trkpt lat="43.42421" lon="2.10921">
        <ele>656.20001220703</ele>
        <time>2019-03-09T10:08:09.000Z</time>
      </trkpt>
      <trkpt lat="43.4243" lon="2.10903">
        <ele>656.79998779297</ele>
        <time>2019-03-09T10:08:17.000Z</time>
      </trkpt>
      <trkpt lat="43.42437" lon="2.10889">
        <ele>659.40002441406</ele>
        <time>2019-03-09T10:08:25.000Z</time>
      </trkpt>
      <trkpt lat="43.42441" lon="2.10885">
        <ele>660.40002441406</ele>
        <time>2019-03-09T10:08:29.000Z</time>
      </trkpt>
      <trkpt lat="43.42448" lon="2.1088">
        <ele>661.59997558594</ele>
        <time>2019-03-09T10:08:32.000Z</time>
      </trkpt>
      <trkpt lat="43.42455" lon="2.10877">
        <ele>662.79998779297</ele>
        <time>2019-03-09T10:08:35.000Z</time>
      </trkpt>
      <trkpt lat="43.42461" lon="2.10874">
        <ele>664</ele>
        <time>2019-03-09T10:08:38.000Z</time>
      </trkpt>
      <trkpt lat="43.42474" lon="2.10866">
        <ele>666</ele>
        <time>2019-03-09T10:08:44.000Z</time>
      </trkpt>
      <trkpt lat="43.42489" lon="2.10863">
        <ele>665.40002441406</ele>
        <time>2019-03-09T10:08:50.000Z</time>
      </trkpt>
      <trkpt lat="43.42491" lon="2.10864">
        <ele>665.40002441406</ele>
        <time>2019-03-09T10:08:51.000Z</time>
      </trkpt>
      <trkpt lat="43.42509" lon="2.10872">
        <ele>664.79998779297</ele>
        <time>2019-03-09T10:09:00.000Z</time>
      </trkpt>
      <trkpt lat="43.42512" lon="2.10872">
        <ele>664.59997558594</ele>
        <time>2019-03-09T10:09:03.000Z</time>
      </trkpt>
      <trkpt lat="43.42517" lon="2.10872">
        <ele>664.59997558594</ele>
        <time>2019-03-09T10:09:06.000Z</time>
      </trkpt>
      <trkpt lat="43.42527" lon="2.10878">
        <ele>665</ele>
        <time>2019-03-09T10:09:13.000Z</time>
      </trkpt>
      <trkpt lat="43.4254" lon="2.10895">
        <ele>665.40002441406</ele>
        <time>2019-03-09T10:09:21.000Z</time>
      </trkpt>
      <trkpt lat="43.42541" lon="2.10897">
        <ele>665.40002441406</ele>
        <time>2019-03-09T10:09:22.000Z</time>
      </trkpt>
      <trkpt lat="43.42547" lon="2.10909">
        <ele>665.79998779297</ele>
        <time>2019-03-09T10:09:29.000Z</time>
      </trkpt>
      <trkpt lat="43.42552" lon="2.10924">
        <ele>668</ele>
        <time>2019-03-09T10:09:37.000Z</time>
      </trkpt>
      <trkpt lat="43.42553" lon="2.10932">
        <ele>669.20001220703</ele>
        <time>2019-03-09T10:09:41.000Z</time>
      </trkpt>
      <trkpt lat="43.42554" lon="2.10939">
        <ele>670.40002441406</ele>
        <time>2019-03-09T10:09:45.000Z</time>
      </trkpt>
      <trkpt lat="43.42559" lon="2.10949">
        <ele>672</ele>
        <time>2019-03-09T10:09:52.000Z</time>
      </trkpt>
      <trkpt lat="43.4256" lon="2.1095">
        <ele>672.40002441406</ele>
        <time>2019-03-09T10:09:53.000Z</time>
      </trkpt>
      <trkpt lat="43.42567" lon="2.10961">
        <ele>674.20001220703</ele>
        <time>2019-03-09T10:10:00.000Z</time>
      </trkpt>
      <trkpt lat="43.4257" lon="2.10969">
        <ele>675.40002441406</ele>
        <time>2019-03-09T10:10:06.000Z</time>
      </trkpt>
      <trkpt lat="43.42569" lon="2.10974">
        <ele>676.20001220703</ele>
        <time>2019-03-09T10:10:10.000Z</time>
      </trkpt>
      <trkpt lat="43.42566" lon="2.10978">
        <ele>676.79998779297</ele>
        <time>2019-03-09T10:10:13.000Z</time>
      </trkpt>
      <trkpt lat="43.42563" lon="2.10983">
        <ele>677.59997558594</ele>
        <time>2019-03-09T10:10:16.000Z</time>
      </trkpt>
      <trkpt lat="43.42558" lon="2.10986">
        <ele>677.79998779297</ele>
        <time>2019-03-09T10:10:20.000Z</time>
      </trkpt>
      <trkpt lat="43.42551" lon="2.10997">
        <ele>679.20001220703</ele>
        <time>2019-03-09T10:10:28.000Z</time>
      </trkpt>
      <trkpt lat="43.42545" lon="2.11">
        <ele>679.59997558594</ele>
        <time>2019-03-09T10:10:32.000Z</time>
      </trkpt>
      <trkpt lat="43.42543" lon="2.11004">
        <ele>680</ele>
        <time>2019-03-09T10:10:35.000Z</time>
      </trkpt>
      <trkpt lat="43.42536" lon="2.11011">
        <ele>680.59997558594</ele>
        <time>2019-03-09T10:10:39.000Z</time>
      </trkpt>
      <trkpt lat="43.42533" lon="2.11017">
        <ele>681</ele>
        <time>2019-03-09T10:10:42.000Z</time>
      </trkpt>
      <trkpt lat="43.42529" lon="2.11028">
        <ele>681.79998779297</ele>
        <time>2019-03-09T10:10:49.000Z</time>
      </trkpt>
      <trkpt lat="43.4253" lon="2.11047">
        <ele>683.40002441406</ele>
        <time>2019-03-09T10:10:57.000Z</time>
      </trkpt>
      <trkpt lat="43.42531" lon="2.1105">
        <ele>683.59997558594</ele>
        <time>2019-03-09T10:10:59.000Z</time>
      </trkpt>
      <trkpt lat="43.42533" lon="2.11053">
        <ele>684.20001220703</ele>
        <time>2019-03-09T10:11:02.000Z</time>
      </trkpt>
      <trkpt lat="43.42543" lon="2.11058">
        <ele>685</ele>
        <time>2019-03-09T10:11:09.000Z</time>
      </trkpt>
      <trkpt lat="43.42552" lon="2.1106">
        <ele>685.79998779297</ele>
        <time>2019-03-09T10:11:15.000Z</time>
      </trkpt>
      <trkpt lat="43.42562" lon="2.11065">
        <ele>686.79998779297</ele>
        <time>2019-03-09T10:11:22.000Z</time>
      </trkpt>
      <trkpt lat="43.4257" lon="2.1107">
        <ele>687.59997558594</ele>
        <time>2019-03-09T10:11:28.000Z</time>
      </trkpt>
      <trkpt lat="43.42571" lon="2.11071">
        <ele>687.79998779297</ele>
        <time>2019-03-09T10:11:29.000Z</time>
      </trkpt>
      <trkpt lat="43.42577" lon="2.11076">
        <ele>688.59997558594</ele>
        <time>2019-03-09T10:11:35.000Z</time>
      </trkpt>
      <trkpt lat="43.42587" lon="2.11085">
        <ele>690</ele>
        <time>2019-03-09T10:11:42.000Z</time>
      </trkpt>
      <trkpt lat="43.42598" lon="2.11093">
        <ele>691.20001220703</ele>
        <time>2019-03-09T10:11:48.000Z</time>
      </trkpt>
      <trkpt lat="43.42611" lon="2.11106">
        <ele>692</ele>
        <time>2019-03-09T10:11:56.000Z</time>
      </trkpt>
      <trkpt lat="43.42622" lon="2.11121">
        <ele>692.79998779297</ele>
        <time>2019-03-09T10:12:04.000Z</time>
      </trkpt>
      <trkpt lat="43.42627" lon="2.11129">
        <ele>693.40002441406</ele>
        <time>2019-03-09T10:12:07.000Z</time>
      </trkpt>
      <trkpt lat="43.42629" lon="2.11135">
        <ele>693.79998779297</ele>
        <time>2019-03-09T10:12:09.000Z</time>
      </trkpt>
      <trkpt lat="43.4263" lon="2.11141">
        <ele>694.20001220703</ele>
        <time>2019-03-09T10:12:11.000Z</time>
      </trkpt>
      <trkpt lat="43.42633" lon="2.11153">
        <ele>695.20001220703</ele>
        <time>2019-03-09T10:12:15.000Z</time>
      </trkpt>
      <trkpt lat="43.42636" lon="2.11172">
        <ele>696</ele>
        <time>2019-03-09T10:12:21.000Z</time>
      </trkpt>
      <trkpt lat="43.42636" lon="2.11189">
        <ele>696.40002441406</ele>
        <time>2019-03-09T10:12:26.000Z</time>
      </trkpt>
      <trkpt lat="43.42636" lon="2.11196">
        <ele>696.59997558594</ele>
        <time>2019-03-09T10:12:28.000Z</time>
      </trkpt>
      <trkpt lat="43.42638" lon="2.11216">
        <ele>696.79998779297</ele>
        <time>2019-03-09T10:12:33.000Z</time>
      </trkpt>
      <trkpt lat="43.42645" lon="2.11242">
        <ele>696.79998779297</ele>
        <time>2019-03-09T10:12:39.000Z</time>
      </trkpt>
      <trkpt lat="43.42655" lon="2.11272">
        <ele>697</ele>
        <time>2019-03-09T10:12:45.000Z</time>
      </trkpt>
      <trkpt lat="43.42665" lon="2.113">
        <ele>697</ele>
        <time>2019-03-09T10:12:50.000Z</time>
      </trkpt>
      <trkpt lat="43.4267" lon="2.11314">
        <ele>697.20001220703</ele>
        <time>2019-03-09T10:12:53.000Z</time>
      </trkpt>
      <trkpt lat="43.42676" lon="2.1132">
        <ele>697</ele>
        <time>2019-03-09T10:12:55.000Z</time>
      </trkpt>
      <trkpt lat="43.42695" lon="2.1134">
        <ele>696.59997558594</ele>
        <time>2019-03-09T10:13:01.000Z</time>
      </trkpt>
      <trkpt lat="43.42718" lon="2.11356">
        <ele>695.79998779297</ele>
        <time>2019-03-09T10:13:07.000Z</time>
      </trkpt>
      <trkpt lat="43.42723" lon="2.11358">
        <ele>695.59997558594</ele>
        <time>2019-03-09T10:13:08.000Z</time>
      </trkpt>
      <trkpt lat="43.42748" lon="2.11369">
        <ele>695</ele>
        <time>2019-03-09T10:13:13.000Z</time>
      </trkpt>
      <trkpt lat="43.42753" lon="2.1137">
        <ele>694.79998779297</ele>
        <time>2019-03-09T10:13:14.000Z</time>
      </trkpt>
      <trkpt lat="43.42758" lon="2.11372">
        <ele>694.59997558594</ele>
        <time>2019-03-09T10:13:15.000Z</time>
      </trkpt>
      <trkpt lat="43.42774" lon="2.11376">
        <ele>694</ele>
        <time>2019-03-09T10:13:18.000Z</time>
      </trkpt>
      <trkpt lat="43.42788" lon="2.11378">
        <ele>693.40002441406</ele>
        <time>2019-03-09T10:13:21.000Z</time>
      </trkpt>
      <trkpt lat="43.42797" lon="2.11378">
        <ele>692.79998779297</ele>
        <time>2019-03-09T10:13:23.000Z</time>
      </trkpt>
      <trkpt lat="43.42814" lon="2.11366">
        <ele>692.59997558594</ele>
        <time>2019-03-09T10:13:27.000Z</time>
      </trkpt>
      <trkpt lat="43.42838" lon="2.11349">
        <ele>693</ele>
        <time>2019-03-09T10:13:33.000Z</time>
      </trkpt>
      <trkpt lat="43.4286" lon="2.11344">
        <ele>693.59997558594</ele>
        <time>2019-03-09T10:13:38.000Z</time>
      </trkpt>
      <trkpt lat="43.42874" lon="2.11342">
        <ele>694.40002441406</ele>
        <time>2019-03-09T10:13:41.000Z</time>
      </trkpt>
      <trkpt lat="43.42896" lon="2.1134">
        <ele>695.20001220703</ele>
        <time>2019-03-09T10:13:46.000Z</time>
      </trkpt>
      <trkpt lat="43.42924" lon="2.1133">
        <ele>696.59997558594</ele>
        <time>2019-03-09T10:13:53.000Z</time>
      </trkpt>
      <trkpt lat="43.42951" lon="2.11311">
        <ele>697.59997558594</ele>
        <time>2019-03-09T10:14:01.000Z</time>
      </trkpt>
      <trkpt lat="43.42978" lon="2.11294">
        <ele>698.59997558594</ele>
        <time>2019-03-09T10:14:09.000Z</time>
      </trkpt>
      <trkpt lat="43.42991" lon="2.11285">
        <ele>698.79998779297</ele>
        <time>2019-03-09T10:14:13.000Z</time>
      </trkpt>
      <trkpt lat="43.43005" lon="2.11277">
        <ele>699</ele>
        <time>2019-03-09T10:14:17.000Z</time>
      </trkpt>
      <trkpt lat="43.43025" lon="2.11265">
        <ele>698.59997558594</ele>
        <time>2019-03-09T10:14:22.000Z</time>
      </trkpt>
      <trkpt lat="43.43033" lon="2.1126">
        <ele>698.20001220703</ele>
        <time>2019-03-09T10:14:24.000Z</time>
      </trkpt>
      <trkpt lat="43.43042" lon="2.11254">
        <ele>698.40002441406</ele>
        <time>2019-03-09T10:14:26.000Z</time>
      </trkpt>
      <trkpt lat="43.43075" lon="2.11231">
        <ele>698.40002441406</ele>
        <time>2019-03-09T10:14:34.000Z</time>
      </trkpt>
      <trkpt lat="43.43091" lon="2.11216">
        <ele>698.40002441406</ele>
        <time>2019-03-09T10:14:39.000Z</time>
      </trkpt>
      <trkpt lat="43.43095" lon="2.11215">
        <ele>698.40002441406</ele>
        <time>2019-03-09T10:14:40.000Z</time>
      </trkpt>
      <trkpt lat="43.43111" lon="2.1121">
        <ele>698</ele>
        <time>2019-03-09T10:14:44.000Z</time>
      </trkpt>
      <trkpt lat="43.43115" lon="2.1121">
        <ele>697.79998779297</ele>
        <time>2019-03-09T10:14:45.000Z</time>
      </trkpt>
      <trkpt lat="43.43122" lon="2.11215">
        <ele>697.79998779297</ele>
        <time>2019-03-09T10:14:47.000Z</time>
      </trkpt>
      <trkpt lat="43.43127" lon="2.11232">
        <ele>698.40002441406</ele>
        <time>2019-03-09T10:14:50.000Z</time>
      </trkpt>
      <trkpt lat="43.43128" lon="2.11245">
        <ele>699</ele>
        <time>2019-03-09T10:14:52.000Z</time>
      </trkpt>
      <trkpt lat="43.43132" lon="2.11274">
        <ele>699.59997558594</ele>
        <time>2019-03-09T10:14:56.000Z</time>
      </trkpt>
      <trkpt lat="43.43139" lon="2.11327">
        <ele>701</ele>
        <time>2019-03-09T10:15:03.000Z</time>
      </trkpt>
      <trkpt lat="43.43146" lon="2.11378">
        <ele>699.20001220703</ele>
        <time>2019-03-09T10:15:09.000Z</time>
      </trkpt>
      <trkpt lat="43.4316" lon="2.11451">
        <ele>697.40002441406</ele>
        <time>2019-03-09T10:15:17.000Z</time>
      </trkpt>
      <trkpt lat="43.43162" lon="2.11461">
        <ele>697</ele>
        <time>2019-03-09T10:15:18.000Z</time>
      </trkpt>
      <trkpt lat="43.43174" lon="2.11515">
        <ele>695</ele>
        <time>2019-03-09T10:15:24.000Z</time>
      </trkpt>
      <trkpt lat="43.4318" lon="2.11549">
        <ele>694.40002441406</ele>
        <time>2019-03-09T10:15:28.000Z</time>
      </trkpt>
      <trkpt lat="43.43182" lon="2.11564">
        <ele>694</ele>
        <time>2019-03-09T10:15:30.000Z</time>
      </trkpt>
      <trkpt lat="43.43186" lon="2.11589">
        <ele>694</ele>
        <time>2019-03-09T10:15:34.000Z</time>
      </trkpt>
      <trkpt lat="43.43189" lon="2.11592">
        <ele>694.20001220703</ele>
        <time>2019-03-09T10:15:35.000Z</time>
      </trkpt>
      <trkpt lat="43.43198" lon="2.11591">
        <ele>694</ele>
        <time>2019-03-09T10:15:38.000Z</time>
      </trkpt>
      <trkpt lat="43.43202" lon="2.11584">
        <ele>693.59997558594</ele>
        <time>2019-03-09T10:15:40.000Z</time>
      </trkpt>
      <trkpt lat="43.43207" lon="2.11574">
        <ele>693.40002441406</ele>
        <time>2019-03-09T10:15:42.000Z</time>
      </trkpt>
      <trkpt lat="43.4322" lon="2.11548">
        <ele>693</ele>
        <time>2019-03-09T10:15:46.000Z</time>
      </trkpt>
      <trkpt lat="43.43224" lon="2.1154">
        <ele>693</ele>
        <time>2019-03-09T10:15:47.000Z</time>
      </trkpt>
      <trkpt lat="43.43248" lon="2.11491">
        <ele>690</ele>
        <time>2019-03-09T10:15:53.000Z</time>
      </trkpt>
      <trkpt lat="43.43282" lon="2.11424">
        <ele>688</ele>
        <time>2019-03-09T10:16:00.000Z</time>
      </trkpt>
      <trkpt lat="43.43287" lon="2.11415">
        <ele>688.20001220703</ele>
        <time>2019-03-09T10:16:01.000Z</time>
      </trkpt>
      <trkpt lat="43.43315" lon="2.1136">
        <ele>689.40002441406</ele>
        <time>2019-03-09T10:16:07.000Z</time>
      </trkpt>
      <trkpt lat="43.43341" lon="2.11321">
        <ele>687.20001220703</ele>
        <time>2019-03-09T10:16:12.000Z</time>
      </trkpt>
      <trkpt lat="43.43379" lon="2.11273">
        <ele>688.59997558594</ele>
        <time>2019-03-09T10:16:19.000Z</time>
      </trkpt>
      <trkpt lat="43.43391" lon="2.11256">
        <ele>688.20001220703</ele>
        <time>2019-03-09T10:16:22.000Z</time>
      </trkpt>
      <trkpt lat="43.43395" lon="2.11253">
        <ele>688.20001220703</ele>
        <time>2019-03-09T10:16:23.000Z</time>
      </trkpt>
      <trkpt lat="43.43404" lon="2.1125">
        <ele>688.40002441406</ele>
        <time>2019-03-09T10:16:26.000Z</time>
      </trkpt>
      <trkpt lat="43.43407" lon="2.11251">
        <ele>688.40002441406</ele>
        <time>2019-03-09T10:16:28.000Z</time>
      </trkpt>
      <trkpt lat="43.43409" lon="2.11251">
        <ele>688.59997558594</ele>
        <time>2019-03-09T10:16:30.000Z</time>
      </trkpt>
      <trkpt lat="43.43413" lon="2.11252">
        <ele>688.79998779297</ele>
        <time>2019-03-09T10:16:34.000Z</time>
      </trkpt>
      <trkpt lat="43.43415" lon="2.11252">
        <ele>688.79998779297</ele>
        <time>2019-03-09T10:16:36.000Z</time>
      </trkpt>
      <trkpt lat="43.43422" lon="2.11254">
        <ele>689.20001220703</ele>
        <time>2019-03-09T10:16:41.000Z</time>
      </trkpt>
      <trkpt lat="43.43429" lon="2.11254">
        <ele>689.40002441406</ele>
        <time>2019-03-09T10:16:47.000Z</time>
      </trkpt>
      <trkpt lat="43.43436" lon="2.11256">
        <ele>689.79998779297</ele>
        <time>2019-03-09T10:16:54.000Z</time>
      </trkpt>
      <trkpt lat="43.43441" lon="2.11259">
        <ele>690</ele>
        <time>2019-03-09T10:17:00.000Z</time>
      </trkpt>
      <trkpt lat="43.43446" lon="2.11261">
        <ele>690.40002441406</ele>
        <time>2019-03-09T10:17:03.000Z</time>
      </trkpt>
      <trkpt lat="43.4345" lon="2.11264">
        <ele>690.59997558594</ele>
        <time>2019-03-09T10:17:06.000Z</time>
      </trkpt>
      <trkpt lat="43.43459" lon="2.11268">
        <ele>691.20001220703</ele>
        <time>2019-03-09T10:17:11.000Z</time>
      </trkpt>
      <trkpt lat="43.4346" lon="2.11268">
        <ele>691.40002441406</ele>
        <time>2019-03-09T10:17:12.000Z</time>
      </trkpt>
      <trkpt lat="43.43465" lon="2.11273">
        <ele>691.79998779297</ele>
        <time>2019-03-09T10:17:16.000Z</time>
      </trkpt>
      <trkpt lat="43.43468" lon="2.11275">
        <ele>692</ele>
        <time>2019-03-09T10:17:18.000Z</time>
      </trkpt>
      <trkpt lat="43.43469" lon="2.11276">
        <ele>692.20001220703</ele>
        <time>2019-03-09T10:17:19.000Z</time>
      </trkpt>
      <trkpt lat="43.43481" lon="2.11285">
        <ele>693.20001220703</ele>
        <time>2019-03-09T10:17:26.000Z</time>
      </trkpt>
      <trkpt lat="43.43486" lon="2.11292">
        <ele>693.59997558594</ele>
        <time>2019-03-09T10:17:30.000Z</time>
      </trkpt>
      <trkpt lat="43.43493" lon="2.11294">
        <ele>694.20001220703</ele>
        <time>2019-03-09T10:17:34.000Z</time>
      </trkpt>
      <trkpt lat="43.435" lon="2.11292">
        <ele>695</ele>
        <time>2019-03-09T10:17:39.000Z</time>
      </trkpt>
      <trkpt lat="43.43502" lon="2.11291">
        <ele>695.20001220703</ele>
        <time>2019-03-09T10:17:40.000Z</time>
      </trkpt>
      <trkpt lat="43.43506" lon="2.11287">
        <ele>695.59997558594</ele>
        <time>2019-03-09T10:17:43.000Z</time>
      </trkpt>
      <trkpt lat="43.43509" lon="2.11282">
        <ele>695.79998779297</ele>
        <time>2019-03-09T10:17:46.000Z</time>
      </trkpt>
      <trkpt lat="43.43511" lon="2.11278">
        <ele>696.20001220703</ele>
        <time>2019-03-09T10:17:50.000Z</time>
      </trkpt>
      <trkpt lat="43.43512" lon="2.11275">
        <ele>696.40002441406</ele>
        <time>2019-03-09T10:17:52.000Z</time>
      </trkpt>
      <trkpt lat="43.43512" lon="2.11264">
        <ele>696.40002441406</ele>
        <time>2019-03-09T10:17:56.000Z</time>
      </trkpt>
      <trkpt lat="43.43512" lon="2.11253">
        <ele>696.59997558594</ele>
        <time>2019-03-09T10:17:58.000Z</time>
      </trkpt>
      <trkpt lat="43.43514" lon="2.11241">
        <ele>696.79998779297</ele>
        <time>2019-03-09T10:18:00.000Z</time>
      </trkpt>
      <trkpt lat="43.43518" lon="2.11233">
        <ele>696.59997558594</ele>
        <time>2019-03-09T10:18:03.000Z</time>
      </trkpt>
      <trkpt lat="43.4352" lon="2.1123">
        <ele>696.40002441406</ele>
        <time>2019-03-09T10:18:04.000Z</time>
      </trkpt>
      <trkpt lat="43.43521" lon="2.11217">
        <ele>696.20001220703</ele>
        <time>2019-03-09T10:18:07.000Z</time>
      </trkpt>
      <trkpt lat="43.43521" lon="2.11205">
        <ele>695.79998779297</ele>
        <time>2019-03-09T10:18:09.000Z</time>
      </trkpt>
      <trkpt lat="43.43519" lon="2.11188">
        <ele>695.59997558594</ele>
        <time>2019-03-09T10:18:11.000Z</time>
      </trkpt>
      <trkpt lat="43.43519" lon="2.11178">
        <ele>695.20001220703</ele>
        <time>2019-03-09T10:18:12.000Z</time>
      </trkpt>
      <trkpt lat="43.4352" lon="2.11148">
        <ele>694</ele>
        <time>2019-03-09T10:18:15.000Z</time>
      </trkpt>
      <trkpt lat="43.43519" lon="2.11131">
        <ele>692.79998779297</ele>
        <time>2019-03-09T10:18:17.000Z</time>
      </trkpt>
      <trkpt lat="43.43521" lon="2.1112">
        <ele>691.79998779297</ele>
        <time>2019-03-09T10:18:19.000Z</time>
      </trkpt>
      <trkpt lat="43.43526" lon="2.11111">
        <ele>691</ele>
        <time>2019-03-09T10:18:21.000Z</time>
      </trkpt>
      <trkpt lat="43.43529" lon="2.11108">
        <ele>690.59997558594</ele>
        <time>2019-03-09T10:18:22.000Z</time>
      </trkpt>
      <trkpt lat="43.43545" lon="2.11096">
        <ele>689.40002441406</ele>
        <time>2019-03-09T10:18:25.000Z</time>
      </trkpt>
      <trkpt lat="43.43552" lon="2.11092">
        <ele>689.20001220703</ele>
        <time>2019-03-09T10:18:26.000Z</time>
      </trkpt>
      <trkpt lat="43.43591" lon="2.11075">
        <ele>687.79998779297</ele>
        <time>2019-03-09T10:18:31.000Z</time>
      </trkpt>
      <trkpt lat="43.43603" lon="2.11072">
        <ele>687</ele>
        <time>2019-03-09T10:18:33.000Z</time>
      </trkpt>
      <trkpt lat="43.43613" lon="2.11072">
        <ele>684.59997558594</ele>
        <time>2019-03-09T10:18:35.000Z</time>
      </trkpt>
      <trkpt lat="43.43631" lon="2.1107">
        <ele>680.20001220703</ele>
        <time>2019-03-09T10:18:39.000Z</time>
      </trkpt>
      <trkpt lat="43.43643" lon="2.11067">
        <ele>677.40002441406</ele>
        <time>2019-03-09T10:18:43.000Z</time>
      </trkpt>
      <trkpt lat="43.43646" lon="2.11067">
        <ele>676.79998779297</ele>
        <time>2019-03-09T10:18:48.000Z</time>
      </trkpt>
      <trkpt lat="43.4365" lon="2.11065">
        <ele>675.79998779297</ele>
        <time>2019-03-09T10:18:56.000Z</time>
      </trkpt>
      <trkpt lat="43.43652" lon="2.11063">
        <ele>675.20001220703</ele>
        <time>2019-03-09T10:18:57.000Z</time>
      </trkpt>
      <trkpt lat="43.4366" lon="2.11057">
        <ele>673.20001220703</ele>
        <time>2019-03-09T10:18:59.000Z</time>
      </trkpt>
      <trkpt lat="43.43669" lon="2.11052">
        <ele>670.59997558594</ele>
        <time>2019-03-09T10:19:01.000Z</time>
      </trkpt>
      <trkpt lat="43.43682" lon="2.11042">
        <ele>666.59997558594</ele>
        <time>2019-03-09T10:19:05.000Z</time>
      </trkpt>
      <trkpt lat="43.43694" lon="2.11027">
        <ele>664.40002441406</ele>
        <time>2019-03-09T10:19:10.000Z</time>
      </trkpt>
      <trkpt lat="43.43696" lon="2.11011">
        <ele>663</ele>
        <time>2019-03-09T10:19:14.000Z</time>
      </trkpt>
      <trkpt lat="43.43701" lon="2.10997">
        <ele>661.59997558594</ele>
        <time>2019-03-09T10:19:18.000Z</time>
      </trkpt>
      <trkpt lat="43.43701" lon="2.10994">
        <ele>661.20001220703</ele>
        <time>2019-03-09T10:19:25.000Z</time>
      </trkpt>
      <trkpt lat="43.43702" lon="2.10992">
        <ele>661</ele>
        <time>2019-03-09T10:19:30.000Z</time>
      </trkpt>
      <trkpt lat="43.43702" lon="2.10992">
        <ele>661</ele>
        <time>2019-03-09T10:19:32.000Z</time>
      </trkpt>
      <trkpt lat="43.43702" lon="2.10989">
        <ele>660.40002441406</ele>
        <time>2019-03-09T10:19:37.000Z</time>
      </trkpt>
      <trkpt lat="43.43703" lon="2.10987">
        <ele>660</ele>
        <time>2019-03-09T10:19:38.000Z</time>
      </trkpt>
      <trkpt lat="43.43703" lon="2.10972">
        <ele>658</ele>
        <time>2019-03-09T10:19:43.000Z</time>
      </trkpt>
      <trkpt lat="43.43701" lon="2.10968">
        <ele>657.59997558594</ele>
        <time>2019-03-09T10:19:48.000Z</time>
      </trkpt>
      <trkpt lat="43.437" lon="2.10965">
        <ele>657.20001220703</ele>
        <time>2019-03-09T10:19:49.000Z</time>
      </trkpt>
      <trkpt lat="43.43697" lon="2.10957">
        <ele>656.20001220703</ele>
        <time>2019-03-09T10:19:52.000Z</time>
      </trkpt>
      <trkpt lat="43.43696" lon="2.10953">
        <ele>656</ele>
        <time>2019-03-09T10:19:53.000Z</time>
      </trkpt>
      <trkpt lat="43.43693" lon="2.1094">
        <ele>654.20001220703</ele>
        <time>2019-03-09T10:19:57.000Z</time>
      </trkpt>
      <trkpt lat="43.43686" lon="2.10915">
        <ele>651.20001220703</ele>
        <time>2019-03-09T10:20:04.000Z</time>
      </trkpt>
      <trkpt lat="43.43686" lon="2.10889">
        <ele>648.40002441406</ele>
        <time>2019-03-09T10:20:08.000Z</time>
      </trkpt>
      <trkpt lat="43.43684" lon="2.1084">
        <ele>641.79998779297</ele>
        <time>2019-03-09T10:20:14.000Z</time>
      </trkpt>
      <trkpt lat="43.43683" lon="2.10816">
        <ele>639</ele>
        <time>2019-03-09T10:20:18.000Z</time>
      </trkpt>
      <trkpt lat="43.4368" lon="2.10802">
        <ele>638</ele>
        <time>2019-03-09T10:20:22.000Z</time>
      </trkpt>
      <trkpt lat="43.43679" lon="2.10792">
        <ele>637.20001220703</ele>
        <time>2019-03-09T10:20:24.000Z</time>
      </trkpt>
      <trkpt lat="43.43682" lon="2.10773">
        <ele>634.20001220703</ele>
        <time>2019-03-09T10:20:28.000Z</time>
      </trkpt>
      <trkpt lat="43.43687" lon="2.10748">
        <ele>632</ele>
        <time>2019-03-09T10:20:34.000Z</time>
      </trkpt>
      <trkpt lat="43.43693" lon="2.10723">
        <ele>630.59997558594</ele>
        <time>2019-03-09T10:20:40.000Z</time>
      </trkpt>
      <trkpt lat="43.43699" lon="2.10704">
        <ele>630.20001220703</ele>
        <time>2019-03-09T10:20:46.000Z</time>
      </trkpt>
      <trkpt lat="43.437" lon="2.10696">
        <ele>630</ele>
        <time>2019-03-09T10:20:48.000Z</time>
      </trkpt>
      <trkpt lat="43.437" lon="2.10689">
        <ele>629.59997558594</ele>
        <time>2019-03-09T10:20:50.000Z</time>
      </trkpt>
      <trkpt lat="43.43701" lon="2.1067">
        <ele>628.20001220703</ele>
        <time>2019-03-09T10:20:56.000Z</time>
      </trkpt>
      <trkpt lat="43.43703" lon="2.10657">
        <ele>626.59997558594</ele>
        <time>2019-03-09T10:21:00.000Z</time>
      </trkpt>
      <trkpt lat="43.43705" lon="2.10646">
        <ele>626.40002441406</ele>
        <time>2019-03-09T10:21:02.000Z</time>
      </trkpt>
      <trkpt lat="43.43712" lon="2.10613">
        <ele>625.79998779297</ele>
        <time>2019-03-09T10:21:08.000Z</time>
      </trkpt>
      <trkpt lat="43.43712" lon="2.10599">
        <ele>624.59997558594</ele>
        <time>2019-03-09T10:21:12.000Z</time>
      </trkpt>
      <trkpt lat="43.43712" lon="2.10599">
        <ele>624.59997558594</ele>
        <time>2019-03-09T10:21:20.000Z</time>
      </trkpt>
      <trkpt lat="43.43712" lon="2.10594">
        <ele>623.79998779297</ele>
        <time>2019-03-09T10:21:24.000Z</time>
      </trkpt>
      <trkpt lat="43.43713" lon="2.10588">
        <ele>622.59997558594</ele>
        <time>2019-03-09T10:21:26.000Z</time>
      </trkpt>
      <trkpt lat="43.43714" lon="2.10584">
        <ele>621.59997558594</ele>
        <time>2019-03-09T10:21:27.000Z</time>
      </trkpt>
      <trkpt lat="43.43718" lon="2.10574">
        <ele>619.59997558594</ele>
        <time>2019-03-09T10:21:29.000Z</time>
      </trkpt>
      <trkpt lat="43.43729" lon="2.10548">
        <ele>617.40002441406</ele>
        <time>2019-03-09T10:21:33.000Z</time>
      </trkpt>
      <trkpt lat="43.43746" lon="2.10522">
        <ele>610.20001220703</ele>
        <time>2019-03-09T10:21:38.000Z</time>
      </trkpt>
      <trkpt lat="43.43758" lon="2.10504">
        <ele>604.59997558594</ele>
        <time>2019-03-09T10:21:41.000Z</time>
      </trkpt>
      <trkpt lat="43.43764" lon="2.10492">
        <ele>601.59997558594</ele>
        <time>2019-03-09T10:21:43.000Z</time>
      </trkpt>
      <trkpt lat="43.43772" lon="2.10475">
        <ele>601</ele>
        <time>2019-03-09T10:21:47.000Z</time>
      </trkpt>
      <trkpt lat="43.43787" lon="2.10448">
        <ele>600.79998779297</ele>
        <time>2019-03-09T10:21:54.000Z</time>
      </trkpt>
      <trkpt lat="43.43799" lon="2.10427">
        <ele>597.59997558594</ele>
        <time>2019-03-09T10:22:00.000Z</time>
      </trkpt>
      <trkpt lat="43.43801" lon="2.10424">
        <ele>596.79998779297</ele>
        <time>2019-03-09T10:22:01.000Z</time>
      </trkpt>
      <trkpt lat="43.43807" lon="2.10412">
        <ele>593.40002441406</ele>
        <time>2019-03-09T10:22:05.000Z</time>
      </trkpt>
      <trkpt lat="43.43809" lon="2.10394">
        <ele>593.59997558594</ele>
        <time>2019-03-09T10:22:11.000Z</time>
      </trkpt>
      <trkpt lat="43.43813" lon="2.1038">
        <ele>593.79998779297</ele>
        <time>2019-03-09T10:22:16.000Z</time>
      </trkpt>
      <trkpt lat="43.43814" lon="2.10371">
        <ele>593.79998779297</ele>
        <time>2019-03-09T10:22:22.000Z</time>
      </trkpt>
      <trkpt lat="43.43814" lon="2.10371">
        <ele>593.79998779297</ele>
        <time>2019-03-09T10:22:38.000Z</time>
      </trkpt>
      <trkpt lat="43.43814" lon="2.10371">
        <ele>593.79998779297</ele>
        <time>2019-03-09T10:22:44.000Z</time>
      </trkpt>
      <trkpt lat="43.43813" lon="2.10366">
        <ele>593.59997558594</ele>
        <time>2019-03-09T10:22:47.000Z</time>
      </trkpt>
      <trkpt lat="43.43815" lon="2.10364">
        <ele>593.20001220703</ele>
        <time>2019-03-09T10:22:51.000Z</time>
      </trkpt>
      <trkpt lat="43.43816" lon="2.10357">
        <ele>592.40002441406</ele>
        <time>2019-03-09T10:22:55.000Z</time>
      </trkpt>
      <trkpt lat="43.43816" lon="2.10357">
        <ele>592.40002441406</ele>
        <time>2019-03-09T10:22:56.000Z</time>
      </trkpt>
      <trkpt lat="43.43817" lon="2.10357">
        <ele>592.20001220703</ele>
        <time>2019-03-09T10:23:02.000Z</time>
      </trkpt>
      <trkpt lat="43.43824" lon="2.10357">
        <ele>590</ele>
        <time>2019-03-09T10:23:06.000Z</time>
      </trkpt>
      <trkpt lat="43.43825" lon="2.10358">
        <ele>589.59997558594</ele>
        <time>2019-03-09T10:23:07.000Z</time>
      </trkpt>
      <trkpt lat="43.43826" lon="2.10358">
        <ele>589.40002441406</ele>
        <time>2019-03-09T10:23:08.000Z</time>
      </trkpt>
      <trkpt lat="43.43826" lon="2.10357">
        <ele>589.20001220703</ele>
        <time>2019-03-09T10:23:12.000Z</time>
      </trkpt>
      <trkpt lat="43.43827" lon="2.10357">
        <ele>589.20001220703</ele>
        <time>2019-03-09T10:23:16.000Z</time>
      </trkpt>
      <trkpt lat="43.43827" lon="2.10359">
        <ele>589.20001220703</ele>
        <time>2019-03-09T10:23:18.000Z</time>
      </trkpt>
      <trkpt lat="43.43829" lon="2.10361">
        <ele>588.79998779297</ele>
        <time>2019-03-09T10:23:20.000Z</time>
      </trkpt>
      <trkpt lat="43.4383" lon="2.10362">
        <ele>588.40002441406</ele>
        <time>2019-03-09T10:23:23.000Z</time>
      </trkpt>
      <trkpt lat="43.43831" lon="2.10361">
        <ele>588</ele>
        <time>2019-03-09T10:23:27.000Z</time>
      </trkpt>
      <trkpt lat="43.43832" lon="2.10361">
        <ele>587.79998779297</ele>
        <time>2019-03-09T10:23:36.000Z</time>
      </trkpt>
      <trkpt lat="43.43832" lon="2.10361">
        <ele>587.79998779297</ele>
        <time>2019-03-09T10:23:37.000Z</time>
      </trkpt>
      <trkpt lat="43.43832" lon="2.10361">
        <ele>587.79998779297</ele>
        <time>2019-03-09T10:23:51.000Z</time>
      </trkpt>
      <trkpt lat="43.43832" lon="2.10361">
        <ele>587.79998779297</ele>
        <time>2019-03-09T10:24:01.000Z</time>
      </trkpt>
      <trkpt lat="43.43832" lon="2.10361">
        <ele>587.79998779297</ele>
        <time>2019-03-09T10:24:07.000Z</time>
      </trkpt>
      <trkpt lat="43.43834" lon="2.1036">
        <ele>587.20001220703</ele>
        <time>2019-03-09T10:24:14.000Z</time>
      </trkpt>
      <trkpt lat="43.4384" lon="2.1036">
        <ele>585.20001220703</ele>
        <time>2019-03-09T10:24:20.000Z</time>
      </trkpt>
      <trkpt lat="43.43847" lon="2.10358">
        <ele>583</ele>
        <time>2019-03-09T10:24:23.000Z</time>
      </trkpt>
      <trkpt lat="43.43849" lon="2.10355">
        <ele>582.40002441406</ele>
        <time>2019-03-09T10:24:25.000Z</time>
      </trkpt>
      <trkpt lat="43.43852" lon="2.10352">
        <ele>583</ele>
        <time>2019-03-09T10:24:27.000Z</time>
      </trkpt>
      <trkpt lat="43.43856" lon="2.10345">
        <ele>584.20001220703</ele>
        <time>2019-03-09T10:24:31.000Z</time>
      </trkpt>
      <trkpt lat="43.43862" lon="2.10333">
        <ele>584.59997558594</ele>
        <time>2019-03-09T10:24:36.000Z</time>
      </trkpt>
      <trkpt lat="43.43875" lon="2.10313">
        <ele>585.20001220703</ele>
        <time>2019-03-09T10:24:45.000Z</time>
      </trkpt>
      <trkpt lat="43.43884" lon="2.10302">
        <ele>586.79998779297</ele>
        <time>2019-03-09T10:24:52.000Z</time>
      </trkpt>
      <trkpt lat="43.43895" lon="2.10283">
        <ele>587.59997558594</ele>
        <time>2019-03-09T10:25:00.000Z</time>
      </trkpt>
      <trkpt lat="43.43902" lon="2.1027">
        <ele>585.40002441406</ele>
        <time>2019-03-09T10:25:05.000Z</time>
      </trkpt>
      <trkpt lat="43.43911" lon="2.10251">
        <ele>582.40002441406</ele>
        <time>2019-03-09T10:25:13.000Z</time>
      </trkpt>
      <trkpt lat="43.4392" lon="2.10236">
        <ele>580.79998779297</ele>
        <time>2019-03-09T10:25:21.000Z</time>
      </trkpt>
      <trkpt lat="43.43928" lon="2.10223">
        <ele>578.20001220703</ele>
        <time>2019-03-09T10:25:28.000Z</time>
      </trkpt>
      <trkpt lat="43.43931" lon="2.10215">
        <ele>576.40002441406</ele>
        <time>2019-03-09T10:25:32.000Z</time>
      </trkpt>
      <trkpt lat="43.43934" lon="2.10211">
        <ele>576.20001220703</ele>
        <time>2019-03-09T10:25:34.000Z</time>
      </trkpt>
      <trkpt lat="43.43942" lon="2.10199">
        <ele>577.59997558594</ele>
        <time>2019-03-09T10:25:40.000Z</time>
      </trkpt>
      <trkpt lat="43.43948" lon="2.1019">
        <ele>578.59997558594</ele>
        <time>2019-03-09T10:25:46.000Z</time>
      </trkpt>
      <trkpt lat="43.43953" lon="2.10183">
        <ele>579.59997558594</ele>
        <time>2019-03-09T10:25:51.000Z</time>
      </trkpt>
      <trkpt lat="43.43955" lon="2.1018">
        <ele>580</ele>
        <time>2019-03-09T10:25:53.000Z</time>
      </trkpt>
      <trkpt lat="43.4396" lon="2.10173">
        <ele>581</ele>
        <time>2019-03-09T10:25:59.000Z</time>
      </trkpt>
      <trkpt lat="43.43966" lon="2.10158">
        <ele>581</ele>
        <time>2019-03-09T10:26:08.000Z</time>
      </trkpt>
      <trkpt lat="43.43973" lon="2.10145">
        <ele>582.20001220703</ele>
        <time>2019-03-09T10:26:16.000Z</time>
      </trkpt>
      <trkpt lat="43.43981" lon="2.10133">
        <ele>584.40002441406</ele>
        <time>2019-03-09T10:26:24.000Z</time>
      </trkpt>
      <trkpt lat="43.43986" lon="2.10124">
        <ele>585</ele>
        <time>2019-03-09T10:26:30.000Z</time>
      </trkpt>
      <trkpt lat="43.43993" lon="2.10111">
        <ele>585.20001220703</ele>
        <time>2019-03-09T10:26:37.000Z</time>
      </trkpt>
      <trkpt lat="43.44002" lon="2.10093">
        <ele>585.79998779297</ele>
        <time>2019-03-09T10:26:46.000Z</time>
      </trkpt>
      <trkpt lat="43.4401" lon="2.10077">
        <ele>585.79998779297</ele>
        <time>2019-03-09T10:26:54.000Z</time>
      </trkpt>
      <trkpt lat="43.44014" lon="2.10064">
        <ele>585.59997558594</ele>
        <time>2019-03-09T10:27:00.000Z</time>
      </trkpt>
      <trkpt lat="43.44022" lon="2.10041">
        <ele>585.20001220703</ele>
        <time>2019-03-09T10:27:10.000Z</time>
      </trkpt>
      <trkpt lat="43.44027" lon="2.10026">
        <ele>584.59997558594</ele>
        <time>2019-03-09T10:27:17.000Z</time>
      </trkpt>
      <trkpt lat="43.44032" lon="2.10001">
        <ele>583.20001220703</ele>
        <time>2019-03-09T10:27:27.000Z</time>
      </trkpt>
      <trkpt lat="43.44037" lon="2.09982">
        <ele>582.59997558594</ele>
        <time>2019-03-09T10:27:34.000Z</time>
      </trkpt>
      <trkpt lat="43.44046" lon="2.09964">
        <ele>583</ele>
        <time>2019-03-09T10:27:42.000Z</time>
      </trkpt>
      <trkpt lat="43.44054" lon="2.0995">
        <ele>584.20001220703</ele>
        <time>2019-03-09T10:27:49.000Z</time>
      </trkpt>
      <trkpt lat="43.44064" lon="2.09938">
        <ele>586.79998779297</ele>
        <time>2019-03-09T10:27:56.000Z</time>
      </trkpt>
      <trkpt lat="43.44072" lon="2.09929">
        <ele>589.59997558594</ele>
        <time>2019-03-09T10:28:01.000Z</time>
      </trkpt>
      <trkpt lat="43.44074" lon="2.09926">
        <ele>590.59997558594</ele>
        <time>2019-03-09T10:28:03.000Z</time>
      </trkpt>
      <trkpt lat="43.4408" lon="2.09917">
        <ele>592.20001220703</ele>
        <time>2019-03-09T10:28:07.000Z</time>
      </trkpt>
      <trkpt lat="43.4409" lon="2.09907">
        <ele>595.59997558594</ele>
        <time>2019-03-09T10:28:13.000Z</time>
      </trkpt>
      <trkpt lat="43.44094" lon="2.09909">
        <ele>597.79998779297</ele>
        <time>2019-03-09T10:28:15.000Z</time>
      </trkpt>
      <trkpt lat="43.44096" lon="2.09915">
        <ele>599.20001220703</ele>
        <time>2019-03-09T10:28:17.000Z</time>
      </trkpt>
      <trkpt lat="43.44096" lon="2.09921">
        <ele>599.59997558594</ele>
        <time>2019-03-09T10:28:19.000Z</time>
      </trkpt>
      <trkpt lat="43.44094" lon="2.09928">
        <ele>599.40002441406</ele>
        <time>2019-03-09T10:28:22.000Z</time>
      </trkpt>
      <trkpt lat="43.44092" lon="2.09942">
        <ele>600</ele>
        <time>2019-03-09T10:28:27.000Z</time>
      </trkpt>
      <trkpt lat="43.44093" lon="2.09965">
        <ele>602.40002441406</ele>
        <time>2019-03-09T10:28:34.000Z</time>
      </trkpt>
      <trkpt lat="43.44091" lon="2.09992">
        <ele>604.59997558594</ele>
        <time>2019-03-09T10:28:42.000Z</time>
      </trkpt>
      <trkpt lat="43.44084" lon="2.10015">
        <ele>604.59997558594</ele>
        <time>2019-03-09T10:28:49.000Z</time>
      </trkpt>
      <trkpt lat="43.44076" lon="2.10043">
        <ele>604.79998779297</ele>
        <time>2019-03-09T10:28:58.000Z</time>
      </trkpt>
      <trkpt lat="43.44073" lon="2.10065">
        <ele>606.20001220703</ele>
        <time>2019-03-09T10:29:05.000Z</time>
      </trkpt>
      <trkpt lat="43.4407" lon="2.10079">
        <ele>607</ele>
        <time>2019-03-09T10:29:10.000Z</time>
      </trkpt>
      <trkpt lat="43.44065" lon="2.10099">
        <ele>607.20001220703</ele>
        <time>2019-03-09T10:29:17.000Z</time>
      </trkpt>
      <trkpt lat="43.44059" lon="2.10121">
        <ele>607.40002441406</ele>
        <time>2019-03-09T10:29:24.000Z</time>
      </trkpt>
      <trkpt lat="43.44055" lon="2.1014">
        <ele>609.59997558594</ele>
        <time>2019-03-09T10:29:31.000Z</time>
      </trkpt>
      <trkpt lat="43.44052" lon="2.10155">
        <ele>611.20001220703</ele>
        <time>2019-03-09T10:29:37.000Z</time>
      </trkpt>
      <trkpt lat="43.44048" lon="2.10167">
        <ele>611.20001220703</ele>
        <time>2019-03-09T10:29:43.000Z</time>
      </trkpt>
      <trkpt lat="43.44044" lon="2.10182">
        <ele>611</ele>
        <time>2019-03-09T10:29:50.000Z</time>
      </trkpt>
      <trkpt lat="43.4404" lon="2.10196">
        <ele>612</ele>
        <time>2019-03-09T10:29:57.000Z</time>
      </trkpt>
      <trkpt lat="43.44036" lon="2.10214">
        <ele>614.40002441406</ele>
        <time>2019-03-09T10:30:05.000Z</time>
      </trkpt>
      <trkpt lat="43.44033" lon="2.1023">
        <ele>616.59997558594</ele>
        <time>2019-03-09T10:30:12.000Z</time>
      </trkpt>
      <trkpt lat="43.44028" lon="2.10249">
        <ele>618.20001220703</ele>
        <time>2019-03-09T10:30:20.000Z</time>
      </trkpt>
      <trkpt lat="43.44024" lon="2.10265">
        <ele>620.20001220703</ele>
        <time>2019-03-09T10:30:27.000Z</time>
      </trkpt>
      <trkpt lat="43.44021" lon="2.10281">
        <ele>623.20001220703</ele>
        <time>2019-03-09T10:30:33.000Z</time>
      </trkpt>
      <trkpt lat="43.44016" lon="2.10303">
        <ele>627.40002441406</ele>
        <time>2019-03-09T10:30:41.000Z</time>
      </trkpt>
      <trkpt lat="43.44012" lon="2.10317">
        <ele>628.59997558594</ele>
        <time>2019-03-09T10:30:47.000Z</time>
      </trkpt>
      <trkpt lat="43.44007" lon="2.10339">
        <ele>629.79998779297</ele>
        <time>2019-03-09T10:30:53.000Z</time>
      </trkpt>
      <trkpt lat="43.44002" lon="2.10358">
        <ele>629.79998779297</ele>
        <time>2019-03-09T10:31:00.000Z</time>
      </trkpt>
      <trkpt lat="43.43999" lon="2.10374">
        <ele>630</ele>
        <time>2019-03-09T10:31:06.000Z</time>
      </trkpt>
      <trkpt lat="43.43994" lon="2.10395">
        <ele>631.20001220703</ele>
        <time>2019-03-09T10:31:14.000Z</time>
      </trkpt>
      <trkpt lat="43.43988" lon="2.10416">
        <ele>633</ele>
        <time>2019-03-09T10:31:22.000Z</time>
      </trkpt>
      <trkpt lat="43.43983" lon="2.10435">
        <ele>633.40002441406</ele>
        <time>2019-03-09T10:31:29.000Z</time>
      </trkpt>
      <trkpt lat="43.43986" lon="2.10453">
        <ele>636.40002441406</ele>
        <time>2019-03-09T10:31:36.000Z</time>
      </trkpt>
      <trkpt lat="43.43994" lon="2.10462">
        <ele>640.40002441406</ele>
        <time>2019-03-09T10:31:39.000Z</time>
      </trkpt>
      <trkpt lat="43.43997" lon="2.10466">
        <ele>642</ele>
        <time>2019-03-09T10:31:40.000Z</time>
      </trkpt>
      <trkpt lat="43.44013" lon="2.10483">
        <ele>649.79998779297</ele>
        <time>2019-03-09T10:31:44.000Z</time>
      </trkpt>
      <trkpt lat="43.44017" lon="2.10486">
        <ele>651</ele>
        <time>2019-03-09T10:31:45.000Z</time>
      </trkpt>
      <trkpt lat="43.44031" lon="2.10491">
        <ele>650.20001220703</ele>
        <time>2019-03-09T10:31:49.000Z</time>
      </trkpt>
      <trkpt lat="43.44034" lon="2.10476">
        <ele>647.79998779297</ele>
        <time>2019-03-09T10:31:52.000Z</time>
      </trkpt>
      <trkpt lat="43.4403" lon="2.10454">
        <ele>645.79998779297</ele>
        <time>2019-03-09T10:31:55.000Z</time>
      </trkpt>
      <trkpt lat="43.44029" lon="2.10446">
        <ele>644.79998779297</ele>
        <time>2019-03-09T10:31:56.000Z</time>
      </trkpt>
      <trkpt lat="43.44028" lon="2.10428">
        <ele>642.79998779297</ele>
        <time>2019-03-09T10:31:58.000Z</time>
      </trkpt>
      <trkpt lat="43.4403" lon="2.10408">
        <ele>641.20001220703</ele>
        <time>2019-03-09T10:32:00.000Z</time>
      </trkpt>
      <trkpt lat="43.44037" lon="2.1038">
        <ele>637.59997558594</ele>
        <time>2019-03-09T10:32:03.000Z</time>
      </trkpt>
      <trkpt lat="43.4404" lon="2.10369">
        <ele>636.20001220703</ele>
        <time>2019-03-09T10:32:04.000Z</time>
      </trkpt>
      <trkpt lat="43.4406" lon="2.10315">
        <ele>629.79998779297</ele>
        <time>2019-03-09T10:32:09.000Z</time>
      </trkpt>
      <trkpt lat="43.44082" lon="2.10243">
        <ele>627</ele>
        <time>2019-03-09T10:32:15.000Z</time>
      </trkpt>
      <trkpt lat="43.44094" lon="2.10172">
        <ele>624.40002441406</ele>
        <time>2019-03-09T10:32:20.000Z</time>
      </trkpt>
      <trkpt lat="43.44101" lon="2.10099">
        <ele>618.79998779297</ele>
        <time>2019-03-09T10:32:25.000Z</time>
      </trkpt>
      <trkpt lat="43.44103" lon="2.10085">
        <ele>617.20001220703</ele>
        <time>2019-03-09T10:32:26.000Z</time>
      </trkpt>
      <trkpt lat="43.44112" lon="2.10044">
        <ele>612</ele>
        <time>2019-03-09T10:32:29.000Z</time>
      </trkpt>
      <trkpt lat="43.44117" lon="2.10031">
        <ele>610.20001220703</ele>
        <time>2019-03-09T10:32:30.000Z</time>
      </trkpt>
      <trkpt lat="43.44128" lon="2.10005">
        <ele>606.40002441406</ele>
        <time>2019-03-09T10:32:32.000Z</time>
      </trkpt>
      <trkpt lat="43.44154" lon="2.0995">
        <ele>598.20001220703</ele>
        <time>2019-03-09T10:32:36.000Z</time>
      </trkpt>
      <trkpt lat="43.44182" lon="2.09888">
        <ele>590</ele>
        <time>2019-03-09T10:32:40.000Z</time>
      </trkpt>
      <trkpt lat="43.44189" lon="2.09874">
        <ele>588.20001220703</ele>
        <time>2019-03-09T10:32:41.000Z</time>
      </trkpt>
      <trkpt lat="43.44205" lon="2.09833">
        <ele>583.40002441406</ele>
        <time>2019-03-09T10:32:44.000Z</time>
      </trkpt>
      <trkpt lat="43.44229" lon="2.09776">
        <ele>576.40002441406</ele>
        <time>2019-03-09T10:32:49.000Z</time>
      </trkpt>
      <trkpt lat="43.44233" lon="2.09765">
        <ele>575.79998779297</ele>
        <time>2019-03-09T10:32:50.000Z</time>
      </trkpt>
      <trkpt lat="43.44237" lon="2.09741">
        <ele>575</ele>
        <time>2019-03-09T10:32:52.000Z</time>
      </trkpt>
      <trkpt lat="43.44241" lon="2.09678">
        <ele>574</ele>
        <time>2019-03-09T10:32:57.000Z</time>
      </trkpt>
      <trkpt lat="43.44244" lon="2.09645">
        <ele>572</ele>
        <time>2019-03-09T10:33:00.000Z</time>
      </trkpt>
      <trkpt lat="43.44247" lon="2.09635">
        <ele>570.59997558594</ele>
        <time>2019-03-09T10:33:01.000Z</time>
      </trkpt>
      <trkpt lat="43.44257" lon="2.0959">
        <ele>566</ele>
        <time>2019-03-09T10:33:06.000Z</time>
      </trkpt>
      <trkpt lat="43.44262" lon="2.09578">
        <ele>564.40002441406</ele>
        <time>2019-03-09T10:33:08.000Z</time>
      </trkpt>
      <trkpt lat="43.44271" lon="2.09573">
        <ele>563.20001220703</ele>
        <time>2019-03-09T10:33:10.000Z</time>
      </trkpt>
      <trkpt lat="43.44278" lon="2.09584">
        <ele>562.40002441406</ele>
        <time>2019-03-09T10:33:13.000Z</time>
      </trkpt>
      <trkpt lat="43.44279" lon="2.09598">
        <ele>562.59997558594</ele>
        <time>2019-03-09T10:33:15.000Z</time>
      </trkpt>
      <trkpt lat="43.44279" lon="2.09607">
        <ele>563.40002441406</ele>
        <time>2019-03-09T10:33:16.000Z</time>
      </trkpt>
      <trkpt lat="43.4428" lon="2.09616">
        <ele>564.20001220703</ele>
        <time>2019-03-09T10:33:17.000Z</time>
      </trkpt>
      <trkpt lat="43.44282" lon="2.09635">
        <ele>565.20001220703</ele>
        <time>2019-03-09T10:33:19.000Z</time>
      </trkpt>
      <trkpt lat="43.44286" lon="2.09649">
        <ele>565.40002441406</ele>
        <time>2019-03-09T10:33:21.000Z</time>
      </trkpt>
      <trkpt lat="43.44301" lon="2.09658">
        <ele>562.79998779297</ele>
        <time>2019-03-09T10:33:24.000Z</time>
      </trkpt>
      <trkpt lat="43.44306" lon="2.09658">
        <ele>561.59997558594</ele>
        <time>2019-03-09T10:33:25.000Z</time>
      </trkpt>
      <trkpt lat="43.44313" lon="2.09659">
        <ele>560.20001220703</ele>
        <time>2019-03-09T10:33:26.000Z</time>
      </trkpt>
      <trkpt lat="43.44333" lon="2.09664">
        <ele>555.59997558594</ele>
        <time>2019-03-09T10:33:28.000Z</time>
      </trkpt>
      <trkpt lat="43.4438" lon="2.09679">
        <ele>543.79998779297</ele>
        <time>2019-03-09T10:33:33.000Z</time>
      </trkpt>
      <trkpt lat="43.44393" lon="2.09683">
        <ele>540.40002441406</ele>
        <time>2019-03-09T10:33:35.000Z</time>
      </trkpt>
      <trkpt lat="43.44399" lon="2.09679">
        <ele>539.20001220703</ele>
        <time>2019-03-09T10:33:36.000Z</time>
      </trkpt>
      <trkpt lat="43.44406" lon="2.09665">
        <ele>538.20001220703</ele>
        <time>2019-03-09T10:33:38.000Z</time>
      </trkpt>
      <trkpt lat="43.44409" lon="2.09638">
        <ele>538.79998779297</ele>
        <time>2019-03-09T10:33:41.000Z</time>
      </trkpt>
      <trkpt lat="43.4441" lon="2.09628">
        <ele>538.20001220703</ele>
        <time>2019-03-09T10:33:42.000Z</time>
      </trkpt>
      <trkpt lat="43.44413" lon="2.09585">
        <ele>536.79998779297</ele>
        <time>2019-03-09T10:33:46.000Z</time>
      </trkpt>
      <trkpt lat="43.44416" lon="2.09552">
        <ele>536.59997558594</ele>
        <time>2019-03-09T10:33:50.000Z</time>
      </trkpt>
      <trkpt lat="43.44417" lon="2.09537">
        <ele>536.59997558594</ele>
        <time>2019-03-09T10:33:54.000Z</time>
      </trkpt>
      <trkpt lat="43.44418" lon="2.09513">
        <ele>537</ele>
        <time>2019-03-09T10:34:02.000Z</time>
      </trkpt>
      <trkpt lat="43.44415" lon="2.09491">
        <ele>538.20001220703</ele>
        <time>2019-03-09T10:34:10.000Z</time>
      </trkpt>
      <trkpt lat="43.44415" lon="2.09488">
        <ele>538.40002441406</ele>
        <time>2019-03-09T10:34:11.000Z</time>
      </trkpt>
      <trkpt lat="43.44409" lon="2.09465">
        <ele>540.20001220703</ele>
        <time>2019-03-09T10:34:20.000Z</time>
      </trkpt>
      <trkpt lat="43.44405" lon="2.09446">
        <ele>542.20001220703</ele>
        <time>2019-03-09T10:34:28.000Z</time>
      </trkpt>
      <trkpt lat="43.44403" lon="2.09438">
        <ele>543</ele>
        <time>2019-03-09T10:34:31.000Z</time>
      </trkpt>
      <trkpt lat="43.44398" lon="2.09416">
        <ele>545.40002441406</ele>
        <time>2019-03-09T10:34:40.000Z</time>
      </trkpt>
      <trkpt lat="43.44395" lon="2.09406">
        <ele>546</ele>
        <time>2019-03-09T10:34:44.000Z</time>
      </trkpt>
      <trkpt lat="43.4439" lon="2.09392">
        <ele>546.20001220703</ele>
        <time>2019-03-09T10:34:50.000Z</time>
      </trkpt>
      <trkpt lat="43.44385" lon="2.09369">
        <ele>545.59997558594</ele>
        <time>2019-03-09T10:34:59.000Z</time>
      </trkpt>
      <trkpt lat="43.44382" lon="2.09362">
        <ele>545.59997558594</ele>
        <time>2019-03-09T10:35:02.000Z</time>
      </trkpt>
      <trkpt lat="43.44378" lon="2.09349">
        <ele>546</ele>
        <time>2019-03-09T10:35:07.000Z</time>
      </trkpt>
      <trkpt lat="43.44371" lon="2.09326">
        <ele>547</ele>
        <time>2019-03-09T10:35:16.000Z</time>
      </trkpt>
      <trkpt lat="43.44363" lon="2.09309">
        <ele>546.79998779297</ele>
        <time>2019-03-09T10:35:24.000Z</time>
      </trkpt>
      <trkpt lat="43.44358" lon="2.09298">
        <ele>546.59997558594</ele>
        <time>2019-03-09T10:35:29.000Z</time>
      </trkpt>
      <trkpt lat="43.44355" lon="2.0929">
        <ele>546.40002441406</ele>
        <time>2019-03-09T10:35:32.000Z</time>
      </trkpt>
      <trkpt lat="43.44354" lon="2.09288">
        <ele>546.40002441406</ele>
        <time>2019-03-09T10:35:33.000Z</time>
      </trkpt>
      <trkpt lat="43.4434" lon="2.09266">
        <ele>544.59997558594</ele>
        <time>2019-03-09T10:35:42.000Z</time>
      </trkpt>
      <trkpt lat="43.44328" lon="2.09239">
        <ele>541.40002441406</ele>
        <time>2019-03-09T10:35:48.000Z</time>
      </trkpt>
      <trkpt lat="43.44325" lon="2.09232">
        <ele>540.79998779297</ele>
        <time>2019-03-09T10:35:49.000Z</time>
      </trkpt>
      <trkpt lat="43.44317" lon="2.09219">
        <ele>539.79998779297</ele>
        <time>2019-03-09T10:35:51.000Z</time>
      </trkpt>
      <trkpt lat="43.44313" lon="2.09211">
        <ele>539.20001220703</ele>
        <time>2019-03-09T10:35:52.000Z</time>
      </trkpt>
      <trkpt lat="43.44289" lon="2.09164">
        <ele>535</ele>
        <time>2019-03-09T10:35:58.000Z</time>
      </trkpt>
      <trkpt lat="43.44289" lon="2.09139">
        <ele>532.20001220703</ele>
        <time>2019-03-09T10:36:01.000Z</time>
      </trkpt>
      <trkpt lat="43.44298" lon="2.09114">
        <ele>529.79998779297</ele>
        <time>2019-03-09T10:36:05.000Z</time>
      </trkpt>
      <trkpt lat="43.44301" lon="2.09109">
        <ele>529.59997558594</ele>
        <time>2019-03-09T10:36:06.000Z</time>
      </trkpt>
      <trkpt lat="43.44311" lon="2.09083">
        <ele>531</ele>
        <time>2019-03-09T10:36:11.000Z</time>
      </trkpt>
      <trkpt lat="43.44312" lon="2.09076">
        <ele>531</ele>
        <time>2019-03-09T10:36:12.000Z</time>
      </trkpt>
      <trkpt lat="43.4432" lon="2.09058">
        <ele>529</ele>
        <time>2019-03-09T10:36:15.000Z</time>
      </trkpt>
      <trkpt lat="43.44324" lon="2.09052">
        <ele>528.59997558594</ele>
        <time>2019-03-09T10:36:16.000Z</time>
      </trkpt>
      <trkpt lat="43.4433" lon="2.09039">
        <ele>530.40002441406</ele>
        <time>2019-03-09T10:36:18.000Z</time>
      </trkpt>
      <trkpt lat="43.4434" lon="2.09009">
        <ele>534</ele>
        <time>2019-03-09T10:36:22.000Z</time>
      </trkpt>
      <trkpt lat="43.44349" lon="2.08985">
        <ele>535.79998779297</ele>
        <time>2019-03-09T10:36:25.000Z</time>
      </trkpt>
      <trkpt lat="43.44355" lon="2.08968">
        <ele>532.79998779297</ele>
        <time>2019-03-09T10:36:27.000Z</time>
      </trkpt>
      <trkpt lat="43.44373" lon="2.08925">
        <ele>526.40002441406</ele>
        <time>2019-03-09T10:36:32.000Z</time>
      </trkpt>
      <trkpt lat="43.44393" lon="2.08882">
        <ele>520</ele>
        <time>2019-03-09T10:36:37.000Z</time>
      </trkpt>
      <trkpt lat="43.44396" lon="2.08875">
        <ele>518</ele>
        <time>2019-03-09T10:36:38.000Z</time>
      </trkpt>
      <trkpt lat="43.44419" lon="2.08843">
        <ele>516.59997558594</ele>
        <time>2019-03-09T10:36:43.000Z</time>
      </trkpt>
      <trkpt lat="43.44449" lon="2.08805">
        <ele>509.79998779297</ele>
        <time>2019-03-09T10:36:49.000Z</time>
      </trkpt>
      <trkpt lat="43.44484" lon="2.08758">
        <ele>506.20001220703</ele>
        <time>2019-03-09T10:36:56.000Z</time>
      </trkpt>
      <trkpt lat="43.44488" lon="2.08749">
        <ele>507</ele>
        <time>2019-03-09T10:36:57.000Z</time>
      </trkpt>
      <trkpt lat="43.44497" lon="2.08723">
        <ele>505</ele>
        <time>2019-03-09T10:37:00.000Z</time>
      </trkpt>
      <trkpt lat="43.44501" lon="2.08716">
        <ele>505.39999389648</ele>
        <time>2019-03-09T10:37:01.000Z</time>
      </trkpt>
      <trkpt lat="43.44511" lon="2.08705">
        <ele>507.60000610352</ele>
        <time>2019-03-09T10:37:03.000Z</time>
      </trkpt>
      <trkpt lat="43.44531" lon="2.08696">
        <ele>510</ele>
        <time>2019-03-09T10:37:07.000Z</time>
      </trkpt>
      <trkpt lat="43.4454" lon="2.08694">
        <ele>511</ele>
        <time>2019-03-09T10:37:09.000Z</time>
      </trkpt>
      <trkpt lat="43.44548" lon="2.08697">
        <ele>512.59997558594</ele>
        <time>2019-03-09T10:37:11.000Z</time>
      </trkpt>
      <trkpt lat="43.44552" lon="2.087">
        <ele>513.40002441406</ele>
        <time>2019-03-09T10:37:12.000Z</time>
      </trkpt>
      <trkpt lat="43.44557" lon="2.08706">
        <ele>515.20001220703</ele>
        <time>2019-03-09T10:37:14.000Z</time>
      </trkpt>
      <trkpt lat="43.4456" lon="2.08708">
        <ele>516</ele>
        <time>2019-03-09T10:37:15.000Z</time>
      </trkpt>
      <trkpt lat="43.44567" lon="2.08712">
        <ele>517.59997558594</ele>
        <time>2019-03-09T10:37:19.000Z</time>
      </trkpt>
      <trkpt lat="43.44577" lon="2.08719">
        <ele>520.40002441406</ele>
        <time>2019-03-09T10:37:26.000Z</time>
      </trkpt>
      <trkpt lat="43.44582" lon="2.08725">
        <ele>522</ele>
        <time>2019-03-09T10:37:29.000Z</time>
      </trkpt>
      <trkpt lat="43.44584" lon="2.08724">
        <ele>522.40002441406</ele>
        <time>2019-03-09T10:37:30.000Z</time>
      </trkpt>
      <trkpt lat="43.44585" lon="2.08723">
        <ele>522.79998779297</ele>
        <time>2019-03-09T10:37:31.000Z</time>
      </trkpt>
      <trkpt lat="43.44584" lon="2.08717">
        <ele>522.40002441406</ele>
        <time>2019-03-09T10:37:34.000Z</time>
      </trkpt>
      <trkpt lat="43.44577" lon="2.08714">
        <ele>520.59997558594</ele>
        <time>2019-03-09T10:37:37.000Z</time>
      </trkpt>
      <trkpt lat="43.44572" lon="2.08712">
        <ele>519</ele>
        <time>2019-03-09T10:37:39.000Z</time>
      </trkpt>
      <trkpt lat="43.44562" lon="2.08707">
        <ele>516.20001220703</ele>
        <time>2019-03-09T10:37:42.000Z</time>
      </trkpt>
      <trkpt lat="43.44556" lon="2.08702">
        <ele>514.40002441406</ele>
        <time>2019-03-09T10:37:44.000Z</time>
      </trkpt>
      <trkpt lat="43.44546" lon="2.08683">
        <ele>511.20001220703</ele>
        <time>2019-03-09T10:37:50.000Z</time>
      </trkpt>
      <trkpt lat="43.44552" lon="2.08681">
        <ele>513</ele>
        <time>2019-03-09T10:37:53.000Z</time>
      </trkpt>
      <trkpt lat="43.44568" lon="2.08679">
        <ele>518.20001220703</ele>
        <time>2019-03-09T10:37:58.000Z</time>
      </trkpt>
      <trkpt lat="43.44571" lon="2.08677">
        <ele>519</ele>
        <time>2019-03-09T10:38:01.000Z</time>
      </trkpt>
      <trkpt lat="43.44571" lon="2.08676">
        <ele>519</ele>
        <time>2019-03-09T10:38:08.000Z</time>
      </trkpt>
      <trkpt lat="43.44571" lon="2.08676">
        <ele>519</ele>
        <time>2019-03-09T10:38:10.000Z</time>
      </trkpt>
      <trkpt lat="43.44573" lon="2.08671">
        <ele>519.59997558594</ele>
        <time>2019-03-09T10:38:16.000Z</time>
      </trkpt>
      <trkpt lat="43.44573" lon="2.08668">
        <ele>520</ele>
        <time>2019-03-09T10:38:24.000Z</time>
      </trkpt>
      <trkpt lat="43.44573" lon="2.08668">
        <ele>520</ele>
        <time>2019-03-09T10:38:26.000Z</time>
      </trkpt>
      <trkpt lat="43.44572" lon="2.08661">
        <ele>519.59997558594</ele>
        <time>2019-03-09T10:38:32.000Z</time>
      </trkpt>
      <trkpt lat="43.44568" lon="2.08656">
        <ele>517.40002441406</ele>
        <time>2019-03-09T10:38:38.000Z</time>
      </trkpt>
      <trkpt lat="43.44568" lon="2.08655">
        <ele>517.20001220703</ele>
        <time>2019-03-09T10:38:45.000Z</time>
      </trkpt>
      <trkpt lat="43.44569" lon="2.0865">
        <ele>516</ele>
        <time>2019-03-09T10:38:49.000Z</time>
      </trkpt>
      <trkpt lat="43.44568" lon="2.08644">
        <ele>514.20001220703</ele>
        <time>2019-03-09T10:38:54.000Z</time>
      </trkpt>
      <trkpt lat="43.44565" lon="2.08639">
        <ele>512</ele>
        <time>2019-03-09T10:39:03.000Z</time>
      </trkpt>
      <trkpt lat="43.44565" lon="2.08639">
        <ele>512</ele>
        <time>2019-03-09T10:39:04.000Z</time>
      </trkpt>
      <trkpt lat="43.44564" lon="2.08629">
        <ele>509.39999389648</ele>
        <time>2019-03-09T10:39:12.000Z</time>
      </trkpt>
      <trkpt lat="43.44561" lon="2.08621">
        <ele>506.39999389648</ele>
        <time>2019-03-09T10:39:20.000Z</time>
      </trkpt>
      <trkpt lat="43.44559" lon="2.08621">
        <ele>505.60000610352</ele>
        <time>2019-03-09T10:39:24.000Z</time>
      </trkpt>
      <trkpt lat="43.44558" lon="2.08619">
        <ele>504.79998779297</ele>
        <time>2019-03-09T10:39:26.000Z</time>
      </trkpt>
      <trkpt lat="43.44556" lon="2.08615">
        <ele>503.60000610352</ele>
        <time>2019-03-09T10:39:32.000Z</time>
      </trkpt>
      <trkpt lat="43.44557" lon="2.08614">
        <ele>503.79998779297</ele>
        <time>2019-03-09T10:39:34.000Z</time>
      </trkpt>
      <trkpt lat="43.44557" lon="2.08613">
        <ele>504</ele>
        <time>2019-03-09T10:39:38.000Z</time>
      </trkpt>
      <trkpt lat="43.44558" lon="2.08612">
        <ele>504.20001220703</ele>
        <time>2019-03-09T10:39:39.000Z</time>
      </trkpt>
      <trkpt lat="43.44565" lon="2.08603">
        <ele>506.39999389648</ele>
        <time>2019-03-09T10:39:44.000Z</time>
      </trkpt>
      <trkpt lat="43.44573" lon="2.08596">
        <ele>509.20001220703</ele>
        <time>2019-03-09T10:39:48.000Z</time>
      </trkpt>
      <trkpt lat="43.44577" lon="2.08593">
        <ele>510.79998779297</ele>
        <time>2019-03-09T10:39:50.000Z</time>
      </trkpt>
      <trkpt lat="43.44591" lon="2.08582">
        <ele>515.79998779297</ele>
        <time>2019-03-09T10:39:55.000Z</time>
      </trkpt>
      <trkpt lat="43.44594" lon="2.0858">
        <ele>517</ele>
        <time>2019-03-09T10:39:56.000Z</time>
      </trkpt>
      <trkpt lat="43.44606" lon="2.08569">
        <ele>520</ele>
        <time>2019-03-09T10:40:01.000Z</time>
      </trkpt>
      <trkpt lat="43.44609" lon="2.08566">
        <ele>520.20001220703</ele>
        <time>2019-03-09T10:40:03.000Z</time>
      </trkpt>
      <trkpt lat="43.44609" lon="2.08565">
        <ele>520.20001220703</ele>
        <time>2019-03-09T10:40:04.000Z</time>
      </trkpt>
      <trkpt lat="43.44609" lon="2.08565">
        <ele>520.40002441406</ele>
        <time>2019-03-09T10:40:05.000Z</time>
      </trkpt>
      <trkpt lat="43.44609" lon="2.08564">
        <ele>520.40002441406</ele>
        <time>2019-03-09T10:40:10.000Z</time>
      </trkpt>
      <trkpt lat="43.44609" lon="2.08564">
        <ele>520.40002441406</ele>
        <time>2019-03-09T10:40:11.000Z</time>
      </trkpt>
      <trkpt lat="43.44609" lon="2.08564">
        <ele>520.40002441406</ele>
        <time>2019-03-09T10:40:19.000Z</time>
      </trkpt>
      <trkpt lat="43.44609" lon="2.08564">
        <ele>520.40002441406</ele>
        <time>2019-03-09T10:40:28.000Z</time>
      </trkpt>
      <trkpt lat="43.44609" lon="2.08564">
        <ele>520.40002441406</ele>
        <time>2019-03-09T10:40:30.000Z</time>
      </trkpt>
      <trkpt lat="43.44609" lon="2.08564">
        <ele>520.40002441406</ele>
        <time>2019-03-09T10:40:35.000Z</time>
      </trkpt>
      <trkpt lat="43.44609" lon="2.08564">
        <ele>520.40002441406</ele>
        <time>2019-03-09T10:40:42.000Z</time>
      </trkpt>
      <trkpt lat="43.44609" lon="2.08564">
        <ele>520.40002441406</ele>
        <time>2019-03-09T10:40:49.000Z</time>
      </trkpt>
      <trkpt lat="43.44609" lon="2.08565">
        <ele>520.40002441406</ele>
        <time>2019-03-09T10:40:51.000Z</time>
      </trkpt>
      <trkpt lat="43.4461" lon="2.08566">
        <ele>520.40002441406</ele>
        <time>2019-03-09T10:40:55.000Z</time>
      </trkpt>
      <trkpt lat="43.4461" lon="2.08566">
        <ele>520.40002441406</ele>
        <time>2019-03-09T10:40:56.000Z</time>
      </trkpt>
      <trkpt lat="43.44611" lon="2.08564">
        <ele>520.59997558594</ele>
        <time>2019-03-09T10:41:02.000Z</time>
      </trkpt>
      <trkpt lat="43.44611" lon="2.08564">
        <ele>520.59997558594</ele>
        <time>2019-03-09T10:41:08.000Z</time>
      </trkpt>
      <trkpt lat="43.44613" lon="2.08564">
        <ele>520.79998779297</ele>
        <time>2019-03-09T10:41:09.000Z</time>
      </trkpt>
      <trkpt lat="43.44615" lon="2.08563">
        <ele>521.20001220703</ele>
        <time>2019-03-09T10:41:10.000Z</time>
      </trkpt>
      <trkpt lat="43.44618" lon="2.08557">
        <ele>521.59997558594</ele>
        <time>2019-03-09T10:41:12.000Z</time>
      </trkpt>
      <trkpt lat="43.44622" lon="2.08547">
        <ele>522.20001220703</ele>
        <time>2019-03-09T10:41:16.000Z</time>
      </trkpt>
      <trkpt lat="43.44626" lon="2.08547">
        <ele>522.59997558594</ele>
        <time>2019-03-09T10:41:18.000Z</time>
      </trkpt>
      <trkpt lat="43.4463" lon="2.08544">
        <ele>523</ele>
        <time>2019-03-09T10:41:20.000Z</time>
      </trkpt>
      <trkpt lat="43.44636" lon="2.08534">
        <ele>524</ele>
        <time>2019-03-09T10:41:24.000Z</time>
      </trkpt>
      <trkpt lat="43.44638" lon="2.08532">
        <ele>524.20001220703</ele>
        <time>2019-03-09T10:41:25.000Z</time>
      </trkpt>
      <trkpt lat="43.44641" lon="2.08522">
        <ele>523.40002441406</ele>
        <time>2019-03-09T10:41:28.000Z</time>
      </trkpt>
      <trkpt lat="43.44642" lon="2.08517">
        <ele>523</ele>
        <time>2019-03-09T10:41:29.000Z</time>
      </trkpt>
      <trkpt lat="43.4465" lon="2.08492">
        <ele>521</ele>
        <time>2019-03-09T10:41:33.000Z</time>
      </trkpt>
      <trkpt lat="43.44652" lon="2.08485">
        <ele>519.79998779297</ele>
        <time>2019-03-09T10:41:34.000Z</time>
      </trkpt>
      <trkpt lat="43.44654" lon="2.08478">
        <ele>518.59997558594</ele>
        <time>2019-03-09T10:41:35.000Z</time>
      </trkpt>
      <trkpt lat="43.44665" lon="2.08448">
        <ele>513.79998779297</ele>
        <time>2019-03-09T10:41:39.000Z</time>
      </trkpt>
      <trkpt lat="43.4467" lon="2.08437">
        <ele>512.20001220703</ele>
        <time>2019-03-09T10:41:41.000Z</time>
      </trkpt>
      <trkpt lat="43.44675" lon="2.08428">
        <ele>510.79998779297</ele>
        <time>2019-03-09T10:41:43.000Z</time>
      </trkpt>
      <trkpt lat="43.44675" lon="2.08423">
        <ele>510</ele>
        <time>2019-03-09T10:41:44.000Z</time>
      </trkpt>
      <trkpt lat="43.44676" lon="2.08418">
        <ele>509</ele>
        <time>2019-03-09T10:41:45.000Z</time>
      </trkpt>
      <trkpt lat="43.44678" lon="2.08402">
        <ele>506</ele>
        <time>2019-03-09T10:41:48.000Z</time>
      </trkpt>
      <trkpt lat="43.44684" lon="2.08383">
        <ele>501.39999389648</ele>
        <time>2019-03-09T10:41:53.000Z</time>
      </trkpt>
      <trkpt lat="43.44691" lon="2.08364">
        <ele>497</ele>
        <time>2019-03-09T10:41:57.000Z</time>
      </trkpt>
      <trkpt lat="43.44697" lon="2.08356">
        <ele>495.20001220703</ele>
        <time>2019-03-09T10:41:59.000Z</time>
      </trkpt>
      <trkpt lat="43.44701" lon="2.08346">
        <ele>492.79998779297</ele>
        <time>2019-03-09T10:42:01.000Z</time>
      </trkpt>
      <trkpt lat="43.44707" lon="2.08334">
        <ele>491.39999389648</ele>
        <time>2019-03-09T10:42:04.000Z</time>
      </trkpt>
      <trkpt lat="43.4471" lon="2.08326">
        <ele>490.20001220703</ele>
        <time>2019-03-09T10:42:06.000Z</time>
      </trkpt>
      <trkpt lat="43.44719" lon="2.08302">
        <ele>484.60000610352</ele>
        <time>2019-03-09T10:42:11.000Z</time>
      </trkpt>
      <trkpt lat="43.4472" lon="2.08295">
        <ele>483</ele>
        <time>2019-03-09T10:42:12.000Z</time>
      </trkpt>
      <trkpt lat="43.44722" lon="2.08289">
        <ele>481.39999389648</ele>
        <time>2019-03-09T10:42:13.000Z</time>
      </trkpt>
      <trkpt lat="43.44725" lon="2.08278">
        <ele>479.60000610352</ele>
        <time>2019-03-09T10:42:15.000Z</time>
      </trkpt>
      <trkpt lat="43.44727" lon="2.08273">
        <ele>479.20001220703</ele>
        <time>2019-03-09T10:42:16.000Z</time>
      </trkpt>
      <trkpt lat="43.44729" lon="2.08267">
        <ele>479</ele>
        <time>2019-03-09T10:42:17.000Z</time>
      </trkpt>
      <trkpt lat="43.44742" lon="2.08252">
        <ele>479.60000610352</ele>
        <time>2019-03-09T10:42:21.000Z</time>
      </trkpt>
      <trkpt lat="43.44748" lon="2.08244">
        <ele>479.79998779297</ele>
        <time>2019-03-09T10:42:23.000Z</time>
      </trkpt>
      <trkpt lat="43.44754" lon="2.08235">
        <ele>479.60000610352</ele>
        <time>2019-03-09T10:42:25.000Z</time>
      </trkpt>
      <trkpt lat="43.44766" lon="2.08224">
        <ele>480</ele>
        <time>2019-03-09T10:42:29.000Z</time>
      </trkpt>
      <trkpt lat="43.4477" lon="2.08219">
        <ele>478</ele>
        <time>2019-03-09T10:42:31.000Z</time>
      </trkpt>
      <trkpt lat="43.44773" lon="2.08209">
        <ele>475.39999389648</ele>
        <time>2019-03-09T10:42:34.000Z</time>
      </trkpt>
      <trkpt lat="43.44775" lon="2.08202">
        <ele>473.60000610352</ele>
        <time>2019-03-09T10:42:36.000Z</time>
      </trkpt>
      <trkpt lat="43.44779" lon="2.08195">
        <ele>471.60000610352</ele>
        <time>2019-03-09T10:42:39.000Z</time>
      </trkpt>
      <trkpt lat="43.44783" lon="2.08188">
        <ele>469</ele>
        <time>2019-03-09T10:42:43.000Z</time>
      </trkpt>
      <trkpt lat="43.44783" lon="2.08185">
        <ele>468.39999389648</ele>
        <time>2019-03-09T10:42:45.000Z</time>
      </trkpt>
      <trkpt lat="43.44784" lon="2.08183">
        <ele>467.79998779297</ele>
        <time>2019-03-09T10:42:49.000Z</time>
      </trkpt>
      <trkpt lat="43.44787" lon="2.08184">
        <ele>467.39999389648</ele>
        <time>2019-03-09T10:42:55.000Z</time>
      </trkpt>
      <trkpt lat="43.44789" lon="2.08187">
        <ele>467.39999389648</ele>
        <time>2019-03-09T10:43:02.000Z</time>
      </trkpt>
      <trkpt lat="43.44789" lon="2.08189">
        <ele>467.79998779297</ele>
        <time>2019-03-09T10:43:06.000Z</time>
      </trkpt>
      <trkpt lat="43.44789" lon="2.08188">
        <ele>467.79998779297</ele>
        <time>2019-03-09T10:43:07.000Z</time>
      </trkpt>
      <trkpt lat="43.44788" lon="2.08189">
        <ele>468.20001220703</ele>
        <time>2019-03-09T10:43:14.000Z</time>
      </trkpt>
      <trkpt lat="43.44788" lon="2.08189">
        <ele>468.20001220703</ele>
        <time>2019-03-09T10:43:16.000Z</time>
      </trkpt>
      <trkpt lat="43.44788" lon="2.08186">
        <ele>467.60000610352</ele>
        <time>2019-03-09T10:43:24.000Z</time>
      </trkpt>
      <trkpt lat="43.44787" lon="2.08184">
        <ele>467.39999389648</ele>
        <time>2019-03-09T10:43:25.000Z</time>
      </trkpt>
      <trkpt lat="43.44789" lon="2.0818">
        <ele>466.39999389648</ele>
        <time>2019-03-09T10:43:28.000Z</time>
      </trkpt>
      <trkpt lat="43.4479" lon="2.08175">
        <ele>466</ele>
        <time>2019-03-09T10:43:29.000Z</time>
      </trkpt>
      <trkpt lat="43.44795" lon="2.08165">
        <ele>465</ele>
        <time>2019-03-09T10:43:32.000Z</time>
      </trkpt>
      <trkpt lat="43.44799" lon="2.08159">
        <ele>463.79998779297</ele>
        <time>2019-03-09T10:43:34.000Z</time>
      </trkpt>
      <trkpt lat="43.44802" lon="2.08147">
        <ele>460.39999389648</ele>
        <time>2019-03-09T10:43:36.000Z</time>
      </trkpt>
      <trkpt lat="43.44805" lon="2.08135">
        <ele>456.79998779297</ele>
        <time>2019-03-09T10:43:38.000Z</time>
      </trkpt>
      <trkpt lat="43.44808" lon="2.08126">
        <ele>454</ele>
        <time>2019-03-09T10:43:40.000Z</time>
      </trkpt>
      <trkpt lat="43.44811" lon="2.08117">
        <ele>452.20001220703</ele>
        <time>2019-03-09T10:43:42.000Z</time>
      </trkpt>
      <trkpt lat="43.44825" lon="2.08095">
        <ele>451</ele>
        <time>2019-03-09T10:43:47.000Z</time>
      </trkpt>
      <trkpt lat="43.44828" lon="2.08089">
        <ele>450.60000610352</ele>
        <time>2019-03-09T10:43:48.000Z</time>
      </trkpt>
      <trkpt lat="43.44837" lon="2.08065">
        <ele>446.39999389648</ele>
        <time>2019-03-09T10:43:52.000Z</time>
      </trkpt>
      <trkpt lat="43.44846" lon="2.08051">
        <ele>446</ele>
        <time>2019-03-09T10:43:54.000Z</time>
      </trkpt>
      <trkpt lat="43.44854" lon="2.08044">
        <ele>444.20001220703</ele>
        <time>2019-03-09T10:43:56.000Z</time>
      </trkpt>
      <trkpt lat="43.44865" lon="2.08024">
        <ele>438</ele>
        <time>2019-03-09T10:44:00.000Z</time>
      </trkpt>
      <trkpt lat="43.4487" lon="2.08011">
        <ele>434.79998779297</ele>
        <time>2019-03-09T10:44:02.000Z</time>
      </trkpt>
      <trkpt lat="43.44873" lon="2.08006">
        <ele>435</ele>
        <time>2019-03-09T10:44:03.000Z</time>
      </trkpt>
      <trkpt lat="43.44876" lon="2.08001">
        <ele>435.20001220703</ele>
        <time>2019-03-09T10:44:04.000Z</time>
      </trkpt>
      <trkpt lat="43.44901" lon="2.07981">
        <ele>431.39999389648</ele>
        <time>2019-03-09T10:44:08.000Z</time>
      </trkpt>
      <trkpt lat="43.44909" lon="2.0797">
        <ele>428.39999389648</ele>
        <time>2019-03-09T10:44:10.000Z</time>
      </trkpt>
      <trkpt lat="43.4492" lon="2.07949">
        <ele>428.60000610352</ele>
        <time>2019-03-09T10:44:13.000Z</time>
      </trkpt>
      <trkpt lat="43.44924" lon="2.07943">
        <ele>428.79998779297</ele>
        <time>2019-03-09T10:44:14.000Z</time>
      </trkpt>
      <trkpt lat="43.44934" lon="2.07924">
        <ele>428.60000610352</ele>
        <time>2019-03-09T10:44:17.000Z</time>
      </trkpt>
      <trkpt lat="43.44941" lon="2.07914">
        <ele>426</ele>
        <time>2019-03-09T10:44:19.000Z</time>
      </trkpt>
      <trkpt lat="43.44952" lon="2.07907">
        <ele>423.79998779297</ele>
        <time>2019-03-09T10:44:23.000Z</time>
      </trkpt>
      <trkpt lat="43.44955" lon="2.07907">
        <ele>423.39999389648</ele>
        <time>2019-03-09T10:44:24.000Z</time>
      </trkpt>
      <trkpt lat="43.44956" lon="2.07899">
        <ele>421.79998779297</ele>
        <time>2019-03-09T10:44:27.000Z</time>
      </trkpt>
      <trkpt lat="43.44961" lon="2.07895">
        <ele>420.60000610352</ele>
        <time>2019-03-09T10:44:29.000Z</time>
      </trkpt>
      <trkpt lat="43.44965" lon="2.07888">
        <ele>418.60000610352</ele>
        <time>2019-03-09T10:44:31.000Z</time>
      </trkpt>
      <trkpt lat="43.44969" lon="2.0788">
        <ele>416.79998779297</ele>
        <time>2019-03-09T10:44:33.000Z</time>
      </trkpt>
      <trkpt lat="43.44974" lon="2.07873">
        <ele>414.79998779297</ele>
        <time>2019-03-09T10:44:34.000Z</time>
      </trkpt>
      <trkpt lat="43.44978" lon="2.07865">
        <ele>414</ele>
        <time>2019-03-09T10:44:35.000Z</time>
      </trkpt>
      <trkpt lat="43.44987" lon="2.07849">
        <ele>413.79998779297</ele>
        <time>2019-03-09T10:44:37.000Z</time>
      </trkpt>
      <trkpt lat="43.44998" lon="2.07837">
        <ele>413.60000610352</ele>
        <time>2019-03-09T10:44:39.000Z</time>
      </trkpt>
      <trkpt lat="43.45007" lon="2.07826">
        <ele>413.20001220703</ele>
        <time>2019-03-09T10:44:42.000Z</time>
      </trkpt>
      <trkpt lat="43.45011" lon="2.07826">
        <ele>413</ele>
        <time>2019-03-09T10:44:44.000Z</time>
      </trkpt>
      <trkpt lat="43.45011" lon="2.07826">
        <ele>413.20001220703</ele>
        <time>2019-03-09T10:44:45.000Z</time>
      </trkpt>
      <trkpt lat="43.45015" lon="2.07825">
        <ele>412.79998779297</ele>
        <time>2019-03-09T10:44:50.000Z</time>
      </trkpt>
      <trkpt lat="43.45016" lon="2.07824">
        <ele>412.60000610352</ele>
        <time>2019-03-09T10:44:52.000Z</time>
      </trkpt>
      <trkpt lat="43.45017" lon="2.07821">
        <ele>411.60000610352</ele>
        <time>2019-03-09T10:44:58.000Z</time>
      </trkpt>
      <trkpt lat="43.45017" lon="2.07821">
        <ele>411.60000610352</ele>
        <time>2019-03-09T10:45:03.000Z</time>
      </trkpt>
      <trkpt lat="43.45017" lon="2.07819">
        <ele>411.39999389648</ele>
        <time>2019-03-09T10:45:06.000Z</time>
      </trkpt>
      <trkpt lat="43.45017" lon="2.07818">
        <ele>411.20001220703</ele>
        <time>2019-03-09T10:45:09.000Z</time>
      </trkpt>
      <trkpt lat="43.45017" lon="2.07817">
        <ele>411</ele>
        <time>2019-03-09T10:45:12.000Z</time>
      </trkpt>
      <trkpt lat="43.45017" lon="2.07817">
        <ele>411</ele>
        <time>2019-03-09T10:45:15.000Z</time>
      </trkpt>
      <trkpt lat="43.45017" lon="2.07816">
        <ele>410.79998779297</ele>
        <time>2019-03-09T10:45:17.000Z</time>
      </trkpt>
      <trkpt lat="43.45018" lon="2.07808">
        <ele>409</ele>
        <time>2019-03-09T10:45:19.000Z</time>
      </trkpt>
      <trkpt lat="43.45026" lon="2.07794">
        <ele>404.60000610352</ele>
        <time>2019-03-09T10:45:23.000Z</time>
      </trkpt>
      <trkpt lat="43.4503" lon="2.07792">
        <ele>403.20001220703</ele>
        <time>2019-03-09T10:45:24.000Z</time>
      </trkpt>
      <trkpt lat="43.45038" lon="2.07782">
        <ele>399.39999389648</ele>
        <time>2019-03-09T10:45:27.000Z</time>
      </trkpt>
      <trkpt lat="43.45043" lon="2.07775">
        <ele>397</ele>
        <time>2019-03-09T10:45:30.000Z</time>
      </trkpt>
      <trkpt lat="43.45045" lon="2.0777">
        <ele>395.79998779297</ele>
        <time>2019-03-09T10:45:31.000Z</time>
      </trkpt>
      <trkpt lat="43.45058" lon="2.07761">
        <ele>393.79998779297</ele>
        <time>2019-03-09T10:45:36.000Z</time>
      </trkpt>
      <trkpt lat="43.45063" lon="2.07759">
        <ele>393</ele>
        <time>2019-03-09T10:45:38.000Z</time>
      </trkpt>
      <trkpt lat="43.45068" lon="2.07759">
        <ele>392.60000610352</ele>
        <time>2019-03-09T10:45:40.000Z</time>
      </trkpt>
      <trkpt lat="43.45073" lon="2.07756">
        <ele>391.79998779297</ele>
        <time>2019-03-09T10:45:43.000Z</time>
      </trkpt>
      <trkpt lat="43.45073" lon="2.07753">
        <ele>391.60000610352</ele>
        <time>2019-03-09T10:45:45.000Z</time>
      </trkpt>
      <trkpt lat="43.45072" lon="2.0775">
        <ele>391.39999389648</ele>
        <time>2019-03-09T10:45:46.000Z</time>
      </trkpt>
      <trkpt lat="43.45069" lon="2.0774">
        <ele>390.39999389648</ele>
        <time>2019-03-09T10:45:50.000Z</time>
      </trkpt>
      <trkpt lat="43.45068" lon="2.07739">
        <ele>390.20001220703</ele>
        <time>2019-03-09T10:45:51.000Z</time>
      </trkpt>
      <trkpt lat="43.45065" lon="2.07737">
        <ele>390</ele>
        <time>2019-03-09T10:45:53.000Z</time>
      </trkpt>
      <trkpt lat="43.45062" lon="2.07732">
        <ele>388.79998779297</ele>
        <time>2019-03-09T10:45:54.000Z</time>
      </trkpt>
      <trkpt lat="43.45052" lon="2.07714">
        <ele>385.20001220703</ele>
        <time>2019-03-09T10:45:58.000Z</time>
      </trkpt>
      <trkpt lat="43.4505" lon="2.07711">
        <ele>384.39999389648</ele>
        <time>2019-03-09T10:45:59.000Z</time>
      </trkpt>
      <trkpt lat="43.45039" lon="2.07685">
        <ele>378.39999389648</ele>
        <time>2019-03-09T10:46:04.000Z</time>
      </trkpt>
      <trkpt lat="43.4504" lon="2.07672">
        <ele>375.79998779297</ele>
        <time>2019-03-09T10:46:06.000Z</time>
      </trkpt>
      <trkpt lat="43.45041" lon="2.07665">
        <ele>374.60000610352</ele>
        <time>2019-03-09T10:46:07.000Z</time>
      </trkpt>
      <trkpt lat="43.45039" lon="2.07651">
        <ele>371.39999389648</ele>
        <time>2019-03-09T10:46:09.000Z</time>
      </trkpt>
      <trkpt lat="43.45042" lon="2.07647">
        <ele>370.39999389648</ele>
        <time>2019-03-09T10:46:10.000Z</time>
      </trkpt>
      <trkpt lat="43.45045" lon="2.07644">
        <ele>369.20001220703</ele>
        <time>2019-03-09T10:46:11.000Z</time>
      </trkpt>
      <trkpt lat="43.4505" lon="2.07631">
        <ele>365.79998779297</ele>
        <time>2019-03-09T10:46:14.000Z</time>
      </trkpt>
      <trkpt lat="43.45052" lon="2.07627">
        <ele>364.60000610352</ele>
        <time>2019-03-09T10:46:15.000Z</time>
      </trkpt>
      <trkpt lat="43.45057" lon="2.07611">
        <ele>360.60000610352</ele>
        <time>2019-03-09T10:46:19.000Z</time>
      </trkpt>
      <trkpt lat="43.45063" lon="2.07598">
        <ele>358.79998779297</ele>
        <time>2019-03-09T10:46:22.000Z</time>
      </trkpt>
      <trkpt lat="43.45071" lon="2.07578">
        <ele>356</ele>
        <time>2019-03-09T10:46:26.000Z</time>
      </trkpt>
      <trkpt lat="43.45075" lon="2.07553">
        <ele>350.79998779297</ele>
        <time>2019-03-09T10:46:30.000Z</time>
      </trkpt>
      <trkpt lat="43.45077" lon="2.0754">
        <ele>348.79998779297</ele>
        <time>2019-03-09T10:46:32.000Z</time>
      </trkpt>
      <trkpt lat="43.4508" lon="2.07534">
        <ele>348.20001220703</ele>
        <time>2019-03-09T10:46:33.000Z</time>
      </trkpt>
      <trkpt lat="43.45088" lon="2.0753">
        <ele>348.39999389648</ele>
        <time>2019-03-09T10:46:35.000Z</time>
      </trkpt>
      <trkpt lat="43.45105" lon="2.07524">
        <ele>347.60000610352</ele>
        <time>2019-03-09T10:46:39.000Z</time>
      </trkpt>
      <trkpt lat="43.45109" lon="2.07523">
        <ele>346.60000610352</ele>
        <time>2019-03-09T10:46:40.000Z</time>
      </trkpt>
      <trkpt lat="43.45114" lon="2.07522">
        <ele>345.79998779297</ele>
        <time>2019-03-09T10:46:41.000Z</time>
      </trkpt>
      <trkpt lat="43.45121" lon="2.07521">
        <ele>344.39999389648</ele>
        <time>2019-03-09T10:46:43.000Z</time>
      </trkpt>
      <trkpt lat="43.45123" lon="2.0752">
        <ele>344</ele>
        <time>2019-03-09T10:46:44.000Z</time>
      </trkpt>
      <trkpt lat="43.45126" lon="2.07521">
        <ele>343.60000610352</ele>
        <time>2019-03-09T10:46:48.000Z</time>
      </trkpt>
      <trkpt lat="43.45126" lon="2.07521">
        <ele>343.60000610352</ele>
        <time>2019-03-09T10:46:53.000Z</time>
      </trkpt>
      <trkpt lat="43.45126" lon="2.07521">
        <ele>343.60000610352</ele>
        <time>2019-03-09T10:46:56.000Z</time>
      </trkpt>
      <trkpt lat="43.45133" lon="2.0752">
        <ele>342.79998779297</ele>
        <time>2019-03-09T10:47:03.000Z</time>
      </trkpt>
      <trkpt lat="43.45137" lon="2.07519">
        <ele>342.39999389648</ele>
        <time>2019-03-09T10:47:04.000Z</time>
      </trkpt>
      <trkpt lat="43.4515" lon="2.07515">
        <ele>340.79998779297</ele>
        <time>2019-03-09T10:47:07.000Z</time>
      </trkpt>
      <trkpt lat="43.45155" lon="2.07514">
        <ele>340.39999389648</ele>
        <time>2019-03-09T10:47:08.000Z</time>
      </trkpt>
      <trkpt lat="43.4517" lon="2.07508">
        <ele>338.60000610352</ele>
        <time>2019-03-09T10:47:11.000Z</time>
      </trkpt>
      <trkpt lat="43.45174" lon="2.07505">
        <ele>337.79998779297</ele>
        <time>2019-03-09T10:47:12.000Z</time>
      </trkpt>
      <trkpt lat="43.45182" lon="2.07499">
        <ele>336.60000610352</ele>
        <time>2019-03-09T10:47:14.000Z</time>
      </trkpt>
      <trkpt lat="43.45187" lon="2.07495">
        <ele>335.79998779297</ele>
        <time>2019-03-09T10:47:15.000Z</time>
      </trkpt>
      <trkpt lat="43.45204" lon="2.07483">
        <ele>331</ele>
        <time>2019-03-09T10:47:19.000Z</time>
      </trkpt>
      <trkpt lat="43.45208" lon="2.07481">
        <ele>330</ele>
        <time>2019-03-09T10:47:20.000Z</time>
      </trkpt>
      <trkpt lat="43.45215" lon="2.07474">
        <ele>327.79998779297</ele>
        <time>2019-03-09T10:47:23.000Z</time>
      </trkpt>
      <trkpt lat="43.4522" lon="2.07469">
        <ele>326</ele>
        <time>2019-03-09T10:47:25.000Z</time>
      </trkpt>
      <trkpt lat="43.45224" lon="2.07466">
        <ele>325</ele>
        <time>2019-03-09T10:47:26.000Z</time>
      </trkpt>
      <trkpt lat="43.4523" lon="2.07458">
        <ele>322.60000610352</ele>
        <time>2019-03-09T10:47:28.000Z</time>
      </trkpt>
      <trkpt lat="43.4524" lon="2.07443">
        <ele>320.39999389648</ele>
        <time>2019-03-09T10:47:31.000Z</time>
      </trkpt>
      <trkpt lat="43.45243" lon="2.07438">
        <ele>319.60000610352</ele>
        <time>2019-03-09T10:47:32.000Z</time>
      </trkpt>
      <trkpt lat="43.45252" lon="2.07426">
        <ele>317.79998779297</ele>
        <time>2019-03-09T10:47:34.000Z</time>
      </trkpt>
      <trkpt lat="43.45255" lon="2.07419">
        <ele>316.79998779297</ele>
        <time>2019-03-09T10:47:35.000Z</time>
      </trkpt>
      <trkpt lat="43.45265" lon="2.074">
        <ele>313.39999389648</ele>
        <time>2019-03-09T10:47:38.000Z</time>
      </trkpt>
      <trkpt lat="43.45267" lon="2.07392">
        <ele>312.20001220703</ele>
        <time>2019-03-09T10:47:39.000Z</time>
      </trkpt>
      <trkpt lat="43.45275" lon="2.07375">
        <ele>308.60000610352</ele>
        <time>2019-03-09T10:47:42.000Z</time>
      </trkpt>
      <trkpt lat="43.45277" lon="2.07366">
        <ele>307</ele>
        <time>2019-03-09T10:47:44.000Z</time>
      </trkpt>
      <trkpt lat="43.45271" lon="2.0735">
        <ele>305.20001220703</ele>
        <time>2019-03-09T10:47:48.000Z</time>
      </trkpt>
      <trkpt lat="43.45268" lon="2.07345">
        <ele>304.79998779297</ele>
        <time>2019-03-09T10:47:49.000Z</time>
      </trkpt>
      <trkpt lat="43.45257" lon="2.07329">
        <ele>302.60000610352</ele>
        <time>2019-03-09T10:47:52.000Z</time>
      </trkpt>
      <trkpt lat="43.45255" lon="2.07324">
        <ele>302</ele>
        <time>2019-03-09T10:47:53.000Z</time>
      </trkpt>
      <trkpt lat="43.45254" lon="2.07318">
        <ele>301.60000610352</ele>
        <time>2019-03-09T10:47:54.000Z</time>
      </trkpt>
      <trkpt lat="43.45254" lon="2.07303">
        <ele>300.20001220703</ele>
        <time>2019-03-09T10:47:56.000Z</time>
      </trkpt>
      <trkpt lat="43.45263" lon="2.07277">
        <ele>296.79998779297</ele>
        <time>2019-03-09T10:48:00.000Z</time>
      </trkpt>
      <trkpt lat="43.45256" lon="2.07267">
        <ele>296</ele>
        <time>2019-03-09T10:48:03.000Z</time>
      </trkpt>
      <trkpt lat="43.45253" lon="2.07267">
        <ele>296.20001220703</ele>
        <time>2019-03-09T10:48:06.000Z</time>
      </trkpt>
      <trkpt lat="43.45253" lon="2.07267">
        <ele>296.20001220703</ele>
        <time>2019-03-09T10:48:11.000Z</time>
      </trkpt>
      <trkpt lat="43.45253" lon="2.07267">
        <ele>296.20001220703</ele>
        <time>2019-03-09T10:48:12.000Z</time>
      </trkpt>
    </trkseg>
  </trk>
</gpx>